﻿<?xml version="1.0" encoding="UTF-8" standalone="no"?>
<gpx xmlns="http://www.topografix.com/GPX/1/1" xmlns:gpxtpx="http://www.garmin.com/xmlschemas/TrackPointExtension/v1" xmlns:xsi="http://www.w3.org/2001/XMLSchema-instance" creator="Hribi.net" version="1.1" xsi:schemaLocation="http://www.topografix.com/GPX/1/1 http://www.topografix.com/GPX/1/1/gpx.xsd http://www.garmin.com/xmlschemas/TrackPointExtension/v1 http://www.garmin.com/xmlschemas/TrackPointExtensionv1.xsd">
  <metadata>
    <name>GPS sled</name>
    <desc>www.hribi.net</desc>
    <author>
      <name>hribi.net</name>
    </author>
    <link href="http://www.hribi.net">
      <text>Hribi.net</text>
    </link>
  </metadata>
  <trk>
    <trkseg>
      <trkpt lat="46.431428" lon="14.257411">
        <ele>1102.7664</ele>
        <time>2016-08-04T05:14:49Z</time>
      </trkpt>
      <trkpt lat="46.431425" lon="14.257410">
        <ele>1103.0712</ele>
        <time>2016-08-04T05:14:50Z</time>
      </trkpt>
      <trkpt lat="46.431418" lon="14.257407">
        <ele>1104.9</ele>
        <time>2016-08-04T05:14:50Z</time>
      </trkpt>
      <trkpt lat="46.431409" lon="14.257383">
        <ele>1106.424</ele>
        <time>2016-08-04T05:14:53Z</time>
      </trkpt>
      <trkpt lat="46.431404" lon="14.257325">
        <ele>1106.7288</ele>
        <time>2016-08-04T05:14:58Z</time>
      </trkpt>
      <trkpt lat="46.431392" lon="14.257278">
        <ele>1107.3384</ele>
        <time>2016-08-04T05:15:05Z</time>
      </trkpt>
      <trkpt lat="46.431392" lon="14.257270">
        <ele>1107.3384</ele>
        <time>2016-08-04T05:15:05Z</time>
      </trkpt>
      <trkpt lat="46.431368" lon="14.257089">
        <ele>1108.2528</ele>
        <time>2016-08-04T05:15:18Z</time>
      </trkpt>
      <trkpt lat="46.431369" lon="14.256994">
        <ele>1109.472</ele>
        <time>2016-08-04T05:15:24Z</time>
      </trkpt>
      <trkpt lat="46.431362" lon="14.256914">
        <ele>1110.6912</ele>
        <time>2016-08-04T05:15:29Z</time>
      </trkpt>
      <trkpt lat="46.431360" lon="14.256902">
        <ele>1110.996</ele>
        <time>2016-08-04T05:15:32Z</time>
      </trkpt>
      <trkpt lat="46.431354" lon="14.256843">
        <ele>1111.9104</ele>
        <time>2016-08-04T05:15:36Z</time>
      </trkpt>
      <trkpt lat="46.431351" lon="14.256780">
        <ele>1113.1296</ele>
        <time>2016-08-04T05:15:43Z</time>
      </trkpt>
      <trkpt lat="46.431337" lon="14.256718">
        <ele>1114.044</ele>
        <time>2016-08-04T05:15:48Z</time>
      </trkpt>
      <trkpt lat="46.431330" lon="14.256666">
        <ele>1114.6536</ele>
        <time>2016-08-04T05:15:52Z</time>
      </trkpt>
      <trkpt lat="46.431327" lon="14.256651">
        <ele>1115.2632</ele>
        <time>2016-08-04T05:15:54Z</time>
      </trkpt>
      <trkpt lat="46.431296" lon="14.256606">
        <ele>1116.4824</ele>
        <time>2016-08-04T05:15:59Z</time>
      </trkpt>
      <trkpt lat="46.431263" lon="14.256561">
        <ele>1117.7016</ele>
        <time>2016-08-04T05:16:06Z</time>
      </trkpt>
      <trkpt lat="46.431276" lon="14.256509">
        <ele>1118.3112</ele>
        <time>2016-08-04T05:16:11Z</time>
      </trkpt>
      <trkpt lat="46.431280" lon="14.256504">
        <ele>1118.9208</ele>
        <time>2016-08-04T05:16:12Z</time>
      </trkpt>
      <trkpt lat="46.431289" lon="14.256453">
        <ele>1119.8352</ele>
        <time>2016-08-04T05:16:19Z</time>
      </trkpt>
      <trkpt lat="46.431299" lon="14.256418">
        <ele>1120.7496</ele>
        <time>2016-08-04T05:16:22Z</time>
      </trkpt>
      <trkpt lat="46.431299" lon="14.256400">
        <ele>1120.7496</ele>
        <time>2016-08-04T05:16:22Z</time>
      </trkpt>
      <trkpt lat="46.431303" lon="14.256348">
        <ele>1121.3592</ele>
        <time>2016-08-04T05:16:26Z</time>
      </trkpt>
      <trkpt lat="46.431301" lon="14.256315">
        <ele>1121.9688</ele>
        <time>2016-08-04T05:16:29Z</time>
      </trkpt>
      <trkpt lat="46.431288" lon="14.256296">
        <ele>1122.2736</ele>
        <time>2016-08-04T05:16:30Z</time>
      </trkpt>
      <trkpt lat="46.431280" lon="14.256258">
        <ele>1122.8832</ele>
        <time>2016-08-04T05:16:34Z</time>
      </trkpt>
      <trkpt lat="46.431277" lon="14.256241">
        <ele>1123.188</ele>
        <time>2016-08-04T05:16:35Z</time>
      </trkpt>
      <trkpt lat="46.431278" lon="14.256229">
        <ele>1123.4928</ele>
        <time>2016-08-04T05:16:37Z</time>
      </trkpt>
      <trkpt lat="46.431274" lon="14.256215">
        <ele>1123.4928</ele>
        <time>2016-08-04T05:16:38Z</time>
      </trkpt>
      <trkpt lat="46.431277" lon="14.256194">
        <ele>1123.7976</ele>
        <time>2016-08-04T05:16:38Z</time>
      </trkpt>
      <trkpt lat="46.431272" lon="14.256146">
        <ele>1124.1024</ele>
        <time>2016-08-04T05:16:42Z</time>
      </trkpt>
      <trkpt lat="46.431273" lon="14.256134">
        <ele>1124.4072</ele>
        <time>2016-08-04T05:16:42Z</time>
      </trkpt>
      <trkpt lat="46.431271" lon="14.256043">
        <ele>1125.3216</ele>
        <time>2016-08-04T05:16:49Z</time>
      </trkpt>
      <trkpt lat="46.431270" lon="14.255948">
        <ele>1126.236</ele>
        <time>2016-08-04T05:16:54Z</time>
      </trkpt>
      <trkpt lat="46.431279" lon="14.255919">
        <ele>1126.5408</ele>
        <time>2016-08-04T05:16:57Z</time>
      </trkpt>
      <trkpt lat="46.431309" lon="14.255867">
        <ele>1127.1504</ele>
        <time>2016-08-04T05:17:01Z</time>
      </trkpt>
      <trkpt lat="46.431315" lon="14.255825">
        <ele>1127.4552</ele>
        <time>2016-08-04T05:17:04Z</time>
      </trkpt>
      <trkpt lat="46.431308" lon="14.255772">
        <ele>1128.3696</ele>
        <time>2016-08-04T05:17:09Z</time>
      </trkpt>
      <trkpt lat="46.431307" lon="14.255763">
        <ele>1128.3696</ele>
        <time>2016-08-04T05:17:09Z</time>
      </trkpt>
      <trkpt lat="46.431298" lon="14.255740">
        <ele>1128.6744</ele>
        <time>2016-08-04T05:17:12Z</time>
      </trkpt>
      <trkpt lat="46.431288" lon="14.255692">
        <ele>1129.284</ele>
        <time>2016-08-04T05:17:16Z</time>
      </trkpt>
      <trkpt lat="46.431267" lon="14.255625">
        <ele>1129.8936</ele>
        <time>2016-08-04T05:17:21Z</time>
      </trkpt>
      <trkpt lat="46.431268" lon="14.255495">
        <ele>1130.808</ele>
        <time>2016-08-04T05:17:29Z</time>
      </trkpt>
      <trkpt lat="46.431283" lon="14.255382">
        <ele>1132.0272</ele>
        <time>2016-08-04T05:17:38Z</time>
      </trkpt>
      <trkpt lat="46.431248" lon="14.255317">
        <ele>1132.9416</ele>
        <time>2016-08-04T05:17:43Z</time>
      </trkpt>
      <trkpt lat="46.431190" lon="14.255264">
        <ele>1134.1608</ele>
        <time>2016-08-04T05:17:51Z</time>
      </trkpt>
      <trkpt lat="46.431134" lon="14.255232">
        <ele>1135.38</ele>
        <time>2016-08-04T05:17:56Z</time>
      </trkpt>
      <trkpt lat="46.431082" lon="14.255214">
        <ele>1136.5992</ele>
        <time>2016-08-04T05:18:03Z</time>
      </trkpt>
      <trkpt lat="46.431039" lon="14.255112">
        <ele>1137.5136</ele>
        <time>2016-08-04T05:18:10Z</time>
      </trkpt>
      <trkpt lat="46.431009" lon="14.255005">
        <ele>1138.7328</ele>
        <time>2016-08-04T05:18:17Z</time>
      </trkpt>
      <trkpt lat="46.430999" lon="14.254839">
        <ele>1139.6472</ele>
        <time>2016-08-04T05:18:27Z</time>
      </trkpt>
      <trkpt lat="46.431012" lon="14.254776">
        <ele>1140.8664</ele>
        <time>2016-08-04T05:18:33Z</time>
      </trkpt>
      <trkpt lat="46.431086" lon="14.254674">
        <ele>1141.1712</ele>
        <time>2016-08-04T05:18:40Z</time>
      </trkpt>
      <trkpt lat="46.431114" lon="14.254635">
        <ele>1142.0856</ele>
        <time>2016-08-04T05:18:42Z</time>
      </trkpt>
      <trkpt lat="46.431138" lon="14.254617">
        <ele>1142.3904</ele>
        <time>2016-08-04T05:18:45Z</time>
      </trkpt>
      <trkpt lat="46.431146" lon="14.254605">
        <ele>1142.3904</ele>
        <time>2016-08-04T05:18:46Z</time>
      </trkpt>
      <trkpt lat="46.431173" lon="14.254547">
        <ele>1143</ele>
        <time>2016-08-04T05:18:53Z</time>
      </trkpt>
      <trkpt lat="46.431193" lon="14.254495">
        <ele>1143.9144</ele>
        <time>2016-08-04T05:18:57Z</time>
      </trkpt>
      <trkpt lat="46.431193" lon="14.254469">
        <ele>1144.2192</ele>
        <time>2016-08-04T05:19:00Z</time>
      </trkpt>
      <trkpt lat="46.431197" lon="14.254427">
        <ele>1144.524</ele>
        <time>2016-08-04T05:19:03Z</time>
      </trkpt>
      <trkpt lat="46.431214" lon="14.254361">
        <ele>1145.1336</ele>
        <time>2016-08-04T05:19:07Z</time>
      </trkpt>
      <trkpt lat="46.431222" lon="14.254332">
        <ele>1145.7432</ele>
        <time>2016-08-04T05:19:08Z</time>
      </trkpt>
      <trkpt lat="46.431250" lon="14.254273">
        <ele>1146.048</ele>
        <time>2016-08-04T05:19:12Z</time>
      </trkpt>
      <trkpt lat="46.431301" lon="14.254105">
        <ele>1147.2672</ele>
        <time>2016-08-04T05:19:21Z</time>
      </trkpt>
      <trkpt lat="46.431305" lon="14.254042">
        <ele>1148.4864</ele>
        <time>2016-08-04T05:19:28Z</time>
      </trkpt>
      <trkpt lat="46.431353" lon="14.253911">
        <ele>1149.4008</ele>
        <time>2016-08-04T05:19:38Z</time>
      </trkpt>
      <trkpt lat="46.431393" lon="14.253841">
        <ele>1150.62</ele>
        <time>2016-08-04T05:19:44Z</time>
      </trkpt>
      <trkpt lat="46.431416" lon="14.253762">
        <ele>1151.5344</ele>
        <time>2016-08-04T05:19:51Z</time>
      </trkpt>
      <trkpt lat="46.431413" lon="14.253739">
        <ele>1151.8392</ele>
        <time>2016-08-04T05:19:54Z</time>
      </trkpt>
      <trkpt lat="46.431419" lon="14.253656">
        <ele>1152.4488</ele>
        <time>2016-08-04T05:20:01Z</time>
      </trkpt>
      <trkpt lat="46.431438" lon="14.253573">
        <ele>1153.668</ele>
        <time>2016-08-04T05:20:06Z</time>
      </trkpt>
      <trkpt lat="46.431446" lon="14.253504">
        <ele>1154.8872</ele>
        <time>2016-08-04T05:20:13Z</time>
      </trkpt>
      <trkpt lat="46.431461" lon="14.253447">
        <ele>1155.8016</ele>
        <time>2016-08-04T05:20:18Z</time>
      </trkpt>
      <trkpt lat="46.431474" lon="14.253389">
        <ele>1156.716</ele>
        <time>2016-08-04T05:20:25Z</time>
      </trkpt>
      <trkpt lat="46.431474" lon="14.253377">
        <ele>1157.0208</ele>
        <time>2016-08-04T05:20:25Z</time>
      </trkpt>
      <trkpt lat="46.431487" lon="14.253336">
        <ele>1157.9352</ele>
        <time>2016-08-04T05:20:29Z</time>
      </trkpt>
      <trkpt lat="46.431492" lon="14.253311">
        <ele>1157.9352</ele>
        <time>2016-08-04T05:20:32Z</time>
      </trkpt>
      <trkpt lat="46.431499" lon="14.253297">
        <ele>1158.24</ele>
        <time>2016-08-04T05:20:33Z</time>
      </trkpt>
      <trkpt lat="46.431504" lon="14.253283">
        <ele>1158.24</ele>
        <time>2016-08-04T05:20:33Z</time>
      </trkpt>
      <trkpt lat="46.431511" lon="14.253231">
        <ele>1159.1544</ele>
        <time>2016-08-04T05:20:38Z</time>
      </trkpt>
      <trkpt lat="46.431501" lon="14.253173">
        <ele>1160.3736</ele>
        <time>2016-08-04T05:20:45Z</time>
      </trkpt>
      <trkpt lat="46.431501" lon="14.253164">
        <ele>1160.3736</ele>
        <time>2016-08-04T05:20:45Z</time>
      </trkpt>
      <trkpt lat="46.431483" lon="14.253145">
        <ele>1160.9832</ele>
        <time>2016-08-04T05:20:57Z</time>
      </trkpt>
      <trkpt lat="46.431479" lon="14.253138">
        <ele>1161.288</ele>
        <time>2016-08-04T05:21:00Z</time>
      </trkpt>
      <trkpt lat="46.431469" lon="14.253120">
        <ele>1161.8976</ele>
        <time>2016-08-04T05:21:04Z</time>
      </trkpt>
      <trkpt lat="46.431469" lon="14.253109">
        <ele>1161.8976</ele>
        <time>2016-08-04T05:21:05Z</time>
      </trkpt>
      <trkpt lat="46.431462" lon="14.253086">
        <ele>1162.2024</ele>
        <time>2016-08-04T05:21:08Z</time>
      </trkpt>
      <trkpt lat="46.431463" lon="14.253067">
        <ele>1162.5072</ele>
        <time>2016-08-04T05:21:09Z</time>
      </trkpt>
      <trkpt lat="46.431451" lon="14.253016">
        <ele>1163.4216</ele>
        <time>2016-08-04T05:21:15Z</time>
      </trkpt>
      <trkpt lat="46.431447" lon="14.252994">
        <ele>1163.7264</ele>
        <time>2016-08-04T05:21:16Z</time>
      </trkpt>
      <trkpt lat="46.431454" lon="14.252927">
        <ele>1164.9456</ele>
        <time>2016-08-04T05:21:23Z</time>
      </trkpt>
      <trkpt lat="46.431455" lon="14.252917">
        <ele>1165.86</ele>
        <time>2016-08-04T05:21:35Z</time>
      </trkpt>
      <trkpt lat="46.431453" lon="14.252922">
        <ele>1165.86</ele>
        <time>2016-08-04T05:21:39Z</time>
      </trkpt>
      <trkpt lat="46.431447" lon="14.252899">
        <ele>1165.5552</ele>
        <time>2016-08-04T05:21:43Z</time>
      </trkpt>
      <trkpt lat="46.431437" lon="14.252864">
        <ele>1166.1648</ele>
        <time>2016-08-04T05:21:49Z</time>
      </trkpt>
      <trkpt lat="46.431434" lon="14.252851">
        <ele>1166.4696</ele>
        <time>2016-08-04T05:21:50Z</time>
      </trkpt>
      <trkpt lat="46.431436" lon="14.252841">
        <ele>1167.0792</ele>
        <time>2016-08-04T05:21:51Z</time>
      </trkpt>
      <trkpt lat="46.431427" lon="14.252818">
        <ele>1167.9936</ele>
        <time>2016-08-04T05:21:54Z</time>
      </trkpt>
      <trkpt lat="46.431404" lon="14.252794">
        <ele>1168.908</ele>
        <time>2016-08-04T05:21:58Z</time>
      </trkpt>
      <trkpt lat="46.431401" lon="14.252769">
        <ele>1168.908</ele>
        <time>2016-08-04T05:22:01Z</time>
      </trkpt>
      <trkpt lat="46.431397" lon="14.252760">
        <ele>1169.2128</ele>
        <time>2016-08-04T05:22:02Z</time>
      </trkpt>
      <trkpt lat="46.431376" lon="14.252719">
        <ele>1170.1272</ele>
        <time>2016-08-04T05:22:06Z</time>
      </trkpt>
      <trkpt lat="46.431376" lon="14.252699">
        <ele>1170.7368</ele>
        <time>2016-08-04T05:22:09Z</time>
      </trkpt>
      <trkpt lat="46.431374" lon="14.252684">
        <ele>1171.3464</ele>
        <time>2016-08-04T05:22:10Z</time>
      </trkpt>
      <trkpt lat="46.431370" lon="14.252660">
        <ele>1171.6512</ele>
        <time>2016-08-04T05:22:13Z</time>
      </trkpt>
      <trkpt lat="46.431369" lon="14.252618">
        <ele>1172.2608</ele>
        <time>2016-08-04T05:22:17Z</time>
      </trkpt>
      <trkpt lat="46.431373" lon="14.252557">
        <ele>1173.48</ele>
        <time>2016-08-04T05:22:21Z</time>
      </trkpt>
      <trkpt lat="46.431359" lon="14.252505">
        <ele>1174.6992</ele>
        <time>2016-08-04T05:22:26Z</time>
      </trkpt>
      <trkpt lat="46.431355" lon="14.252499">
        <ele>1174.6992</ele>
        <time>2016-08-04T05:22:28Z</time>
      </trkpt>
      <trkpt lat="46.431350" lon="14.252487">
        <ele>1175.004</ele>
        <time>2016-08-04T05:22:29Z</time>
      </trkpt>
      <trkpt lat="46.431336" lon="14.252470">
        <ele>1175.9184</ele>
        <time>2016-08-04T05:22:33Z</time>
      </trkpt>
      <trkpt lat="46.431332" lon="14.252434">
        <ele>1176.2232</ele>
        <time>2016-08-04T05:22:37Z</time>
      </trkpt>
      <trkpt lat="46.431322" lon="14.252395">
        <ele>1177.1376</ele>
        <time>2016-08-04T05:22:40Z</time>
      </trkpt>
      <trkpt lat="46.431310" lon="14.252371">
        <ele>1178.052</ele>
        <time>2016-08-04T05:22:44Z</time>
      </trkpt>
      <trkpt lat="46.431301" lon="14.252320">
        <ele>1178.9664</ele>
        <time>2016-08-04T05:22:49Z</time>
      </trkpt>
      <trkpt lat="46.431293" lon="14.252269">
        <ele>1179.8808</ele>
        <time>2016-08-04T05:22:53Z</time>
      </trkpt>
      <trkpt lat="46.431251" lon="14.252230">
        <ele>1181.1</ele>
        <time>2016-08-04T05:23:00Z</time>
      </trkpt>
      <trkpt lat="46.431226" lon="14.252160">
        <ele>1182.3192</ele>
        <time>2016-08-04T05:23:10Z</time>
      </trkpt>
      <trkpt lat="46.431226" lon="14.252114">
        <ele>1183.5384</ele>
        <time>2016-08-04T05:23:14Z</time>
      </trkpt>
      <trkpt lat="46.431234" lon="14.252064">
        <ele>1184.4528</ele>
        <time>2016-08-04T05:23:19Z</time>
      </trkpt>
      <trkpt lat="46.431216" lon="14.252039">
        <ele>1185.672</ele>
        <time>2016-08-04T05:23:24Z</time>
      </trkpt>
      <trkpt lat="46.431212" lon="14.251973">
        <ele>1186.5864</ele>
        <time>2016-08-04T05:23:35Z</time>
      </trkpt>
      <trkpt lat="46.431201" lon="14.251939">
        <ele>1187.5008</ele>
        <time>2016-08-04T05:23:39Z</time>
      </trkpt>
      <trkpt lat="46.431193" lon="14.251882">
        <ele>1188.72</ele>
        <time>2016-08-04T05:23:46Z</time>
      </trkpt>
      <trkpt lat="46.431181" lon="14.251871">
        <ele>1189.3296</ele>
        <time>2016-08-04T05:23:50Z</time>
      </trkpt>
      <trkpt lat="46.431172" lon="14.251859">
        <ele>1189.3296</ele>
        <time>2016-08-04T05:23:51Z</time>
      </trkpt>
      <trkpt lat="46.431164" lon="14.251845">
        <ele>1189.9392</ele>
        <time>2016-08-04T05:23:54Z</time>
      </trkpt>
      <trkpt lat="46.431160" lon="14.251830">
        <ele>1190.5488</ele>
        <time>2016-08-04T05:23:56Z</time>
      </trkpt>
      <trkpt lat="46.431154" lon="14.251815">
        <ele>1190.8536</ele>
        <time>2016-08-04T05:23:58Z</time>
      </trkpt>
      <trkpt lat="46.431146" lon="14.251759">
        <ele>1192.0728</ele>
        <time>2016-08-04T05:24:04Z</time>
      </trkpt>
      <trkpt lat="46.431118" lon="14.251735">
        <ele>1192.9872</ele>
        <time>2016-08-04T05:24:09Z</time>
      </trkpt>
      <trkpt lat="46.431112" lon="14.251733">
        <ele>1193.292</ele>
        <time>2016-08-04T05:24:09Z</time>
      </trkpt>
      <trkpt lat="46.431069" lon="14.251701">
        <ele>1194.5112</ele>
        <time>2016-08-04T05:24:16Z</time>
      </trkpt>
      <trkpt lat="46.431047" lon="14.251684">
        <ele>1194.816</ele>
        <time>2016-08-04T05:24:20Z</time>
      </trkpt>
      <trkpt lat="46.431053" lon="14.251680">
        <ele>1195.4256</ele>
        <time>2016-08-04T05:24:27Z</time>
      </trkpt>
      <trkpt lat="46.431051" lon="14.251587">
        <ele>1196.34</ele>
        <time>2016-08-04T05:24:36Z</time>
      </trkpt>
      <trkpt lat="46.431038" lon="14.251549">
        <ele>1197.2544</ele>
        <time>2016-08-04T05:24:41Z</time>
      </trkpt>
      <trkpt lat="46.431013" lon="14.251457">
        <ele>1198.4736</ele>
        <time>2016-08-04T05:24:50Z</time>
      </trkpt>
      <trkpt lat="46.431010" lon="14.251446">
        <ele>1198.4736</ele>
        <time>2016-08-04T05:24:51Z</time>
      </trkpt>
      <trkpt lat="46.431007" lon="14.251426">
        <ele>1199.0832</ele>
        <time>2016-08-04T05:24:52Z</time>
      </trkpt>
      <trkpt lat="46.430998" lon="14.251382">
        <ele>1199.6928</ele>
        <time>2016-08-04T05:24:56Z</time>
      </trkpt>
      <trkpt lat="46.430988" lon="14.251335">
        <ele>1199.9976</ele>
        <time>2016-08-04T05:25:02Z</time>
      </trkpt>
      <trkpt lat="46.430982" lon="14.251302">
        <ele>1200.912</ele>
        <time>2016-08-04T05:25:06Z</time>
      </trkpt>
      <trkpt lat="46.430960" lon="14.251223">
        <ele>1201.8264</ele>
        <time>2016-08-04T05:25:19Z</time>
      </trkpt>
      <trkpt lat="46.430948" lon="14.251151">
        <ele>1202.7408</ele>
        <time>2016-08-04T05:25:26Z</time>
      </trkpt>
      <trkpt lat="46.430941" lon="14.251077">
        <ele>1203.6552</ele>
        <time>2016-08-04T05:25:31Z</time>
      </trkpt>
      <trkpt lat="46.430939" lon="14.251071">
        <ele>1203.96</ele>
        <time>2016-08-04T05:25:33Z</time>
      </trkpt>
      <trkpt lat="46.430938" lon="14.251062">
        <ele>1204.2648</ele>
        <time>2016-08-04T05:25:34Z</time>
      </trkpt>
      <trkpt lat="46.430929" lon="14.251013">
        <ele>1204.8744</ele>
        <time>2016-08-04T05:25:38Z</time>
      </trkpt>
      <trkpt lat="46.430922" lon="14.250970">
        <ele>1205.484</ele>
        <time>2016-08-04T05:25:41Z</time>
      </trkpt>
      <trkpt lat="46.430915" lon="14.250945">
        <ele>1206.0936</ele>
        <time>2016-08-04T05:25:42Z</time>
      </trkpt>
      <trkpt lat="46.430894" lon="14.250891">
        <ele>1207.3128</ele>
        <time>2016-08-04T05:25:48Z</time>
      </trkpt>
      <trkpt lat="46.430891" lon="14.250794">
        <ele>1208.2272</ele>
        <time>2016-08-04T05:25:57Z</time>
      </trkpt>
      <trkpt lat="46.430877" lon="14.250760">
        <ele>1209.1416</ele>
        <time>2016-08-04T05:26:01Z</time>
      </trkpt>
      <trkpt lat="46.430871" lon="14.250762">
        <ele>1209.4464</ele>
        <time>2016-08-04T05:26:05Z</time>
      </trkpt>
      <trkpt lat="46.430852" lon="14.250683">
        <ele>1210.3608</ele>
        <time>2016-08-04T05:26:16Z</time>
      </trkpt>
      <trkpt lat="46.430819" lon="14.250630">
        <ele>1211.2752</ele>
        <time>2016-08-04T05:26:21Z</time>
      </trkpt>
      <trkpt lat="46.430815" lon="14.250623">
        <ele>1211.2752</ele>
        <time>2016-08-04T05:26:23Z</time>
      </trkpt>
      <trkpt lat="46.430795" lon="14.250597">
        <ele>1211.8848</ele>
        <time>2016-08-04T05:26:25Z</time>
      </trkpt>
      <trkpt lat="46.430783" lon="14.250555">
        <ele>1212.1896</ele>
        <time>2016-08-04T05:26:28Z</time>
      </trkpt>
      <trkpt lat="46.430782" lon="14.250517">
        <ele>1212.4944</ele>
        <time>2016-08-04T05:26:31Z</time>
      </trkpt>
      <trkpt lat="46.430770" lon="14.250413">
        <ele>1214.0184</ele>
        <time>2016-08-04T05:26:39Z</time>
      </trkpt>
      <trkpt lat="46.430766" lon="14.250309">
        <ele>1214.9328</ele>
        <time>2016-08-04T05:26:47Z</time>
      </trkpt>
      <trkpt lat="46.430738" lon="14.250275">
        <ele>1216.152</ele>
        <time>2016-08-04T05:26:52Z</time>
      </trkpt>
      <trkpt lat="46.430730" lon="14.250209">
        <ele>1217.0664</ele>
        <time>2016-08-04T05:26:59Z</time>
      </trkpt>
      <trkpt lat="46.430700" lon="14.250094">
        <ele>1217.9808</ele>
        <time>2016-08-04T05:27:09Z</time>
      </trkpt>
      <trkpt lat="46.430700" lon="14.250076">
        <ele>1218.2856</ele>
        <time>2016-08-04T05:27:10Z</time>
      </trkpt>
      <trkpt lat="46.430691" lon="14.249947">
        <ele>1219.5048</ele>
        <time>2016-08-04T05:27:18Z</time>
      </trkpt>
      <trkpt lat="46.430675" lon="14.249833">
        <ele>1220.4192</ele>
        <time>2016-08-04T05:27:25Z</time>
      </trkpt>
      <trkpt lat="46.430632" lon="14.249769">
        <ele>1221.3336</ele>
        <time>2016-08-04T05:27:32Z</time>
      </trkpt>
      <trkpt lat="46.430628" lon="14.249761">
        <ele>1221.6384</ele>
        <time>2016-08-04T05:27:33Z</time>
      </trkpt>
      <trkpt lat="46.430623" lon="14.249656">
        <ele>1222.5528</ele>
        <time>2016-08-04T05:27:40Z</time>
      </trkpt>
      <trkpt lat="46.430612" lon="14.249650">
        <ele>1222.8576</ele>
        <time>2016-08-04T05:27:41Z</time>
      </trkpt>
      <trkpt lat="46.430619" lon="14.249567">
        <ele>1223.772</ele>
        <time>2016-08-04T05:27:48Z</time>
      </trkpt>
      <trkpt lat="46.430625" lon="14.249421">
        <ele>1224.9912</ele>
        <time>2016-08-04T05:27:57Z</time>
      </trkpt>
      <trkpt lat="46.430606" lon="14.249311">
        <ele>1225.9056</ele>
        <time>2016-08-04T05:28:04Z</time>
      </trkpt>
      <trkpt lat="46.430583" lon="14.249233">
        <ele>1227.1248</ele>
        <time>2016-08-04T05:28:08Z</time>
      </trkpt>
      <trkpt lat="46.430579" lon="14.249221">
        <ele>1227.1248</ele>
        <time>2016-08-04T05:28:09Z</time>
      </trkpt>
      <trkpt lat="46.430564" lon="14.249187">
        <ele>1227.7344</ele>
        <time>2016-08-04T05:28:12Z</time>
      </trkpt>
      <trkpt lat="46.430550" lon="14.249132">
        <ele>1228.0392</ele>
        <time>2016-08-04T05:28:16Z</time>
      </trkpt>
      <trkpt lat="46.430559" lon="14.249046">
        <ele>1228.6488</ele>
        <time>2016-08-04T05:28:21Z</time>
      </trkpt>
      <trkpt lat="46.430564" lon="14.249036">
        <ele>1228.9536</ele>
        <time>2016-08-04T05:28:23Z</time>
      </trkpt>
      <trkpt lat="46.430578" lon="14.248989">
        <ele>1229.5632</ele>
        <time>2016-08-04T05:28:26Z</time>
      </trkpt>
      <trkpt lat="46.430566" lon="14.248969">
        <ele>1230.1728</ele>
        <time>2016-08-04T05:28:28Z</time>
      </trkpt>
      <trkpt lat="46.430565" lon="14.248937">
        <ele>1230.7824</ele>
        <time>2016-08-04T05:28:31Z</time>
      </trkpt>
      <trkpt lat="46.430568" lon="14.248908">
        <ele>1231.392</ele>
        <time>2016-08-04T05:28:35Z</time>
      </trkpt>
      <trkpt lat="46.430569" lon="14.248902">
        <ele>1231.6968</ele>
        <time>2016-08-04T05:28:35Z</time>
      </trkpt>
      <trkpt lat="46.430565" lon="14.248847">
        <ele>1232.0016</ele>
        <time>2016-08-04T05:28:40Z</time>
      </trkpt>
      <trkpt lat="46.430561" lon="14.248821">
        <ele>1232.3064</ele>
        <time>2016-08-04T05:28:43Z</time>
      </trkpt>
      <trkpt lat="46.430550" lon="14.248767">
        <ele>1232.6112</ele>
        <time>2016-08-04T05:28:47Z</time>
      </trkpt>
      <trkpt lat="46.430549" lon="14.248719">
        <ele>1233.5256</ele>
        <time>2016-08-04T05:28:51Z</time>
      </trkpt>
      <trkpt lat="46.430543" lon="14.248693">
        <ele>1234.1352</ele>
        <time>2016-08-04T05:28:53Z</time>
      </trkpt>
      <trkpt lat="46.430539" lon="14.248682">
        <ele>1234.1352</ele>
        <time>2016-08-04T05:28:54Z</time>
      </trkpt>
      <trkpt lat="46.430523" lon="14.248634">
        <ele>1234.7448</ele>
        <time>2016-08-04T05:28:58Z</time>
      </trkpt>
      <trkpt lat="46.430519" lon="14.248628">
        <ele>1234.7448</ele>
        <time>2016-08-04T05:28:58Z</time>
      </trkpt>
      <trkpt lat="46.430517" lon="14.248619">
        <ele>1235.3544</ele>
        <time>2016-08-04T05:29:01Z</time>
      </trkpt>
      <trkpt lat="46.430514" lon="14.248609">
        <ele>1235.6592</ele>
        <time>2016-08-04T05:29:02Z</time>
      </trkpt>
      <trkpt lat="46.430504" lon="14.248566">
        <ele>1236.8784</ele>
        <time>2016-08-04T05:29:07Z</time>
      </trkpt>
      <trkpt lat="46.430499" lon="14.248554">
        <ele>1236.8784</ele>
        <time>2016-08-04T05:29:09Z</time>
      </trkpt>
      <trkpt lat="46.430490" lon="14.248444">
        <ele>1238.0976</ele>
        <time>2016-08-04T05:29:21Z</time>
      </trkpt>
      <trkpt lat="46.430503" lon="14.248379">
        <ele>1239.3168</ele>
        <time>2016-08-04T05:29:26Z</time>
      </trkpt>
      <trkpt lat="46.430512" lon="14.248306">
        <ele>1240.2312</ele>
        <time>2016-08-04T05:29:33Z</time>
      </trkpt>
      <trkpt lat="46.430516" lon="14.248285">
        <ele>1240.536</ele>
        <time>2016-08-04T05:29:34Z</time>
      </trkpt>
      <trkpt lat="46.430522" lon="14.248204">
        <ele>1241.1456</ele>
        <time>2016-08-04T05:29:40Z</time>
      </trkpt>
      <trkpt lat="46.430523" lon="14.248181">
        <ele>1241.4504</ele>
        <time>2016-08-04T05:29:41Z</time>
      </trkpt>
      <trkpt lat="46.430522" lon="14.248128">
        <ele>1242.3648</ele>
        <time>2016-08-04T05:29:45Z</time>
      </trkpt>
      <trkpt lat="46.430507" lon="14.248067">
        <ele>1243.2792</ele>
        <time>2016-08-04T05:29:52Z</time>
      </trkpt>
      <trkpt lat="46.430485" lon="14.248044">
        <ele>1244.4984</ele>
        <time>2016-08-04T05:29:55Z</time>
      </trkpt>
      <trkpt lat="46.430489" lon="14.247939">
        <ele>1245.7176</ele>
        <time>2016-08-04T05:30:03Z</time>
      </trkpt>
      <trkpt lat="46.430487" lon="14.247911">
        <ele>1246.0224</ele>
        <time>2016-08-04T05:30:05Z</time>
      </trkpt>
      <trkpt lat="46.430480" lon="14.247873">
        <ele>1246.632</ele>
        <time>2016-08-04T05:30:08Z</time>
      </trkpt>
      <trkpt lat="46.430473" lon="14.247839">
        <ele>1246.9368</ele>
        <time>2016-08-04T05:30:11Z</time>
      </trkpt>
      <trkpt lat="46.430471" lon="14.247763">
        <ele>1247.8512</ele>
        <time>2016-08-04T05:30:16Z</time>
      </trkpt>
      <trkpt lat="46.430444" lon="14.247759">
        <ele>1248.4608</ele>
        <time>2016-08-04T05:30:20Z</time>
      </trkpt>
      <trkpt lat="46.430430" lon="14.247741">
        <ele>1248.7656</ele>
        <time>2016-08-04T05:30:24Z</time>
      </trkpt>
      <trkpt lat="46.430439" lon="14.247625">
        <ele>1250.2896</ele>
        <time>2016-08-04T05:30:31Z</time>
      </trkpt>
      <trkpt lat="46.430437" lon="14.247616">
        <ele>1250.2896</ele>
        <time>2016-08-04T05:30:32Z</time>
      </trkpt>
      <trkpt lat="46.430430" lon="14.247581">
        <ele>1250.8992</ele>
        <time>2016-08-04T05:30:36Z</time>
      </trkpt>
      <trkpt lat="46.430423" lon="14.247584">
        <ele>1251.204</ele>
        <time>2016-08-04T05:30:39Z</time>
      </trkpt>
      <trkpt lat="46.430394" lon="14.247625">
        <ele>1251.204</ele>
        <time>2016-08-04T05:30:58Z</time>
      </trkpt>
      <trkpt lat="46.430383" lon="14.247637">
        <ele>1251.204</ele>
        <time>2016-08-04T05:30:59Z</time>
      </trkpt>
      <trkpt lat="46.430379" lon="14.247641">
        <ele>1251.204</ele>
        <time>2016-08-04T05:31:01Z</time>
      </trkpt>
      <trkpt lat="46.430345" lon="14.247663">
        <ele>1251.204</ele>
        <time>2016-08-04T05:31:12Z</time>
      </trkpt>
      <trkpt lat="46.430333" lon="14.247669">
        <ele>1251.204</ele>
        <time>2016-08-04T05:31:14Z</time>
      </trkpt>
      <trkpt lat="46.430339" lon="14.247669">
        <ele>1251.204</ele>
        <time>2016-08-04T05:31:20Z</time>
      </trkpt>
      <trkpt lat="46.430355" lon="14.247661">
        <ele>1251.204</ele>
        <time>2016-08-04T05:31:21Z</time>
      </trkpt>
      <trkpt lat="46.430379" lon="14.247633">
        <ele>1251.204</ele>
        <time>2016-08-04T05:31:25Z</time>
      </trkpt>
      <trkpt lat="46.430456" lon="14.247633">
        <ele>1250.8992</ele>
        <time>2016-08-04T05:31:33Z</time>
      </trkpt>
      <trkpt lat="46.430468" lon="14.247634">
        <ele>1250.8992</ele>
        <time>2016-08-04T05:31:33Z</time>
      </trkpt>
      <trkpt lat="46.430480" lon="14.247635">
        <ele>1251.204</ele>
        <time>2016-08-04T05:31:35Z</time>
      </trkpt>
      <trkpt lat="46.430481" lon="14.247503">
        <ele>1250.8992</ele>
        <time>2016-08-04T05:31:49Z</time>
      </trkpt>
      <trkpt lat="46.430404" lon="14.247470">
        <ele>1251.204</ele>
        <time>2016-08-04T05:32:00Z</time>
      </trkpt>
      <trkpt lat="46.430342" lon="14.247446">
        <ele>1251.5088</ele>
        <time>2016-08-04T05:32:03Z</time>
      </trkpt>
      <trkpt lat="46.430328" lon="14.247431">
        <ele>1251.8136</ele>
        <time>2016-08-04T05:32:04Z</time>
      </trkpt>
      <trkpt lat="46.430326" lon="14.247416">
        <ele>1252.1184</ele>
        <time>2016-08-04T05:32:07Z</time>
      </trkpt>
      <trkpt lat="46.430326" lon="14.247391">
        <ele>1252.728</ele>
        <time>2016-08-04T05:32:08Z</time>
      </trkpt>
      <trkpt lat="46.430324" lon="14.247381">
        <ele>1253.0328</ele>
        <time>2016-08-04T05:32:10Z</time>
      </trkpt>
      <trkpt lat="46.430320" lon="14.247371">
        <ele>1253.3376</ele>
        <time>2016-08-04T05:32:11Z</time>
      </trkpt>
      <trkpt lat="46.430328" lon="14.247356">
        <ele>1253.3376</ele>
        <time>2016-08-04T05:32:11Z</time>
      </trkpt>
      <trkpt lat="46.430328" lon="14.247342">
        <ele>1253.3376</ele>
        <time>2016-08-04T05:32:12Z</time>
      </trkpt>
      <trkpt lat="46.430323" lon="14.247262">
        <ele>1253.9472</ele>
        <time>2016-08-04T05:32:19Z</time>
      </trkpt>
      <trkpt lat="46.430316" lon="14.247197">
        <ele>1254.252</ele>
        <time>2016-08-04T05:32:24Z</time>
      </trkpt>
      <trkpt lat="46.430331" lon="14.247106">
        <ele>1254.8616</ele>
        <time>2016-08-04T05:32:31Z</time>
      </trkpt>
      <trkpt lat="46.430336" lon="14.247075">
        <ele>1255.1664</ele>
        <time>2016-08-04T05:32:34Z</time>
      </trkpt>
      <trkpt lat="46.430332" lon="14.247000">
        <ele>1255.4712</ele>
        <time>2016-08-04T05:32:38Z</time>
      </trkpt>
      <trkpt lat="46.430331" lon="14.246982">
        <ele>1255.4712</ele>
        <time>2016-08-04T05:32:38Z</time>
      </trkpt>
      <trkpt lat="46.430326" lon="14.246882">
        <ele>1256.3856</ele>
        <time>2016-08-04T05:32:45Z</time>
      </trkpt>
      <trkpt lat="46.430318" lon="14.246848">
        <ele>1256.6904</ele>
        <time>2016-08-04T05:32:46Z</time>
      </trkpt>
      <trkpt lat="46.430293" lon="14.246749">
        <ele>1257.6048</ele>
        <time>2016-08-04T05:32:54Z</time>
      </trkpt>
      <trkpt lat="46.430286" lon="14.246694">
        <ele>1257.9096</ele>
        <time>2016-08-04T05:32:58Z</time>
      </trkpt>
      <trkpt lat="46.430285" lon="14.246683">
        <ele>1258.2144</ele>
        <time>2016-08-04T05:33:00Z</time>
      </trkpt>
      <trkpt lat="46.430289" lon="14.246641">
        <ele>1258.5192</ele>
        <time>2016-08-04T05:33:01Z</time>
      </trkpt>
      <trkpt lat="46.430289" lon="14.246620">
        <ele>1258.5192</ele>
        <time>2016-08-04T05:33:02Z</time>
      </trkpt>
      <trkpt lat="46.430286" lon="14.246600">
        <ele>1258.824</ele>
        <time>2016-08-04T05:33:04Z</time>
      </trkpt>
      <trkpt lat="46.430282" lon="14.246555">
        <ele>1259.1288</ele>
        <time>2016-08-04T05:33:06Z</time>
      </trkpt>
      <trkpt lat="46.430280" lon="14.246541">
        <ele>1259.1288</ele>
        <time>2016-08-04T05:33:08Z</time>
      </trkpt>
      <trkpt lat="46.430280" lon="14.246528">
        <ele>1259.4336</ele>
        <time>2016-08-04T05:33:09Z</time>
      </trkpt>
      <trkpt lat="46.430272" lon="14.246488">
        <ele>1259.7384</ele>
        <time>2016-08-04T05:33:12Z</time>
      </trkpt>
      <trkpt lat="46.430266" lon="14.246473">
        <ele>1259.7384</ele>
        <time>2016-08-04T05:33:13Z</time>
      </trkpt>
      <trkpt lat="46.430257" lon="14.246443">
        <ele>1260.348</ele>
        <time>2016-08-04T05:33:14Z</time>
      </trkpt>
      <trkpt lat="46.430247" lon="14.246418">
        <ele>1260.6528</ele>
        <time>2016-08-04T05:33:17Z</time>
      </trkpt>
      <trkpt lat="46.430241" lon="14.246404">
        <ele>1260.6528</ele>
        <time>2016-08-04T05:33:17Z</time>
      </trkpt>
      <trkpt lat="46.430231" lon="14.246371">
        <ele>1260.6528</ele>
        <time>2016-08-04T05:33:20Z</time>
      </trkpt>
      <trkpt lat="46.430219" lon="14.246314">
        <ele>1261.872</ele>
        <time>2016-08-04T05:33:24Z</time>
      </trkpt>
      <trkpt lat="46.430213" lon="14.246280">
        <ele>1262.4816</ele>
        <time>2016-08-04T05:33:25Z</time>
      </trkpt>
      <trkpt lat="46.430216" lon="14.246216">
        <ele>1263.0912</ele>
        <time>2016-08-04T05:33:29Z</time>
      </trkpt>
      <trkpt lat="46.430225" lon="14.246170">
        <ele>1263.396</ele>
        <time>2016-08-04T05:33:32Z</time>
      </trkpt>
      <trkpt lat="46.430228" lon="14.246089">
        <ele>1264.3104</ele>
        <time>2016-08-04T05:33:39Z</time>
      </trkpt>
      <trkpt lat="46.430226" lon="14.246072">
        <ele>1264.3104</ele>
        <time>2016-08-04T05:33:40Z</time>
      </trkpt>
      <trkpt lat="46.430208" lon="14.246050">
        <ele>1264.92</ele>
        <time>2016-08-04T05:33:44Z</time>
      </trkpt>
      <trkpt lat="46.430196" lon="14.246031">
        <ele>1265.2248</ele>
        <time>2016-08-04T05:33:45Z</time>
      </trkpt>
      <trkpt lat="46.430177" lon="14.245981">
        <ele>1265.8344</ele>
        <time>2016-08-04T05:33:50Z</time>
      </trkpt>
      <trkpt lat="46.430163" lon="14.245856">
        <ele>1266.1392</ele>
        <time>2016-08-04T05:33:56Z</time>
      </trkpt>
      <trkpt lat="46.430161" lon="14.245847">
        <ele>1266.1392</ele>
        <time>2016-08-04T05:33:58Z</time>
      </trkpt>
      <trkpt lat="46.430149" lon="14.245768">
        <ele>1266.7488</ele>
        <time>2016-08-04T05:34:03Z</time>
      </trkpt>
      <trkpt lat="46.430151" lon="14.245734">
        <ele>1267.0536</ele>
        <time>2016-08-04T05:34:04Z</time>
      </trkpt>
      <trkpt lat="46.430151" lon="14.245706">
        <ele>1267.3584</ele>
        <time>2016-08-04T05:34:07Z</time>
      </trkpt>
      <trkpt lat="46.430144" lon="14.245653">
        <ele>1267.6632</ele>
        <time>2016-08-04T05:34:11Z</time>
      </trkpt>
      <trkpt lat="46.430127" lon="14.245594">
        <ele>1268.2728</ele>
        <time>2016-08-04T05:34:15Z</time>
      </trkpt>
      <trkpt lat="46.430126" lon="14.245513">
        <ele>1269.1872</ele>
        <time>2016-08-04T05:34:19Z</time>
      </trkpt>
      <trkpt lat="46.430124" lon="14.245486">
        <ele>1269.492</ele>
        <time>2016-08-04T05:34:21Z</time>
      </trkpt>
      <trkpt lat="46.430118" lon="14.245472">
        <ele>1269.492</ele>
        <time>2016-08-04T05:34:22Z</time>
      </trkpt>
      <trkpt lat="46.430111" lon="14.245459">
        <ele>1270.1016</ele>
        <time>2016-08-04T05:34:23Z</time>
      </trkpt>
      <trkpt lat="46.430102" lon="14.245443">
        <ele>1270.4064</ele>
        <time>2016-08-04T05:34:26Z</time>
      </trkpt>
      <trkpt lat="46.430097" lon="14.245430">
        <ele>1270.7112</ele>
        <time>2016-08-04T05:34:27Z</time>
      </trkpt>
      <trkpt lat="46.430084" lon="14.245415">
        <ele>1270.7112</ele>
        <time>2016-08-04T05:34:30Z</time>
      </trkpt>
      <trkpt lat="46.430056" lon="14.245373">
        <ele>1271.6256</ele>
        <time>2016-08-04T05:34:34Z</time>
      </trkpt>
      <trkpt lat="46.430049" lon="14.245286">
        <ele>1273.1496</ele>
        <time>2016-08-04T05:34:41Z</time>
      </trkpt>
      <trkpt lat="46.430036" lon="14.245222">
        <ele>1273.7592</ele>
        <time>2016-08-04T05:34:46Z</time>
      </trkpt>
      <trkpt lat="46.430038" lon="14.245204">
        <ele>1274.064</ele>
        <time>2016-08-04T05:34:48Z</time>
      </trkpt>
      <trkpt lat="46.430046" lon="14.245175">
        <ele>1274.064</ele>
        <time>2016-08-04T05:34:49Z</time>
      </trkpt>
      <trkpt lat="46.430067" lon="14.245153">
        <ele>1274.9784</ele>
        <time>2016-08-04T05:34:53Z</time>
      </trkpt>
      <trkpt lat="46.430058" lon="14.245080">
        <ele>1276.1976</ele>
        <time>2016-08-04T05:35:01Z</time>
      </trkpt>
      <trkpt lat="46.430061" lon="14.245047">
        <ele>1277.112</ele>
        <time>2016-08-04T05:35:05Z</time>
      </trkpt>
      <trkpt lat="46.430065" lon="14.245029">
        <ele>1277.112</ele>
        <time>2016-08-04T05:35:06Z</time>
      </trkpt>
      <trkpt lat="46.429994" lon="14.244998">
        <ele>1278.0264</ele>
        <time>2016-08-04T05:35:25Z</time>
      </trkpt>
      <trkpt lat="46.429958" lon="14.244904">
        <ele>1278.3312</ele>
        <time>2016-08-04T05:35:29Z</time>
      </trkpt>
      <trkpt lat="46.429960" lon="14.244894">
        <ele>1278.3312</ele>
        <time>2016-08-04T05:35:31Z</time>
      </trkpt>
      <trkpt lat="46.429949" lon="14.244871">
        <ele>1278.636</ele>
        <time>2016-08-04T05:35:33Z</time>
      </trkpt>
      <trkpt lat="46.429985" lon="14.244821">
        <ele>1279.5504</ele>
        <time>2016-08-04T05:35:42Z</time>
      </trkpt>
      <trkpt lat="46.429989" lon="14.244776">
        <ele>1280.16</ele>
        <time>2016-08-04T05:35:47Z</time>
      </trkpt>
      <trkpt lat="46.429989" lon="14.244771">
        <ele>1280.4648</ele>
        <time>2016-08-04T05:35:47Z</time>
      </trkpt>
      <trkpt lat="46.429993" lon="14.244725">
        <ele>1281.684</ele>
        <time>2016-08-04T05:35:52Z</time>
      </trkpt>
      <trkpt lat="46.430012" lon="14.244670">
        <ele>1282.5984</ele>
        <time>2016-08-04T05:35:59Z</time>
      </trkpt>
      <trkpt lat="46.430024" lon="14.244660">
        <ele>1282.9032</ele>
        <time>2016-08-04T05:35:59Z</time>
      </trkpt>
      <trkpt lat="46.430038" lon="14.244639">
        <ele>1282.9032</ele>
        <time>2016-08-04T05:36:02Z</time>
      </trkpt>
      <trkpt lat="46.430051" lon="14.244598">
        <ele>1283.5128</ele>
        <time>2016-08-04T05:36:05Z</time>
      </trkpt>
      <trkpt lat="46.430038" lon="14.244580">
        <ele>1283.8176</ele>
        <time>2016-08-04T05:36:07Z</time>
      </trkpt>
      <trkpt lat="46.430030" lon="14.244573">
        <ele>1283.8176</ele>
        <time>2016-08-04T05:36:07Z</time>
      </trkpt>
      <trkpt lat="46.430029" lon="14.244557">
        <ele>1284.1224</ele>
        <time>2016-08-04T05:36:09Z</time>
      </trkpt>
      <trkpt lat="46.429976" lon="14.244520">
        <ele>1284.4272</ele>
        <time>2016-08-04T05:36:14Z</time>
      </trkpt>
      <trkpt lat="46.429931" lon="14.244429">
        <ele>1285.0368</ele>
        <time>2016-08-04T05:36:21Z</time>
      </trkpt>
      <trkpt lat="46.429893" lon="14.244378">
        <ele>1285.0368</ele>
        <time>2016-08-04T05:36:25Z</time>
      </trkpt>
      <trkpt lat="46.429854" lon="14.244330">
        <ele>1284.732</ele>
        <time>2016-08-04T05:36:30Z</time>
      </trkpt>
      <trkpt lat="46.429810" lon="14.244269">
        <ele>1285.0368</ele>
        <time>2016-08-04T05:36:34Z</time>
      </trkpt>
      <trkpt lat="46.429761" lon="14.244166">
        <ele>1285.9512</ele>
        <time>2016-08-04T05:36:44Z</time>
      </trkpt>
      <trkpt lat="46.429724" lon="14.244087">
        <ele>1287.1704</ele>
        <time>2016-08-04T05:36:49Z</time>
      </trkpt>
      <trkpt lat="46.429710" lon="14.244031">
        <ele>1288.0848</ele>
        <time>2016-08-04T05:36:53Z</time>
      </trkpt>
      <trkpt lat="46.429693" lon="14.244000">
        <ele>1288.3896</ele>
        <time>2016-08-04T05:36:57Z</time>
      </trkpt>
      <trkpt lat="46.429681" lon="14.243968">
        <ele>1288.6944</ele>
        <time>2016-08-04T05:37:00Z</time>
      </trkpt>
      <trkpt lat="46.429666" lon="14.243936">
        <ele>1288.9992</ele>
        <time>2016-08-04T05:37:03Z</time>
      </trkpt>
      <trkpt lat="46.429657" lon="14.243912">
        <ele>1289.304</ele>
        <time>2016-08-04T05:37:04Z</time>
      </trkpt>
      <trkpt lat="46.429635" lon="14.243881">
        <ele>1289.304</ele>
        <time>2016-08-04T05:37:08Z</time>
      </trkpt>
      <trkpt lat="46.429619" lon="14.243872">
        <ele>1289.304</ele>
        <time>2016-08-04T05:37:11Z</time>
      </trkpt>
      <trkpt lat="46.429611" lon="14.243868">
        <ele>1289.304</ele>
        <time>2016-08-04T05:37:12Z</time>
      </trkpt>
      <trkpt lat="46.429595" lon="14.243833">
        <ele>1289.6088</ele>
        <time>2016-08-04T05:37:15Z</time>
      </trkpt>
      <trkpt lat="46.429577" lon="14.243789">
        <ele>1289.9136</ele>
        <time>2016-08-04T05:37:17Z</time>
      </trkpt>
      <trkpt lat="46.429554" lon="14.243757">
        <ele>1290.5232</ele>
        <time>2016-08-04T05:37:20Z</time>
      </trkpt>
      <trkpt lat="46.429485" lon="14.243675">
        <ele>1291.1328</ele>
        <time>2016-08-04T05:37:30Z</time>
      </trkpt>
      <trkpt lat="46.429468" lon="14.243658">
        <ele>1291.7424</ele>
        <time>2016-08-04T05:37:31Z</time>
      </trkpt>
      <trkpt lat="46.429399" lon="14.243610">
        <ele>1292.6568</ele>
        <time>2016-08-04T05:37:39Z</time>
      </trkpt>
      <trkpt lat="46.429373" lon="14.243554">
        <ele>1293.5712</ele>
        <time>2016-08-04T05:37:44Z</time>
      </trkpt>
      <trkpt lat="46.429370" lon="14.243545">
        <ele>1293.876</ele>
        <time>2016-08-04T05:37:46Z</time>
      </trkpt>
      <trkpt lat="46.429371" lon="14.243511">
        <ele>1294.4856</ele>
        <time>2016-08-04T05:37:48Z</time>
      </trkpt>
      <trkpt lat="46.429372" lon="14.243501">
        <ele>1294.4856</ele>
        <time>2016-08-04T05:37:50Z</time>
      </trkpt>
      <trkpt lat="46.429364" lon="14.243495">
        <ele>1295.0952</ele>
        <time>2016-08-04T05:37:51Z</time>
      </trkpt>
      <trkpt lat="46.429354" lon="14.243486">
        <ele>1295.7048</ele>
        <time>2016-08-04T05:37:54Z</time>
      </trkpt>
      <trkpt lat="46.429353" lon="14.243466">
        <ele>1295.7048</ele>
        <time>2016-08-04T05:37:55Z</time>
      </trkpt>
      <trkpt lat="46.429356" lon="14.243393">
        <ele>1296.924</ele>
        <time>2016-08-04T05:38:01Z</time>
      </trkpt>
      <trkpt lat="46.429336" lon="14.243328">
        <ele>1298.1432</ele>
        <time>2016-08-04T05:38:06Z</time>
      </trkpt>
      <trkpt lat="46.429319" lon="14.243317">
        <ele>1298.448</ele>
        <time>2016-08-04T05:38:09Z</time>
      </trkpt>
      <trkpt lat="46.429308" lon="14.243300">
        <ele>1299.0576</ele>
        <time>2016-08-04T05:38:11Z</time>
      </trkpt>
      <trkpt lat="46.429295" lon="14.243300">
        <ele>1299.0576</ele>
        <time>2016-08-04T05:38:13Z</time>
      </trkpt>
      <trkpt lat="46.429206" lon="14.243317">
        <ele>1300.2768</ele>
        <time>2016-08-04T05:38:18Z</time>
      </trkpt>
      <trkpt lat="46.429177" lon="14.243306">
        <ele>1301.1912</ele>
        <time>2016-08-04T05:38:24Z</time>
      </trkpt>
      <trkpt lat="46.429170" lon="14.243300">
        <ele>1301.496</ele>
        <time>2016-08-04T05:38:25Z</time>
      </trkpt>
      <trkpt lat="46.429105" lon="14.243323">
        <ele>1301.8008</ele>
        <time>2016-08-04T05:38:28Z</time>
      </trkpt>
      <trkpt lat="46.429084" lon="14.243163">
        <ele>1302.4104</ele>
        <time>2016-08-04T05:38:33Z</time>
      </trkpt>
      <trkpt lat="46.429066" lon="14.243151">
        <ele>1303.6296</ele>
        <time>2016-08-04T05:38:37Z</time>
      </trkpt>
      <trkpt lat="46.429089" lon="14.243133">
        <ele>1303.9344</ele>
        <time>2016-08-04T05:38:38Z</time>
      </trkpt>
      <trkpt lat="46.429061" lon="14.243135">
        <ele>1304.2392</ele>
        <time>2016-08-04T05:38:41Z</time>
      </trkpt>
      <trkpt lat="46.429032" lon="14.243148">
        <ele>1304.544</ele>
        <time>2016-08-04T05:38:45Z</time>
      </trkpt>
      <trkpt lat="46.429031" lon="14.243141">
        <ele>1304.8488</ele>
        <time>2016-08-04T05:38:48Z</time>
      </trkpt>
      <trkpt lat="46.428994" lon="14.243139">
        <ele>1305.4584</ele>
        <time>2016-08-04T05:38:51Z</time>
      </trkpt>
      <trkpt lat="46.428925" lon="14.243164">
        <ele>1306.6776</ele>
        <time>2016-08-04T05:38:55Z</time>
      </trkpt>
      <trkpt lat="46.428913" lon="14.243167">
        <ele>1306.6776</ele>
        <time>2016-08-04T05:38:56Z</time>
      </trkpt>
      <trkpt lat="46.428837" lon="14.243142">
        <ele>1307.8968</ele>
        <time>2016-08-04T05:39:04Z</time>
      </trkpt>
      <trkpt lat="46.428836" lon="14.243097">
        <ele>1308.5064</ele>
        <time>2016-08-04T05:39:08Z</time>
      </trkpt>
      <trkpt lat="46.428831" lon="14.243087">
        <ele>1308.8112</ele>
        <time>2016-08-04T05:39:11Z</time>
      </trkpt>
      <trkpt lat="46.428828" lon="14.243035">
        <ele>1309.7256</ele>
        <time>2016-08-04T05:39:18Z</time>
      </trkpt>
      <trkpt lat="46.428802" lon="14.243028">
        <ele>1309.7256</ele>
        <time>2016-08-04T05:39:19Z</time>
      </trkpt>
      <trkpt lat="46.428695" lon="14.243019">
        <ele>1309.7256</ele>
        <time>2016-08-04T05:39:23Z</time>
      </trkpt>
      <trkpt lat="46.428670" lon="14.243022">
        <ele>1309.7256</ele>
        <time>2016-08-04T05:39:23Z</time>
      </trkpt>
      <trkpt lat="46.428648" lon="14.243031">
        <ele>1310.0304</ele>
        <time>2016-08-04T05:39:24Z</time>
      </trkpt>
      <trkpt lat="46.428597" lon="14.243046">
        <ele>1310.64</ele>
        <time>2016-08-04T05:39:27Z</time>
      </trkpt>
      <trkpt lat="46.428639" lon="14.243007">
        <ele>1310.9448</ele>
        <time>2016-08-04T05:39:31Z</time>
      </trkpt>
      <trkpt lat="46.428661" lon="14.242998">
        <ele>1311.2496</ele>
        <time>2016-08-04T05:39:32Z</time>
      </trkpt>
      <trkpt lat="46.428666" lon="14.242994">
        <ele>1311.8592</ele>
        <time>2016-08-04T05:39:35Z</time>
      </trkpt>
      <trkpt lat="46.428665" lon="14.242994">
        <ele>1311.8592</ele>
        <time>2016-08-04T05:39:35Z</time>
      </trkpt>
      <trkpt lat="46.428668" lon="14.242997">
        <ele>1312.164</ele>
        <time>2016-08-04T05:39:39Z</time>
      </trkpt>
      <trkpt lat="46.428660" lon="14.242991">
        <ele>1313.0784</ele>
        <time>2016-08-04T05:39:43Z</time>
      </trkpt>
      <trkpt lat="46.428614" lon="14.242963">
        <ele>1314.2976</ele>
        <time>2016-08-04T05:39:50Z</time>
      </trkpt>
      <trkpt lat="46.428538" lon="14.242944">
        <ele>1315.5168</ele>
        <time>2016-08-04T05:39:57Z</time>
      </trkpt>
      <trkpt lat="46.428484" lon="14.242944">
        <ele>1316.4312</ele>
        <time>2016-08-04T05:40:02Z</time>
      </trkpt>
      <trkpt lat="46.428444" lon="14.242947">
        <ele>1317.6504</ele>
        <time>2016-08-04T05:40:10Z</time>
      </trkpt>
      <trkpt lat="46.428416" lon="14.242976">
        <ele>1318.5648</ele>
        <time>2016-08-04T05:40:16Z</time>
      </trkpt>
      <trkpt lat="46.428362" lon="14.242937">
        <ele>1319.784</ele>
        <time>2016-08-04T05:40:25Z</time>
      </trkpt>
      <trkpt lat="46.428387" lon="14.242853">
        <ele>1320.6984</ele>
        <time>2016-08-04T05:40:30Z</time>
      </trkpt>
      <trkpt lat="46.428378" lon="14.242815">
        <ele>1321.9176</ele>
        <time>2016-08-04T05:40:36Z</time>
      </trkpt>
      <trkpt lat="46.428431" lon="14.242744">
        <ele>1323.1368</ele>
        <time>2016-08-04T05:40:44Z</time>
      </trkpt>
      <trkpt lat="46.428448" lon="14.242698">
        <ele>1324.0512</ele>
        <time>2016-08-04T05:40:51Z</time>
      </trkpt>
      <trkpt lat="46.428435" lon="14.242690">
        <ele>1324.9656</ele>
        <time>2016-08-04T05:40:56Z</time>
      </trkpt>
      <trkpt lat="46.428467" lon="14.242661">
        <ele>1325.5752</ele>
        <time>2016-08-04T05:41:02Z</time>
      </trkpt>
      <trkpt lat="46.428478" lon="14.242619">
        <ele>1325.88</ele>
        <time>2016-08-04T05:41:07Z</time>
      </trkpt>
      <trkpt lat="46.428501" lon="14.242587">
        <ele>1327.0992</ele>
        <time>2016-08-04T05:41:14Z</time>
      </trkpt>
      <trkpt lat="46.428319" lon="14.242606">
        <ele>1328.3184</ele>
        <time>2016-08-04T05:41:18Z</time>
      </trkpt>
      <trkpt lat="46.428288" lon="14.242615">
        <ele>1328.3184</ele>
        <time>2016-08-04T05:41:19Z</time>
      </trkpt>
      <trkpt lat="46.428323" lon="14.242581">
        <ele>1328.6232</ele>
        <time>2016-08-04T05:41:23Z</time>
      </trkpt>
      <trkpt lat="46.428363" lon="14.242546">
        <ele>1328.928</ele>
        <time>2016-08-04T05:41:26Z</time>
      </trkpt>
      <trkpt lat="46.428389" lon="14.242521">
        <ele>1329.5376</ele>
        <time>2016-08-04T05:41:27Z</time>
      </trkpt>
      <trkpt lat="46.428403" lon="14.242501">
        <ele>1329.8424</ele>
        <time>2016-08-04T05:41:30Z</time>
      </trkpt>
      <trkpt lat="46.428471" lon="14.242463">
        <ele>1330.452</ele>
        <time>2016-08-04T05:41:34Z</time>
      </trkpt>
      <trkpt lat="46.428467" lon="14.242392">
        <ele>1331.6712</ele>
        <time>2016-08-04T05:41:43Z</time>
      </trkpt>
      <trkpt lat="46.428442" lon="14.242432">
        <ele>1332.8904</ele>
        <time>2016-08-04T05:41:50Z</time>
      </trkpt>
      <trkpt lat="46.428393" lon="14.242444">
        <ele>1333.8048</ele>
        <time>2016-08-04T05:41:57Z</time>
      </trkpt>
      <trkpt lat="46.428390" lon="14.242442">
        <ele>1334.1096</ele>
        <time>2016-08-04T05:41:58Z</time>
      </trkpt>
      <trkpt lat="46.428369" lon="14.242432">
        <ele>1335.024</ele>
        <time>2016-08-04T05:42:05Z</time>
      </trkpt>
      <trkpt lat="46.428308" lon="14.242435">
        <ele>1336.2432</ele>
        <time>2016-08-04T05:42:12Z</time>
      </trkpt>
      <trkpt lat="46.428267" lon="14.242453">
        <ele>1337.1576</ele>
        <time>2016-08-04T05:42:17Z</time>
      </trkpt>
      <trkpt lat="46.428247" lon="14.242433">
        <ele>1338.3768</ele>
        <time>2016-08-04T05:42:25Z</time>
      </trkpt>
      <trkpt lat="46.428221" lon="14.242441">
        <ele>1339.2912</ele>
        <time>2016-08-04T05:42:29Z</time>
      </trkpt>
      <trkpt lat="46.428197" lon="14.242454">
        <ele>1340.5104</ele>
        <time>2016-08-04T05:42:36Z</time>
      </trkpt>
      <trkpt lat="46.428191" lon="14.242446">
        <ele>1340.8152</ele>
        <time>2016-08-04T05:42:39Z</time>
      </trkpt>
      <trkpt lat="46.428193" lon="14.242450">
        <ele>1341.12</ele>
        <time>2016-08-04T05:42:40Z</time>
      </trkpt>
      <trkpt lat="46.428170" lon="14.242440">
        <ele>1341.7296</ele>
        <time>2016-08-04T05:42:44Z</time>
      </trkpt>
      <trkpt lat="46.428198" lon="14.242340">
        <ele>1342.644</ele>
        <time>2016-08-04T05:43:00Z</time>
      </trkpt>
      <trkpt lat="46.428203" lon="14.242282">
        <ele>1343.8632</ele>
        <time>2016-08-04T05:43:07Z</time>
      </trkpt>
      <trkpt lat="46.428205" lon="14.242235">
        <ele>1345.0824</ele>
        <time>2016-08-04T05:43:14Z</time>
      </trkpt>
      <trkpt lat="46.428209" lon="14.242203">
        <ele>1345.9968</ele>
        <time>2016-08-04T05:43:21Z</time>
      </trkpt>
      <trkpt lat="46.428216" lon="14.242150">
        <ele>1346.9112</ele>
        <time>2016-08-04T05:43:42Z</time>
      </trkpt>
      <trkpt lat="46.428257" lon="14.242077">
        <ele>1348.4352</ele>
        <time>2016-08-04T05:43:48Z</time>
      </trkpt>
      <trkpt lat="46.428321" lon="14.242024">
        <ele>1349.3496</ele>
        <time>2016-08-04T05:43:56Z</time>
      </trkpt>
      <trkpt lat="46.428319" lon="14.241999">
        <ele>1350.264</ele>
        <time>2016-08-04T05:44:01Z</time>
      </trkpt>
      <trkpt lat="46.428256" lon="14.241969">
        <ele>1351.4832</ele>
        <time>2016-08-04T05:44:09Z</time>
      </trkpt>
      <trkpt lat="46.428216" lon="14.241961">
        <ele>1352.3976</ele>
        <time>2016-08-04T05:44:15Z</time>
      </trkpt>
      <trkpt lat="46.428180" lon="14.241946">
        <ele>1353.312</ele>
        <time>2016-08-04T05:44:21Z</time>
      </trkpt>
      <trkpt lat="46.428166" lon="14.241947">
        <ele>1354.5312</ele>
        <time>2016-08-04T05:44:28Z</time>
      </trkpt>
      <trkpt lat="46.428110" lon="14.241991">
        <ele>1355.7504</ele>
        <time>2016-08-04T05:44:35Z</time>
      </trkpt>
      <trkpt lat="46.428083" lon="14.241969">
        <ele>1356.6648</ele>
        <time>2016-08-04T05:44:43Z</time>
      </trkpt>
      <trkpt lat="46.428112" lon="14.241910">
        <ele>1357.884</ele>
        <time>2016-08-04T05:44:54Z</time>
      </trkpt>
      <trkpt lat="46.428150" lon="14.241900">
        <ele>1357.5792</ele>
        <time>2016-08-04T05:45:03Z</time>
      </trkpt>
      <trkpt lat="46.428152" lon="14.241898">
        <ele>1357.5792</ele>
        <time>2016-08-04T05:45:06Z</time>
      </trkpt>
      <trkpt lat="46.428213" lon="14.241828">
        <ele>1358.7984</ele>
        <time>2016-08-04T05:45:15Z</time>
      </trkpt>
      <trkpt lat="46.428273" lon="14.241783">
        <ele>1359.1032</ele>
        <time>2016-08-04T05:45:19Z</time>
      </trkpt>
      <trkpt lat="46.428286" lon="14.241774">
        <ele>1359.7128</ele>
        <time>2016-08-04T05:45:22Z</time>
      </trkpt>
      <trkpt lat="46.428294" lon="14.241765">
        <ele>1359.7128</ele>
        <time>2016-08-04T05:45:23Z</time>
      </trkpt>
      <trkpt lat="46.428305" lon="14.241739">
        <ele>1360.3224</ele>
        <time>2016-08-04T05:45:29Z</time>
      </trkpt>
      <trkpt lat="46.428264" lon="14.241726">
        <ele>1360.932</ele>
        <time>2016-08-04T05:45:34Z</time>
      </trkpt>
      <trkpt lat="46.428249" lon="14.241730">
        <ele>1360.932</ele>
        <time>2016-08-04T05:45:34Z</time>
      </trkpt>
      <trkpt lat="46.428248" lon="14.241707">
        <ele>1360.932</ele>
        <time>2016-08-04T05:45:37Z</time>
      </trkpt>
      <trkpt lat="46.428264" lon="14.241675">
        <ele>1361.5416</ele>
        <time>2016-08-04T05:45:41Z</time>
      </trkpt>
      <trkpt lat="46.428264" lon="14.241659">
        <ele>1361.8464</ele>
        <time>2016-08-04T05:45:42Z</time>
      </trkpt>
      <trkpt lat="46.428264" lon="14.241653">
        <ele>1361.8464</ele>
        <time>2016-08-04T05:45:44Z</time>
      </trkpt>
      <trkpt lat="46.428260" lon="14.241653">
        <ele>1362.1512</ele>
        <time>2016-08-04T05:45:45Z</time>
      </trkpt>
      <trkpt lat="46.428288" lon="14.241616">
        <ele>1362.456</ele>
        <time>2016-08-04T05:45:48Z</time>
      </trkpt>
      <trkpt lat="46.428340" lon="14.241564">
        <ele>1363.0656</ele>
        <time>2016-08-04T05:45:50Z</time>
      </trkpt>
      <trkpt lat="46.428323" lon="14.241540">
        <ele>1363.98</ele>
        <time>2016-08-04T05:45:59Z</time>
      </trkpt>
      <trkpt lat="46.428350" lon="14.241487">
        <ele>1364.8944</ele>
        <time>2016-08-04T05:46:08Z</time>
      </trkpt>
      <trkpt lat="46.428332" lon="14.241490">
        <ele>1366.1136</ele>
        <time>2016-08-04T05:46:16Z</time>
      </trkpt>
      <trkpt lat="46.428416" lon="14.241373">
        <ele>1367.028</ele>
        <time>2016-08-04T05:46:30Z</time>
      </trkpt>
      <trkpt lat="46.428447" lon="14.241333">
        <ele>1368.2472</ele>
        <time>2016-08-04T05:46:35Z</time>
      </trkpt>
      <trkpt lat="46.428460" lon="14.241312">
        <ele>1368.552</ele>
        <time>2016-08-04T05:46:39Z</time>
      </trkpt>
      <trkpt lat="46.428456" lon="14.241280">
        <ele>1369.1616</ele>
        <time>2016-08-04T05:46:46Z</time>
      </trkpt>
      <trkpt lat="46.428464" lon="14.241249">
        <ele>1370.3808</ele>
        <time>2016-08-04T05:46:51Z</time>
      </trkpt>
      <trkpt lat="46.428477" lon="14.241187">
        <ele>1371.2952</ele>
        <time>2016-08-04T05:46:58Z</time>
      </trkpt>
      <trkpt lat="46.428494" lon="14.241122">
        <ele>1372.5144</ele>
        <time>2016-08-04T05:47:10Z</time>
      </trkpt>
      <trkpt lat="46.428498" lon="14.241072">
        <ele>1373.7336</ele>
        <time>2016-08-04T05:47:15Z</time>
      </trkpt>
      <trkpt lat="46.428508" lon="14.241034">
        <ele>1374.3432</ele>
        <time>2016-08-04T05:47:18Z</time>
      </trkpt>
      <trkpt lat="46.428521" lon="14.241009">
        <ele>1374.648</ele>
        <time>2016-08-04T05:47:22Z</time>
      </trkpt>
      <trkpt lat="46.428539" lon="14.240926">
        <ele>1375.8672</ele>
        <time>2016-08-04T05:47:33Z</time>
      </trkpt>
      <trkpt lat="46.428548" lon="14.240906">
        <ele>1376.4768</ele>
        <time>2016-08-04T05:47:36Z</time>
      </trkpt>
      <trkpt lat="46.428562" lon="14.240857">
        <ele>1377.0864</ele>
        <time>2016-08-04T05:47:41Z</time>
      </trkpt>
      <trkpt lat="46.428588" lon="14.240826">
        <ele>1377.696</ele>
        <time>2016-08-04T05:47:45Z</time>
      </trkpt>
      <trkpt lat="46.428593" lon="14.240808">
        <ele>1378.3056</ele>
        <time>2016-08-04T05:47:48Z</time>
      </trkpt>
      <trkpt lat="46.428598" lon="14.240799">
        <ele>1378.3056</ele>
        <time>2016-08-04T05:47:49Z</time>
      </trkpt>
      <trkpt lat="46.428593" lon="14.240792">
        <ele>1378.6104</ele>
        <time>2016-08-04T05:47:51Z</time>
      </trkpt>
      <trkpt lat="46.428585" lon="14.240783">
        <ele>1378.9152</ele>
        <time>2016-08-04T05:47:52Z</time>
      </trkpt>
      <trkpt lat="46.428560" lon="14.240783">
        <ele>1379.22</ele>
        <time>2016-08-04T05:47:56Z</time>
      </trkpt>
      <trkpt lat="46.428539" lon="14.240781">
        <ele>1379.8296</ele>
        <time>2016-08-04T05:47:59Z</time>
      </trkpt>
      <trkpt lat="46.428522" lon="14.240792">
        <ele>1380.1344</ele>
        <time>2016-08-04T05:48:00Z</time>
      </trkpt>
      <trkpt lat="46.428510" lon="14.240806">
        <ele>1380.744</ele>
        <time>2016-08-04T05:48:03Z</time>
      </trkpt>
      <trkpt lat="46.428462" lon="14.240846">
        <ele>1381.0488</ele>
        <time>2016-08-04T05:48:08Z</time>
      </trkpt>
      <trkpt lat="46.428454" lon="14.240855">
        <ele>1381.3536</ele>
        <time>2016-08-04T05:48:08Z</time>
      </trkpt>
      <trkpt lat="46.428425" lon="14.240864">
        <ele>1382.268</ele>
        <time>2016-08-04T05:48:14Z</time>
      </trkpt>
      <trkpt lat="46.428420" lon="14.240862">
        <ele>1382.268</ele>
        <time>2016-08-04T05:48:15Z</time>
      </trkpt>
      <trkpt lat="46.428402" lon="14.240840">
        <ele>1382.8776</ele>
        <time>2016-08-04T05:48:19Z</time>
      </trkpt>
      <trkpt lat="46.428396" lon="14.240840">
        <ele>1382.8776</ele>
        <time>2016-08-04T05:48:22Z</time>
      </trkpt>
      <trkpt lat="46.428386" lon="14.240845">
        <ele>1383.4872</ele>
        <time>2016-08-04T05:48:23Z</time>
      </trkpt>
      <trkpt lat="46.428356" lon="14.240837">
        <ele>1384.7064</ele>
        <time>2016-08-04T05:48:30Z</time>
      </trkpt>
      <trkpt lat="46.428312" lon="14.240842">
        <ele>1385.6208</ele>
        <time>2016-08-04T05:48:38Z</time>
      </trkpt>
      <trkpt lat="46.428366" lon="14.240734">
        <ele>1385.9256</ele>
        <time>2016-08-04T05:48:58Z</time>
      </trkpt>
      <trkpt lat="46.428393" lon="14.240714">
        <ele>1385.9256</ele>
        <time>2016-08-04T05:49:14Z</time>
      </trkpt>
      <trkpt lat="46.428349" lon="14.240724">
        <ele>1386.2304</ele>
        <time>2016-08-04T05:49:25Z</time>
      </trkpt>
      <trkpt lat="46.428357" lon="14.240719">
        <ele>1386.5352</ele>
        <time>2016-08-04T05:49:26Z</time>
      </trkpt>
      <trkpt lat="46.428360" lon="14.240720">
        <ele>1386.84</ele>
        <time>2016-08-04T05:49:28Z</time>
      </trkpt>
      <trkpt lat="46.428360" lon="14.240743">
        <ele>1386.84</ele>
        <time>2016-08-04T05:49:32Z</time>
      </trkpt>
      <trkpt lat="46.428365" lon="14.240755">
        <ele>1386.2304</ele>
        <time>2016-08-04T05:49:35Z</time>
      </trkpt>
      <trkpt lat="46.428388" lon="14.240745">
        <ele>1385.9256</ele>
        <time>2016-08-04T05:49:37Z</time>
      </trkpt>
      <trkpt lat="46.428379" lon="14.240752">
        <ele>1385.9256</ele>
        <time>2016-08-04T05:49:40Z</time>
      </trkpt>
      <trkpt lat="46.428370" lon="14.240760">
        <ele>1385.9256</ele>
        <time>2016-08-04T05:49:44Z</time>
      </trkpt>
      <trkpt lat="46.428376" lon="14.240748">
        <ele>1386.5352</ele>
        <time>2016-08-04T05:49:52Z</time>
      </trkpt>
      <trkpt lat="46.428361" lon="14.240756">
        <ele>1386.5352</ele>
        <time>2016-08-04T05:49:56Z</time>
      </trkpt>
      <trkpt lat="46.428347" lon="14.240762">
        <ele>1386.5352</ele>
        <time>2016-08-04T05:49:57Z</time>
      </trkpt>
      <trkpt lat="46.428331" lon="14.240772">
        <ele>1385.9256</ele>
        <time>2016-08-04T05:50:02Z</time>
      </trkpt>
      <trkpt lat="46.428329" lon="14.240752">
        <ele>1385.9256</ele>
        <time>2016-08-04T05:50:24Z</time>
      </trkpt>
      <trkpt lat="46.428355" lon="14.240768">
        <ele>1386.2304</ele>
        <time>2016-08-04T05:50:34Z</time>
      </trkpt>
      <trkpt lat="46.428319" lon="14.240792">
        <ele>1386.2304</ele>
        <time>2016-08-04T05:50:42Z</time>
      </trkpt>
      <trkpt lat="46.428294" lon="14.240774">
        <ele>1385.9256</ele>
        <time>2016-08-04T05:50:51Z</time>
      </trkpt>
      <trkpt lat="46.428308" lon="14.240777">
        <ele>1385.9256</ele>
        <time>2016-08-04T05:50:58Z</time>
      </trkpt>
      <trkpt lat="46.428296" lon="14.240776">
        <ele>1385.9256</ele>
        <time>2016-08-04T05:51:01Z</time>
      </trkpt>
      <trkpt lat="46.428283" lon="14.240780">
        <ele>1386.5352</ele>
        <time>2016-08-04T05:51:02Z</time>
      </trkpt>
      <trkpt lat="46.428275" lon="14.240788">
        <ele>1386.5352</ele>
        <time>2016-08-04T05:51:04Z</time>
      </trkpt>
      <trkpt lat="46.428266" lon="14.240795">
        <ele>1386.5352</ele>
        <time>2016-08-04T05:51:05Z</time>
      </trkpt>
      <trkpt lat="46.428256" lon="14.240800">
        <ele>1386.5352</ele>
        <time>2016-08-04T05:51:05Z</time>
      </trkpt>
      <trkpt lat="46.428230" lon="14.240813">
        <ele>1387.4496</ele>
        <time>2016-08-04T05:51:09Z</time>
      </trkpt>
      <trkpt lat="46.428210" lon="14.240827">
        <ele>1388.364</ele>
        <time>2016-08-04T05:51:13Z</time>
      </trkpt>
      <trkpt lat="46.428193" lon="14.240829">
        <ele>1388.6688</ele>
        <time>2016-08-04T05:51:14Z</time>
      </trkpt>
      <trkpt lat="46.428179" lon="14.240848">
        <ele>1389.888</ele>
        <time>2016-08-04T05:51:20Z</time>
      </trkpt>
      <trkpt lat="46.428149" lon="14.240891">
        <ele>1391.1072</ele>
        <time>2016-08-04T05:51:25Z</time>
      </trkpt>
      <trkpt lat="46.428120" lon="14.240873">
        <ele>1391.412</ele>
        <time>2016-08-04T05:51:28Z</time>
      </trkpt>
      <trkpt lat="46.428093" lon="14.240850">
        <ele>1391.7168</ele>
        <time>2016-08-04T05:51:31Z</time>
      </trkpt>
      <trkpt lat="46.428086" lon="14.240846">
        <ele>1391.7168</ele>
        <time>2016-08-04T05:51:32Z</time>
      </trkpt>
      <trkpt lat="46.428088" lon="14.240815">
        <ele>1392.0216</ele>
        <time>2016-08-04T05:51:35Z</time>
      </trkpt>
      <trkpt lat="46.428099" lon="14.240773">
        <ele>1392.936</ele>
        <time>2016-08-04T05:51:39Z</time>
      </trkpt>
      <trkpt lat="46.428115" lon="14.240746">
        <ele>1392.936</ele>
        <time>2016-08-04T05:51:40Z</time>
      </trkpt>
      <trkpt lat="46.428169" lon="14.240654">
        <ele>1394.1552</ele>
        <time>2016-08-04T05:51:48Z</time>
      </trkpt>
      <trkpt lat="46.428229" lon="14.240586">
        <ele>1395.0696</ele>
        <time>2016-08-04T05:51:59Z</time>
      </trkpt>
      <trkpt lat="46.428222" lon="14.240553">
        <ele>1396.2888</ele>
        <time>2016-08-04T05:52:07Z</time>
      </trkpt>
      <trkpt lat="46.428243" lon="14.240467">
        <ele>1397.508</ele>
        <time>2016-08-04T05:52:15Z</time>
      </trkpt>
      <trkpt lat="46.428273" lon="14.240414">
        <ele>1398.7272</ele>
        <time>2016-08-04T05:52:22Z</time>
      </trkpt>
      <trkpt lat="46.428292" lon="14.240372">
        <ele>1399.3368</ele>
        <time>2016-08-04T05:52:26Z</time>
      </trkpt>
      <trkpt lat="46.428292" lon="14.240359">
        <ele>1399.9464</ele>
        <time>2016-08-04T05:52:29Z</time>
      </trkpt>
      <trkpt lat="46.428287" lon="14.240359">
        <ele>1399.9464</ele>
        <time>2016-08-04T05:52:30Z</time>
      </trkpt>
      <trkpt lat="46.428238" lon="14.240367">
        <ele>1400.8608</ele>
        <time>2016-08-04T05:52:38Z</time>
      </trkpt>
      <trkpt lat="46.428222" lon="14.240376">
        <ele>1401.4704</ele>
        <time>2016-08-04T05:52:39Z</time>
      </trkpt>
      <trkpt lat="46.428178" lon="14.240397">
        <ele>1402.08</ele>
        <time>2016-08-04T05:52:46Z</time>
      </trkpt>
      <trkpt lat="46.428141" lon="14.240439">
        <ele>1402.6896</ele>
        <time>2016-08-04T05:52:49Z</time>
      </trkpt>
      <trkpt lat="46.428121" lon="14.240442">
        <ele>1402.9944</ele>
        <time>2016-08-04T05:52:53Z</time>
      </trkpt>
      <trkpt lat="46.428083" lon="14.240460">
        <ele>1403.9088</ele>
        <time>2016-08-04T05:52:58Z</time>
      </trkpt>
      <trkpt lat="46.428078" lon="14.240442">
        <ele>1403.9088</ele>
        <time>2016-08-04T05:53:01Z</time>
      </trkpt>
      <trkpt lat="46.428064" lon="14.240420">
        <ele>1405.128</ele>
        <time>2016-08-04T05:53:06Z</time>
      </trkpt>
      <trkpt lat="46.428059" lon="14.240415">
        <ele>1405.128</ele>
        <time>2016-08-04T05:53:08Z</time>
      </trkpt>
      <trkpt lat="46.428005" lon="14.240443">
        <ele>1406.3472</ele>
        <time>2016-08-04T05:53:16Z</time>
      </trkpt>
      <trkpt lat="46.427998" lon="14.240459">
        <ele>1406.652</ele>
        <time>2016-08-04T05:53:17Z</time>
      </trkpt>
      <trkpt lat="46.427980" lon="14.240472">
        <ele>1407.2616</ele>
        <time>2016-08-04T05:53:20Z</time>
      </trkpt>
      <trkpt lat="46.427974" lon="14.240481">
        <ele>1407.2616</ele>
        <time>2016-08-04T05:53:23Z</time>
      </trkpt>
      <trkpt lat="46.427942" lon="14.240475">
        <ele>1408.176</ele>
        <time>2016-08-04T05:53:28Z</time>
      </trkpt>
      <trkpt lat="46.427925" lon="14.240487">
        <ele>1408.4808</ele>
        <time>2016-08-04T05:53:29Z</time>
      </trkpt>
      <trkpt lat="46.427870" lon="14.240503">
        <ele>1409.7</ele>
        <time>2016-08-04T05:53:36Z</time>
      </trkpt>
      <trkpt lat="46.427861" lon="14.240506">
        <ele>1409.7</ele>
        <time>2016-08-04T05:53:36Z</time>
      </trkpt>
      <trkpt lat="46.427826" lon="14.240482">
        <ele>1410.3096</ele>
        <time>2016-08-04T05:53:40Z</time>
      </trkpt>
      <trkpt lat="46.427828" lon="14.240451">
        <ele>1410.6144</ele>
        <time>2016-08-04T05:53:43Z</time>
      </trkpt>
      <trkpt lat="46.427845" lon="14.240429">
        <ele>1410.9192</ele>
        <time>2016-08-04T05:53:46Z</time>
      </trkpt>
      <trkpt lat="46.427860" lon="14.240400">
        <ele>1411.5288</ele>
        <time>2016-08-04T05:53:48Z</time>
      </trkpt>
      <trkpt lat="46.427862" lon="14.240394">
        <ele>1411.5288</ele>
        <time>2016-08-04T05:53:50Z</time>
      </trkpt>
      <trkpt lat="46.427870" lon="14.240379">
        <ele>1412.1384</ele>
        <time>2016-08-04T05:53:51Z</time>
      </trkpt>
      <trkpt lat="46.427955" lon="14.240290">
        <ele>1412.748</ele>
        <time>2016-08-04T05:53:55Z</time>
      </trkpt>
      <trkpt lat="46.427958" lon="14.240280">
        <ele>1412.748</ele>
        <time>2016-08-04T05:53:55Z</time>
      </trkpt>
      <trkpt lat="46.427973" lon="14.240256">
        <ele>1412.748</ele>
        <time>2016-08-04T05:53:58Z</time>
      </trkpt>
      <trkpt lat="46.427979" lon="14.240246">
        <ele>1413.0528</ele>
        <time>2016-08-04T05:53:59Z</time>
      </trkpt>
      <trkpt lat="46.428000" lon="14.240228">
        <ele>1413.6624</ele>
        <time>2016-08-04T05:54:05Z</time>
      </trkpt>
      <trkpt lat="46.428007" lon="14.240212">
        <ele>1413.9672</ele>
        <time>2016-08-04T05:54:06Z</time>
      </trkpt>
      <trkpt lat="46.428035" lon="14.240183">
        <ele>1414.272</ele>
        <time>2016-08-04T05:54:09Z</time>
      </trkpt>
      <trkpt lat="46.428045" lon="14.240131">
        <ele>1414.8816</ele>
        <time>2016-08-04T05:54:13Z</time>
      </trkpt>
      <trkpt lat="46.428038" lon="14.240092">
        <ele>1415.1864</ele>
        <time>2016-08-04T05:54:17Z</time>
      </trkpt>
      <trkpt lat="46.428042" lon="14.240071">
        <ele>1415.4912</ele>
        <time>2016-08-04T05:54:19Z</time>
      </trkpt>
      <trkpt lat="46.428043" lon="14.240060">
        <ele>1415.796</ele>
        <time>2016-08-04T05:54:22Z</time>
      </trkpt>
      <trkpt lat="46.428041" lon="14.240054">
        <ele>1416.1008</ele>
        <time>2016-08-04T05:54:22Z</time>
      </trkpt>
      <trkpt lat="46.428054" lon="14.239994">
        <ele>1417.32</ele>
        <time>2016-08-04T05:54:33Z</time>
      </trkpt>
      <trkpt lat="46.428065" lon="14.239933">
        <ele>1418.2344</ele>
        <time>2016-08-04T05:54:38Z</time>
      </trkpt>
      <trkpt lat="46.428074" lon="14.239845">
        <ele>1419.4536</ele>
        <time>2016-08-04T05:54:49Z</time>
      </trkpt>
      <trkpt lat="46.428083" lon="14.239837">
        <ele>1419.4536</ele>
        <time>2016-08-04T05:54:49Z</time>
      </trkpt>
      <trkpt lat="46.428107" lon="14.239810">
        <ele>1420.0632</ele>
        <time>2016-08-04T05:54:53Z</time>
      </trkpt>
      <trkpt lat="46.428112" lon="14.239802">
        <ele>1420.0632</ele>
        <time>2016-08-04T05:54:53Z</time>
      </trkpt>
      <trkpt lat="46.428121" lon="14.239790">
        <ele>1420.368</ele>
        <time>2016-08-04T05:54:56Z</time>
      </trkpt>
      <trkpt lat="46.428126" lon="14.239760">
        <ele>1420.6728</ele>
        <time>2016-08-04T05:55:00Z</time>
      </trkpt>
      <trkpt lat="46.428137" lon="14.239740">
        <ele>1421.2824</ele>
        <time>2016-08-04T05:55:01Z</time>
      </trkpt>
      <trkpt lat="46.428141" lon="14.239733">
        <ele>1421.2824</ele>
        <time>2016-08-04T05:55:03Z</time>
      </trkpt>
      <trkpt lat="46.428145" lon="14.239726">
        <ele>1421.5872</ele>
        <time>2016-08-04T05:55:04Z</time>
      </trkpt>
      <trkpt lat="46.428177" lon="14.239661">
        <ele>1422.5016</ele>
        <time>2016-08-04T05:55:12Z</time>
      </trkpt>
      <trkpt lat="46.428184" lon="14.239605">
        <ele>1423.7208</ele>
        <time>2016-08-04T05:55:17Z</time>
      </trkpt>
      <trkpt lat="46.428138" lon="14.239588">
        <ele>1424.94</ele>
        <time>2016-08-04T05:55:24Z</time>
      </trkpt>
      <trkpt lat="46.428092" lon="14.239565">
        <ele>1425.5496</ele>
        <time>2016-08-04T05:55:31Z</time>
      </trkpt>
      <trkpt lat="46.428095" lon="14.239558">
        <ele>1425.8544</ele>
        <time>2016-08-04T05:55:32Z</time>
      </trkpt>
      <trkpt lat="46.428068" lon="14.239501">
        <ele>1427.0736</ele>
        <time>2016-08-04T05:55:39Z</time>
      </trkpt>
      <trkpt lat="46.428054" lon="14.239416">
        <ele>1428.2928</ele>
        <time>2016-08-04T05:55:46Z</time>
      </trkpt>
      <trkpt lat="46.428046" lon="14.239406">
        <ele>1428.2928</ele>
        <time>2016-08-04T05:55:47Z</time>
      </trkpt>
      <trkpt lat="46.428055" lon="14.239371">
        <ele>1429.2072</ele>
        <time>2016-08-04T05:55:51Z</time>
      </trkpt>
      <trkpt lat="46.428059" lon="14.239320">
        <ele>1429.512</ele>
        <time>2016-08-04T05:55:55Z</time>
      </trkpt>
      <trkpt lat="46.428085" lon="14.239273">
        <ele>1430.1216</ele>
        <time>2016-08-04T05:55:58Z</time>
      </trkpt>
      <trkpt lat="46.428102" lon="14.239259">
        <ele>1430.1216</ele>
        <time>2016-08-04T05:55:59Z</time>
      </trkpt>
      <trkpt lat="46.428119" lon="14.239239">
        <ele>1430.4264</ele>
        <time>2016-08-04T05:56:02Z</time>
      </trkpt>
      <trkpt lat="46.428123" lon="14.239234">
        <ele>1431.3408</ele>
        <time>2016-08-04T05:56:06Z</time>
      </trkpt>
      <trkpt lat="46.428154" lon="14.239221">
        <ele>1431.6456</ele>
        <time>2016-08-04T05:56:10Z</time>
      </trkpt>
      <trkpt lat="46.428177" lon="14.239218">
        <ele>1431.9504</ele>
        <time>2016-08-04T05:56:11Z</time>
      </trkpt>
      <trkpt lat="46.428207" lon="14.239196">
        <ele>1432.2552</ele>
        <time>2016-08-04T05:56:14Z</time>
      </trkpt>
      <trkpt lat="46.428230" lon="14.239171">
        <ele>1432.8648</ele>
        <time>2016-08-04T05:56:17Z</time>
      </trkpt>
      <trkpt lat="46.428250" lon="14.239171">
        <ele>1433.4744</ele>
        <time>2016-08-04T05:56:21Z</time>
      </trkpt>
      <trkpt lat="46.428257" lon="14.239166">
        <ele>1433.4744</ele>
        <time>2016-08-04T05:56:22Z</time>
      </trkpt>
      <trkpt lat="46.428273" lon="14.239161">
        <ele>1434.084</ele>
        <time>2016-08-04T05:56:26Z</time>
      </trkpt>
      <trkpt lat="46.428280" lon="14.239153">
        <ele>1434.3888</ele>
        <time>2016-08-04T05:56:28Z</time>
      </trkpt>
      <trkpt lat="46.428314" lon="14.239124">
        <ele>1434.9984</ele>
        <time>2016-08-04T05:56:32Z</time>
      </trkpt>
      <trkpt lat="46.428283" lon="14.239098">
        <ele>1435.608</ele>
        <time>2016-08-04T05:56:37Z</time>
      </trkpt>
      <trkpt lat="46.428283" lon="14.239090">
        <ele>1435.9128</ele>
        <time>2016-08-04T05:56:40Z</time>
      </trkpt>
      <trkpt lat="46.428288" lon="14.239069">
        <ele>1436.5224</ele>
        <time>2016-08-04T05:56:42Z</time>
      </trkpt>
      <trkpt lat="46.428291" lon="14.239058">
        <ele>1436.5224</ele>
        <time>2016-08-04T05:56:44Z</time>
      </trkpt>
      <trkpt lat="46.428295" lon="14.239052">
        <ele>1436.8272</ele>
        <time>2016-08-04T05:56:45Z</time>
      </trkpt>
      <trkpt lat="46.428299" lon="14.239026">
        <ele>1437.132</ele>
        <time>2016-08-04T05:56:49Z</time>
      </trkpt>
      <trkpt lat="46.428306" lon="14.239005">
        <ele>1437.7416</ele>
        <time>2016-08-04T05:56:51Z</time>
      </trkpt>
      <trkpt lat="46.428308" lon="14.238990">
        <ele>1437.7416</ele>
        <time>2016-08-04T05:56:52Z</time>
      </trkpt>
      <trkpt lat="46.428291" lon="14.238908">
        <ele>1438.656</ele>
        <time>2016-08-04T05:56:57Z</time>
      </trkpt>
      <trkpt lat="46.428270" lon="14.238870">
        <ele>1439.2656</ele>
        <time>2016-08-04T05:57:00Z</time>
      </trkpt>
      <trkpt lat="46.428272" lon="14.238838">
        <ele>1439.8752</ele>
        <time>2016-08-04T05:57:04Z</time>
      </trkpt>
      <trkpt lat="46.428261" lon="14.238809">
        <ele>1440.18</ele>
        <time>2016-08-04T05:57:07Z</time>
      </trkpt>
      <trkpt lat="46.428240" lon="14.238804">
        <ele>1440.4848</ele>
        <time>2016-08-04T05:57:08Z</time>
      </trkpt>
      <trkpt lat="46.428227" lon="14.238786">
        <ele>1441.0944</ele>
        <time>2016-08-04T05:57:12Z</time>
      </trkpt>
      <trkpt lat="46.428187" lon="14.238784">
        <ele>1441.3992</ele>
        <time>2016-08-04T05:57:16Z</time>
      </trkpt>
      <trkpt lat="46.428205" lon="14.238740">
        <ele>1442.0088</ele>
        <time>2016-08-04T05:57:20Z</time>
      </trkpt>
      <trkpt lat="46.428204" lon="14.238723">
        <ele>1442.3136</ele>
        <time>2016-08-04T05:57:23Z</time>
      </trkpt>
      <trkpt lat="46.428205" lon="14.238634">
        <ele>1442.9232</ele>
        <time>2016-08-04T05:57:46Z</time>
      </trkpt>
      <trkpt lat="46.428171" lon="14.238628">
        <ele>1443.5328</ele>
        <time>2016-08-04T05:57:49Z</time>
      </trkpt>
      <trkpt lat="46.428200" lon="14.238603">
        <ele>1443.5328</ele>
        <time>2016-08-04T05:57:50Z</time>
      </trkpt>
      <trkpt lat="46.428238" lon="14.238579">
        <ele>1444.1424</ele>
        <time>2016-08-04T05:57:53Z</time>
      </trkpt>
      <trkpt lat="46.428254" lon="14.238564">
        <ele>1444.1424</ele>
        <time>2016-08-04T05:57:54Z</time>
      </trkpt>
      <trkpt lat="46.428400" lon="14.238482">
        <ele>1444.4472</ele>
        <time>2016-08-04T05:57:58Z</time>
      </trkpt>
      <trkpt lat="46.428425" lon="14.238447">
        <ele>1445.0568</ele>
        <time>2016-08-04T05:58:02Z</time>
      </trkpt>
      <trkpt lat="46.428430" lon="14.238434">
        <ele>1445.0568</ele>
        <time>2016-08-04T05:58:02Z</time>
      </trkpt>
      <trkpt lat="46.428437" lon="14.238424">
        <ele>1445.3616</ele>
        <time>2016-08-04T05:58:03Z</time>
      </trkpt>
      <trkpt lat="46.428299" lon="14.238388">
        <ele>1446.276</ele>
        <time>2016-08-04T05:58:10Z</time>
      </trkpt>
      <trkpt lat="46.428229" lon="14.238389">
        <ele>1446.8856</ele>
        <time>2016-08-04T05:58:14Z</time>
      </trkpt>
      <trkpt lat="46.428227" lon="14.238350">
        <ele>1447.4952</ele>
        <time>2016-08-04T05:58:18Z</time>
      </trkpt>
      <trkpt lat="46.428207" lon="14.238309">
        <ele>1448.1048</ele>
        <time>2016-08-04T05:58:24Z</time>
      </trkpt>
      <trkpt lat="46.428181" lon="14.238276">
        <ele>1448.7144</ele>
        <time>2016-08-04T05:58:26Z</time>
      </trkpt>
      <trkpt lat="46.428208" lon="14.238206">
        <ele>1449.324</ele>
        <time>2016-08-04T05:58:33Z</time>
      </trkpt>
      <trkpt lat="46.428215" lon="14.238201">
        <ele>1449.6288</ele>
        <time>2016-08-04T05:58:33Z</time>
      </trkpt>
      <trkpt lat="46.428269" lon="14.238133">
        <ele>1450.5432</ele>
        <time>2016-08-04T05:58:40Z</time>
      </trkpt>
      <trkpt lat="46.428241" lon="14.238117">
        <ele>1450.5432</ele>
        <time>2016-08-04T05:58:44Z</time>
      </trkpt>
      <trkpt lat="46.428204" lon="14.238079">
        <ele>1451.4576</ele>
        <time>2016-08-04T05:58:48Z</time>
      </trkpt>
      <trkpt lat="46.428171" lon="14.238062">
        <ele>1451.7624</ele>
        <time>2016-08-04T05:58:49Z</time>
      </trkpt>
      <trkpt lat="46.427971" lon="14.238056">
        <ele>1452.372</ele>
        <time>2016-08-04T05:58:59Z</time>
      </trkpt>
      <trkpt lat="46.427971" lon="14.238040">
        <ele>1452.6768</ele>
        <time>2016-08-04T05:59:00Z</time>
      </trkpt>
      <trkpt lat="46.427900" lon="14.237955">
        <ele>1453.896</ele>
        <time>2016-08-04T05:59:10Z</time>
      </trkpt>
      <trkpt lat="46.427912" lon="14.237941">
        <ele>1454.2008</ele>
        <time>2016-08-04T05:59:11Z</time>
      </trkpt>
      <trkpt lat="46.427936" lon="14.237846">
        <ele>1455.1152</ele>
        <time>2016-08-04T05:59:18Z</time>
      </trkpt>
      <trkpt lat="46.427952" lon="14.237835">
        <ele>1455.42</ele>
        <time>2016-08-04T05:59:19Z</time>
      </trkpt>
      <trkpt lat="46.427958" lon="14.237809">
        <ele>1455.7248</ele>
        <time>2016-08-04T05:59:20Z</time>
      </trkpt>
      <trkpt lat="46.427948" lon="14.237798">
        <ele>1455.7248</ele>
        <time>2016-08-04T05:59:23Z</time>
      </trkpt>
      <trkpt lat="46.427924" lon="14.237776">
        <ele>1456.3344</ele>
        <time>2016-08-04T05:59:24Z</time>
      </trkpt>
      <trkpt lat="46.427907" lon="14.237739">
        <ele>1456.6392</ele>
        <time>2016-08-04T05:59:27Z</time>
      </trkpt>
      <trkpt lat="46.427924" lon="14.237717">
        <ele>1456.944</ele>
        <time>2016-08-04T05:59:30Z</time>
      </trkpt>
      <trkpt lat="46.427986" lon="14.237656">
        <ele>1457.2488</ele>
        <time>2016-08-04T05:59:34Z</time>
      </trkpt>
      <trkpt lat="46.428121" lon="14.237632">
        <ele>1457.8584</ele>
        <time>2016-08-04T05:59:42Z</time>
      </trkpt>
      <trkpt lat="46.428125" lon="14.237615">
        <ele>1457.8584</ele>
        <time>2016-08-04T05:59:43Z</time>
      </trkpt>
      <trkpt lat="46.428173" lon="14.237564">
        <ele>1458.1632</ele>
        <time>2016-08-04T05:59:47Z</time>
      </trkpt>
      <trkpt lat="46.428184" lon="14.237438">
        <ele>1458.468</ele>
        <time>2016-08-04T05:59:54Z</time>
      </trkpt>
      <trkpt lat="46.428192" lon="14.237421">
        <ele>1458.468</ele>
        <time>2016-08-04T05:59:56Z</time>
      </trkpt>
      <trkpt lat="46.428279" lon="14.237225">
        <ele>1459.3824</ele>
        <time>2016-08-04T06:00:05Z</time>
      </trkpt>
      <trkpt lat="46.428257" lon="14.237204">
        <ele>1459.6872</ele>
        <time>2016-08-04T06:00:08Z</time>
      </trkpt>
      <trkpt lat="46.428270" lon="14.237190">
        <ele>1459.6872</ele>
        <time>2016-08-04T06:00:10Z</time>
      </trkpt>
      <trkpt lat="46.428256" lon="14.237124">
        <ele>1460.6016</ele>
        <time>2016-08-04T06:00:16Z</time>
      </trkpt>
      <trkpt lat="46.428272" lon="14.237108">
        <ele>1460.9064</ele>
        <time>2016-08-04T06:00:17Z</time>
      </trkpt>
      <trkpt lat="46.428251" lon="14.237084">
        <ele>1461.8208</ele>
        <time>2016-08-04T06:00:21Z</time>
      </trkpt>
      <trkpt lat="46.428249" lon="14.237077">
        <ele>1462.1256</ele>
        <time>2016-08-04T06:00:23Z</time>
      </trkpt>
      <trkpt lat="46.428248" lon="14.237033">
        <ele>1462.7352</ele>
        <time>2016-08-04T06:00:27Z</time>
      </trkpt>
      <trkpt lat="46.428266" lon="14.237020">
        <ele>1463.04</ele>
        <time>2016-08-04T06:00:28Z</time>
      </trkpt>
      <trkpt lat="46.428291" lon="14.236995">
        <ele>1463.9544</ele>
        <time>2016-08-04T06:00:32Z</time>
      </trkpt>
      <trkpt lat="46.428298" lon="14.236974">
        <ele>1464.2592</ele>
        <time>2016-08-04T06:00:33Z</time>
      </trkpt>
      <trkpt lat="46.428306" lon="14.236933">
        <ele>1464.8688</ele>
        <time>2016-08-04T06:00:36Z</time>
      </trkpt>
      <trkpt lat="46.428311" lon="14.236900">
        <ele>1465.4784</ele>
        <time>2016-08-04T06:00:40Z</time>
      </trkpt>
      <trkpt lat="46.428327" lon="14.236864">
        <ele>1466.088</ele>
        <time>2016-08-04T06:00:43Z</time>
      </trkpt>
      <trkpt lat="46.428302" lon="14.236844">
        <ele>1466.6976</ele>
        <time>2016-08-04T06:00:45Z</time>
      </trkpt>
      <trkpt lat="46.428264" lon="14.236804">
        <ele>1467.0024</ele>
        <time>2016-08-04T06:00:48Z</time>
      </trkpt>
      <trkpt lat="46.428245" lon="14.236780">
        <ele>1467.3072</ele>
        <time>2016-08-04T06:00:51Z</time>
      </trkpt>
      <trkpt lat="46.428218" lon="14.236763">
        <ele>1467.612</ele>
        <time>2016-08-04T06:00:52Z</time>
      </trkpt>
      <trkpt lat="46.428188" lon="14.236766">
        <ele>1467.9168</ele>
        <time>2016-08-04T06:00:55Z</time>
      </trkpt>
      <trkpt lat="46.428170" lon="14.236759">
        <ele>1467.9168</ele>
        <time>2016-08-04T06:00:58Z</time>
      </trkpt>
      <trkpt lat="46.428136" lon="14.236757">
        <ele>1468.5264</ele>
        <time>2016-08-04T06:00:59Z</time>
      </trkpt>
      <trkpt lat="46.428129" lon="14.236741">
        <ele>1468.5264</ele>
        <time>2016-08-04T06:01:00Z</time>
      </trkpt>
      <trkpt lat="46.428143" lon="14.236695">
        <ele>1468.8312</ele>
        <time>2016-08-04T06:01:04Z</time>
      </trkpt>
      <trkpt lat="46.428144" lon="14.236646">
        <ele>1468.8312</ele>
        <time>2016-08-04T06:01:07Z</time>
      </trkpt>
      <trkpt lat="46.428166" lon="14.236565">
        <ele>1469.136</ele>
        <time>2016-08-04T06:01:12Z</time>
      </trkpt>
      <trkpt lat="46.428167" lon="14.236552">
        <ele>1469.4408</ele>
        <time>2016-08-04T06:01:14Z</time>
      </trkpt>
      <trkpt lat="46.428164" lon="14.236532">
        <ele>1469.7456</ele>
        <time>2016-08-04T06:01:15Z</time>
      </trkpt>
      <trkpt lat="46.428157" lon="14.236486">
        <ele>1470.0504</ele>
        <time>2016-08-04T06:01:19Z</time>
      </trkpt>
      <trkpt lat="46.428161" lon="14.236454">
        <ele>1470.0504</ele>
        <time>2016-08-04T06:01:21Z</time>
      </trkpt>
      <trkpt lat="46.428165" lon="14.236426">
        <ele>1470.3552</ele>
        <time>2016-08-04T06:01:22Z</time>
      </trkpt>
      <trkpt lat="46.428161" lon="14.236417">
        <ele>1470.3552</ele>
        <time>2016-08-04T06:01:23Z</time>
      </trkpt>
      <trkpt lat="46.428162" lon="14.236406">
        <ele>1470.66</ele>
        <time>2016-08-04T06:01:25Z</time>
      </trkpt>
      <trkpt lat="46.428111" lon="14.236375">
        <ele>1470.9648</ele>
        <time>2016-08-04T06:01:27Z</time>
      </trkpt>
      <trkpt lat="46.428048" lon="14.236358">
        <ele>1471.5744</ele>
        <time>2016-08-04T06:01:30Z</time>
      </trkpt>
      <trkpt lat="46.427791" lon="14.236381">
        <ele>1471.8792</ele>
        <time>2016-08-04T06:01:33Z</time>
      </trkpt>
      <trkpt lat="46.427632" lon="14.236384">
        <ele>1472.4888</ele>
        <time>2016-08-04T06:01:37Z</time>
      </trkpt>
      <trkpt lat="46.427572" lon="14.236378">
        <ele>1473.0984</ele>
        <time>2016-08-04T06:01:38Z</time>
      </trkpt>
      <trkpt lat="46.427484" lon="14.236333">
        <ele>1473.708</ele>
        <time>2016-08-04T06:01:44Z</time>
      </trkpt>
      <trkpt lat="46.427472" lon="14.236299">
        <ele>1474.0128</ele>
        <time>2016-08-04T06:01:48Z</time>
      </trkpt>
      <trkpt lat="46.427511" lon="14.236286">
        <ele>1474.3176</ele>
        <time>2016-08-04T06:01:50Z</time>
      </trkpt>
      <trkpt lat="46.427554" lon="14.236278">
        <ele>1474.9272</ele>
        <time>2016-08-04T06:01:53Z</time>
      </trkpt>
      <trkpt lat="46.427544" lon="14.236274">
        <ele>1474.9272</ele>
        <time>2016-08-04T06:01:54Z</time>
      </trkpt>
      <trkpt lat="46.427512" lon="14.236246">
        <ele>1476.1464</ele>
        <time>2016-08-04T06:02:00Z</time>
      </trkpt>
      <trkpt lat="46.427450" lon="14.236177">
        <ele>1476.756</ele>
        <time>2016-08-04T06:02:06Z</time>
      </trkpt>
      <trkpt lat="46.427446" lon="14.236165">
        <ele>1477.0608</ele>
        <time>2016-08-04T06:02:08Z</time>
      </trkpt>
      <trkpt lat="46.427439" lon="14.236146">
        <ele>1477.0608</ele>
        <time>2016-08-04T06:02:09Z</time>
      </trkpt>
      <trkpt lat="46.427456" lon="14.236125">
        <ele>1477.6704</ele>
        <time>2016-08-04T06:02:12Z</time>
      </trkpt>
      <trkpt lat="46.427458" lon="14.236103">
        <ele>1477.9752</ele>
        <time>2016-08-04T06:02:13Z</time>
      </trkpt>
      <trkpt lat="46.427463" lon="14.236084">
        <ele>1478.5848</ele>
        <time>2016-08-04T06:02:16Z</time>
      </trkpt>
      <trkpt lat="46.427471" lon="14.236074">
        <ele>1478.8896</ele>
        <time>2016-08-04T06:02:19Z</time>
      </trkpt>
      <trkpt lat="46.427465" lon="14.236067">
        <ele>1479.1944</ele>
        <time>2016-08-04T06:02:20Z</time>
      </trkpt>
      <trkpt lat="46.427131" lon="14.236213">
        <ele>1479.4992</ele>
        <time>2016-08-04T06:02:21Z</time>
      </trkpt>
      <trkpt lat="46.427299" lon="14.236110">
        <ele>1479.804</ele>
        <time>2016-08-04T06:02:24Z</time>
      </trkpt>
      <trkpt lat="46.427438" lon="14.236023">
        <ele>1480.4136</ele>
        <time>2016-08-04T06:02:27Z</time>
      </trkpt>
      <trkpt lat="46.427486" lon="14.235986">
        <ele>1481.0232</ele>
        <time>2016-08-04T06:02:31Z</time>
      </trkpt>
      <trkpt lat="46.427516" lon="14.235967">
        <ele>1481.328</ele>
        <time>2016-08-04T06:02:32Z</time>
      </trkpt>
      <trkpt lat="46.427528" lon="14.235962">
        <ele>1481.328</ele>
        <time>2016-08-04T06:02:32Z</time>
      </trkpt>
      <trkpt lat="46.427556" lon="14.235904">
        <ele>1482.2424</ele>
        <time>2016-08-04T06:02:39Z</time>
      </trkpt>
      <trkpt lat="46.427574" lon="14.235891">
        <ele>1482.5472</ele>
        <time>2016-08-04T06:02:40Z</time>
      </trkpt>
      <trkpt lat="46.427701" lon="14.235827">
        <ele>1483.4616</ele>
        <time>2016-08-04T06:02:44Z</time>
      </trkpt>
      <trkpt lat="46.427790" lon="14.235782">
        <ele>1483.7664</ele>
        <time>2016-08-04T06:02:47Z</time>
      </trkpt>
      <trkpt lat="46.427917" lon="14.235695">
        <ele>1484.6808</ele>
        <time>2016-08-04T06:02:54Z</time>
      </trkpt>
      <trkpt lat="46.427979" lon="14.235675">
        <ele>1484.9856</ele>
        <time>2016-08-04T06:02:55Z</time>
      </trkpt>
      <trkpt lat="46.428052" lon="14.235661">
        <ele>1485.5952</ele>
        <time>2016-08-04T06:02:59Z</time>
      </trkpt>
      <trkpt lat="46.428089" lon="14.235658">
        <ele>1485.5952</ele>
        <time>2016-08-04T06:03:00Z</time>
      </trkpt>
      <trkpt lat="46.428103" lon="14.235655">
        <ele>1485.9</ele>
        <time>2016-08-04T06:03:02Z</time>
      </trkpt>
      <trkpt lat="46.428111" lon="14.235650">
        <ele>1485.5952</ele>
        <time>2016-08-04T06:03:03Z</time>
      </trkpt>
      <trkpt lat="46.428115" lon="14.235572">
        <ele>1486.5096</ele>
        <time>2016-08-04T06:03:11Z</time>
      </trkpt>
      <trkpt lat="46.428126" lon="14.235559">
        <ele>1486.8144</ele>
        <time>2016-08-04T06:03:13Z</time>
      </trkpt>
      <trkpt lat="46.428134" lon="14.235546">
        <ele>1486.8144</ele>
        <time>2016-08-04T06:03:14Z</time>
      </trkpt>
      <trkpt lat="46.428117" lon="14.235506">
        <ele>1487.7288</ele>
        <time>2016-08-04T06:03:18Z</time>
      </trkpt>
      <trkpt lat="46.428113" lon="14.235482">
        <ele>1488.0336</ele>
        <time>2016-08-04T06:03:22Z</time>
      </trkpt>
      <trkpt lat="46.428142" lon="14.235454">
        <ele>1488.3384</ele>
        <time>2016-08-04T06:03:23Z</time>
      </trkpt>
      <trkpt lat="46.428148" lon="14.235418">
        <ele>1488.6432</ele>
        <time>2016-08-04T06:03:26Z</time>
      </trkpt>
      <trkpt lat="46.428181" lon="14.235416">
        <ele>1488.948</ele>
        <time>2016-08-04T06:03:29Z</time>
      </trkpt>
      <trkpt lat="46.428185" lon="14.235414">
        <ele>1488.948</ele>
        <time>2016-08-04T06:03:30Z</time>
      </trkpt>
      <trkpt lat="46.428194" lon="14.235413">
        <ele>1489.2528</ele>
        <time>2016-08-04T06:03:32Z</time>
      </trkpt>
      <trkpt lat="46.428198" lon="14.235396">
        <ele>1489.5576</ele>
        <time>2016-08-04T06:03:34Z</time>
      </trkpt>
      <trkpt lat="46.428195" lon="14.235389">
        <ele>1490.1672</ele>
        <time>2016-08-04T06:03:37Z</time>
      </trkpt>
      <trkpt lat="46.428179" lon="14.235384">
        <ele>1490.472</ele>
        <time>2016-08-04T06:03:37Z</time>
      </trkpt>
      <trkpt lat="46.428176" lon="14.235363">
        <ele>1491.0816</ele>
        <time>2016-08-04T06:03:41Z</time>
      </trkpt>
      <trkpt lat="46.428169" lon="14.235368">
        <ele>1491.3864</ele>
        <time>2016-08-04T06:03:41Z</time>
      </trkpt>
      <trkpt lat="46.428173" lon="14.235370">
        <ele>1492.3008</ele>
        <time>2016-08-04T06:03:45Z</time>
      </trkpt>
      <trkpt lat="46.428158" lon="14.235309">
        <ele>1493.2152</ele>
        <time>2016-08-04T06:03:50Z</time>
      </trkpt>
      <trkpt lat="46.428148" lon="14.235292">
        <ele>1493.52</ele>
        <time>2016-08-04T06:03:53Z</time>
      </trkpt>
      <trkpt lat="46.428145" lon="14.235289">
        <ele>1493.52</ele>
        <time>2016-08-04T06:03:54Z</time>
      </trkpt>
      <trkpt lat="46.428018" lon="14.235280">
        <ele>1494.4344</ele>
        <time>2016-08-04T06:04:00Z</time>
      </trkpt>
      <trkpt lat="46.428015" lon="14.235245">
        <ele>1494.7392</ele>
        <time>2016-08-04T06:04:01Z</time>
      </trkpt>
      <trkpt lat="46.427885" lon="14.235188">
        <ele>1495.6536</ele>
        <time>2016-08-04T06:04:04Z</time>
      </trkpt>
      <trkpt lat="46.427859" lon="14.235173">
        <ele>1495.6536</ele>
        <time>2016-08-04T06:04:04Z</time>
      </trkpt>
      <trkpt lat="46.427842" lon="14.235185">
        <ele>1496.8728</ele>
        <time>2016-08-04T06:04:12Z</time>
      </trkpt>
      <trkpt lat="46.427838" lon="14.235188">
        <ele>1497.7872</ele>
        <time>2016-08-04T06:04:19Z</time>
      </trkpt>
      <trkpt lat="46.427818" lon="14.235184">
        <ele>1499.0064</ele>
        <time>2016-08-04T06:04:24Z</time>
      </trkpt>
      <trkpt lat="46.427773" lon="14.235161">
        <ele>1499.9208</ele>
        <time>2016-08-04T06:04:31Z</time>
      </trkpt>
      <trkpt lat="46.427773" lon="14.235124">
        <ele>1501.14</ele>
        <time>2016-08-04T06:04:36Z</time>
      </trkpt>
      <trkpt lat="46.427783" lon="14.235041">
        <ele>1502.0544</ele>
        <time>2016-08-04T06:04:43Z</time>
      </trkpt>
      <trkpt lat="46.427967" lon="14.234964">
        <ele>1502.664</ele>
        <time>2016-08-04T06:04:51Z</time>
      </trkpt>
      <trkpt lat="46.427987" lon="14.234942">
        <ele>1503.2736</ele>
        <time>2016-08-04T06:04:55Z</time>
      </trkpt>
      <trkpt lat="46.427941" lon="14.234932">
        <ele>1504.188</ele>
        <time>2016-08-04T06:05:02Z</time>
      </trkpt>
      <trkpt lat="46.427934" lon="14.234930">
        <ele>1504.4928</ele>
        <time>2016-08-04T06:05:02Z</time>
      </trkpt>
      <trkpt lat="46.427943" lon="14.234918">
        <ele>1504.7976</ele>
        <time>2016-08-04T06:05:06Z</time>
      </trkpt>
      <trkpt lat="46.427953" lon="14.234884">
        <ele>1505.712</ele>
        <time>2016-08-04T06:05:09Z</time>
      </trkpt>
      <trkpt lat="46.427973" lon="14.234862">
        <ele>1505.712</ele>
        <time>2016-08-04T06:05:10Z</time>
      </trkpt>
      <trkpt lat="46.427985" lon="14.234831">
        <ele>1506.0168</ele>
        <time>2016-08-04T06:05:14Z</time>
      </trkpt>
      <trkpt lat="46.427993" lon="14.234831">
        <ele>1506.3216</ele>
        <time>2016-08-04T06:05:14Z</time>
      </trkpt>
      <trkpt lat="46.428012" lon="14.234835">
        <ele>1506.3216</ele>
        <time>2016-08-04T06:05:15Z</time>
      </trkpt>
      <trkpt lat="46.427993" lon="14.234843">
        <ele>1506.6264</ele>
        <time>2016-08-04T06:05:17Z</time>
      </trkpt>
      <trkpt lat="46.428015" lon="14.234837">
        <ele>1506.6264</ele>
        <time>2016-08-04T06:05:18Z</time>
      </trkpt>
      <trkpt lat="46.428029" lon="14.234823">
        <ele>1506.9312</ele>
        <time>2016-08-04T06:05:20Z</time>
      </trkpt>
      <trkpt lat="46.428103" lon="14.234781">
        <ele>1507.8456</ele>
        <time>2016-08-04T06:05:22Z</time>
      </trkpt>
      <trkpt lat="46.428118" lon="14.234772">
        <ele>1508.1504</ele>
        <time>2016-08-04T06:05:24Z</time>
      </trkpt>
      <trkpt lat="46.428188" lon="14.234742">
        <ele>1508.4552</ele>
        <time>2016-08-04T06:05:28Z</time>
      </trkpt>
      <trkpt lat="46.428208" lon="14.234724">
        <ele>1509.0648</ele>
        <time>2016-08-04T06:05:29Z</time>
      </trkpt>
      <trkpt lat="46.428198" lon="14.234715">
        <ele>1509.0648</ele>
        <time>2016-08-04T06:05:30Z</time>
      </trkpt>
      <trkpt lat="46.428206" lon="14.234689">
        <ele>1509.9792</ele>
        <time>2016-08-04T06:05:33Z</time>
      </trkpt>
      <trkpt lat="46.428213" lon="14.234681">
        <ele>1510.284</ele>
        <time>2016-08-04T06:05:34Z</time>
      </trkpt>
      <trkpt lat="46.428208" lon="14.234673">
        <ele>1510.8936</ele>
        <time>2016-08-04T06:05:37Z</time>
      </trkpt>
      <trkpt lat="46.428196" lon="14.234662">
        <ele>1511.1984</ele>
        <time>2016-08-04T06:05:37Z</time>
      </trkpt>
      <trkpt lat="46.428192" lon="14.234655">
        <ele>1511.5032</ele>
        <time>2016-08-04T06:05:38Z</time>
      </trkpt>
      <trkpt lat="46.428187" lon="14.234633">
        <ele>1512.1128</ele>
        <time>2016-08-04T06:05:41Z</time>
      </trkpt>
      <trkpt lat="46.428186" lon="14.234616">
        <ele>1512.4176</ele>
        <time>2016-08-04T06:05:42Z</time>
      </trkpt>
      <trkpt lat="46.428178" lon="14.234604">
        <ele>1512.7224</ele>
        <time>2016-08-04T06:05:45Z</time>
      </trkpt>
      <trkpt lat="46.428171" lon="14.234587">
        <ele>1513.332</ele>
        <time>2016-08-04T06:05:47Z</time>
      </trkpt>
      <trkpt lat="46.428158" lon="14.234577">
        <ele>1513.332</ele>
        <time>2016-08-04T06:05:48Z</time>
      </trkpt>
      <trkpt lat="46.428167" lon="14.234566">
        <ele>1513.9416</ele>
        <time>2016-08-04T06:05:49Z</time>
      </trkpt>
      <trkpt lat="46.428178" lon="14.234551">
        <ele>1514.5512</ele>
        <time>2016-08-04T06:05:52Z</time>
      </trkpt>
      <trkpt lat="46.428186" lon="14.234541">
        <ele>1515.4656</ele>
        <time>2016-08-04T06:05:56Z</time>
      </trkpt>
      <trkpt lat="46.428197" lon="14.234528">
        <ele>1515.4656</ele>
        <time>2016-08-04T06:05:56Z</time>
      </trkpt>
      <trkpt lat="46.428195" lon="14.234519">
        <ele>1515.7704</ele>
        <time>2016-08-04T06:05:57Z</time>
      </trkpt>
      <trkpt lat="46.428228" lon="14.234484">
        <ele>1516.0752</ele>
        <time>2016-08-04T06:06:00Z</time>
      </trkpt>
      <trkpt lat="46.428237" lon="14.234454">
        <ele>1516.6848</ele>
        <time>2016-08-04T06:06:04Z</time>
      </trkpt>
      <trkpt lat="46.428208" lon="14.234464">
        <ele>1516.9896</ele>
        <time>2016-08-04T06:06:04Z</time>
      </trkpt>
      <trkpt lat="46.428205" lon="14.234425">
        <ele>1517.904</ele>
        <time>2016-08-04T06:06:08Z</time>
      </trkpt>
      <trkpt lat="46.428215" lon="14.234399">
        <ele>1518.2088</ele>
        <time>2016-08-04T06:06:11Z</time>
      </trkpt>
      <trkpt lat="46.428216" lon="14.234383">
        <ele>1518.5136</ele>
        <time>2016-08-04T06:06:12Z</time>
      </trkpt>
      <trkpt lat="46.428213" lon="14.234388">
        <ele>1519.1232</ele>
        <time>2016-08-04T06:06:16Z</time>
      </trkpt>
      <trkpt lat="46.428196" lon="14.234408">
        <ele>1519.7328</ele>
        <time>2016-08-04T06:06:24Z</time>
      </trkpt>
      <trkpt lat="46.428180" lon="14.234402">
        <ele>1519.428</ele>
        <time>2016-08-04T06:06:28Z</time>
      </trkpt>
      <trkpt lat="46.428154" lon="14.234373">
        <ele>1519.428</ele>
        <time>2016-08-04T06:06:34Z</time>
      </trkpt>
      <trkpt lat="46.428114" lon="14.234379">
        <ele>1519.7328</ele>
        <time>2016-08-04T06:06:54Z</time>
      </trkpt>
      <trkpt lat="46.428129" lon="14.234405">
        <ele>1519.7328</ele>
        <time>2016-08-04T06:06:59Z</time>
      </trkpt>
      <trkpt lat="46.428144" lon="14.234398">
        <ele>1519.7328</ele>
        <time>2016-08-04T06:07:03Z</time>
      </trkpt>
      <trkpt lat="46.428162" lon="14.234359">
        <ele>1519.7328</ele>
        <time>2016-08-04T06:07:08Z</time>
      </trkpt>
      <trkpt lat="46.428163" lon="14.234354">
        <ele>1520.0376</ele>
        <time>2016-08-04T06:07:09Z</time>
      </trkpt>
      <trkpt lat="46.428165" lon="14.234336">
        <ele>1520.3424</ele>
        <time>2016-08-04T06:07:10Z</time>
      </trkpt>
      <trkpt lat="46.428186" lon="14.234302">
        <ele>1521.2568</ele>
        <time>2016-08-04T06:07:14Z</time>
      </trkpt>
      <trkpt lat="46.428188" lon="14.234292">
        <ele>1521.2568</ele>
        <time>2016-08-04T06:07:16Z</time>
      </trkpt>
      <trkpt lat="46.428214" lon="14.234220">
        <ele>1521.8664</ele>
        <time>2016-08-04T06:07:21Z</time>
      </trkpt>
      <trkpt lat="46.428216" lon="14.234208">
        <ele>1521.8664</ele>
        <time>2016-08-04T06:07:21Z</time>
      </trkpt>
      <trkpt lat="46.428212" lon="14.234192">
        <ele>1521.8664</ele>
        <time>2016-08-04T06:07:22Z</time>
      </trkpt>
      <trkpt lat="46.428210" lon="14.234175">
        <ele>1522.1712</ele>
        <time>2016-08-04T06:07:24Z</time>
      </trkpt>
      <trkpt lat="46.428210" lon="14.234169">
        <ele>1522.1712</ele>
        <time>2016-08-04T06:07:25Z</time>
      </trkpt>
      <trkpt lat="46.428210" lon="14.234169">
        <ele>1522.1712</ele>
        <time>2016-08-04T06:07:25Z</time>
      </trkpt>
      <trkpt lat="46.428208" lon="14.234163">
        <ele>1522.1712</ele>
        <time>2016-08-04T06:07:26Z</time>
      </trkpt>
      <trkpt lat="46.428220" lon="14.234133">
        <ele>1522.476</ele>
        <time>2016-08-04T06:07:29Z</time>
      </trkpt>
      <trkpt lat="46.428232" lon="14.234102">
        <ele>1522.476</ele>
        <time>2016-08-04T06:07:33Z</time>
      </trkpt>
      <trkpt lat="46.428239" lon="14.234086">
        <ele>1522.476</ele>
        <time>2016-08-04T06:07:35Z</time>
      </trkpt>
      <trkpt lat="46.428245" lon="14.234076">
        <ele>1522.476</ele>
        <time>2016-08-04T06:07:36Z</time>
      </trkpt>
      <trkpt lat="46.428272" lon="14.234023">
        <ele>1522.7808</ele>
        <time>2016-08-04T06:07:41Z</time>
      </trkpt>
      <trkpt lat="46.428273" lon="14.234011">
        <ele>1523.0856</ele>
        <time>2016-08-04T06:07:43Z</time>
      </trkpt>
      <trkpt lat="46.428267" lon="14.234006">
        <ele>1523.0856</ele>
        <time>2016-08-04T06:07:44Z</time>
      </trkpt>
      <trkpt lat="46.428264" lon="14.233998">
        <ele>1523.0856</ele>
        <time>2016-08-04T06:07:44Z</time>
      </trkpt>
      <trkpt lat="46.428263" lon="14.233986">
        <ele>1523.0856</ele>
        <time>2016-08-04T06:07:45Z</time>
      </trkpt>
      <trkpt lat="46.428247" lon="14.233975">
        <ele>1523.0856</ele>
        <time>2016-08-04T06:07:48Z</time>
      </trkpt>
      <trkpt lat="46.428244" lon="14.233958">
        <ele>1522.7808</ele>
        <time>2016-08-04T06:07:52Z</time>
      </trkpt>
      <trkpt lat="46.428249" lon="14.233963">
        <ele>1523.0856</ele>
        <time>2016-08-04T06:07:56Z</time>
      </trkpt>
      <trkpt lat="46.428258" lon="14.233961">
        <ele>1523.3904</ele>
        <time>2016-08-04T06:07:57Z</time>
      </trkpt>
      <trkpt lat="46.428288" lon="14.233964">
        <ele>1522.7808</ele>
        <time>2016-08-04T06:08:08Z</time>
      </trkpt>
      <trkpt lat="46.428286" lon="14.233954">
        <ele>1522.7808</ele>
        <time>2016-08-04T06:08:19Z</time>
      </trkpt>
      <trkpt lat="46.428527" lon="14.233838">
        <ele>1523.0856</ele>
        <time>2016-08-04T06:08:31Z</time>
      </trkpt>
      <trkpt lat="46.428569" lon="14.233821">
        <ele>1523.0856</ele>
        <time>2016-08-04T06:08:34Z</time>
      </trkpt>
      <trkpt lat="46.428644" lon="14.233768">
        <ele>1523.0856</ele>
        <time>2016-08-04T06:08:45Z</time>
      </trkpt>
      <trkpt lat="46.428642" lon="14.233717">
        <ele>1523.0856</ele>
        <time>2016-08-04T06:08:50Z</time>
      </trkpt>
      <trkpt lat="46.428657" lon="14.233691">
        <ele>1523.0856</ele>
        <time>2016-08-04T06:08:53Z</time>
      </trkpt>
      <trkpt lat="46.428695" lon="14.233654">
        <ele>1522.7808</ele>
        <time>2016-08-04T06:08:57Z</time>
      </trkpt>
      <trkpt lat="46.428698" lon="14.233648">
        <ele>1522.7808</ele>
        <time>2016-08-04T06:08:58Z</time>
      </trkpt>
      <trkpt lat="46.428709" lon="14.233623">
        <ele>1522.1712</ele>
        <time>2016-08-04T06:09:01Z</time>
      </trkpt>
      <trkpt lat="46.428711" lon="14.233612">
        <ele>1521.8664</ele>
        <time>2016-08-04T06:09:01Z</time>
      </trkpt>
      <trkpt lat="46.428721" lon="14.233587">
        <ele>1521.5616</ele>
        <time>2016-08-04T06:09:04Z</time>
      </trkpt>
      <trkpt lat="46.428724" lon="14.233582">
        <ele>1521.2568</ele>
        <time>2016-08-04T06:09:05Z</time>
      </trkpt>
      <trkpt lat="46.428732" lon="14.233573">
        <ele>1521.2568</ele>
        <time>2016-08-04T06:09:06Z</time>
      </trkpt>
      <trkpt lat="46.428742" lon="14.233563">
        <ele>1520.952</ele>
        <time>2016-08-04T06:09:08Z</time>
      </trkpt>
      <trkpt lat="46.428773" lon="14.233538">
        <ele>1520.952</ele>
        <time>2016-08-04T06:09:09Z</time>
      </trkpt>
      <trkpt lat="46.428805" lon="14.233529">
        <ele>1520.6472</ele>
        <time>2016-08-04T06:09:12Z</time>
      </trkpt>
      <trkpt lat="46.428840" lon="14.233530">
        <ele>1520.3424</ele>
        <time>2016-08-04T06:09:14Z</time>
      </trkpt>
      <trkpt lat="46.428848" lon="14.233539">
        <ele>1520.3424</ele>
        <time>2016-08-04T06:09:16Z</time>
      </trkpt>
      <trkpt lat="46.428871" lon="14.233574">
        <ele>1520.3424</ele>
        <time>2016-08-04T06:09:17Z</time>
      </trkpt>
      <trkpt lat="46.428885" lon="14.233594">
        <ele>1520.0376</ele>
        <time>2016-08-04T06:09:18Z</time>
      </trkpt>
      <trkpt lat="46.429010" lon="14.233721">
        <ele>1520.6472</ele>
        <time>2016-08-04T06:09:27Z</time>
      </trkpt>
      <trkpt lat="46.429034" lon="14.233760">
        <ele>1520.952</ele>
        <time>2016-08-04T06:09:29Z</time>
      </trkpt>
      <trkpt lat="46.429071" lon="14.233779">
        <ele>1520.952</ele>
        <time>2016-08-04T06:09:32Z</time>
      </trkpt>
      <trkpt lat="46.429120" lon="14.233802">
        <ele>1521.2568</ele>
        <time>2016-08-04T06:09:36Z</time>
      </trkpt>
      <trkpt lat="46.429122" lon="14.233804">
        <ele>1521.2568</ele>
        <time>2016-08-04T06:09:37Z</time>
      </trkpt>
      <trkpt lat="46.429126" lon="14.233812">
        <ele>1520.952</ele>
        <time>2016-08-04T06:09:40Z</time>
      </trkpt>
      <trkpt lat="46.429138" lon="14.233797">
        <ele>1520.6472</ele>
        <time>2016-08-04T06:09:43Z</time>
      </trkpt>
      <trkpt lat="46.429144" lon="14.233788">
        <ele>1520.6472</ele>
        <time>2016-08-04T06:09:44Z</time>
      </trkpt>
      <trkpt lat="46.429148" lon="14.233745">
        <ele>1520.6472</ele>
        <time>2016-08-04T06:09:48Z</time>
      </trkpt>
      <trkpt lat="46.429144" lon="14.233727">
        <ele>1520.952</ele>
        <time>2016-08-04T06:09:50Z</time>
      </trkpt>
      <trkpt lat="46.429117" lon="14.233696">
        <ele>1520.6472</ele>
        <time>2016-08-04T06:10:10Z</time>
      </trkpt>
      <trkpt lat="46.429121" lon="14.233606">
        <ele>1520.952</ele>
        <time>2016-08-04T06:10:25Z</time>
      </trkpt>
      <trkpt lat="46.429135" lon="14.233560">
        <ele>1520.952</ele>
        <time>2016-08-04T06:10:27Z</time>
      </trkpt>
      <trkpt lat="46.429155" lon="14.233497">
        <ele>1521.2568</ele>
        <time>2016-08-04T06:10:30Z</time>
      </trkpt>
      <trkpt lat="46.429209" lon="14.233432">
        <ele>1521.5616</ele>
        <time>2016-08-04T06:10:35Z</time>
      </trkpt>
      <trkpt lat="46.429223" lon="14.233414">
        <ele>1521.5616</ele>
        <time>2016-08-04T06:10:38Z</time>
      </trkpt>
      <trkpt lat="46.429248" lon="14.233374">
        <ele>1522.1712</ele>
        <time>2016-08-04T06:10:42Z</time>
      </trkpt>
      <trkpt lat="46.429254" lon="14.233357">
        <ele>1522.476</ele>
        <time>2016-08-04T06:10:44Z</time>
      </trkpt>
      <trkpt lat="46.429271" lon="14.233341">
        <ele>1523.0856</ele>
        <time>2016-08-04T06:10:46Z</time>
      </trkpt>
      <trkpt lat="46.429279" lon="14.233333">
        <ele>1523.3904</ele>
        <time>2016-08-04T06:10:46Z</time>
      </trkpt>
      <trkpt lat="46.429300" lon="14.233306">
        <ele>1523.6952</ele>
        <time>2016-08-04T06:10:49Z</time>
      </trkpt>
      <trkpt lat="46.429324" lon="14.233269">
        <ele>1524.3048</ele>
        <time>2016-08-04T06:10:53Z</time>
      </trkpt>
      <trkpt lat="46.429339" lon="14.233232">
        <ele>1525.524</ele>
        <time>2016-08-04T06:10:57Z</time>
      </trkpt>
      <trkpt lat="46.429348" lon="14.233220">
        <ele>1525.524</ele>
        <time>2016-08-04T06:10:57Z</time>
      </trkpt>
      <trkpt lat="46.429355" lon="14.233205">
        <ele>1525.524</ele>
        <time>2016-08-04T06:10:58Z</time>
      </trkpt>
      <trkpt lat="46.429368" lon="14.233134">
        <ele>1526.4384</ele>
        <time>2016-08-04T06:11:05Z</time>
      </trkpt>
      <trkpt lat="46.429372" lon="14.233124">
        <ele>1526.7432</ele>
        <time>2016-08-04T06:11:05Z</time>
      </trkpt>
      <trkpt lat="46.429372" lon="14.233108">
        <ele>1526.7432</ele>
        <time>2016-08-04T06:11:08Z</time>
      </trkpt>
      <trkpt lat="46.429373" lon="14.233087">
        <ele>1527.048</ele>
        <time>2016-08-04T06:11:09Z</time>
      </trkpt>
      <trkpt lat="46.429380" lon="14.233047">
        <ele>1527.6576</ele>
        <time>2016-08-04T06:11:13Z</time>
      </trkpt>
      <trkpt lat="46.429390" lon="14.233006">
        <ele>1528.2672</ele>
        <time>2016-08-04T06:11:17Z</time>
      </trkpt>
      <trkpt lat="46.429397" lon="14.232986">
        <ele>1528.572</ele>
        <time>2016-08-04T06:11:20Z</time>
      </trkpt>
      <trkpt lat="46.429406" lon="14.232917">
        <ele>1529.7912</ele>
        <time>2016-08-04T06:11:28Z</time>
      </trkpt>
      <trkpt lat="46.429477" lon="14.232928">
        <ele>1530.4008</ele>
        <time>2016-08-04T06:11:33Z</time>
      </trkpt>
      <trkpt lat="46.429509" lon="14.232919">
        <ele>1530.7056</ele>
        <time>2016-08-04T06:11:38Z</time>
      </trkpt>
      <trkpt lat="46.429516" lon="14.232912">
        <ele>1530.7056</ele>
        <time>2016-08-04T06:11:39Z</time>
      </trkpt>
      <trkpt lat="46.429542" lon="14.232884">
        <ele>1531.9248</ele>
        <time>2016-08-04T06:11:43Z</time>
      </trkpt>
      <trkpt lat="46.429556" lon="14.232840">
        <ele>1532.5344</ele>
        <time>2016-08-04T06:11:47Z</time>
      </trkpt>
      <trkpt lat="46.429568" lon="14.232831">
        <ele>1532.8392</ele>
        <time>2016-08-04T06:11:48Z</time>
      </trkpt>
      <trkpt lat="46.429578" lon="14.232826">
        <ele>1533.144</ele>
        <time>2016-08-04T06:11:50Z</time>
      </trkpt>
      <trkpt lat="46.429588" lon="14.232819">
        <ele>1533.144</ele>
        <time>2016-08-04T06:11:51Z</time>
      </trkpt>
      <trkpt lat="46.429627" lon="14.232808">
        <ele>1533.4488</ele>
        <time>2016-08-04T06:11:55Z</time>
      </trkpt>
      <trkpt lat="46.429642" lon="14.232804">
        <ele>1533.7536</ele>
        <time>2016-08-04T06:11:56Z</time>
      </trkpt>
      <trkpt lat="46.429657" lon="14.232800">
        <ele>1534.0584</ele>
        <time>2016-08-04T06:11:59Z</time>
      </trkpt>
      <trkpt lat="46.429692" lon="14.232789">
        <ele>1535.2776</ele>
        <time>2016-08-04T06:12:03Z</time>
      </trkpt>
      <trkpt lat="46.429739" lon="14.232775">
        <ele>1535.8872</ele>
        <time>2016-08-04T06:12:07Z</time>
      </trkpt>
      <trkpt lat="46.429762" lon="14.232767">
        <ele>1536.192</ele>
        <time>2016-08-04T06:12:10Z</time>
      </trkpt>
      <trkpt lat="46.429803" lon="14.232738">
        <ele>1537.1064</ele>
        <time>2016-08-04T06:12:17Z</time>
      </trkpt>
      <trkpt lat="46.429816" lon="14.232738">
        <ele>1537.4112</ele>
        <time>2016-08-04T06:12:18Z</time>
      </trkpt>
      <trkpt lat="46.429837" lon="14.232719">
        <ele>1538.0208</ele>
        <time>2016-08-04T06:12:22Z</time>
      </trkpt>
      <trkpt lat="46.429853" lon="14.232713">
        <ele>1538.3256</ele>
        <time>2016-08-04T06:12:23Z</time>
      </trkpt>
      <trkpt lat="46.429858" lon="14.232717">
        <ele>1538.3256</ele>
        <time>2016-08-04T06:12:25Z</time>
      </trkpt>
      <trkpt lat="46.429861" lon="14.232723">
        <ele>1538.3256</ele>
        <time>2016-08-04T06:12:26Z</time>
      </trkpt>
      <trkpt lat="46.429871" lon="14.232740">
        <ele>1538.6304</ele>
        <time>2016-08-04T06:12:27Z</time>
      </trkpt>
      <trkpt lat="46.429920" lon="14.232765">
        <ele>1539.5448</ele>
        <time>2016-08-04T06:12:34Z</time>
      </trkpt>
      <trkpt lat="46.429985" lon="14.232827">
        <ele>1540.4592</ele>
        <time>2016-08-04T06:12:44Z</time>
      </trkpt>
      <trkpt lat="46.430032" lon="14.232859">
        <ele>1541.6784</ele>
        <time>2016-08-04T06:12:50Z</time>
      </trkpt>
      <trkpt lat="46.430077" lon="14.232846">
        <ele>1542.5928</ele>
        <time>2016-08-04T06:12:59Z</time>
      </trkpt>
      <trkpt lat="46.430076" lon="14.232834">
        <ele>1542.8976</ele>
        <time>2016-08-04T06:13:01Z</time>
      </trkpt>
      <trkpt lat="46.430080" lon="14.232821">
        <ele>1543.5072</ele>
        <time>2016-08-04T06:13:05Z</time>
      </trkpt>
      <trkpt lat="46.430150" lon="14.232764">
        <ele>1544.4216</ele>
        <time>2016-08-04T06:13:15Z</time>
      </trkpt>
      <trkpt lat="46.430157" lon="14.232749">
        <ele>1544.7264</ele>
        <time>2016-08-04T06:13:16Z</time>
      </trkpt>
      <trkpt lat="46.430240" lon="14.232630">
        <ele>1545.336</ele>
        <time>2016-08-04T06:13:30Z</time>
      </trkpt>
      <trkpt lat="46.430321" lon="14.232602">
        <ele>1545.9456</ele>
        <time>2016-08-04T06:13:39Z</time>
      </trkpt>
      <trkpt lat="46.430355" lon="14.232574">
        <ele>1546.86</ele>
        <time>2016-08-04T06:13:43Z</time>
      </trkpt>
      <trkpt lat="46.430354" lon="14.232564">
        <ele>1546.86</ele>
        <time>2016-08-04T06:13:44Z</time>
      </trkpt>
      <trkpt lat="46.430352" lon="14.232548">
        <ele>1547.1648</ele>
        <time>2016-08-04T06:13:47Z</time>
      </trkpt>
      <trkpt lat="46.430381" lon="14.232504">
        <ele>1547.7744</ele>
        <time>2016-08-04T06:13:51Z</time>
      </trkpt>
      <trkpt lat="46.430391" lon="14.232494">
        <ele>1548.0792</ele>
        <time>2016-08-04T06:13:53Z</time>
      </trkpt>
      <trkpt lat="46.430409" lon="14.232478">
        <ele>1548.0792</ele>
        <time>2016-08-04T06:13:55Z</time>
      </trkpt>
      <trkpt lat="46.430429" lon="14.232478">
        <ele>1548.384</ele>
        <time>2016-08-04T06:13:58Z</time>
      </trkpt>
      <trkpt lat="46.430435" lon="14.232462">
        <ele>1548.6888</ele>
        <time>2016-08-04T06:14:01Z</time>
      </trkpt>
      <trkpt lat="46.430445" lon="14.232465">
        <ele>1548.9936</ele>
        <time>2016-08-04T06:14:03Z</time>
      </trkpt>
      <trkpt lat="46.430478" lon="14.232440">
        <ele>1550.2128</ele>
        <time>2016-08-04T06:14:13Z</time>
      </trkpt>
      <trkpt lat="46.430496" lon="14.232347">
        <ele>1551.1272</ele>
        <time>2016-08-04T06:14:25Z</time>
      </trkpt>
      <trkpt lat="46.430586" lon="14.232159">
        <ele>1552.3464</ele>
        <time>2016-08-04T06:14:45Z</time>
      </trkpt>
      <trkpt lat="46.430619" lon="14.232119">
        <ele>1552.0416</ele>
        <time>2016-08-04T06:14:49Z</time>
      </trkpt>
      <trkpt lat="46.430714" lon="14.231958">
        <ele>1551.7368</ele>
        <time>2016-08-04T06:15:03Z</time>
      </trkpt>
      <trkpt lat="46.430717" lon="14.231961">
        <ele>1551.432</ele>
        <time>2016-08-04T06:15:39Z</time>
      </trkpt>
      <trkpt lat="46.430751" lon="14.231834">
        <ele>1551.1272</ele>
        <time>2016-08-04T06:16:12Z</time>
      </trkpt>
      <trkpt lat="46.430734" lon="14.231922">
        <ele>1550.8224</ele>
        <time>2016-08-04T06:16:25Z</time>
      </trkpt>
      <trkpt lat="46.430732" lon="14.231927">
        <ele>1550.5176</ele>
        <time>2016-08-04T06:16:28Z</time>
      </trkpt>
      <trkpt lat="46.430728" lon="14.231939">
        <ele>1550.5176</ele>
        <time>2016-08-04T06:16:30Z</time>
      </trkpt>
      <trkpt lat="46.430725" lon="14.231936">
        <ele>1550.5176</ele>
        <time>2016-08-04T06:16:33Z</time>
      </trkpt>
      <trkpt lat="46.430725" lon="14.231933">
        <ele>1550.5176</ele>
        <time>2016-08-04T06:16:35Z</time>
      </trkpt>
      <trkpt lat="46.430739" lon="14.231897">
        <ele>1551.1272</ele>
        <time>2016-08-04T06:17:00Z</time>
      </trkpt>
      <trkpt lat="46.430744" lon="14.231945">
        <ele>1550.8224</ele>
        <time>2016-08-04T06:17:27Z</time>
      </trkpt>
      <trkpt lat="46.430743" lon="14.231909">
        <ele>1550.5176</ele>
        <time>2016-08-04T06:17:42Z</time>
      </trkpt>
      <trkpt lat="46.430739" lon="14.231898">
        <ele>1550.5176</ele>
        <time>2016-08-04T06:17:49Z</time>
      </trkpt>
      <trkpt lat="46.430739" lon="14.231896">
        <ele>1550.2128</ele>
        <time>2016-08-04T06:17:54Z</time>
      </trkpt>
      <trkpt lat="46.430737" lon="14.231899">
        <ele>1550.5176</ele>
        <time>2016-08-04T06:18:00Z</time>
      </trkpt>
      <trkpt lat="46.430735" lon="14.231890">
        <ele>1550.5176</ele>
        <time>2016-08-04T06:18:02Z</time>
      </trkpt>
      <trkpt lat="46.430736" lon="14.231889">
        <ele>1550.2128</ele>
        <time>2016-08-04T06:18:05Z</time>
      </trkpt>
      <trkpt lat="46.430734" lon="14.231883">
        <ele>1550.2128</ele>
        <time>2016-08-04T06:18:10Z</time>
      </trkpt>
      <trkpt lat="46.430808" lon="14.231910">
        <ele>1550.5176</ele>
        <time>2016-08-04T06:18:44Z</time>
      </trkpt>
      <trkpt lat="46.430840" lon="14.231860">
        <ele>1551.432</ele>
        <time>2016-08-04T06:18:50Z</time>
      </trkpt>
      <trkpt lat="46.430847" lon="14.231848">
        <ele>1551.1272</ele>
        <time>2016-08-04T06:18:51Z</time>
      </trkpt>
      <trkpt lat="46.430859" lon="14.231804">
        <ele>1551.1272</ele>
        <time>2016-08-04T06:18:54Z</time>
      </trkpt>
      <trkpt lat="46.430864" lon="14.231796">
        <ele>1551.1272</ele>
        <time>2016-08-04T06:18:55Z</time>
      </trkpt>
      <trkpt lat="46.430868" lon="14.231790">
        <ele>1551.1272</ele>
        <time>2016-08-04T06:18:55Z</time>
      </trkpt>
      <trkpt lat="46.430883" lon="14.231782">
        <ele>1551.1272</ele>
        <time>2016-08-04T06:18:59Z</time>
      </trkpt>
      <trkpt lat="46.430890" lon="14.231746">
        <ele>1550.5176</ele>
        <time>2016-08-04T06:19:15Z</time>
      </trkpt>
      <trkpt lat="46.430924" lon="14.231682">
        <ele>1550.2128</ele>
        <time>2016-08-04T06:19:21Z</time>
      </trkpt>
      <trkpt lat="46.430957" lon="14.231596">
        <ele>1549.908</ele>
        <time>2016-08-04T06:19:26Z</time>
      </trkpt>
      <trkpt lat="46.430991" lon="14.231515">
        <ele>1549.908</ele>
        <time>2016-08-04T06:19:33Z</time>
      </trkpt>
      <trkpt lat="46.431094" lon="14.231376">
        <ele>1549.908</ele>
        <time>2016-08-04T06:19:44Z</time>
      </trkpt>
      <trkpt lat="46.431225" lon="14.231211">
        <ele>1549.2984</ele>
        <time>2016-08-04T06:19:58Z</time>
      </trkpt>
      <trkpt lat="46.431234" lon="14.231208">
        <ele>1549.2984</ele>
        <time>2016-08-04T06:20:01Z</time>
      </trkpt>
      <trkpt lat="46.431250" lon="14.231191">
        <ele>1549.2984</ele>
        <time>2016-08-04T06:20:04Z</time>
      </trkpt>
      <trkpt lat="46.431260" lon="14.231166">
        <ele>1548.9936</ele>
        <time>2016-08-04T06:20:06Z</time>
      </trkpt>
      <trkpt lat="46.431296" lon="14.231129">
        <ele>1548.9936</ele>
        <time>2016-08-04T06:20:09Z</time>
      </trkpt>
      <trkpt lat="46.431340" lon="14.231031">
        <ele>1548.9936</ele>
        <time>2016-08-04T06:20:16Z</time>
      </trkpt>
      <trkpt lat="46.431384" lon="14.230843">
        <ele>1548.6888</ele>
        <time>2016-08-04T06:20:27Z</time>
      </trkpt>
      <trkpt lat="46.431399" lon="14.230794">
        <ele>1548.6888</ele>
        <time>2016-08-04T06:20:31Z</time>
      </trkpt>
      <trkpt lat="46.431396" lon="14.230762">
        <ele>1548.9936</ele>
        <time>2016-08-04T06:20:33Z</time>
      </trkpt>
      <trkpt lat="46.431391" lon="14.230733">
        <ele>1548.6888</ele>
        <time>2016-08-04T06:20:38Z</time>
      </trkpt>
      <trkpt lat="46.431375" lon="14.230720">
        <ele>1548.6888</ele>
        <time>2016-08-04T06:20:40Z</time>
      </trkpt>
      <trkpt lat="46.431392" lon="14.230685">
        <ele>1548.384</ele>
        <time>2016-08-04T06:20:43Z</time>
      </trkpt>
      <trkpt lat="46.431399" lon="14.230677">
        <ele>1548.0792</ele>
        <time>2016-08-04T06:20:43Z</time>
      </trkpt>
      <trkpt lat="46.431418" lon="14.230662">
        <ele>1548.0792</ele>
        <time>2016-08-04T06:20:46Z</time>
      </trkpt>
      <trkpt lat="46.431433" lon="14.230638">
        <ele>1547.4696</ele>
        <time>2016-08-04T06:20:48Z</time>
      </trkpt>
      <trkpt lat="46.431434" lon="14.230626">
        <ele>1547.1648</ele>
        <time>2016-08-04T06:20:50Z</time>
      </trkpt>
      <trkpt lat="46.431504" lon="14.230505">
        <ele>1546.86</ele>
        <time>2016-08-04T06:20:59Z</time>
      </trkpt>
      <trkpt lat="46.431518" lon="14.230482">
        <ele>1546.5552</ele>
        <time>2016-08-04T06:21:03Z</time>
      </trkpt>
      <trkpt lat="46.431527" lon="14.230415">
        <ele>1546.5552</ele>
        <time>2016-08-04T06:21:07Z</time>
      </trkpt>
      <trkpt lat="46.431526" lon="14.230369">
        <ele>1546.2504</ele>
        <time>2016-08-04T06:21:10Z</time>
      </trkpt>
      <trkpt lat="46.431529" lon="14.230343">
        <ele>1546.2504</ele>
        <time>2016-08-04T06:21:11Z</time>
      </trkpt>
      <trkpt lat="46.431536" lon="14.230331">
        <ele>1546.2504</ele>
        <time>2016-08-04T06:21:14Z</time>
      </trkpt>
      <trkpt lat="46.431549" lon="14.230319">
        <ele>1545.9456</ele>
        <time>2016-08-04T06:21:18Z</time>
      </trkpt>
      <trkpt lat="46.431573" lon="14.230205">
        <ele>1545.336</ele>
        <time>2016-08-04T06:21:26Z</time>
      </trkpt>
      <trkpt lat="46.431584" lon="14.230166">
        <ele>1545.0312</ele>
        <time>2016-08-04T06:21:27Z</time>
      </trkpt>
      <trkpt lat="46.431634" lon="14.230116">
        <ele>1544.1168</ele>
        <time>2016-08-04T06:21:32Z</time>
      </trkpt>
      <trkpt lat="46.431729" lon="14.230053">
        <ele>1543.2024</ele>
        <time>2016-08-04T06:21:38Z</time>
      </trkpt>
      <trkpt lat="46.431749" lon="14.230043">
        <ele>1542.8976</ele>
        <time>2016-08-04T06:21:41Z</time>
      </trkpt>
      <trkpt lat="46.431756" lon="14.230025">
        <ele>1542.8976</ele>
        <time>2016-08-04T06:21:41Z</time>
      </trkpt>
      <trkpt lat="46.431791" lon="14.229933">
        <ele>1542.8976</ele>
        <time>2016-08-04T06:21:46Z</time>
      </trkpt>
      <trkpt lat="46.431851" lon="14.229860">
        <ele>1542.8976</ele>
        <time>2016-08-04T06:21:54Z</time>
      </trkpt>
      <trkpt lat="46.431895" lon="14.229793">
        <ele>1543.5072</ele>
        <time>2016-08-04T06:22:00Z</time>
      </trkpt>
      <trkpt lat="46.431914" lon="14.229770">
        <ele>1544.1168</ele>
        <time>2016-08-04T06:22:03Z</time>
      </trkpt>
      <trkpt lat="46.431934" lon="14.229754">
        <ele>1544.7264</ele>
        <time>2016-08-04T06:22:07Z</time>
      </trkpt>
      <trkpt lat="46.431973" lon="14.229745">
        <ele>1545.0312</ele>
        <time>2016-08-04T06:22:11Z</time>
      </trkpt>
      <trkpt lat="46.432018" lon="14.229712">
        <ele>1545.336</ele>
        <time>2016-08-04T06:22:15Z</time>
      </trkpt>
      <trkpt lat="46.432069" lon="14.229671">
        <ele>1545.6408</ele>
        <time>2016-08-04T06:22:20Z</time>
      </trkpt>
      <trkpt lat="46.432094" lon="14.229645">
        <ele>1545.9456</ele>
        <time>2016-08-04T06:22:24Z</time>
      </trkpt>
      <trkpt lat="46.432099" lon="14.229640">
        <ele>1546.2504</ele>
        <time>2016-08-04T06:22:26Z</time>
      </trkpt>
      <trkpt lat="46.432117" lon="14.229596">
        <ele>1547.4696</ele>
        <time>2016-08-04T06:22:31Z</time>
      </trkpt>
      <trkpt lat="46.432133" lon="14.229560">
        <ele>1547.7744</ele>
        <time>2016-08-04T06:22:32Z</time>
      </trkpt>
      <trkpt lat="46.432144" lon="14.229532">
        <ele>1548.0792</ele>
        <time>2016-08-04T06:22:35Z</time>
      </trkpt>
      <trkpt lat="46.432153" lon="14.229507">
        <ele>1548.0792</ele>
        <time>2016-08-04T06:22:36Z</time>
      </trkpt>
      <trkpt lat="46.432163" lon="14.229482">
        <ele>1548.6888</ele>
        <time>2016-08-04T06:22:39Z</time>
      </trkpt>
      <trkpt lat="46.432185" lon="14.229442">
        <ele>1548.9936</ele>
        <time>2016-08-04T06:22:43Z</time>
      </trkpt>
      <trkpt lat="46.432192" lon="14.229436">
        <ele>1549.908</ele>
        <time>2016-08-04T06:22:47Z</time>
      </trkpt>
      <trkpt lat="46.432202" lon="14.229431">
        <ele>1550.5176</ele>
        <time>2016-08-04T06:22:48Z</time>
      </trkpt>
      <trkpt lat="46.432203" lon="14.229420">
        <ele>1550.8224</ele>
        <time>2016-08-04T06:22:51Z</time>
      </trkpt>
      <trkpt lat="46.432227" lon="14.229426">
        <ele>1551.7368</ele>
        <time>2016-08-04T06:22:58Z</time>
      </trkpt>
      <trkpt lat="46.432227" lon="14.229430">
        <ele>1552.956</ele>
        <time>2016-08-04T06:23:02Z</time>
      </trkpt>
      <trkpt lat="46.432199" lon="14.229425">
        <ele>1554.48</ele>
        <time>2016-08-04T06:23:07Z</time>
      </trkpt>
      <trkpt lat="46.432160" lon="14.229412">
        <ele>1554.1752</ele>
        <time>2016-08-04T06:23:15Z</time>
      </trkpt>
      <trkpt lat="46.432229" lon="14.229378">
        <ele>1555.3944</ele>
        <time>2016-08-04T06:23:25Z</time>
      </trkpt>
      <trkpt lat="46.432263" lon="14.229362">
        <ele>1556.3088</ele>
        <time>2016-08-04T06:23:29Z</time>
      </trkpt>
      <trkpt lat="46.432304" lon="14.229334">
        <ele>1556.9184</ele>
        <time>2016-08-04T06:23:34Z</time>
      </trkpt>
      <trkpt lat="46.432315" lon="14.229307">
        <ele>1557.528</ele>
        <time>2016-08-04T06:23:38Z</time>
      </trkpt>
      <trkpt lat="46.432322" lon="14.229316">
        <ele>1557.8328</ele>
        <time>2016-08-04T06:23:45Z</time>
      </trkpt>
      <trkpt lat="46.432416" lon="14.229063">
        <ele>1558.4424</ele>
        <time>2016-08-04T06:24:00Z</time>
      </trkpt>
      <trkpt lat="46.432465" lon="14.228931">
        <ele>1559.052</ele>
        <time>2016-08-04T06:24:07Z</time>
      </trkpt>
      <trkpt lat="46.432469" lon="14.228770">
        <ele>1559.3568</ele>
        <time>2016-08-04T06:24:15Z</time>
      </trkpt>
      <trkpt lat="46.432492" lon="14.228725">
        <ele>1559.052</ele>
        <time>2016-08-04T06:24:19Z</time>
      </trkpt>
      <trkpt lat="46.432540" lon="14.228658">
        <ele>1559.3568</ele>
        <time>2016-08-04T06:24:24Z</time>
      </trkpt>
      <trkpt lat="46.432541" lon="14.228641">
        <ele>1559.3568</ele>
        <time>2016-08-04T06:24:26Z</time>
      </trkpt>
      <trkpt lat="46.432549" lon="14.228631">
        <ele>1559.6616</ele>
        <time>2016-08-04T06:24:27Z</time>
      </trkpt>
      <trkpt lat="46.432560" lon="14.228631">
        <ele>1559.6616</ele>
        <time>2016-08-04T06:24:27Z</time>
      </trkpt>
      <trkpt lat="46.432574" lon="14.228626">
        <ele>1559.6616</ele>
        <time>2016-08-04T06:24:30Z</time>
      </trkpt>
      <trkpt lat="46.432596" lon="14.228638">
        <ele>1560.576</ele>
        <time>2016-08-04T06:24:34Z</time>
      </trkpt>
      <trkpt lat="46.432610" lon="14.228688">
        <ele>1560.8808</ele>
        <time>2016-08-04T06:24:38Z</time>
      </trkpt>
      <trkpt lat="46.432610" lon="14.228700">
        <ele>1561.1856</ele>
        <time>2016-08-04T06:24:39Z</time>
      </trkpt>
      <trkpt lat="46.432613" lon="14.228727">
        <ele>1561.4904</ele>
        <time>2016-08-04T06:24:41Z</time>
      </trkpt>
      <trkpt lat="46.432618" lon="14.228720">
        <ele>1561.7952</ele>
        <time>2016-08-04T06:24:42Z</time>
      </trkpt>
      <trkpt lat="46.432620" lon="14.228715">
        <ele>1562.1</ele>
        <time>2016-08-04T06:24:43Z</time>
      </trkpt>
      <trkpt lat="46.432642" lon="14.228716">
        <ele>1563.0144</ele>
        <time>2016-08-04T06:24:46Z</time>
      </trkpt>
      <trkpt lat="46.432672" lon="14.228706">
        <ele>1564.2336</ele>
        <time>2016-08-04T06:24:54Z</time>
      </trkpt>
      <trkpt lat="46.432675" lon="14.228595">
        <ele>1565.148</ele>
        <time>2016-08-04T06:25:05Z</time>
      </trkpt>
      <trkpt lat="46.432615" lon="14.228435">
        <ele>1565.4528</ele>
        <time>2016-08-04T06:25:20Z</time>
      </trkpt>
      <trkpt lat="46.432631" lon="14.228421">
        <ele>1565.4528</ele>
        <time>2016-08-04T06:25:21Z</time>
      </trkpt>
      <trkpt lat="46.432649" lon="14.228401">
        <ele>1565.7576</ele>
        <time>2016-08-04T06:25:24Z</time>
      </trkpt>
      <trkpt lat="46.432657" lon="14.228393">
        <ele>1565.7576</ele>
        <time>2016-08-04T06:25:25Z</time>
      </trkpt>
      <trkpt lat="46.432658" lon="14.228382">
        <ele>1566.0624</ele>
        <time>2016-08-04T06:25:25Z</time>
      </trkpt>
      <trkpt lat="46.432661" lon="14.228360">
        <ele>1566.0624</ele>
        <time>2016-08-04T06:25:28Z</time>
      </trkpt>
      <trkpt lat="46.432660" lon="14.228349">
        <ele>1566.0624</ele>
        <time>2016-08-04T06:25:29Z</time>
      </trkpt>
      <trkpt lat="46.432663" lon="14.228298">
        <ele>1566.3672</ele>
        <time>2016-08-04T06:25:32Z</time>
      </trkpt>
      <trkpt lat="46.432704" lon="14.228209">
        <ele>1566.0624</ele>
        <time>2016-08-04T06:25:37Z</time>
      </trkpt>
      <trkpt lat="46.432778" lon="14.228135">
        <ele>1565.4528</ele>
        <time>2016-08-04T06:25:45Z</time>
      </trkpt>
      <trkpt lat="46.432807" lon="14.228116">
        <ele>1565.7576</ele>
        <time>2016-08-04T06:25:51Z</time>
      </trkpt>
      <trkpt lat="46.432819" lon="14.228072">
        <ele>1565.4528</ele>
        <time>2016-08-04T06:25:56Z</time>
      </trkpt>
      <trkpt lat="46.432819" lon="14.228044">
        <ele>1565.148</ele>
        <time>2016-08-04T06:25:59Z</time>
      </trkpt>
      <trkpt lat="46.432827" lon="14.228040">
        <ele>1565.148</ele>
        <time>2016-08-04T06:26:00Z</time>
      </trkpt>
      <trkpt lat="46.432824" lon="14.228029">
        <ele>1564.5384</ele>
        <time>2016-08-04T06:26:04Z</time>
      </trkpt>
      <trkpt lat="46.432826" lon="14.228017">
        <ele>1564.5384</ele>
        <time>2016-08-04T06:26:06Z</time>
      </trkpt>
      <trkpt lat="46.432825" lon="14.228013">
        <ele>1564.5384</ele>
        <time>2016-08-04T06:26:07Z</time>
      </trkpt>
      <trkpt lat="46.432830" lon="14.228004">
        <ele>1564.5384</ele>
        <time>2016-08-04T06:26:07Z</time>
      </trkpt>
      <trkpt lat="46.432867" lon="14.227917">
        <ele>1565.4528</ele>
        <time>2016-08-04T06:26:15Z</time>
      </trkpt>
      <trkpt lat="46.432885" lon="14.227911">
        <ele>1565.4528</ele>
        <time>2016-08-04T06:26:16Z</time>
      </trkpt>
      <trkpt lat="46.432888" lon="14.227885">
        <ele>1565.7576</ele>
        <time>2016-08-04T06:26:19Z</time>
      </trkpt>
      <trkpt lat="46.432895" lon="14.227844">
        <ele>1565.7576</ele>
        <time>2016-08-04T06:26:22Z</time>
      </trkpt>
      <trkpt lat="46.432929" lon="14.227793">
        <ele>1566.0624</ele>
        <time>2016-08-04T06:26:27Z</time>
      </trkpt>
      <trkpt lat="46.432940" lon="14.227755">
        <ele>1566.0624</ele>
        <time>2016-08-04T06:26:30Z</time>
      </trkpt>
      <trkpt lat="46.432906" lon="14.227687">
        <ele>1565.7576</ele>
        <time>2016-08-04T06:26:37Z</time>
      </trkpt>
      <trkpt lat="46.432901" lon="14.227662">
        <ele>1566.0624</ele>
        <time>2016-08-04T06:26:39Z</time>
      </trkpt>
      <trkpt lat="46.432865" lon="14.227613">
        <ele>1567.2816</ele>
        <time>2016-08-04T06:26:50Z</time>
      </trkpt>
      <trkpt lat="46.432861" lon="14.227537">
        <ele>1568.5008</ele>
        <time>2016-08-04T06:26:58Z</time>
      </trkpt>
      <trkpt lat="46.432892" lon="14.227481">
        <ele>1569.4152</ele>
        <time>2016-08-04T06:27:05Z</time>
      </trkpt>
      <trkpt lat="46.432900" lon="14.227477">
        <ele>1569.72</ele>
        <time>2016-08-04T06:27:05Z</time>
      </trkpt>
      <trkpt lat="46.432937" lon="14.227449">
        <ele>1570.3296</ele>
        <time>2016-08-04T06:27:09Z</time>
      </trkpt>
      <trkpt lat="46.432960" lon="14.227434">
        <ele>1570.6344</ele>
        <time>2016-08-04T06:27:12Z</time>
      </trkpt>
      <trkpt lat="46.432989" lon="14.227413">
        <ele>1570.9392</ele>
        <time>2016-08-04T06:27:14Z</time>
      </trkpt>
      <trkpt lat="46.433010" lon="14.227398">
        <ele>1571.5488</ele>
        <time>2016-08-04T06:27:17Z</time>
      </trkpt>
      <trkpt lat="46.433046" lon="14.227347">
        <ele>1572.4632</ele>
        <time>2016-08-04T06:27:27Z</time>
      </trkpt>
      <trkpt lat="46.433067" lon="14.227291">
        <ele>1573.6824</ele>
        <time>2016-08-04T06:27:32Z</time>
      </trkpt>
      <trkpt lat="46.433066" lon="14.227285">
        <ele>1573.6824</ele>
        <time>2016-08-04T06:27:33Z</time>
      </trkpt>
      <trkpt lat="46.433157" lon="14.227206">
        <ele>1572.4632</ele>
        <time>2016-08-04T06:27:52Z</time>
      </trkpt>
      <trkpt lat="46.433178" lon="14.227081">
        <ele>1572.1584</ele>
        <time>2016-08-04T06:28:02Z</time>
      </trkpt>
      <trkpt lat="46.433313" lon="14.226932">
        <ele>1573.0728</ele>
        <time>2016-08-04T06:28:21Z</time>
      </trkpt>
      <trkpt lat="46.433325" lon="14.226943">
        <ele>1573.0728</ele>
        <time>2016-08-04T06:28:22Z</time>
      </trkpt>
      <trkpt lat="46.433356" lon="14.226926">
        <ele>1573.6824</ele>
        <time>2016-08-04T06:28:27Z</time>
      </trkpt>
      <trkpt lat="46.433376" lon="14.226889">
        <ele>1573.3776</ele>
        <time>2016-08-04T06:28:30Z</time>
      </trkpt>
      <trkpt lat="46.433408" lon="14.226856">
        <ele>1571.8536</ele>
        <time>2016-08-04T06:28:35Z</time>
      </trkpt>
      <trkpt lat="46.433418" lon="14.226844">
        <ele>1571.5488</ele>
        <time>2016-08-04T06:28:38Z</time>
      </trkpt>
      <trkpt lat="46.433423" lon="14.226842">
        <ele>1571.244</ele>
        <time>2016-08-04T06:28:39Z</time>
      </trkpt>
      <trkpt lat="46.433399" lon="14.226684">
        <ele>1571.244</ele>
        <time>2016-08-04T06:28:50Z</time>
      </trkpt>
      <trkpt lat="46.433420" lon="14.226618">
        <ele>1572.1584</ele>
        <time>2016-08-04T06:28:57Z</time>
      </trkpt>
      <trkpt lat="46.433435" lon="14.226607">
        <ele>1572.4632</ele>
        <time>2016-08-04T06:29:01Z</time>
      </trkpt>
      <trkpt lat="46.433493" lon="14.226591">
        <ele>1573.6824</ele>
        <time>2016-08-04T06:29:05Z</time>
      </trkpt>
      <trkpt lat="46.433501" lon="14.226562">
        <ele>1574.292</ele>
        <time>2016-08-04T06:29:09Z</time>
      </trkpt>
      <trkpt lat="46.433505" lon="14.226557">
        <ele>1574.292</ele>
        <time>2016-08-04T06:29:11Z</time>
      </trkpt>
      <trkpt lat="46.433521" lon="14.226531">
        <ele>1574.9016</ele>
        <time>2016-08-04T06:29:16Z</time>
      </trkpt>
      <trkpt lat="46.433524" lon="14.226530">
        <ele>1576.1208</ele>
        <time>2016-08-04T06:29:20Z</time>
      </trkpt>
      <trkpt lat="46.433534" lon="14.226490">
        <ele>1577.0352</ele>
        <time>2016-08-04T06:29:25Z</time>
      </trkpt>
      <trkpt lat="46.433583" lon="14.226449">
        <ele>1577.9496</ele>
        <time>2016-08-04T06:29:31Z</time>
      </trkpt>
      <trkpt lat="46.433655" lon="14.226398">
        <ele>1578.864</ele>
        <time>2016-08-04T06:29:38Z</time>
      </trkpt>
      <trkpt lat="46.433686" lon="14.226379">
        <ele>1578.864</ele>
        <time>2016-08-04T06:29:42Z</time>
      </trkpt>
      <trkpt lat="46.433735" lon="14.226343">
        <ele>1580.0832</ele>
        <time>2016-08-04T06:29:50Z</time>
      </trkpt>
      <trkpt lat="46.433746" lon="14.226273">
        <ele>1581.3024</ele>
        <time>2016-08-04T06:29:58Z</time>
      </trkpt>
      <trkpt lat="46.433773" lon="14.226204">
        <ele>1582.5216</ele>
        <time>2016-08-04T06:30:06Z</time>
      </trkpt>
      <trkpt lat="46.433778" lon="14.226199">
        <ele>1582.8264</ele>
        <time>2016-08-04T06:30:07Z</time>
      </trkpt>
      <trkpt lat="46.433805" lon="14.226166">
        <ele>1583.7408</ele>
        <time>2016-08-04T06:30:14Z</time>
      </trkpt>
      <trkpt lat="46.433825" lon="14.226090">
        <ele>1584.6552</ele>
        <time>2016-08-04T06:30:21Z</time>
      </trkpt>
      <trkpt lat="46.433836" lon="14.226034">
        <ele>1585.8744</ele>
        <time>2016-08-04T06:30:26Z</time>
      </trkpt>
      <trkpt lat="46.433895" lon="14.225991">
        <ele>1587.0936</ele>
        <time>2016-08-04T06:30:37Z</time>
      </trkpt>
      <trkpt lat="46.433927" lon="14.225976">
        <ele>1588.3128</ele>
        <time>2016-08-04T06:30:42Z</time>
      </trkpt>
      <trkpt lat="46.433935" lon="14.225981">
        <ele>1588.3128</ele>
        <time>2016-08-04T06:30:44Z</time>
      </trkpt>
      <trkpt lat="46.433940" lon="14.225977">
        <ele>1588.3128</ele>
        <time>2016-08-04T06:30:45Z</time>
      </trkpt>
      <trkpt lat="46.433943" lon="14.225971">
        <ele>1588.3128</ele>
        <time>2016-08-04T06:30:45Z</time>
      </trkpt>
      <trkpt lat="46.433958" lon="14.225951">
        <ele>1589.2272</ele>
        <time>2016-08-04T06:30:52Z</time>
      </trkpt>
      <trkpt lat="46.433988" lon="14.225927">
        <ele>1590.4464</ele>
        <time>2016-08-04T06:30:57Z</time>
      </trkpt>
      <trkpt lat="46.434012" lon="14.225774">
        <ele>1591.3608</ele>
        <time>2016-08-04T06:31:12Z</time>
      </trkpt>
      <trkpt lat="46.434030" lon="14.225706">
        <ele>1592.2752</ele>
        <time>2016-08-04T06:31:19Z</time>
      </trkpt>
      <trkpt lat="46.434110" lon="14.225577">
        <ele>1593.1896</ele>
        <time>2016-08-04T06:31:32Z</time>
      </trkpt>
      <trkpt lat="46.434151" lon="14.225509">
        <ele>1593.4944</ele>
        <time>2016-08-04T06:31:40Z</time>
      </trkpt>
      <trkpt lat="46.434176" lon="14.225448">
        <ele>1594.7136</ele>
        <time>2016-08-04T06:31:50Z</time>
      </trkpt>
      <trkpt lat="46.434198" lon="14.225387">
        <ele>1594.7136</ele>
        <time>2016-08-04T06:32:10Z</time>
      </trkpt>
      <trkpt lat="46.434199" lon="14.225376">
        <ele>1594.7136</ele>
        <time>2016-08-04T06:32:11Z</time>
      </trkpt>
      <trkpt lat="46.434198" lon="14.225365">
        <ele>1595.0184</ele>
        <time>2016-08-04T06:32:13Z</time>
      </trkpt>
      <trkpt lat="46.434186" lon="14.225345">
        <ele>1595.628</ele>
        <time>2016-08-04T06:32:14Z</time>
      </trkpt>
      <trkpt lat="46.434159" lon="14.225297">
        <ele>1596.8472</ele>
        <time>2016-08-04T06:32:21Z</time>
      </trkpt>
      <trkpt lat="46.434167" lon="14.225223">
        <ele>1597.7616</ele>
        <time>2016-08-04T06:32:29Z</time>
      </trkpt>
      <trkpt lat="46.434162" lon="14.225166">
        <ele>1598.676</ele>
        <time>2016-08-04T06:32:36Z</time>
      </trkpt>
      <trkpt lat="46.434195" lon="14.225029">
        <ele>1599.2856</ele>
        <time>2016-08-04T06:32:48Z</time>
      </trkpt>
      <trkpt lat="46.434258" lon="14.224801">
        <ele>1597.7616</ele>
        <time>2016-08-04T06:33:09Z</time>
      </trkpt>
      <trkpt lat="46.434366" lon="14.224648">
        <ele>1598.9808</ele>
        <time>2016-08-04T06:33:32Z</time>
      </trkpt>
      <trkpt lat="46.434446" lon="14.224514">
        <ele>1599.2856</ele>
        <time>2016-08-04T06:33:43Z</time>
      </trkpt>
      <trkpt lat="46.434432" lon="14.224491">
        <ele>1599.5904</ele>
        <time>2016-08-04T06:33:46Z</time>
      </trkpt>
      <trkpt lat="46.434424" lon="14.224470">
        <ele>1599.8952</ele>
        <time>2016-08-04T06:33:49Z</time>
      </trkpt>
      <trkpt lat="46.434427" lon="14.224450">
        <ele>1600.5048</ele>
        <time>2016-08-04T06:33:51Z</time>
      </trkpt>
      <trkpt lat="46.434441" lon="14.224437">
        <ele>1601.1144</ele>
        <time>2016-08-04T06:33:54Z</time>
      </trkpt>
      <trkpt lat="46.434422" lon="14.224393">
        <ele>1601.724</ele>
        <time>2016-08-04T06:33:58Z</time>
      </trkpt>
      <trkpt lat="46.434421" lon="14.224334">
        <ele>1602.3336</ele>
        <time>2016-08-04T06:34:01Z</time>
      </trkpt>
      <trkpt lat="46.434453" lon="14.224287">
        <ele>1602.9432</ele>
        <time>2016-08-04T06:34:06Z</time>
      </trkpt>
      <trkpt lat="46.434462" lon="14.224266">
        <ele>1602.9432</ele>
        <time>2016-08-04T06:34:08Z</time>
      </trkpt>
      <trkpt lat="46.434467" lon="14.224260">
        <ele>1603.248</ele>
        <time>2016-08-04T06:34:09Z</time>
      </trkpt>
      <trkpt lat="46.434461" lon="14.224238">
        <ele>1603.248</ele>
        <time>2016-08-04T06:34:10Z</time>
      </trkpt>
      <trkpt lat="46.434434" lon="14.224187">
        <ele>1604.1624</ele>
        <time>2016-08-04T06:34:14Z</time>
      </trkpt>
      <trkpt lat="46.434435" lon="14.224168">
        <ele>1604.772</ele>
        <time>2016-08-04T06:34:17Z</time>
      </trkpt>
      <trkpt lat="46.434449" lon="14.224129">
        <ele>1605.0768</ele>
        <time>2016-08-04T06:34:20Z</time>
      </trkpt>
      <trkpt lat="46.434499" lon="14.224039">
        <ele>1606.296</ele>
        <time>2016-08-04T06:34:26Z</time>
      </trkpt>
      <trkpt lat="46.434503" lon="14.224030">
        <ele>1606.296</ele>
        <time>2016-08-04T06:34:28Z</time>
      </trkpt>
      <trkpt lat="46.434521" lon="14.224008">
        <ele>1606.6008</ele>
        <time>2016-08-04T06:34:30Z</time>
      </trkpt>
      <trkpt lat="46.434542" lon="14.223996">
        <ele>1606.6008</ele>
        <time>2016-08-04T06:34:35Z</time>
      </trkpt>
      <trkpt lat="46.434549" lon="14.223951">
        <ele>1607.5152</ele>
        <time>2016-08-04T06:34:40Z</time>
      </trkpt>
      <trkpt lat="46.434655" lon="14.223743">
        <ele>1608.1248</ele>
        <time>2016-08-04T06:35:02Z</time>
      </trkpt>
      <trkpt lat="46.434682" lon="14.223718">
        <ele>1608.1248</ele>
        <time>2016-08-04T06:35:06Z</time>
      </trkpt>
      <trkpt lat="46.434681" lon="14.223694">
        <ele>1608.7344</ele>
        <time>2016-08-04T06:35:08Z</time>
      </trkpt>
      <trkpt lat="46.434656" lon="14.223652">
        <ele>1608.7344</ele>
        <time>2016-08-04T06:35:12Z</time>
      </trkpt>
      <trkpt lat="46.434651" lon="14.223618">
        <ele>1608.7344</ele>
        <time>2016-08-04T06:35:16Z</time>
      </trkpt>
      <trkpt lat="46.434630" lon="14.223380">
        <ele>1608.7344</ele>
        <time>2016-08-04T06:35:34Z</time>
      </trkpt>
      <trkpt lat="46.434652" lon="14.223352">
        <ele>1609.344</ele>
        <time>2016-08-04T06:35:37Z</time>
      </trkpt>
      <trkpt lat="46.434671" lon="14.223298">
        <ele>1609.344</ele>
        <time>2016-08-04T06:35:41Z</time>
      </trkpt>
      <trkpt lat="46.434683" lon="14.223276">
        <ele>1609.6488</ele>
        <time>2016-08-04T06:35:42Z</time>
      </trkpt>
      <trkpt lat="46.434699" lon="14.223221">
        <ele>1610.2584</ele>
        <time>2016-08-04T06:35:49Z</time>
      </trkpt>
      <trkpt lat="46.434709" lon="14.223208">
        <ele>1610.2584</ele>
        <time>2016-08-04T06:35:51Z</time>
      </trkpt>
      <trkpt lat="46.434715" lon="14.223182">
        <ele>1610.868</ele>
        <time>2016-08-04T06:35:54Z</time>
      </trkpt>
      <trkpt lat="46.434730" lon="14.223139">
        <ele>1611.4776</ele>
        <time>2016-08-04T06:36:05Z</time>
      </trkpt>
      <trkpt lat="46.434746" lon="14.223086">
        <ele>1611.4776</ele>
        <time>2016-08-04T06:36:09Z</time>
      </trkpt>
      <trkpt lat="46.434755" lon="14.223007">
        <ele>1610.868</ele>
        <time>2016-08-04T06:36:16Z</time>
      </trkpt>
      <trkpt lat="46.434777" lon="14.222968">
        <ele>1610.868</ele>
        <time>2016-08-04T06:36:20Z</time>
      </trkpt>
      <trkpt lat="46.434791" lon="14.222912">
        <ele>1610.2584</ele>
        <time>2016-08-04T06:36:25Z</time>
      </trkpt>
      <trkpt lat="46.434825" lon="14.222741">
        <ele>1611.7824</ele>
        <time>2016-08-04T06:36:43Z</time>
      </trkpt>
      <trkpt lat="46.434834" lon="14.222647">
        <ele>1612.6968</ele>
        <time>2016-08-04T06:36:51Z</time>
      </trkpt>
      <trkpt lat="46.434830" lon="14.222568">
        <ele>1613.916</ele>
        <time>2016-08-04T06:36:56Z</time>
      </trkpt>
      <trkpt lat="46.434837" lon="14.222333">
        <ele>1614.2208</ele>
        <time>2016-08-04T06:37:15Z</time>
      </trkpt>
      <trkpt lat="46.434819" lon="14.222146">
        <ele>1614.5256</ele>
        <time>2016-08-04T06:37:26Z</time>
      </trkpt>
      <trkpt lat="46.434793" lon="14.222080">
        <ele>1614.8304</ele>
        <time>2016-08-04T06:37:30Z</time>
      </trkpt>
      <trkpt lat="46.434740" lon="14.221951">
        <ele>1614.8304</ele>
        <time>2016-08-04T06:37:41Z</time>
      </trkpt>
      <trkpt lat="46.434741" lon="14.221843">
        <ele>1615.1352</ele>
        <time>2016-08-04T06:37:49Z</time>
      </trkpt>
      <trkpt lat="46.434752" lon="14.221803">
        <ele>1615.1352</ele>
        <time>2016-08-04T06:37:52Z</time>
      </trkpt>
      <trkpt lat="46.434744" lon="14.221756">
        <ele>1615.1352</ele>
        <time>2016-08-04T06:37:54Z</time>
      </trkpt>
      <trkpt lat="46.434748" lon="14.221678">
        <ele>1615.44</ele>
        <time>2016-08-04T06:38:02Z</time>
      </trkpt>
      <trkpt lat="46.434747" lon="14.221628">
        <ele>1615.7448</ele>
        <time>2016-08-04T06:38:06Z</time>
      </trkpt>
      <trkpt lat="46.434750" lon="14.221613">
        <ele>1616.0496</ele>
        <time>2016-08-04T06:38:08Z</time>
      </trkpt>
      <trkpt lat="46.434777" lon="14.221518">
        <ele>1616.3544</ele>
        <time>2016-08-04T06:38:15Z</time>
      </trkpt>
      <trkpt lat="46.434791" lon="14.221452">
        <ele>1616.964</ele>
        <time>2016-08-04T06:38:20Z</time>
      </trkpt>
      <trkpt lat="46.434777" lon="14.221325">
        <ele>1617.8784</ele>
        <time>2016-08-04T06:38:29Z</time>
      </trkpt>
      <trkpt lat="46.434774" lon="14.221304">
        <ele>1617.8784</ele>
        <time>2016-08-04T06:38:32Z</time>
      </trkpt>
      <trkpt lat="46.434774" lon="14.221295">
        <ele>1617.8784</ele>
        <time>2016-08-04T06:38:32Z</time>
      </trkpt>
      <trkpt lat="46.434766" lon="14.221288">
        <ele>1618.488</ele>
        <time>2016-08-04T06:38:33Z</time>
      </trkpt>
      <trkpt lat="46.434766" lon="14.221286">
        <ele>1618.7928</ele>
        <time>2016-08-04T06:38:36Z</time>
      </trkpt>
      <trkpt lat="46.434770" lon="14.221284">
        <ele>1619.0976</ele>
        <time>2016-08-04T06:38:39Z</time>
      </trkpt>
      <trkpt lat="46.434730" lon="14.221286">
        <ele>1618.7928</ele>
        <time>2016-08-04T06:39:03Z</time>
      </trkpt>
      <trkpt lat="46.434732" lon="14.221284">
        <ele>1618.488</ele>
        <time>2016-08-04T06:39:09Z</time>
      </trkpt>
      <trkpt lat="46.434731" lon="14.221290">
        <ele>1618.488</ele>
        <time>2016-08-04T06:39:15Z</time>
      </trkpt>
      <trkpt lat="46.434736" lon="14.221292">
        <ele>1618.1832</ele>
        <time>2016-08-04T06:39:22Z</time>
      </trkpt>
      <trkpt lat="46.434749" lon="14.221290">
        <ele>1618.1832</ele>
        <time>2016-08-04T06:39:44Z</time>
      </trkpt>
      <trkpt lat="46.434747" lon="14.221291">
        <ele>1618.488</ele>
        <time>2016-08-04T06:39:45Z</time>
      </trkpt>
      <trkpt lat="46.434744" lon="14.221296">
        <ele>1618.488</ele>
        <time>2016-08-04T06:40:15Z</time>
      </trkpt>
      <trkpt lat="46.434750" lon="14.221293">
        <ele>1618.488</ele>
        <time>2016-08-04T06:40:20Z</time>
      </trkpt>
      <trkpt lat="46.434727" lon="14.221292">
        <ele>1618.488</ele>
        <time>2016-08-04T06:40:28Z</time>
      </trkpt>
      <trkpt lat="46.434715" lon="14.221243">
        <ele>1618.488</ele>
        <time>2016-08-04T06:40:32Z</time>
      </trkpt>
      <trkpt lat="46.434715" lon="14.221237">
        <ele>1618.488</ele>
        <time>2016-08-04T06:40:34Z</time>
      </trkpt>
      <trkpt lat="46.434714" lon="14.221230">
        <ele>1618.488</ele>
        <time>2016-08-04T06:40:35Z</time>
      </trkpt>
      <trkpt lat="46.434710" lon="14.221218">
        <ele>1618.488</ele>
        <time>2016-08-04T06:40:35Z</time>
      </trkpt>
      <trkpt lat="46.434708" lon="14.221208">
        <ele>1618.488</ele>
        <time>2016-08-04T06:40:36Z</time>
      </trkpt>
      <trkpt lat="46.434723" lon="14.221162">
        <ele>1620.3168</ele>
        <time>2016-08-04T06:40:43Z</time>
      </trkpt>
      <trkpt lat="46.434738" lon="14.221126">
        <ele>1620.3168</ele>
        <time>2016-08-04T06:40:47Z</time>
      </trkpt>
      <trkpt lat="46.434760" lon="14.221102">
        <ele>1620.9264</ele>
        <time>2016-08-04T06:40:50Z</time>
      </trkpt>
      <trkpt lat="46.434764" lon="14.221096">
        <ele>1620.9264</ele>
        <time>2016-08-04T06:40:51Z</time>
      </trkpt>
      <trkpt lat="46.434785" lon="14.221078">
        <ele>1621.536</ele>
        <time>2016-08-04T06:40:54Z</time>
      </trkpt>
      <trkpt lat="46.434809" lon="14.221057">
        <ele>1622.4504</ele>
        <time>2016-08-04T06:40:58Z</time>
      </trkpt>
      <trkpt lat="46.434823" lon="14.221033">
        <ele>1622.7552</ele>
        <time>2016-08-04T06:41:01Z</time>
      </trkpt>
      <trkpt lat="46.434829" lon="14.221017">
        <ele>1623.06</ele>
        <time>2016-08-04T06:41:02Z</time>
      </trkpt>
      <trkpt lat="46.434798" lon="14.220957">
        <ele>1623.6696</ele>
        <time>2016-08-04T06:41:10Z</time>
      </trkpt>
      <trkpt lat="46.434790" lon="14.220956">
        <ele>1623.6696</ele>
        <time>2016-08-04T06:41:11Z</time>
      </trkpt>
      <trkpt lat="46.434784" lon="14.220950">
        <ele>1623.6696</ele>
        <time>2016-08-04T06:41:13Z</time>
      </trkpt>
      <trkpt lat="46.434777" lon="14.220919">
        <ele>1624.2792</ele>
        <time>2016-08-04T06:41:17Z</time>
      </trkpt>
      <trkpt lat="46.434789" lon="14.220873">
        <ele>1624.584</ele>
        <time>2016-08-04T06:41:22Z</time>
      </trkpt>
      <trkpt lat="46.434776" lon="14.220809">
        <ele>1625.8032</ele>
        <time>2016-08-04T06:41:28Z</time>
      </trkpt>
      <trkpt lat="46.434746" lon="14.220747">
        <ele>1626.7176</ele>
        <time>2016-08-04T06:41:37Z</time>
      </trkpt>
      <trkpt lat="46.434705" lon="14.220726">
        <ele>1627.9368</ele>
        <time>2016-08-04T06:41:45Z</time>
      </trkpt>
      <trkpt lat="46.434714" lon="14.220668">
        <ele>1628.8512</ele>
        <time>2016-08-04T06:41:52Z</time>
      </trkpt>
      <trkpt lat="46.434745" lon="14.220585">
        <ele>1629.7656</ele>
        <time>2016-08-04T06:42:00Z</time>
      </trkpt>
      <trkpt lat="46.434743" lon="14.220503">
        <ele>1630.9848</ele>
        <time>2016-08-04T06:42:08Z</time>
      </trkpt>
      <trkpt lat="46.434811" lon="14.220437">
        <ele>1631.2896</ele>
        <time>2016-08-04T06:42:20Z</time>
      </trkpt>
      <trkpt lat="46.434835" lon="14.220264">
        <ele>1631.2896</ele>
        <time>2016-08-04T06:42:39Z</time>
      </trkpt>
      <trkpt lat="46.434830" lon="14.220245">
        <ele>1631.5944</ele>
        <time>2016-08-04T06:42:41Z</time>
      </trkpt>
      <trkpt lat="46.434823" lon="14.220214">
        <ele>1632.204</ele>
        <time>2016-08-04T06:42:43Z</time>
      </trkpt>
      <trkpt lat="46.434829" lon="14.220166">
        <ele>1632.8136</ele>
        <time>2016-08-04T06:42:49Z</time>
      </trkpt>
      <trkpt lat="46.434832" lon="14.220159">
        <ele>1633.1184</ele>
        <time>2016-08-04T06:42:50Z</time>
      </trkpt>
      <trkpt lat="46.434927" lon="14.220113">
        <ele>1634.3376</ele>
        <time>2016-08-04T06:43:06Z</time>
      </trkpt>
      <trkpt lat="46.434915" lon="14.220093">
        <ele>1635.252</ele>
        <time>2016-08-04T06:43:10Z</time>
      </trkpt>
      <trkpt lat="46.434893" lon="14.220043">
        <ele>1636.4712</ele>
        <time>2016-08-04T06:43:16Z</time>
      </trkpt>
      <trkpt lat="46.434874" lon="14.220004">
        <ele>1637.3856</ele>
        <time>2016-08-04T06:43:21Z</time>
      </trkpt>
      <trkpt lat="46.434848" lon="14.219887">
        <ele>1638.3</ele>
        <time>2016-08-04T06:43:33Z</time>
      </trkpt>
      <trkpt lat="46.434847" lon="14.219837">
        <ele>1639.5192</ele>
        <time>2016-08-04T06:43:40Z</time>
      </trkpt>
      <trkpt lat="46.434866" lon="14.219750">
        <ele>1640.7384</ele>
        <time>2016-08-04T06:43:49Z</time>
      </trkpt>
      <trkpt lat="46.434821" lon="14.219496">
        <ele>1640.7384</ele>
        <time>2016-08-04T06:44:12Z</time>
      </trkpt>
      <trkpt lat="46.434795" lon="14.219329">
        <ele>1641.6528</ele>
        <time>2016-08-04T06:44:29Z</time>
      </trkpt>
      <trkpt lat="46.434795" lon="14.219253">
        <ele>1642.5672</ele>
        <time>2016-08-04T06:44:34Z</time>
      </trkpt>
      <trkpt lat="46.434793" lon="14.219244">
        <ele>1642.872</ele>
        <time>2016-08-04T06:44:35Z</time>
      </trkpt>
      <trkpt lat="46.434772" lon="14.219172">
        <ele>1643.4816</ele>
        <time>2016-08-04T06:44:41Z</time>
      </trkpt>
      <trkpt lat="46.434773" lon="14.219156">
        <ele>1643.7864</ele>
        <time>2016-08-04T06:44:42Z</time>
      </trkpt>
      <trkpt lat="46.434769" lon="14.219122">
        <ele>1643.7864</ele>
        <time>2016-08-04T06:44:45Z</time>
      </trkpt>
      <trkpt lat="46.434767" lon="14.219073">
        <ele>1644.0912</ele>
        <time>2016-08-04T06:44:47Z</time>
      </trkpt>
      <trkpt lat="46.434770" lon="14.219055">
        <ele>1644.0912</ele>
        <time>2016-08-04T06:44:49Z</time>
      </trkpt>
      <trkpt lat="46.434775" lon="14.219040">
        <ele>1644.0912</ele>
        <time>2016-08-04T06:44:50Z</time>
      </trkpt>
      <trkpt lat="46.434777" lon="14.219027">
        <ele>1644.0912</ele>
        <time>2016-08-04T06:44:50Z</time>
      </trkpt>
      <trkpt lat="46.434782" lon="14.219015">
        <ele>1644.396</ele>
        <time>2016-08-04T06:44:51Z</time>
      </trkpt>
      <trkpt lat="46.434784" lon="14.219003">
        <ele>1644.396</ele>
        <time>2016-08-04T06:44:53Z</time>
      </trkpt>
      <trkpt lat="46.434789" lon="14.218987">
        <ele>1644.7008</ele>
        <time>2016-08-04T06:44:54Z</time>
      </trkpt>
      <trkpt lat="46.434798" lon="14.218972">
        <ele>1645.3104</ele>
        <time>2016-08-04T06:44:58Z</time>
      </trkpt>
      <trkpt lat="46.434790" lon="14.218952">
        <ele>1645.3104</ele>
        <time>2016-08-04T06:45:00Z</time>
      </trkpt>
      <trkpt lat="46.434788" lon="14.218944">
        <ele>1645.3104</ele>
        <time>2016-08-04T06:45:01Z</time>
      </trkpt>
      <trkpt lat="46.434779" lon="14.218912">
        <ele>1645.92</ele>
        <time>2016-08-04T06:45:04Z</time>
      </trkpt>
      <trkpt lat="46.434790" lon="14.218911">
        <ele>1645.92</ele>
        <time>2016-08-04T06:45:05Z</time>
      </trkpt>
      <trkpt lat="46.434766" lon="14.218844">
        <ele>1646.5296</ele>
        <time>2016-08-04T06:45:10Z</time>
      </trkpt>
      <trkpt lat="46.434767" lon="14.218813">
        <ele>1647.1392</ele>
        <time>2016-08-04T06:45:13Z</time>
      </trkpt>
      <trkpt lat="46.434769" lon="14.218802">
        <ele>1647.1392</ele>
        <time>2016-08-04T06:45:14Z</time>
      </trkpt>
      <trkpt lat="46.434783" lon="14.218759">
        <ele>1647.7488</ele>
        <time>2016-08-04T06:45:18Z</time>
      </trkpt>
      <trkpt lat="46.434813" lon="14.218717">
        <ele>1648.0536</ele>
        <time>2016-08-04T06:45:24Z</time>
      </trkpt>
      <trkpt lat="46.434814" lon="14.218708">
        <ele>1648.0536</ele>
        <time>2016-08-04T06:45:25Z</time>
      </trkpt>
      <trkpt lat="46.434811" lon="14.218682">
        <ele>1648.968</ele>
        <time>2016-08-04T06:45:28Z</time>
      </trkpt>
      <trkpt lat="46.434800" lon="14.218642">
        <ele>1649.5776</ele>
        <time>2016-08-04T06:45:32Z</time>
      </trkpt>
      <trkpt lat="46.434785" lon="14.218591">
        <ele>1649.8824</ele>
        <time>2016-08-04T06:45:36Z</time>
      </trkpt>
      <trkpt lat="46.434761" lon="14.218549">
        <ele>1649.2728</ele>
        <time>2016-08-04T06:45:40Z</time>
      </trkpt>
      <trkpt lat="46.434740" lon="14.218445">
        <ele>1649.2728</ele>
        <time>2016-08-04T06:45:52Z</time>
      </trkpt>
      <trkpt lat="46.434727" lon="14.218367">
        <ele>1650.1872</ele>
        <time>2016-08-04T06:45:58Z</time>
      </trkpt>
      <trkpt lat="46.434711" lon="14.218291">
        <ele>1651.1016</ele>
        <time>2016-08-04T06:46:03Z</time>
      </trkpt>
      <trkpt lat="46.434705" lon="14.218268">
        <ele>1651.4064</ele>
        <time>2016-08-04T06:46:04Z</time>
      </trkpt>
      <trkpt lat="46.434670" lon="14.218188">
        <ele>1652.3208</ele>
        <time>2016-08-04T06:46:11Z</time>
      </trkpt>
      <trkpt lat="46.434662" lon="14.218170">
        <ele>1652.6256</ele>
        <time>2016-08-04T06:46:14Z</time>
      </trkpt>
      <trkpt lat="46.434660" lon="14.218160">
        <ele>1652.6256</ele>
        <time>2016-08-04T06:46:15Z</time>
      </trkpt>
      <trkpt lat="46.434647" lon="14.218111">
        <ele>1652.9304</ele>
        <time>2016-08-04T06:46:19Z</time>
      </trkpt>
      <trkpt lat="46.434659" lon="14.218063">
        <ele>1652.3208</ele>
        <time>2016-08-04T06:46:23Z</time>
      </trkpt>
      <trkpt lat="46.434656" lon="14.218040">
        <ele>1652.016</ele>
        <time>2016-08-04T06:46:26Z</time>
      </trkpt>
      <trkpt lat="46.434661" lon="14.218023">
        <ele>1652.016</ele>
        <time>2016-08-04T06:46:27Z</time>
      </trkpt>
      <trkpt lat="46.434656" lon="14.218001">
        <ele>1652.3208</ele>
        <time>2016-08-04T06:46:30Z</time>
      </trkpt>
      <trkpt lat="46.434645" lon="14.217964">
        <ele>1653.54</ele>
        <time>2016-08-04T06:46:35Z</time>
      </trkpt>
      <trkpt lat="46.434635" lon="14.217938">
        <ele>1654.4544</ele>
        <time>2016-08-04T06:46:42Z</time>
      </trkpt>
      <trkpt lat="46.434641" lon="14.217893">
        <ele>1654.7592</ele>
        <time>2016-08-04T06:46:46Z</time>
      </trkpt>
      <trkpt lat="46.434640" lon="14.217832">
        <ele>1654.7592</ele>
        <time>2016-08-04T06:46:50Z</time>
      </trkpt>
      <trkpt lat="46.434622" lon="14.217750">
        <ele>1655.064</ele>
        <time>2016-08-04T06:46:56Z</time>
      </trkpt>
      <trkpt lat="46.434632" lon="14.217726">
        <ele>1655.3688</ele>
        <time>2016-08-04T06:47:00Z</time>
      </trkpt>
      <trkpt lat="46.434630" lon="14.217721">
        <ele>1655.6736</ele>
        <time>2016-08-04T06:47:01Z</time>
      </trkpt>
      <trkpt lat="46.434642" lon="14.217658">
        <ele>1656.2832</ele>
        <time>2016-08-04T06:47:06Z</time>
      </trkpt>
      <trkpt lat="46.434638" lon="14.217590">
        <ele>1656.588</ele>
        <time>2016-08-04T06:47:13Z</time>
      </trkpt>
      <trkpt lat="46.434655" lon="14.217467">
        <ele>1657.1976</ele>
        <time>2016-08-04T06:47:24Z</time>
      </trkpt>
      <trkpt lat="46.434651" lon="14.217372">
        <ele>1657.5024</ele>
        <time>2016-08-04T06:47:29Z</time>
      </trkpt>
      <trkpt lat="46.434649" lon="14.217351">
        <ele>1657.8072</ele>
        <time>2016-08-04T06:47:31Z</time>
      </trkpt>
      <trkpt lat="46.434628" lon="14.217289">
        <ele>1658.7216</ele>
        <time>2016-08-04T06:47:33Z</time>
      </trkpt>
      <trkpt lat="46.434634" lon="14.217281">
        <ele>1658.7216</ele>
        <time>2016-08-04T06:47:35Z</time>
      </trkpt>
      <trkpt lat="46.434638" lon="14.217277">
        <ele>1659.0264</ele>
        <time>2016-08-04T06:47:36Z</time>
      </trkpt>
      <trkpt lat="46.434662" lon="14.217268">
        <ele>1659.3312</ele>
        <time>2016-08-04T06:47:39Z</time>
      </trkpt>
      <trkpt lat="46.434706" lon="14.217224">
        <ele>1659.9408</ele>
        <time>2016-08-04T06:47:44Z</time>
      </trkpt>
      <trkpt lat="46.434763" lon="14.217111">
        <ele>1660.8552</ele>
        <time>2016-08-04T06:48:02Z</time>
      </trkpt>
      <trkpt lat="46.434757" lon="14.217095">
        <ele>1660.8552</ele>
        <time>2016-08-04T06:48:03Z</time>
      </trkpt>
      <trkpt lat="46.434731" lon="14.217055">
        <ele>1662.0744</ele>
        <time>2016-08-04T06:48:10Z</time>
      </trkpt>
      <trkpt lat="46.434662" lon="14.216901">
        <ele>1663.2936</ele>
        <time>2016-08-04T06:48:29Z</time>
      </trkpt>
      <trkpt lat="46.434633" lon="14.216776">
        <ele>1664.5128</ele>
        <time>2016-08-04T06:48:41Z</time>
      </trkpt>
      <trkpt lat="46.434631" lon="14.216739">
        <ele>1665.732</ele>
        <time>2016-08-04T06:48:45Z</time>
      </trkpt>
      <trkpt lat="46.434604" lon="14.216670">
        <ele>1666.9512</ele>
        <time>2016-08-04T06:48:53Z</time>
      </trkpt>
      <trkpt lat="46.434587" lon="14.216627">
        <ele>1667.8656</ele>
        <time>2016-08-04T06:49:01Z</time>
      </trkpt>
      <trkpt lat="46.434589" lon="14.216590">
        <ele>1668.78</ele>
        <time>2016-08-04T06:49:07Z</time>
      </trkpt>
      <trkpt lat="46.434582" lon="14.216547">
        <ele>1669.6944</ele>
        <time>2016-08-04T06:49:11Z</time>
      </trkpt>
      <trkpt lat="46.434575" lon="14.216498">
        <ele>1669.6944</ele>
        <time>2016-08-04T06:49:16Z</time>
      </trkpt>
      <trkpt lat="46.434576" lon="14.216485">
        <ele>1669.6944</ele>
        <time>2016-08-04T06:49:16Z</time>
      </trkpt>
      <trkpt lat="46.434575" lon="14.216458">
        <ele>1669.6944</ele>
        <time>2016-08-04T06:49:19Z</time>
      </trkpt>
      <trkpt lat="46.434576" lon="14.216446">
        <ele>1669.6944</ele>
        <time>2016-08-04T06:49:20Z</time>
      </trkpt>
      <trkpt lat="46.434574" lon="14.216437">
        <ele>1669.9992</ele>
        <time>2016-08-04T06:49:21Z</time>
      </trkpt>
      <trkpt lat="46.434585" lon="14.216443">
        <ele>1670.304</ele>
        <time>2016-08-04T06:49:27Z</time>
      </trkpt>
      <trkpt lat="46.434595" lon="14.216439">
        <ele>1670.304</ele>
        <time>2016-08-04T06:49:31Z</time>
      </trkpt>
      <trkpt lat="46.434597" lon="14.216435">
        <ele>1670.304</ele>
        <time>2016-08-04T06:49:35Z</time>
      </trkpt>
      <trkpt lat="46.434600" lon="14.216441">
        <ele>1670.304</ele>
        <time>2016-08-04T06:49:39Z</time>
      </trkpt>
      <trkpt lat="46.434567" lon="14.216409">
        <ele>1670.304</ele>
        <time>2016-08-04T06:49:53Z</time>
      </trkpt>
      <trkpt lat="46.434570" lon="14.216403">
        <ele>1670.304</ele>
        <time>2016-08-04T06:50:01Z</time>
      </trkpt>
      <trkpt lat="46.434570" lon="14.216409">
        <ele>1670.304</ele>
        <time>2016-08-04T06:50:06Z</time>
      </trkpt>
      <trkpt lat="46.434583" lon="14.216414">
        <ele>1669.9992</ele>
        <time>2016-08-04T06:50:26Z</time>
      </trkpt>
      <trkpt lat="46.434561" lon="14.216400">
        <ele>1669.9992</ele>
        <time>2016-08-04T06:51:20Z</time>
      </trkpt>
      <trkpt lat="46.434568" lon="14.216413">
        <ele>1669.9992</ele>
        <time>2016-08-04T06:51:47Z</time>
      </trkpt>
      <trkpt lat="46.434580" lon="14.216418">
        <ele>1669.9992</ele>
        <time>2016-08-04T06:51:51Z</time>
      </trkpt>
      <trkpt lat="46.434579" lon="14.216417">
        <ele>1669.9992</ele>
        <time>2016-08-04T06:51:53Z</time>
      </trkpt>
      <trkpt lat="46.434591" lon="14.216339">
        <ele>1669.9992</ele>
        <time>2016-08-04T06:51:58Z</time>
      </trkpt>
      <trkpt lat="46.434623" lon="14.216264">
        <ele>1670.9136</ele>
        <time>2016-08-04T06:52:06Z</time>
      </trkpt>
      <trkpt lat="46.434636" lon="14.216238">
        <ele>1670.9136</ele>
        <time>2016-08-04T06:52:09Z</time>
      </trkpt>
      <trkpt lat="46.434640" lon="14.216217">
        <ele>1671.2184</ele>
        <time>2016-08-04T06:52:10Z</time>
      </trkpt>
      <trkpt lat="46.434654" lon="14.216175">
        <ele>1671.828</ele>
        <time>2016-08-04T06:52:14Z</time>
      </trkpt>
      <trkpt lat="46.434657" lon="14.216144">
        <ele>1671.828</ele>
        <time>2016-08-04T06:52:17Z</time>
      </trkpt>
      <trkpt lat="46.434662" lon="14.216131">
        <ele>1671.828</ele>
        <time>2016-08-04T06:52:17Z</time>
      </trkpt>
      <trkpt lat="46.434668" lon="14.216123">
        <ele>1671.828</ele>
        <time>2016-08-04T06:52:18Z</time>
      </trkpt>
      <trkpt lat="46.434674" lon="14.216114">
        <ele>1672.1328</ele>
        <time>2016-08-04T06:52:20Z</time>
      </trkpt>
      <trkpt lat="46.434682" lon="14.216104">
        <ele>1672.1328</ele>
        <time>2016-08-04T06:52:21Z</time>
      </trkpt>
      <trkpt lat="46.434696" lon="14.216080">
        <ele>1672.4376</ele>
        <time>2016-08-04T06:52:24Z</time>
      </trkpt>
      <trkpt lat="46.434705" lon="14.216076">
        <ele>1672.7424</ele>
        <time>2016-08-04T06:52:25Z</time>
      </trkpt>
      <trkpt lat="46.434712" lon="14.216070">
        <ele>1673.0472</ele>
        <time>2016-08-04T06:52:26Z</time>
      </trkpt>
      <trkpt lat="46.434735" lon="14.216063">
        <ele>1673.6568</ele>
        <time>2016-08-04T06:52:30Z</time>
      </trkpt>
      <trkpt lat="46.434740" lon="14.216062">
        <ele>1674.2664</ele>
        <time>2016-08-04T06:52:33Z</time>
      </trkpt>
      <trkpt lat="46.434751" lon="14.216036">
        <ele>1675.1808</ele>
        <time>2016-08-04T06:52:37Z</time>
      </trkpt>
      <trkpt lat="46.434762" lon="14.216018">
        <ele>1675.1808</ele>
        <time>2016-08-04T06:52:39Z</time>
      </trkpt>
      <trkpt lat="46.434778" lon="14.215994">
        <ele>1675.1808</ele>
        <time>2016-08-04T06:52:41Z</time>
      </trkpt>
      <trkpt lat="46.434821" lon="14.215942">
        <ele>1675.4856</ele>
        <time>2016-08-04T06:52:48Z</time>
      </trkpt>
      <trkpt lat="46.434822" lon="14.215870">
        <ele>1676.4</ele>
        <time>2016-08-04T06:52:55Z</time>
      </trkpt>
      <trkpt lat="46.434811" lon="14.215808">
        <ele>1676.7048</ele>
        <time>2016-08-04T06:52:59Z</time>
      </trkpt>
      <trkpt lat="46.434812" lon="14.215798">
        <ele>1677.0096</ele>
        <time>2016-08-04T06:53:00Z</time>
      </trkpt>
      <trkpt lat="46.434816" lon="14.215763">
        <ele>1677.3144</ele>
        <time>2016-08-04T06:53:03Z</time>
      </trkpt>
      <trkpt lat="46.434818" lon="14.215751">
        <ele>1677.3144</ele>
        <time>2016-08-04T06:53:04Z</time>
      </trkpt>
      <trkpt lat="46.434817" lon="14.215712">
        <ele>1677.924</ele>
        <time>2016-08-04T06:53:07Z</time>
      </trkpt>
      <trkpt lat="46.434821" lon="14.215698">
        <ele>1678.2288</ele>
        <time>2016-08-04T06:53:07Z</time>
      </trkpt>
      <trkpt lat="46.434832" lon="14.215658">
        <ele>1678.5336</ele>
        <time>2016-08-04T06:53:11Z</time>
      </trkpt>
      <trkpt lat="46.434846" lon="14.215571">
        <ele>1679.1432</ele>
        <time>2016-08-04T06:53:19Z</time>
      </trkpt>
      <trkpt lat="46.434868" lon="14.215522">
        <ele>1679.448</ele>
        <time>2016-08-04T06:53:23Z</time>
      </trkpt>
      <trkpt lat="46.434875" lon="14.215512">
        <ele>1679.448</ele>
        <time>2016-08-04T06:53:24Z</time>
      </trkpt>
      <trkpt lat="46.434894" lon="14.215440">
        <ele>1680.6672</ele>
        <time>2016-08-04T06:53:31Z</time>
      </trkpt>
      <trkpt lat="46.434903" lon="14.215381">
        <ele>1681.2768</ele>
        <time>2016-08-04T06:53:35Z</time>
      </trkpt>
      <trkpt lat="46.434910" lon="14.215317">
        <ele>1681.5816</ele>
        <time>2016-08-04T06:53:42Z</time>
      </trkpt>
      <trkpt lat="46.434940" lon="14.215239">
        <ele>1681.8864</ele>
        <time>2016-08-04T06:53:50Z</time>
      </trkpt>
      <trkpt lat="46.434910" lon="14.215135">
        <ele>1681.8864</ele>
        <time>2016-08-04T06:54:13Z</time>
      </trkpt>
      <trkpt lat="46.434930" lon="14.215140">
        <ele>1681.5816</ele>
        <time>2016-08-04T06:54:21Z</time>
      </trkpt>
      <trkpt lat="46.434935" lon="14.215154">
        <ele>1681.5816</ele>
        <time>2016-08-04T06:54:25Z</time>
      </trkpt>
      <trkpt lat="46.434934" lon="14.215163">
        <ele>1681.5816</ele>
        <time>2016-08-04T06:54:28Z</time>
      </trkpt>
      <trkpt lat="46.434938" lon="14.215197">
        <ele>1681.2768</ele>
        <time>2016-08-04T06:54:33Z</time>
      </trkpt>
      <trkpt lat="46.434944" lon="14.215199">
        <ele>1681.2768</ele>
        <time>2016-08-04T06:54:35Z</time>
      </trkpt>
      <trkpt lat="46.434908" lon="14.215190">
        <ele>1681.2768</ele>
        <time>2016-08-04T06:54:51Z</time>
      </trkpt>
      <trkpt lat="46.434933" lon="14.215133">
        <ele>1681.2768</ele>
        <time>2016-08-04T06:55:15Z</time>
      </trkpt>
      <trkpt lat="46.434979" lon="14.215018">
        <ele>1680.6672</ele>
        <time>2016-08-04T06:55:26Z</time>
      </trkpt>
      <trkpt lat="46.435012" lon="14.214951">
        <ele>1680.0576</ele>
        <time>2016-08-04T06:55:33Z</time>
      </trkpt>
      <trkpt lat="46.435013" lon="14.214947">
        <ele>1679.7528</ele>
        <time>2016-08-04T06:55:34Z</time>
      </trkpt>
      <trkpt lat="46.435014" lon="14.214940">
        <ele>1680.0576</ele>
        <time>2016-08-04T06:55:35Z</time>
      </trkpt>
      <trkpt lat="46.435035" lon="14.214984">
        <ele>1680.0576</ele>
        <time>2016-08-04T06:55:41Z</time>
      </trkpt>
      <trkpt lat="46.435053" lon="14.215007">
        <ele>1679.7528</ele>
        <time>2016-08-04T06:55:42Z</time>
      </trkpt>
      <trkpt lat="46.435082" lon="14.215068">
        <ele>1679.448</ele>
        <time>2016-08-04T06:55:46Z</time>
      </trkpt>
      <trkpt lat="46.435089" lon="14.215083">
        <ele>1679.448</ele>
        <time>2016-08-04T06:55:48Z</time>
      </trkpt>
      <trkpt lat="46.435101" lon="14.215112">
        <ele>1679.448</ele>
        <time>2016-08-04T06:55:50Z</time>
      </trkpt>
      <trkpt lat="46.435104" lon="14.215115">
        <ele>1679.448</ele>
        <time>2016-08-04T06:55:52Z</time>
      </trkpt>
      <trkpt lat="46.435103" lon="14.215114">
        <ele>1679.448</ele>
        <time>2016-08-04T06:55:53Z</time>
      </trkpt>
      <trkpt lat="46.435014" lon="14.214844">
        <ele>1679.448</ele>
        <time>2016-08-04T06:56:20Z</time>
      </trkpt>
      <trkpt lat="46.435025" lon="14.214907">
        <ele>1679.448</ele>
        <time>2016-08-04T06:56:38Z</time>
      </trkpt>
      <trkpt lat="46.435026" lon="14.214856">
        <ele>1679.448</ele>
        <time>2016-08-04T06:56:43Z</time>
      </trkpt>
      <trkpt lat="46.435048" lon="14.214797">
        <ele>1679.1432</ele>
        <time>2016-08-04T06:56:48Z</time>
      </trkpt>
      <trkpt lat="46.435079" lon="14.214717">
        <ele>1679.1432</ele>
        <time>2016-08-04T06:56:56Z</time>
      </trkpt>
      <trkpt lat="46.435071" lon="14.214646">
        <ele>1679.1432</ele>
        <time>2016-08-04T06:57:02Z</time>
      </trkpt>
      <trkpt lat="46.435079" lon="14.214626">
        <ele>1678.8384</ele>
        <time>2016-08-04T06:57:03Z</time>
      </trkpt>
      <trkpt lat="46.435087" lon="14.214618">
        <ele>1678.8384</ele>
        <time>2016-08-04T06:57:05Z</time>
      </trkpt>
      <trkpt lat="46.435093" lon="14.214612">
        <ele>1678.8384</ele>
        <time>2016-08-04T06:57:06Z</time>
      </trkpt>
      <trkpt lat="46.435098" lon="14.214606">
        <ele>1678.8384</ele>
        <time>2016-08-04T06:57:07Z</time>
      </trkpt>
      <trkpt lat="46.435106" lon="14.214602">
        <ele>1678.8384</ele>
        <time>2016-08-04T06:57:07Z</time>
      </trkpt>
      <trkpt lat="46.435109" lon="14.214590">
        <ele>1678.8384</ele>
        <time>2016-08-04T06:57:09Z</time>
      </trkpt>
      <trkpt lat="46.435114" lon="14.214562">
        <ele>1678.8384</ele>
        <time>2016-08-04T06:57:10Z</time>
      </trkpt>
      <trkpt lat="46.435117" lon="14.214549">
        <ele>1678.8384</ele>
        <time>2016-08-04T06:57:11Z</time>
      </trkpt>
      <trkpt lat="46.435122" lon="14.214524">
        <ele>1678.5336</ele>
        <time>2016-08-04T06:57:14Z</time>
      </trkpt>
      <trkpt lat="46.435124" lon="14.214479">
        <ele>1678.5336</ele>
        <time>2016-08-04T06:57:17Z</time>
      </trkpt>
      <trkpt lat="46.435119" lon="14.214431">
        <ele>1678.8384</ele>
        <time>2016-08-04T06:57:19Z</time>
      </trkpt>
      <trkpt lat="46.435121" lon="14.214366">
        <ele>1679.1432</ele>
        <time>2016-08-04T06:57:23Z</time>
      </trkpt>
      <trkpt lat="46.435125" lon="14.214336">
        <ele>1679.448</ele>
        <time>2016-08-04T06:57:26Z</time>
      </trkpt>
      <trkpt lat="46.435128" lon="14.214320">
        <ele>1679.448</ele>
        <time>2016-08-04T06:57:26Z</time>
      </trkpt>
      <trkpt lat="46.435126" lon="14.214295">
        <ele>1679.448</ele>
        <time>2016-08-04T06:57:29Z</time>
      </trkpt>
      <trkpt lat="46.435104" lon="14.214248">
        <ele>1680.0576</ele>
        <time>2016-08-04T06:57:32Z</time>
      </trkpt>
      <trkpt lat="46.435105" lon="14.214195">
        <ele>1680.6672</ele>
        <time>2016-08-04T06:57:37Z</time>
      </trkpt>
      <trkpt lat="46.435108" lon="14.214187">
        <ele>1680.6672</ele>
        <time>2016-08-04T06:57:37Z</time>
      </trkpt>
      <trkpt lat="46.435111" lon="14.214167">
        <ele>1681.8864</ele>
        <time>2016-08-04T06:57:41Z</time>
      </trkpt>
      <trkpt lat="46.435110" lon="14.214126">
        <ele>1682.8008</ele>
        <time>2016-08-04T06:57:46Z</time>
      </trkpt>
      <trkpt lat="46.435107" lon="14.214103">
        <ele>1683.7152</ele>
        <time>2016-08-04T06:57:49Z</time>
      </trkpt>
      <trkpt lat="46.435105" lon="14.214091">
        <ele>1684.02</ele>
        <time>2016-08-04T06:57:49Z</time>
      </trkpt>
      <trkpt lat="46.435106" lon="14.214079">
        <ele>1684.3248</ele>
        <time>2016-08-04T06:57:50Z</time>
      </trkpt>
      <trkpt lat="46.435109" lon="14.214049">
        <ele>1684.9344</ele>
        <time>2016-08-04T06:57:53Z</time>
      </trkpt>
      <trkpt lat="46.435114" lon="14.214031">
        <ele>1685.2392</ele>
        <time>2016-08-04T06:57:56Z</time>
      </trkpt>
      <trkpt lat="46.435135" lon="14.214001">
        <ele>1686.1536</ele>
        <time>2016-08-04T06:58:01Z</time>
      </trkpt>
      <trkpt lat="46.435148" lon="14.213949">
        <ele>1687.3728</ele>
        <time>2016-08-04T06:58:08Z</time>
      </trkpt>
      <trkpt lat="46.435161" lon="14.213897">
        <ele>1688.592</ele>
        <time>2016-08-04T06:58:15Z</time>
      </trkpt>
      <trkpt lat="46.435145" lon="14.213830">
        <ele>1689.5064</ele>
        <time>2016-08-04T06:58:21Z</time>
      </trkpt>
      <trkpt lat="46.435150" lon="14.213788">
        <ele>1690.7256</ele>
        <time>2016-08-04T06:58:31Z</time>
      </trkpt>
      <trkpt lat="46.435141" lon="14.213548">
        <ele>1691.9448</ele>
        <time>2016-08-04T06:58:51Z</time>
      </trkpt>
      <trkpt lat="46.435149" lon="14.213491">
        <ele>1692.8592</ele>
        <time>2016-08-04T06:58:57Z</time>
      </trkpt>
      <trkpt lat="46.435190" lon="14.213367">
        <ele>1693.7736</ele>
        <time>2016-08-04T06:59:09Z</time>
      </trkpt>
      <trkpt lat="46.435195" lon="14.213354">
        <ele>1694.0784</ele>
        <time>2016-08-04T06:59:10Z</time>
      </trkpt>
      <trkpt lat="46.435229" lon="14.213320">
        <ele>1694.688</ele>
        <time>2016-08-04T06:59:14Z</time>
      </trkpt>
      <trkpt lat="46.435249" lon="14.213242">
        <ele>1694.9928</ele>
        <time>2016-08-04T06:59:25Z</time>
      </trkpt>
      <trkpt lat="46.435255" lon="14.213234">
        <ele>1694.9928</ele>
        <time>2016-08-04T06:59:25Z</time>
      </trkpt>
      <trkpt lat="46.435269" lon="14.213221">
        <ele>1694.9928</ele>
        <time>2016-08-04T06:59:28Z</time>
      </trkpt>
      <trkpt lat="46.435271" lon="14.213215">
        <ele>1694.9928</ele>
        <time>2016-08-04T06:59:29Z</time>
      </trkpt>
      <trkpt lat="46.435259" lon="14.213175">
        <ele>1694.688</ele>
        <time>2016-08-04T06:59:41Z</time>
      </trkpt>
      <trkpt lat="46.435308" lon="14.213200">
        <ele>1695.2976</ele>
        <time>2016-08-04T07:00:01Z</time>
      </trkpt>
      <trkpt lat="46.435310" lon="14.213210">
        <ele>1694.9928</ele>
        <time>2016-08-04T07:00:04Z</time>
      </trkpt>
      <trkpt lat="46.435302" lon="14.213129">
        <ele>1694.9928</ele>
        <time>2016-08-04T07:00:12Z</time>
      </trkpt>
      <trkpt lat="46.435279" lon="14.213074">
        <ele>1695.2976</ele>
        <time>2016-08-04T07:00:19Z</time>
      </trkpt>
      <trkpt lat="46.435266" lon="14.213064">
        <ele>1695.6024</ele>
        <time>2016-08-04T07:00:27Z</time>
      </trkpt>
      <trkpt lat="46.435270" lon="14.213082">
        <ele>1695.9072</ele>
        <time>2016-08-04T07:00:31Z</time>
      </trkpt>
      <trkpt lat="46.435281" lon="14.213090">
        <ele>1695.9072</ele>
        <time>2016-08-04T07:00:35Z</time>
      </trkpt>
      <trkpt lat="46.435284" lon="14.213096">
        <ele>1695.9072</ele>
        <time>2016-08-04T07:00:36Z</time>
      </trkpt>
      <trkpt lat="46.435285" lon="14.213099">
        <ele>1695.9072</ele>
        <time>2016-08-04T07:00:38Z</time>
      </trkpt>
      <trkpt lat="46.435305" lon="14.213119">
        <ele>1695.6024</ele>
        <time>2016-08-04T07:00:46Z</time>
      </trkpt>
      <trkpt lat="46.435310" lon="14.213124">
        <ele>1695.6024</ele>
        <time>2016-08-04T07:00:47Z</time>
      </trkpt>
      <trkpt lat="46.435327" lon="14.213135">
        <ele>1695.9072</ele>
        <time>2016-08-04T07:00:54Z</time>
      </trkpt>
      <trkpt lat="46.435343" lon="14.213135">
        <ele>1695.9072</ele>
        <time>2016-08-04T07:00:59Z</time>
      </trkpt>
      <trkpt lat="46.435270" lon="14.213067">
        <ele>1695.9072</ele>
        <time>2016-08-04T07:01:20Z</time>
      </trkpt>
      <trkpt lat="46.435262" lon="14.213069">
        <ele>1695.9072</ele>
        <time>2016-08-04T07:01:25Z</time>
      </trkpt>
      <trkpt lat="46.435256" lon="14.213027">
        <ele>1695.9072</ele>
        <time>2016-08-04T07:01:49Z</time>
      </trkpt>
      <trkpt lat="46.435266" lon="14.212952">
        <ele>1697.1264</ele>
        <time>2016-08-04T07:02:02Z</time>
      </trkpt>
      <trkpt lat="46.435233" lon="14.212886">
        <ele>1697.4312</ele>
        <time>2016-08-04T07:02:07Z</time>
      </trkpt>
      <trkpt lat="46.435229" lon="14.212874">
        <ele>1697.4312</ele>
        <time>2016-08-04T07:02:08Z</time>
      </trkpt>
      <trkpt lat="46.435224" lon="14.212863">
        <ele>1697.736</ele>
        <time>2016-08-04T07:02:10Z</time>
      </trkpt>
      <trkpt lat="46.435224" lon="14.212837">
        <ele>1697.736</ele>
        <time>2016-08-04T07:02:11Z</time>
      </trkpt>
      <trkpt lat="46.435219" lon="14.212822">
        <ele>1698.3456</ele>
        <time>2016-08-04T07:02:14Z</time>
      </trkpt>
      <trkpt lat="46.435216" lon="14.212779">
        <ele>1698.6504</ele>
        <time>2016-08-04T07:02:18Z</time>
      </trkpt>
      <trkpt lat="46.435221" lon="14.212753">
        <ele>1699.26</ele>
        <time>2016-08-04T07:02:22Z</time>
      </trkpt>
      <trkpt lat="46.435224" lon="14.212744">
        <ele>1699.26</ele>
        <time>2016-08-04T07:02:23Z</time>
      </trkpt>
      <trkpt lat="46.435227" lon="14.212732">
        <ele>1699.5648</ele>
        <time>2016-08-04T07:02:23Z</time>
      </trkpt>
      <trkpt lat="46.435230" lon="14.212723">
        <ele>1699.8696</ele>
        <time>2016-08-04T07:02:24Z</time>
      </trkpt>
      <trkpt lat="46.435231" lon="14.212716">
        <ele>1700.1744</ele>
        <time>2016-08-04T07:02:27Z</time>
      </trkpt>
      <trkpt lat="46.435225" lon="14.212709">
        <ele>1700.4792</ele>
        <time>2016-08-04T07:02:27Z</time>
      </trkpt>
      <trkpt lat="46.435217" lon="14.212704">
        <ele>1700.4792</ele>
        <time>2016-08-04T07:02:29Z</time>
      </trkpt>
      <trkpt lat="46.435212" lon="14.212696">
        <ele>1700.784</ele>
        <time>2016-08-04T07:02:30Z</time>
      </trkpt>
      <trkpt lat="46.435208" lon="14.212687">
        <ele>1701.0888</ele>
        <time>2016-08-04T07:02:31Z</time>
      </trkpt>
      <trkpt lat="46.435204" lon="14.212677">
        <ele>1701.3936</ele>
        <time>2016-08-04T07:02:31Z</time>
      </trkpt>
      <trkpt lat="46.435201" lon="14.212668">
        <ele>1701.6984</ele>
        <time>2016-08-04T07:02:33Z</time>
      </trkpt>
      <trkpt lat="46.435199" lon="14.212660">
        <ele>1701.6984</ele>
        <time>2016-08-04T07:02:34Z</time>
      </trkpt>
      <trkpt lat="46.435197" lon="14.212643">
        <ele>1702.0032</ele>
        <time>2016-08-04T07:02:35Z</time>
      </trkpt>
      <trkpt lat="46.435195" lon="14.212634">
        <ele>1702.308</ele>
        <time>2016-08-04T07:02:37Z</time>
      </trkpt>
      <trkpt lat="46.435185" lon="14.212608">
        <ele>1702.6128</ele>
        <time>2016-08-04T07:02:39Z</time>
      </trkpt>
      <trkpt lat="46.435178" lon="14.212588">
        <ele>1702.9176</ele>
        <time>2016-08-04T07:02:42Z</time>
      </trkpt>
      <trkpt lat="46.435174" lon="14.212582">
        <ele>1702.9176</ele>
        <time>2016-08-04T07:02:43Z</time>
      </trkpt>
      <trkpt lat="46.435170" lon="14.212568">
        <ele>1702.9176</ele>
        <time>2016-08-04T07:02:46Z</time>
      </trkpt>
      <trkpt lat="46.435160" lon="14.212517">
        <ele>1703.2224</ele>
        <time>2016-08-04T07:02:53Z</time>
      </trkpt>
      <trkpt lat="46.435149" lon="14.212465">
        <ele>1703.5272</ele>
        <time>2016-08-04T07:02:58Z</time>
      </trkpt>
      <trkpt lat="46.435145" lon="14.212407">
        <ele>1704.1368</ele>
        <time>2016-08-04T07:03:01Z</time>
      </trkpt>
      <trkpt lat="46.435096" lon="14.212250">
        <ele>1703.5272</ele>
        <time>2016-08-04T07:03:13Z</time>
      </trkpt>
      <trkpt lat="46.435090" lon="14.212224">
        <ele>1703.5272</ele>
        <time>2016-08-04T07:03:14Z</time>
      </trkpt>
      <trkpt lat="46.435088" lon="14.212185">
        <ele>1703.5272</ele>
        <time>2016-08-04T07:03:17Z</time>
      </trkpt>
      <trkpt lat="46.435087" lon="14.212171">
        <ele>1703.5272</ele>
        <time>2016-08-04T07:03:18Z</time>
      </trkpt>
      <trkpt lat="46.435089" lon="14.212160">
        <ele>1703.5272</ele>
        <time>2016-08-04T07:03:20Z</time>
      </trkpt>
      <trkpt lat="46.435101" lon="14.212139">
        <ele>1703.5272</ele>
        <time>2016-08-04T07:03:21Z</time>
      </trkpt>
      <trkpt lat="46.435106" lon="14.212125">
        <ele>1703.5272</ele>
        <time>2016-08-04T07:03:23Z</time>
      </trkpt>
      <trkpt lat="46.435086" lon="14.211997">
        <ele>1702.9176</ele>
        <time>2016-08-04T07:03:31Z</time>
      </trkpt>
      <trkpt lat="46.435081" lon="14.211986">
        <ele>1702.9176</ele>
        <time>2016-08-04T07:03:32Z</time>
      </trkpt>
      <trkpt lat="46.435071" lon="14.211956">
        <ele>1702.6128</ele>
        <time>2016-08-04T07:03:33Z</time>
      </trkpt>
      <trkpt lat="46.435061" lon="14.211932">
        <ele>1702.308</ele>
        <time>2016-08-04T07:03:36Z</time>
      </trkpt>
      <trkpt lat="46.435058" lon="14.211908">
        <ele>1701.6984</ele>
        <time>2016-08-04T07:03:37Z</time>
      </trkpt>
      <trkpt lat="46.435061" lon="14.211896">
        <ele>1701.6984</ele>
        <time>2016-08-04T07:03:39Z</time>
      </trkpt>
      <trkpt lat="46.435060" lon="14.211869">
        <ele>1701.3936</ele>
        <time>2016-08-04T07:03:40Z</time>
      </trkpt>
      <trkpt lat="46.435070" lon="14.211826">
        <ele>1701.0888</ele>
        <time>2016-08-04T07:03:45Z</time>
      </trkpt>
      <trkpt lat="46.435072" lon="14.211792">
        <ele>1701.3936</ele>
        <time>2016-08-04T07:03:48Z</time>
      </trkpt>
      <trkpt lat="46.435070" lon="14.211756">
        <ele>1701.6984</ele>
        <time>2016-08-04T07:03:52Z</time>
      </trkpt>
      <trkpt lat="46.435053" lon="14.211701">
        <ele>1702.308</ele>
        <time>2016-08-04T07:03:56Z</time>
      </trkpt>
      <trkpt lat="46.435054" lon="14.211681">
        <ele>1702.308</ele>
        <time>2016-08-04T07:03:59Z</time>
      </trkpt>
      <trkpt lat="46.435054" lon="14.211668">
        <ele>1702.6128</ele>
        <time>2016-08-04T07:03:59Z</time>
      </trkpt>
      <trkpt lat="46.435031" lon="14.211605">
        <ele>1703.832</ele>
        <time>2016-08-04T07:04:06Z</time>
      </trkpt>
      <trkpt lat="46.435020" lon="14.211580">
        <ele>1704.1368</ele>
        <time>2016-08-04T07:04:07Z</time>
      </trkpt>
      <trkpt lat="46.434972" lon="14.211503">
        <ele>1704.7464</ele>
        <time>2016-08-04T07:04:15Z</time>
      </trkpt>
      <trkpt lat="46.434966" lon="14.211493">
        <ele>1705.0512</ele>
        <time>2016-08-04T07:04:17Z</time>
      </trkpt>
      <trkpt lat="46.434967" lon="14.211483">
        <ele>1705.6608</ele>
        <time>2016-08-04T07:04:26Z</time>
      </trkpt>
      <trkpt lat="46.434972" lon="14.211495">
        <ele>1705.6608</ele>
        <time>2016-08-04T07:04:31Z</time>
      </trkpt>
      <trkpt lat="46.434982" lon="14.211506">
        <ele>1705.6608</ele>
        <time>2016-08-04T07:04:37Z</time>
      </trkpt>
      <trkpt lat="46.435020" lon="14.211535">
        <ele>1705.356</ele>
        <time>2016-08-04T07:05:01Z</time>
      </trkpt>
      <trkpt lat="46.435021" lon="14.211539">
        <ele>1705.0512</ele>
        <time>2016-08-04T07:05:09Z</time>
      </trkpt>
      <trkpt lat="46.435017" lon="14.211541">
        <ele>1705.0512</ele>
        <time>2016-08-04T07:05:11Z</time>
      </trkpt>
      <trkpt lat="46.435009" lon="14.211536">
        <ele>1705.0512</ele>
        <time>2016-08-04T07:05:15Z</time>
      </trkpt>
      <trkpt lat="46.435005" lon="14.211537">
        <ele>1705.0512</ele>
        <time>2016-08-04T07:05:20Z</time>
      </trkpt>
      <trkpt lat="46.434984" lon="14.211524">
        <ele>1705.0512</ele>
        <time>2016-08-04T07:05:50Z</time>
      </trkpt>
      <trkpt lat="46.434975" lon="14.211500">
        <ele>1704.7464</ele>
        <time>2016-08-04T07:05:54Z</time>
      </trkpt>
      <trkpt lat="46.434954" lon="14.211401">
        <ele>1705.9656</ele>
        <time>2016-08-04T07:06:05Z</time>
      </trkpt>
      <trkpt lat="46.434959" lon="14.211394">
        <ele>1706.2704</ele>
        <time>2016-08-04T07:06:06Z</time>
      </trkpt>
      <trkpt lat="46.434953" lon="14.211354">
        <ele>1707.1848</ele>
        <time>2016-08-04T07:06:10Z</time>
      </trkpt>
      <trkpt lat="46.434950" lon="14.211339">
        <ele>1707.4896</ele>
        <time>2016-08-04T07:06:11Z</time>
      </trkpt>
      <trkpt lat="46.434963" lon="14.211305">
        <ele>1708.0992</ele>
        <time>2016-08-04T07:06:17Z</time>
      </trkpt>
      <trkpt lat="46.434959" lon="14.211287">
        <ele>1708.7088</ele>
        <time>2016-08-04T07:06:18Z</time>
      </trkpt>
      <trkpt lat="46.434956" lon="14.211281">
        <ele>1708.7088</ele>
        <time>2016-08-04T07:06:19Z</time>
      </trkpt>
      <trkpt lat="46.434952" lon="14.211264">
        <ele>1709.3184</ele>
        <time>2016-08-04T07:06:22Z</time>
      </trkpt>
      <trkpt lat="46.434946" lon="14.211253">
        <ele>1709.3184</ele>
        <time>2016-08-04T07:06:22Z</time>
      </trkpt>
      <trkpt lat="46.434942" lon="14.211215">
        <ele>1709.928</ele>
        <time>2016-08-04T07:06:26Z</time>
      </trkpt>
      <trkpt lat="46.434945" lon="14.211186">
        <ele>1709.928</ele>
        <time>2016-08-04T07:06:29Z</time>
      </trkpt>
      <trkpt lat="46.434946" lon="14.211183">
        <ele>1710.2328</ele>
        <time>2016-08-04T07:06:30Z</time>
      </trkpt>
      <trkpt lat="46.434946" lon="14.211188">
        <ele>1710.5376</ele>
        <time>2016-08-04T07:06:33Z</time>
      </trkpt>
      <trkpt lat="46.434966" lon="14.211202">
        <ele>1710.8424</ele>
        <time>2016-08-04T07:06:41Z</time>
      </trkpt>
      <trkpt lat="46.434969" lon="14.211203">
        <ele>1710.8424</ele>
        <time>2016-08-04T07:06:42Z</time>
      </trkpt>
      <trkpt lat="46.434979" lon="14.211196">
        <ele>1710.8424</ele>
        <time>2016-08-04T07:06:45Z</time>
      </trkpt>
      <trkpt lat="46.434951" lon="14.211125">
        <ele>1711.1472</ele>
        <time>2016-08-04T07:06:54Z</time>
      </trkpt>
      <trkpt lat="46.434949" lon="14.211104">
        <ele>1711.1472</ele>
        <time>2016-08-04T07:06:57Z</time>
      </trkpt>
      <trkpt lat="46.434949" lon="14.211076">
        <ele>1711.452</ele>
        <time>2016-08-04T07:07:03Z</time>
      </trkpt>
      <trkpt lat="46.434949" lon="14.211047">
        <ele>1712.6712</ele>
        <time>2016-08-04T07:07:08Z</time>
      </trkpt>
      <trkpt lat="46.434963" lon="14.210994">
        <ele>1713.8904</ele>
        <time>2016-08-04T07:07:13Z</time>
      </trkpt>
      <trkpt lat="46.434971" lon="14.210964">
        <ele>1714.8048</ele>
        <time>2016-08-04T07:07:20Z</time>
      </trkpt>
      <trkpt lat="46.434982" lon="14.210938">
        <ele>1715.7192</ele>
        <time>2016-08-04T07:07:28Z</time>
      </trkpt>
      <trkpt lat="46.436256" lon="14.208103">
        <ele>1836.7248</ele>
        <time>2016-08-04T07:30:23Z</time>
      </trkpt>
      <trkpt lat="46.436257" lon="14.208101">
        <ele>1836.7248</ele>
        <time>2016-08-04T07:30:24Z</time>
      </trkpt>
      <trkpt lat="46.436260" lon="14.208092">
        <ele>1836.7248</ele>
        <time>2016-08-04T07:30:29Z</time>
      </trkpt>
      <trkpt lat="46.436267" lon="14.208111">
        <ele>1837.0296</ele>
        <time>2016-08-04T07:31:11Z</time>
      </trkpt>
      <trkpt lat="46.436270" lon="14.208113">
        <ele>1837.0296</ele>
        <time>2016-08-04T07:31:12Z</time>
      </trkpt>
      <trkpt lat="46.436270" lon="14.208117">
        <ele>1837.3344</ele>
        <time>2016-08-04T07:31:37Z</time>
      </trkpt>
      <trkpt lat="46.436273" lon="14.208113">
        <ele>1837.944</ele>
        <time>2016-08-04T07:31:38Z</time>
      </trkpt>
      <trkpt lat="46.436273" lon="14.208114">
        <ele>1837.944</ele>
        <time>2016-08-04T07:31:39Z</time>
      </trkpt>
      <trkpt lat="46.436273" lon="14.208114">
        <ele>1837.944</ele>
        <time>2016-08-04T07:31:41Z</time>
      </trkpt>
      <trkpt lat="46.436279" lon="14.208100">
        <ele>1837.944</ele>
        <time>2016-08-04T07:31:44Z</time>
      </trkpt>
      <trkpt lat="46.436273" lon="14.208100">
        <ele>1837.3344</ele>
        <time>2016-08-04T07:31:54Z</time>
      </trkpt>
      <trkpt lat="46.436270" lon="14.208097">
        <ele>1837.3344</ele>
        <time>2016-08-04T07:31:56Z</time>
      </trkpt>
      <trkpt lat="46.436267" lon="14.208089">
        <ele>1837.3344</ele>
        <time>2016-08-04T07:31:57Z</time>
      </trkpt>
      <trkpt lat="46.436255" lon="14.208077">
        <ele>1837.3344</ele>
        <time>2016-08-04T07:31:57Z</time>
      </trkpt>
      <trkpt lat="46.436251" lon="14.208073">
        <ele>1837.0296</ele>
        <time>2016-08-04T07:32:00Z</time>
      </trkpt>
      <trkpt lat="46.436252" lon="14.208076">
        <ele>1836.7248</ele>
        <time>2016-08-04T07:32:01Z</time>
      </trkpt>
      <trkpt lat="46.436262" lon="14.208085">
        <ele>1836.7248</ele>
        <time>2016-08-04T07:32:09Z</time>
      </trkpt>
      <trkpt lat="46.436273" lon="14.208038">
        <ele>1837.3344</ele>
        <time>2016-08-04T07:32:16Z</time>
      </trkpt>
      <trkpt lat="46.436283" lon="14.208030">
        <ele>1837.6392</ele>
        <time>2016-08-04T07:32:19Z</time>
      </trkpt>
      <trkpt lat="46.436286" lon="14.208026">
        <ele>1837.944</ele>
        <time>2016-08-04T07:32:20Z</time>
      </trkpt>
      <trkpt lat="46.436307" lon="14.208010">
        <ele>1838.8584</ele>
        <time>2016-08-04T07:32:24Z</time>
      </trkpt>
      <trkpt lat="46.436334" lon="14.207978">
        <ele>1839.7728</ele>
        <time>2016-08-04T07:32:28Z</time>
      </trkpt>
      <trkpt lat="46.436335" lon="14.207965">
        <ele>1840.0776</ele>
        <time>2016-08-04T07:32:28Z</time>
      </trkpt>
      <trkpt lat="46.436344" lon="14.207919">
        <ele>1840.6872</ele>
        <time>2016-08-04T07:32:35Z</time>
      </trkpt>
      <trkpt lat="46.436351" lon="14.207911">
        <ele>1841.2968</ele>
        <time>2016-08-04T07:32:36Z</time>
      </trkpt>
      <trkpt lat="46.436382" lon="14.207838">
        <ele>1842.516</ele>
        <time>2016-08-04T07:32:47Z</time>
      </trkpt>
      <trkpt lat="46.436375" lon="14.207807">
        <ele>1843.4304</ele>
        <time>2016-08-04T07:32:51Z</time>
      </trkpt>
      <trkpt lat="46.436361" lon="14.207772">
        <ele>1844.6496</ele>
        <time>2016-08-04T07:32:58Z</time>
      </trkpt>
      <trkpt lat="46.436354" lon="14.207717">
        <ele>1845.8688</ele>
        <time>2016-08-04T07:33:06Z</time>
      </trkpt>
      <trkpt lat="46.436353" lon="14.207678">
        <ele>1846.7832</ele>
        <time>2016-08-04T07:33:10Z</time>
      </trkpt>
      <trkpt lat="46.436361" lon="14.207623">
        <ele>1847.6976</ele>
        <time>2016-08-04T07:33:18Z</time>
      </trkpt>
      <trkpt lat="46.436355" lon="14.207592">
        <ele>1848.9168</ele>
        <time>2016-08-04T07:33:22Z</time>
      </trkpt>
      <trkpt lat="46.436367" lon="14.207553">
        <ele>1850.136</ele>
        <time>2016-08-04T07:33:30Z</time>
      </trkpt>
      <trkpt lat="46.436374" lon="14.207510">
        <ele>1851.0504</ele>
        <time>2016-08-04T07:33:37Z</time>
      </trkpt>
      <trkpt lat="46.436375" lon="14.207470">
        <ele>1852.2696</ele>
        <time>2016-08-04T07:33:42Z</time>
      </trkpt>
      <trkpt lat="46.436377" lon="14.207436">
        <ele>1853.4888</ele>
        <time>2016-08-04T07:33:49Z</time>
      </trkpt>
      <trkpt lat="46.436379" lon="14.207402">
        <ele>1854.4032</ele>
        <time>2016-08-04T07:33:53Z</time>
      </trkpt>
      <trkpt lat="46.436373" lon="14.207342">
        <ele>1855.6224</ele>
        <time>2016-08-04T07:34:01Z</time>
      </trkpt>
      <trkpt lat="46.436367" lon="14.207292">
        <ele>1856.8416</ele>
        <time>2016-08-04T07:34:07Z</time>
      </trkpt>
      <trkpt lat="46.436382" lon="14.207232">
        <ele>1857.756</ele>
        <time>2016-08-04T07:34:15Z</time>
      </trkpt>
      <trkpt lat="46.436410" lon="14.207228">
        <ele>1858.9752</ele>
        <time>2016-08-04T07:34:20Z</time>
      </trkpt>
      <trkpt lat="46.436413" lon="14.207210">
        <ele>1859.8896</ele>
        <time>2016-08-04T07:34:26Z</time>
      </trkpt>
      <trkpt lat="46.436414" lon="14.207150">
        <ele>1861.1088</ele>
        <time>2016-08-04T07:34:34Z</time>
      </trkpt>
      <trkpt lat="46.436420" lon="14.207131">
        <ele>1861.7184</ele>
        <time>2016-08-04T07:34:36Z</time>
      </trkpt>
      <trkpt lat="46.436424" lon="14.207107">
        <ele>1862.0232</ele>
        <time>2016-08-04T07:34:39Z</time>
      </trkpt>
      <trkpt lat="46.436429" lon="14.207032">
        <ele>1863.2424</ele>
        <time>2016-08-04T07:34:48Z</time>
      </trkpt>
      <trkpt lat="46.436430" lon="14.206981">
        <ele>1864.4616</ele>
        <time>2016-08-04T07:34:55Z</time>
      </trkpt>
      <trkpt lat="46.436453" lon="14.206962">
        <ele>1865.376</ele>
        <time>2016-08-04T07:35:05Z</time>
      </trkpt>
      <trkpt lat="46.436462" lon="14.206995">
        <ele>1866.2904</ele>
        <time>2016-08-04T07:35:09Z</time>
      </trkpt>
      <trkpt lat="46.436486" lon="14.207078">
        <ele>1867.5096</ele>
        <time>2016-08-04T07:35:17Z</time>
      </trkpt>
      <trkpt lat="46.436510" lon="14.207105">
        <ele>1868.7288</ele>
        <time>2016-08-04T07:35:24Z</time>
      </trkpt>
      <trkpt lat="46.436528" lon="14.207131">
        <ele>1869.6432</ele>
        <time>2016-08-04T07:35:29Z</time>
      </trkpt>
      <trkpt lat="46.436543" lon="14.207107">
        <ele>1870.8624</ele>
        <time>2016-08-04T07:35:37Z</time>
      </trkpt>
      <trkpt lat="46.436569" lon="14.207081">
        <ele>1871.7768</ele>
        <time>2016-08-04T07:35:44Z</time>
      </trkpt>
      <trkpt lat="46.436569" lon="14.207054">
        <ele>1872.6912</ele>
        <time>2016-08-04T07:35:49Z</time>
      </trkpt>
      <trkpt lat="46.436584" lon="14.207034">
        <ele>1873.9104</ele>
        <time>2016-08-04T07:35:52Z</time>
      </trkpt>
      <trkpt lat="46.436588" lon="14.207031">
        <ele>1873.9104</ele>
        <time>2016-08-04T07:35:53Z</time>
      </trkpt>
      <trkpt lat="46.436594" lon="14.207011">
        <ele>1874.52</ele>
        <time>2016-08-04T07:35:56Z</time>
      </trkpt>
      <trkpt lat="46.436598" lon="14.206992">
        <ele>1875.1296</ele>
        <time>2016-08-04T07:36:00Z</time>
      </trkpt>
      <trkpt lat="46.436618" lon="14.206953">
        <ele>1876.6536</ele>
        <time>2016-08-04T07:36:07Z</time>
      </trkpt>
      <trkpt lat="46.436626" lon="14.206906">
        <ele>1877.568</ele>
        <time>2016-08-04T07:36:12Z</time>
      </trkpt>
      <trkpt lat="46.436656" lon="14.206880">
        <ele>1878.4824</ele>
        <time>2016-08-04T07:36:19Z</time>
      </trkpt>
      <trkpt lat="46.436666" lon="14.206820">
        <ele>1879.7016</ele>
        <time>2016-08-04T07:36:26Z</time>
      </trkpt>
      <trkpt lat="46.436672" lon="14.206808">
        <ele>1880.9208</ele>
        <time>2016-08-04T07:36:32Z</time>
      </trkpt>
      <trkpt lat="46.436677" lon="14.206810">
        <ele>1881.2256</ele>
        <time>2016-08-04T07:37:02Z</time>
      </trkpt>
      <trkpt lat="46.436677" lon="14.206815">
        <ele>1881.2256</ele>
        <time>2016-08-04T07:37:08Z</time>
      </trkpt>
      <trkpt lat="46.436681" lon="14.206825">
        <ele>1880.9208</ele>
        <time>2016-08-04T07:37:12Z</time>
      </trkpt>
      <trkpt lat="46.436689" lon="14.206823">
        <ele>1880.616</ele>
        <time>2016-08-04T07:37:17Z</time>
      </trkpt>
      <trkpt lat="46.436698" lon="14.206778">
        <ele>1881.8352</ele>
        <time>2016-08-04T07:37:24Z</time>
      </trkpt>
      <trkpt lat="46.436740" lon="14.206712">
        <ele>1882.7496</ele>
        <time>2016-08-04T07:37:33Z</time>
      </trkpt>
      <trkpt lat="46.436758" lon="14.206694">
        <ele>1883.9688</ele>
        <time>2016-08-04T07:37:37Z</time>
      </trkpt>
      <trkpt lat="46.436776" lon="14.206681">
        <ele>1884.5784</ele>
        <time>2016-08-04T07:37:41Z</time>
      </trkpt>
      <trkpt lat="46.436781" lon="14.206665">
        <ele>1884.5784</ele>
        <time>2016-08-04T07:37:44Z</time>
      </trkpt>
      <trkpt lat="46.436787" lon="14.206649">
        <ele>1884.8832</ele>
        <time>2016-08-04T07:37:45Z</time>
      </trkpt>
      <trkpt lat="46.436799" lon="14.206639">
        <ele>1885.188</ele>
        <time>2016-08-04T07:37:48Z</time>
      </trkpt>
      <trkpt lat="46.436824" lon="14.206621">
        <ele>1886.1024</ele>
        <time>2016-08-04T07:37:52Z</time>
      </trkpt>
      <trkpt lat="46.436844" lon="14.206582">
        <ele>1887.0168</ele>
        <time>2016-08-04T07:38:00Z</time>
      </trkpt>
      <trkpt lat="46.436848" lon="14.206545">
        <ele>1888.236</ele>
        <time>2016-08-04T07:38:07Z</time>
      </trkpt>
      <trkpt lat="46.436861" lon="14.206504">
        <ele>1889.1504</ele>
        <time>2016-08-04T07:38:15Z</time>
      </trkpt>
      <trkpt lat="46.436865" lon="14.206497">
        <ele>1889.4552</ele>
        <time>2016-08-04T07:38:16Z</time>
      </trkpt>
      <trkpt lat="46.436872" lon="14.206489">
        <ele>1889.76</ele>
        <time>2016-08-04T07:38:19Z</time>
      </trkpt>
      <trkpt lat="46.436883" lon="14.206477">
        <ele>1890.3696</ele>
        <time>2016-08-04T07:38:23Z</time>
      </trkpt>
      <trkpt lat="46.436907" lon="14.206465">
        <ele>1891.284</ele>
        <time>2016-08-04T07:38:30Z</time>
      </trkpt>
      <trkpt lat="46.436922" lon="14.206456">
        <ele>1892.5032</ele>
        <time>2016-08-04T07:38:37Z</time>
      </trkpt>
      <trkpt lat="46.436934" lon="14.206432">
        <ele>1893.7224</ele>
        <time>2016-08-04T07:38:41Z</time>
      </trkpt>
      <trkpt lat="46.436960" lon="14.206409">
        <ele>1894.6368</ele>
        <time>2016-08-04T07:38:46Z</time>
      </trkpt>
      <trkpt lat="46.436966" lon="14.206402">
        <ele>1894.9416</ele>
        <time>2016-08-04T07:38:49Z</time>
      </trkpt>
      <trkpt lat="46.436986" lon="14.206370">
        <ele>1895.856</ele>
        <time>2016-08-04T07:38:56Z</time>
      </trkpt>
      <trkpt lat="46.437006" lon="14.206422">
        <ele>1896.7704</ele>
        <time>2016-08-04T07:39:01Z</time>
      </trkpt>
      <trkpt lat="46.437025" lon="14.206467">
        <ele>1897.9896</ele>
        <time>2016-08-04T07:39:09Z</time>
      </trkpt>
      <trkpt lat="46.437027" lon="14.206450">
        <ele>1899.2088</ele>
        <time>2016-08-04T07:39:17Z</time>
      </trkpt>
      <trkpt lat="46.437022" lon="14.206480">
        <ele>1899.5136</ele>
        <time>2016-08-04T07:39:47Z</time>
      </trkpt>
      <trkpt lat="46.437022" lon="14.206466">
        <ele>1899.5136</ele>
        <time>2016-08-04T07:39:50Z</time>
      </trkpt>
      <trkpt lat="46.437060" lon="14.206385">
        <ele>1900.1232</ele>
        <time>2016-08-04T07:40:04Z</time>
      </trkpt>
      <trkpt lat="46.437076" lon="14.206361">
        <ele>1901.3424</ele>
        <time>2016-08-04T07:40:10Z</time>
      </trkpt>
      <trkpt lat="46.437089" lon="14.206305">
        <ele>1902.2568</ele>
        <time>2016-08-04T07:40:17Z</time>
      </trkpt>
      <trkpt lat="46.437097" lon="14.206291">
        <ele>1902.8664</ele>
        <time>2016-08-04T07:40:19Z</time>
      </trkpt>
      <trkpt lat="46.437111" lon="14.206275">
        <ele>1903.476</ele>
        <time>2016-08-04T07:40:22Z</time>
      </trkpt>
      <trkpt lat="46.437131" lon="14.206218">
        <ele>1904.6952</ele>
        <time>2016-08-04T07:40:29Z</time>
      </trkpt>
      <trkpt lat="46.437157" lon="14.206180">
        <ele>1905.9144</ele>
        <time>2016-08-04T07:40:37Z</time>
      </trkpt>
      <trkpt lat="46.437159" lon="14.206176">
        <ele>1906.2192</ele>
        <time>2016-08-04T07:40:38Z</time>
      </trkpt>
      <trkpt lat="46.437211" lon="14.206107">
        <ele>1906.524</ele>
        <time>2016-08-04T07:40:49Z</time>
      </trkpt>
      <trkpt lat="46.437343" lon="14.206083">
        <ele>1907.1336</ele>
        <time>2016-08-04T07:41:13Z</time>
      </trkpt>
      <trkpt lat="46.437371" lon="14.206044">
        <ele>1907.7432</ele>
        <time>2016-08-04T07:41:29Z</time>
      </trkpt>
      <trkpt lat="46.437387" lon="14.205936">
        <ele>1905.9144</ele>
        <time>2016-08-04T07:41:43Z</time>
      </trkpt>
      <trkpt lat="46.437388" lon="14.205748">
        <ele>1906.524</ele>
        <time>2016-08-04T07:42:05Z</time>
      </trkpt>
      <trkpt lat="46.437405" lon="14.205695">
        <ele>1907.1336</ele>
        <time>2016-08-04T07:42:10Z</time>
      </trkpt>
      <trkpt lat="46.437409" lon="14.205630">
        <ele>1907.1336</ele>
        <time>2016-08-04T07:42:18Z</time>
      </trkpt>
      <trkpt lat="46.437408" lon="14.205663">
        <ele>1906.8288</ele>
        <time>2016-08-04T07:42:33Z</time>
      </trkpt>
      <trkpt lat="46.437473" lon="14.205478">
        <ele>1908.048</ele>
        <time>2016-08-04T07:43:07Z</time>
      </trkpt>
      <trkpt lat="46.437480" lon="14.205457">
        <ele>1908.3528</ele>
        <time>2016-08-04T07:43:11Z</time>
      </trkpt>
      <trkpt lat="46.437482" lon="14.205452">
        <ele>1908.6576</ele>
        <time>2016-08-04T07:43:12Z</time>
      </trkpt>
      <trkpt lat="46.437484" lon="14.205450">
        <ele>1908.6576</ele>
        <time>2016-08-04T07:43:12Z</time>
      </trkpt>
      <trkpt lat="46.437488" lon="14.205440">
        <ele>1908.6576</ele>
        <time>2016-08-04T07:43:15Z</time>
      </trkpt>
      <trkpt lat="46.437489" lon="14.205406">
        <ele>1909.2672</ele>
        <time>2016-08-04T07:43:20Z</time>
      </trkpt>
      <trkpt lat="46.437496" lon="14.205363">
        <ele>1909.8768</ele>
        <time>2016-08-04T07:43:24Z</time>
      </trkpt>
      <trkpt lat="46.437505" lon="14.205342">
        <ele>1910.1816</ele>
        <time>2016-08-04T07:43:27Z</time>
      </trkpt>
      <trkpt lat="46.437526" lon="14.205296">
        <ele>1911.4008</ele>
        <time>2016-08-04T07:43:35Z</time>
      </trkpt>
      <trkpt lat="46.437558" lon="14.205258">
        <ele>1912.3152</ele>
        <time>2016-08-04T07:43:43Z</time>
      </trkpt>
      <trkpt lat="46.437585" lon="14.205242">
        <ele>1913.5344</ele>
        <time>2016-08-04T07:43:48Z</time>
      </trkpt>
      <trkpt lat="46.437606" lon="14.205210">
        <ele>1914.4488</ele>
        <time>2016-08-04T07:43:57Z</time>
      </trkpt>
      <trkpt lat="46.437599" lon="14.205091">
        <ele>1915.668</ele>
        <time>2016-08-04T07:44:14Z</time>
      </trkpt>
      <trkpt lat="46.437611" lon="14.204956">
        <ele>1916.8872</ele>
        <time>2016-08-04T07:44:33Z</time>
      </trkpt>
      <trkpt lat="46.437665" lon="14.204822">
        <ele>1916.8872</ele>
        <time>2016-08-04T07:44:52Z</time>
      </trkpt>
      <trkpt lat="46.437705" lon="14.204568">
        <ele>1916.5824</ele>
        <time>2016-08-04T07:45:12Z</time>
      </trkpt>
      <trkpt lat="46.437708" lon="14.204558">
        <ele>1916.5824</ele>
        <time>2016-08-04T07:45:15Z</time>
      </trkpt>
      <trkpt lat="46.437708" lon="14.204550">
        <ele>1916.8872</ele>
        <time>2016-08-04T07:45:16Z</time>
      </trkpt>
      <trkpt lat="46.437707" lon="14.204539">
        <ele>1917.192</ele>
        <time>2016-08-04T07:45:16Z</time>
      </trkpt>
      <trkpt lat="46.437706" lon="14.204525">
        <ele>1917.4968</ele>
        <time>2016-08-04T07:45:18Z</time>
      </trkpt>
      <trkpt lat="46.437708" lon="14.204512">
        <ele>1917.8016</ele>
        <time>2016-08-04T07:45:19Z</time>
      </trkpt>
      <trkpt lat="46.437708" lon="14.204495">
        <ele>1918.1064</ele>
        <time>2016-08-04T07:45:19Z</time>
      </trkpt>
      <trkpt lat="46.437702" lon="14.204468">
        <ele>1918.1064</ele>
        <time>2016-08-04T07:45:22Z</time>
      </trkpt>
      <trkpt lat="46.437689" lon="14.204407">
        <ele>1918.4112</ele>
        <time>2016-08-04T07:45:27Z</time>
      </trkpt>
      <trkpt lat="46.437689" lon="14.204402">
        <ele>1918.4112</ele>
        <time>2016-08-04T07:45:27Z</time>
      </trkpt>
      <trkpt lat="46.437684" lon="14.204386">
        <ele>1919.0208</ele>
        <time>2016-08-04T07:45:31Z</time>
      </trkpt>
      <trkpt lat="46.437661" lon="14.204335">
        <ele>1919.3256</ele>
        <time>2016-08-04T07:45:34Z</time>
      </trkpt>
      <trkpt lat="46.437661" lon="14.204321">
        <ele>1919.6304</ele>
        <time>2016-08-04T07:45:35Z</time>
      </trkpt>
      <trkpt lat="46.437667" lon="14.204280">
        <ele>1919.9352</ele>
        <time>2016-08-04T07:45:39Z</time>
      </trkpt>
      <trkpt lat="46.437670" lon="14.204264">
        <ele>1919.9352</ele>
        <time>2016-08-04T07:45:41Z</time>
      </trkpt>
      <trkpt lat="46.437686" lon="14.204198">
        <ele>1920.5448</ele>
        <time>2016-08-04T07:45:46Z</time>
      </trkpt>
      <trkpt lat="46.437690" lon="14.204166">
        <ele>1920.5448</ele>
        <time>2016-08-04T07:45:49Z</time>
      </trkpt>
      <trkpt lat="46.437695" lon="14.204114">
        <ele>1920.5448</ele>
        <time>2016-08-04T07:45:53Z</time>
      </trkpt>
      <trkpt lat="46.437710" lon="14.204092">
        <ele>1921.1544</ele>
        <time>2016-08-04T07:45:57Z</time>
      </trkpt>
      <trkpt lat="46.437717" lon="14.204046">
        <ele>1922.0688</ele>
        <time>2016-08-04T07:46:02Z</time>
      </trkpt>
      <trkpt lat="46.437750" lon="14.203889">
        <ele>1923.288</ele>
        <time>2016-08-04T07:46:16Z</time>
      </trkpt>
      <trkpt lat="46.437750" lon="14.203871">
        <ele>1923.288</ele>
        <time>2016-08-04T07:46:17Z</time>
      </trkpt>
      <trkpt lat="46.437747" lon="14.203815">
        <ele>1923.288</ele>
        <time>2016-08-04T07:46:21Z</time>
      </trkpt>
      <trkpt lat="46.437744" lon="14.203777">
        <ele>1923.288</ele>
        <time>2016-08-04T07:46:25Z</time>
      </trkpt>
      <trkpt lat="46.437748" lon="14.203746">
        <ele>1923.5928</ele>
        <time>2016-08-04T07:46:26Z</time>
      </trkpt>
      <trkpt lat="46.437767" lon="14.203676">
        <ele>1923.8976</ele>
        <time>2016-08-04T07:46:33Z</time>
      </trkpt>
      <trkpt lat="46.437770" lon="14.203636">
        <ele>1923.8976</ele>
        <time>2016-08-04T07:46:36Z</time>
      </trkpt>
      <trkpt lat="46.437770" lon="14.203613">
        <ele>1924.5072</ele>
        <time>2016-08-04T07:46:37Z</time>
      </trkpt>
      <trkpt lat="46.437770" lon="14.203604">
        <ele>1924.5072</ele>
        <time>2016-08-04T07:46:39Z</time>
      </trkpt>
      <trkpt lat="46.437775" lon="14.203537">
        <ele>1925.4216</ele>
        <time>2016-08-04T07:46:51Z</time>
      </trkpt>
      <trkpt lat="46.437773" lon="14.203524">
        <ele>1925.7264</ele>
        <time>2016-08-04T07:46:52Z</time>
      </trkpt>
      <trkpt lat="46.437769" lon="14.203545">
        <ele>1925.7264</ele>
        <time>2016-08-04T07:47:02Z</time>
      </trkpt>
      <trkpt lat="46.437691" lon="14.203549">
        <ele>1925.7264</ele>
        <time>2016-08-04T07:47:08Z</time>
      </trkpt>
      <trkpt lat="46.437730" lon="14.203540">
        <ele>1926.0312</ele>
        <time>2016-08-04T07:47:12Z</time>
      </trkpt>
      <trkpt lat="46.437930" lon="14.203662">
        <ele>1925.1168</ele>
        <time>2016-08-04T07:47:19Z</time>
      </trkpt>
      <trkpt lat="46.438038" lon="14.203749">
        <ele>1925.1168</ele>
        <time>2016-08-04T07:47:24Z</time>
      </trkpt>
      <trkpt lat="46.438033" lon="14.203709">
        <ele>1925.4216</ele>
        <time>2016-08-04T07:47:31Z</time>
      </trkpt>
      <trkpt lat="46.437955" lon="14.203672">
        <ele>1925.4216</ele>
        <time>2016-08-04T07:47:34Z</time>
      </trkpt>
      <trkpt lat="46.437829" lon="14.203616">
        <ele>1925.1168</ele>
        <time>2016-08-04T07:47:50Z</time>
      </trkpt>
      <trkpt lat="46.437820" lon="14.203609">
        <ele>1925.4216</ele>
        <time>2016-08-04T07:48:00Z</time>
      </trkpt>
      <trkpt lat="46.437821" lon="14.203592">
        <ele>1925.1168</ele>
        <time>2016-08-04T07:48:04Z</time>
      </trkpt>
      <trkpt lat="46.437813" lon="14.203580">
        <ele>1925.1168</ele>
        <time>2016-08-04T07:48:13Z</time>
      </trkpt>
      <trkpt lat="46.437889" lon="14.203627">
        <ele>1925.1168</ele>
        <time>2016-08-04T07:48:52Z</time>
      </trkpt>
      <trkpt lat="46.437890" lon="14.203621">
        <ele>1925.1168</ele>
        <time>2016-08-04T07:48:54Z</time>
      </trkpt>
      <trkpt lat="46.437886" lon="14.203617">
        <ele>1925.1168</ele>
        <time>2016-08-04T07:48:55Z</time>
      </trkpt>
      <trkpt lat="46.437878" lon="14.203614">
        <ele>1925.1168</ele>
        <time>2016-08-04T07:48:56Z</time>
      </trkpt>
      <trkpt lat="46.437875" lon="14.203615">
        <ele>1925.1168</ele>
        <time>2016-08-04T07:48:59Z</time>
      </trkpt>
      <trkpt lat="46.437881" lon="14.203618">
        <ele>1925.1168</ele>
        <time>2016-08-04T07:49:00Z</time>
      </trkpt>
      <trkpt lat="46.437882" lon="14.203618">
        <ele>1925.1168</ele>
        <time>2016-08-04T07:49:03Z</time>
      </trkpt>
      <trkpt lat="46.437883" lon="14.203619">
        <ele>1925.1168</ele>
        <time>2016-08-04T07:49:03Z</time>
      </trkpt>
      <trkpt lat="46.437901" lon="14.203642">
        <ele>1924.812</ele>
        <time>2016-08-04T07:49:15Z</time>
      </trkpt>
      <trkpt lat="46.437835" lon="14.203604">
        <ele>1924.5072</ele>
        <time>2016-08-04T07:49:39Z</time>
      </trkpt>
      <trkpt lat="46.437815" lon="14.203610">
        <ele>1924.812</ele>
        <time>2016-08-04T07:49:48Z</time>
      </trkpt>
      <trkpt lat="46.437829" lon="14.203637">
        <ele>1924.812</ele>
        <time>2016-08-04T07:49:50Z</time>
      </trkpt>
      <trkpt lat="46.437837" lon="14.203653">
        <ele>1925.1168</ele>
        <time>2016-08-04T07:49:53Z</time>
      </trkpt>
      <trkpt lat="46.437855" lon="14.203679">
        <ele>1926.336</ele>
        <time>2016-08-04T07:49:58Z</time>
      </trkpt>
      <trkpt lat="46.437884" lon="14.203716">
        <ele>1926.6408</ele>
        <time>2016-08-04T07:50:02Z</time>
      </trkpt>
      <trkpt lat="46.437893" lon="14.203730">
        <ele>1926.6408</ele>
        <time>2016-08-04T07:50:04Z</time>
      </trkpt>
      <trkpt lat="46.437895" lon="14.203749">
        <ele>1926.9456</ele>
        <time>2016-08-04T07:50:06Z</time>
      </trkpt>
      <trkpt lat="46.437901" lon="14.203764">
        <ele>1927.2504</ele>
        <time>2016-08-04T07:50:09Z</time>
      </trkpt>
      <trkpt lat="46.437900" lon="14.203784">
        <ele>1927.5552</ele>
        <time>2016-08-04T07:50:11Z</time>
      </trkpt>
      <trkpt lat="46.437902" lon="14.203805">
        <ele>1928.1648</ele>
        <time>2016-08-04T07:50:13Z</time>
      </trkpt>
      <trkpt lat="46.437905" lon="14.203812">
        <ele>1928.1648</ele>
        <time>2016-08-04T07:50:15Z</time>
      </trkpt>
      <trkpt lat="46.437915" lon="14.203827">
        <ele>1928.4696</ele>
        <time>2016-08-04T07:50:16Z</time>
      </trkpt>
      <trkpt lat="46.437916" lon="14.203877">
        <ele>1929.6888</ele>
        <time>2016-08-04T07:50:24Z</time>
      </trkpt>
      <trkpt lat="46.437923" lon="14.203877">
        <ele>1930.6032</ele>
        <time>2016-08-04T07:50:28Z</time>
      </trkpt>
      <trkpt lat="46.437921" lon="14.203878">
        <ele>1930.908</ele>
        <time>2016-08-04T07:50:29Z</time>
      </trkpt>
      <trkpt lat="46.437921" lon="14.203913">
        <ele>1932.1272</ele>
        <time>2016-08-04T07:50:36Z</time>
      </trkpt>
      <trkpt lat="46.437951" lon="14.203940">
        <ele>1933.0416</ele>
        <time>2016-08-04T07:50:42Z</time>
      </trkpt>
      <trkpt lat="46.437963" lon="14.203976">
        <ele>1934.2608</ele>
        <time>2016-08-04T07:50:55Z</time>
      </trkpt>
      <trkpt lat="46.437954" lon="14.203977">
        <ele>1935.1752</ele>
        <time>2016-08-04T07:51:03Z</time>
      </trkpt>
      <trkpt lat="46.437954" lon="14.203986">
        <ele>1936.0896</ele>
        <time>2016-08-04T07:51:10Z</time>
      </trkpt>
      <trkpt lat="46.437958" lon="14.203956">
        <ele>1937.3088</ele>
        <time>2016-08-04T07:51:22Z</time>
      </trkpt>
      <trkpt lat="46.437973" lon="14.203962">
        <ele>1938.528</ele>
        <time>2016-08-04T07:51:29Z</time>
      </trkpt>
      <trkpt lat="46.437972" lon="14.204009">
        <ele>1939.7472</ele>
        <time>2016-08-04T07:51:34Z</time>
      </trkpt>
      <trkpt lat="46.437968" lon="14.204026">
        <ele>1940.6616</ele>
        <time>2016-08-04T07:51:41Z</time>
      </trkpt>
      <trkpt lat="46.437988" lon="14.204024">
        <ele>1941.576</ele>
        <time>2016-08-04T07:51:46Z</time>
      </trkpt>
      <trkpt lat="46.437999" lon="14.204067">
        <ele>1942.7952</ele>
        <time>2016-08-04T07:51:57Z</time>
      </trkpt>
      <trkpt lat="46.437999" lon="14.204079">
        <ele>1943.7096</ele>
        <time>2016-08-04T07:52:03Z</time>
      </trkpt>
      <trkpt lat="46.437998" lon="14.204085">
        <ele>1943.7096</ele>
        <time>2016-08-04T07:52:07Z</time>
      </trkpt>
      <trkpt lat="46.438002" lon="14.204074">
        <ele>1944.0144</ele>
        <time>2016-08-04T07:52:34Z</time>
      </trkpt>
      <trkpt lat="46.438008" lon="14.204082">
        <ele>1944.9288</ele>
        <time>2016-08-04T07:52:36Z</time>
      </trkpt>
      <trkpt lat="46.438014" lon="14.204083">
        <ele>1945.2336</ele>
        <time>2016-08-04T07:52:39Z</time>
      </trkpt>
      <trkpt lat="46.438018" lon="14.204084">
        <ele>1945.8432</ele>
        <time>2016-08-04T07:52:43Z</time>
      </trkpt>
      <trkpt lat="46.438026" lon="14.204076">
        <ele>1946.4528</ele>
        <time>2016-08-04T07:52:47Z</time>
      </trkpt>
      <trkpt lat="46.438031" lon="14.204072">
        <ele>1946.4528</ele>
        <time>2016-08-04T07:52:48Z</time>
      </trkpt>
      <trkpt lat="46.438041" lon="14.204070">
        <ele>1947.0624</ele>
        <time>2016-08-04T07:52:51Z</time>
      </trkpt>
      <trkpt lat="46.438044" lon="14.204074">
        <ele>1947.0624</ele>
        <time>2016-08-04T07:52:51Z</time>
      </trkpt>
      <trkpt lat="46.438042" lon="14.204079">
        <ele>1947.0624</ele>
        <time>2016-08-04T07:52:53Z</time>
      </trkpt>
      <trkpt lat="46.438041" lon="14.204083">
        <ele>1947.3672</ele>
        <time>2016-08-04T07:52:54Z</time>
      </trkpt>
      <trkpt lat="46.438051" lon="14.204129">
        <ele>1948.5864</ele>
        <time>2016-08-04T07:52:58Z</time>
      </trkpt>
      <trkpt lat="46.438065" lon="14.204173">
        <ele>1949.5008</ele>
        <time>2016-08-04T07:53:06Z</time>
      </trkpt>
      <trkpt lat="46.438074" lon="14.204172">
        <ele>1949.5008</ele>
        <time>2016-08-04T07:53:10Z</time>
      </trkpt>
      <trkpt lat="46.438069" lon="14.204191">
        <ele>1949.8056</ele>
        <time>2016-08-04T07:53:15Z</time>
      </trkpt>
      <trkpt lat="46.438071" lon="14.204217">
        <ele>1951.0248</ele>
        <time>2016-08-04T07:53:20Z</time>
      </trkpt>
      <trkpt lat="46.438079" lon="14.204238">
        <ele>1951.3296</ele>
        <time>2016-08-04T07:53:22Z</time>
      </trkpt>
      <trkpt lat="46.438087" lon="14.204257">
        <ele>1951.6344</ele>
        <time>2016-08-04T07:53:26Z</time>
      </trkpt>
      <trkpt lat="46.438101" lon="14.204277">
        <ele>1951.9392</ele>
        <time>2016-08-04T07:53:36Z</time>
      </trkpt>
      <trkpt lat="46.438100" lon="14.204313">
        <ele>1952.8536</ele>
        <time>2016-08-04T07:53:44Z</time>
      </trkpt>
      <trkpt lat="46.438107" lon="14.204341">
        <ele>1954.0728</ele>
        <time>2016-08-04T07:53:51Z</time>
      </trkpt>
      <trkpt lat="46.438112" lon="14.204339">
        <ele>1955.292</ele>
        <time>2016-08-04T07:53:57Z</time>
      </trkpt>
      <trkpt lat="46.438116" lon="14.204360">
        <ele>1956.2064</ele>
        <time>2016-08-04T07:54:07Z</time>
      </trkpt>
      <trkpt lat="46.438122" lon="14.204384">
        <ele>1956.816</ele>
        <time>2016-08-04T07:54:23Z</time>
      </trkpt>
      <trkpt lat="46.438121" lon="14.204391">
        <ele>1957.1208</ele>
        <time>2016-08-04T07:54:24Z</time>
      </trkpt>
      <trkpt lat="46.438125" lon="14.204411">
        <ele>1958.6448</ele>
        <time>2016-08-04T07:54:31Z</time>
      </trkpt>
      <trkpt lat="46.438122" lon="14.204407">
        <ele>1959.2544</ele>
        <time>2016-08-04T07:54:43Z</time>
      </trkpt>
      <trkpt lat="46.438127" lon="14.204396">
        <ele>1959.5592</ele>
        <time>2016-08-04T07:54:46Z</time>
      </trkpt>
      <trkpt lat="46.438137" lon="14.204392">
        <ele>1960.7784</ele>
        <time>2016-08-04T07:54:53Z</time>
      </trkpt>
      <trkpt lat="46.438155" lon="14.204398">
        <ele>1961.388</ele>
        <time>2016-08-04T07:54:59Z</time>
      </trkpt>
      <trkpt lat="46.438155" lon="14.204381">
        <ele>1961.9976</ele>
        <time>2016-08-04T07:55:02Z</time>
      </trkpt>
      <trkpt lat="46.438174" lon="14.204361">
        <ele>1962.912</ele>
        <time>2016-08-04T07:55:09Z</time>
      </trkpt>
      <trkpt lat="46.438175" lon="14.204354">
        <ele>1962.912</ele>
        <time>2016-08-04T07:55:10Z</time>
      </trkpt>
      <trkpt lat="46.438196" lon="14.204350">
        <ele>1964.1312</ele>
        <time>2016-08-04T07:55:13Z</time>
      </trkpt>
      <trkpt lat="46.438197" lon="14.204356">
        <ele>1964.1312</ele>
        <time>2016-08-04T07:55:14Z</time>
      </trkpt>
      <trkpt lat="46.438206" lon="14.204380">
        <ele>1965.0456</ele>
        <time>2016-08-04T07:55:20Z</time>
      </trkpt>
      <trkpt lat="46.438208" lon="14.204381">
        <ele>1965.3504</ele>
        <time>2016-08-04T07:55:21Z</time>
      </trkpt>
      <trkpt lat="46.438206" lon="14.204387">
        <ele>1965.3504</ele>
        <time>2016-08-04T07:55:25Z</time>
      </trkpt>
      <trkpt lat="46.438204" lon="14.204389">
        <ele>1965.3504</ele>
        <time>2016-08-04T07:55:29Z</time>
      </trkpt>
      <trkpt lat="46.438204" lon="14.204390">
        <ele>1965.3504</ele>
        <time>2016-08-04T07:55:29Z</time>
      </trkpt>
      <trkpt lat="46.438211" lon="14.204420">
        <ele>1965.6552</ele>
        <time>2016-08-04T07:55:44Z</time>
      </trkpt>
      <trkpt lat="46.438219" lon="14.204405">
        <ele>1966.2648</ele>
        <time>2016-08-04T07:55:48Z</time>
      </trkpt>
      <trkpt lat="46.438214" lon="14.204400">
        <ele>1966.5696</ele>
        <time>2016-08-04T07:56:00Z</time>
      </trkpt>
      <trkpt lat="46.438231" lon="14.204405">
        <ele>1967.484</ele>
        <time>2016-08-04T07:56:07Z</time>
      </trkpt>
      <trkpt lat="46.438245" lon="14.204423">
        <ele>1968.3984</ele>
        <time>2016-08-04T07:56:11Z</time>
      </trkpt>
      <trkpt lat="46.438244" lon="14.204408">
        <ele>1969.008</ele>
        <time>2016-08-04T07:56:15Z</time>
      </trkpt>
      <trkpt lat="46.438245" lon="14.204390">
        <ele>1969.3128</ele>
        <time>2016-08-04T07:56:16Z</time>
      </trkpt>
      <trkpt lat="46.438256" lon="14.204384">
        <ele>1969.9224</ele>
        <time>2016-08-04T07:56:20Z</time>
      </trkpt>
      <trkpt lat="46.438264" lon="14.204407">
        <ele>1970.532</ele>
        <time>2016-08-04T07:56:24Z</time>
      </trkpt>
      <trkpt lat="46.438268" lon="14.204456">
        <ele>1971.7512</ele>
        <time>2016-08-04T07:56:31Z</time>
      </trkpt>
      <trkpt lat="46.438262" lon="14.204457">
        <ele>1971.7512</ele>
        <time>2016-08-04T07:56:31Z</time>
      </trkpt>
      <trkpt lat="46.438262" lon="14.204460">
        <ele>1972.056</ele>
        <time>2016-08-04T07:56:33Z</time>
      </trkpt>
      <trkpt lat="46.438263" lon="14.204462">
        <ele>1972.056</ele>
        <time>2016-08-04T07:56:34Z</time>
      </trkpt>
      <trkpt lat="46.438265" lon="14.204462">
        <ele>1972.056</ele>
        <time>2016-08-04T07:56:35Z</time>
      </trkpt>
      <trkpt lat="46.438265" lon="14.204463">
        <ele>1972.056</ele>
        <time>2016-08-04T07:56:38Z</time>
      </trkpt>
      <trkpt lat="46.438264" lon="14.204464">
        <ele>1972.056</ele>
        <time>2016-08-04T07:56:38Z</time>
      </trkpt>
      <trkpt lat="46.438276" lon="14.204461">
        <ele>1972.056</ele>
        <time>2016-08-04T07:56:42Z</time>
      </trkpt>
      <trkpt lat="46.438285" lon="14.204458">
        <ele>1972.6656</ele>
        <time>2016-08-04T07:56:46Z</time>
      </trkpt>
      <trkpt lat="46.438287" lon="14.204459">
        <ele>1972.6656</ele>
        <time>2016-08-04T07:56:47Z</time>
      </trkpt>
      <trkpt lat="46.438300" lon="14.204480">
        <ele>1973.2752</ele>
        <time>2016-08-04T07:56:50Z</time>
      </trkpt>
      <trkpt lat="46.438304" lon="14.204479">
        <ele>1973.58</ele>
        <time>2016-08-04T07:56:53Z</time>
      </trkpt>
      <trkpt lat="46.438307" lon="14.204472">
        <ele>1973.8848</ele>
        <time>2016-08-04T07:56:54Z</time>
      </trkpt>
      <trkpt lat="46.438305" lon="14.204475">
        <ele>1973.8848</ele>
        <time>2016-08-04T07:56:56Z</time>
      </trkpt>
      <trkpt lat="46.438311" lon="14.204481">
        <ele>1973.8848</ele>
        <time>2016-08-04T07:56:58Z</time>
      </trkpt>
      <trkpt lat="46.438317" lon="14.204509">
        <ele>1974.7992</ele>
        <time>2016-08-04T07:57:04Z</time>
      </trkpt>
      <trkpt lat="46.438322" lon="14.204538">
        <ele>1975.4088</ele>
        <time>2016-08-04T07:57:08Z</time>
      </trkpt>
      <trkpt lat="46.438335" lon="14.204558">
        <ele>1976.0184</ele>
        <time>2016-08-04T07:57:10Z</time>
      </trkpt>
      <trkpt lat="46.438338" lon="14.204567">
        <ele>1976.0184</ele>
        <time>2016-08-04T07:57:12Z</time>
      </trkpt>
      <trkpt lat="46.438356" lon="14.204593">
        <ele>1976.3232</ele>
        <time>2016-08-04T07:57:16Z</time>
      </trkpt>
      <trkpt lat="46.438357" lon="14.204599">
        <ele>1976.3232</ele>
        <time>2016-08-04T07:57:17Z</time>
      </trkpt>
      <trkpt lat="46.438363" lon="14.204612">
        <ele>1976.9328</ele>
        <time>2016-08-04T07:57:21Z</time>
      </trkpt>
      <trkpt lat="46.438358" lon="14.204620">
        <ele>1977.2376</ele>
        <time>2016-08-04T07:57:27Z</time>
      </trkpt>
      <trkpt lat="46.438360" lon="14.204627">
        <ele>1977.5424</ele>
        <time>2016-08-04T07:57:28Z</time>
      </trkpt>
      <trkpt lat="46.438361" lon="14.204631">
        <ele>1977.8472</ele>
        <time>2016-08-04T07:57:31Z</time>
      </trkpt>
      <trkpt lat="46.438367" lon="14.204635">
        <ele>1978.152</ele>
        <time>2016-08-04T07:57:32Z</time>
      </trkpt>
      <trkpt lat="46.438375" lon="14.204659">
        <ele>1979.0664</ele>
        <time>2016-08-04T07:57:36Z</time>
      </trkpt>
      <trkpt lat="46.438387" lon="14.204683">
        <ele>1980.2856</ele>
        <time>2016-08-04T07:57:40Z</time>
      </trkpt>
      <trkpt lat="46.438383" lon="14.204681">
        <ele>1981.2</ele>
        <time>2016-08-04T07:57:48Z</time>
      </trkpt>
      <trkpt lat="46.438379" lon="14.204680">
        <ele>1981.5048</ele>
        <time>2016-08-04T07:57:52Z</time>
      </trkpt>
      <trkpt lat="46.438375" lon="14.204667">
        <ele>1981.5048</ele>
        <time>2016-08-04T07:57:59Z</time>
      </trkpt>
      <trkpt lat="46.438399" lon="14.204648">
        <ele>1982.1144</ele>
        <time>2016-08-04T07:58:22Z</time>
      </trkpt>
      <trkpt lat="46.438405" lon="14.204654">
        <ele>1982.4192</ele>
        <time>2016-08-04T07:58:22Z</time>
      </trkpt>
      <trkpt lat="46.438410" lon="14.204662">
        <ele>1982.724</ele>
        <time>2016-08-04T07:58:23Z</time>
      </trkpt>
      <trkpt lat="46.438430" lon="14.204720">
        <ele>1983.6384</ele>
        <time>2016-08-04T07:58:30Z</time>
      </trkpt>
      <trkpt lat="46.438438" lon="14.204739">
        <ele>1983.9432</ele>
        <time>2016-08-04T07:58:33Z</time>
      </trkpt>
      <trkpt lat="46.438438" lon="14.204749">
        <ele>1984.248</ele>
        <time>2016-08-04T07:58:34Z</time>
      </trkpt>
      <trkpt lat="46.438436" lon="14.204760">
        <ele>1984.8576</ele>
        <time>2016-08-04T07:58:37Z</time>
      </trkpt>
      <trkpt lat="46.438425" lon="14.204775">
        <ele>1985.772</ele>
        <time>2016-08-04T07:58:44Z</time>
      </trkpt>
      <trkpt lat="46.438434" lon="14.204784">
        <ele>1986.6864</ele>
        <time>2016-08-04T07:58:49Z</time>
      </trkpt>
      <trkpt lat="46.438437" lon="14.204786">
        <ele>1986.9912</ele>
        <time>2016-08-04T07:58:49Z</time>
      </trkpt>
      <trkpt lat="46.438441" lon="14.204792">
        <ele>1987.296</ele>
        <time>2016-08-04T07:58:52Z</time>
      </trkpt>
      <trkpt lat="46.438440" lon="14.204803">
        <ele>1987.9056</ele>
        <time>2016-08-04T07:58:57Z</time>
      </trkpt>
      <trkpt lat="46.438443" lon="14.204797">
        <ele>1987.9056</ele>
        <time>2016-08-04T07:58:58Z</time>
      </trkpt>
      <trkpt lat="46.438444" lon="14.204794">
        <ele>1988.2104</ele>
        <time>2016-08-04T07:59:00Z</time>
      </trkpt>
      <trkpt lat="46.438459" lon="14.204770">
        <ele>1989.1248</ele>
        <time>2016-08-04T07:59:05Z</time>
      </trkpt>
      <trkpt lat="46.438465" lon="14.204809">
        <ele>1989.7344</ele>
        <time>2016-08-04T07:59:20Z</time>
      </trkpt>
      <trkpt lat="46.438473" lon="14.204817">
        <ele>1990.344</ele>
        <time>2016-08-04T07:59:21Z</time>
      </trkpt>
      <trkpt lat="46.438489" lon="14.204831">
        <ele>1991.2584</ele>
        <time>2016-08-04T07:59:27Z</time>
      </trkpt>
      <trkpt lat="46.438492" lon="14.204828">
        <ele>1992.4776</ele>
        <time>2016-08-04T07:59:33Z</time>
      </trkpt>
      <trkpt lat="46.438498" lon="14.204826">
        <ele>1992.4776</ele>
        <time>2016-08-04T07:59:43Z</time>
      </trkpt>
      <trkpt lat="46.438499" lon="14.204825">
        <ele>1991.868</ele>
        <time>2016-08-04T07:59:48Z</time>
      </trkpt>
      <trkpt lat="46.438501" lon="14.204822">
        <ele>1991.2584</ele>
        <time>2016-08-04T07:59:55Z</time>
      </trkpt>
      <trkpt lat="46.438510" lon="14.204808">
        <ele>1991.2584</ele>
        <time>2016-08-04T07:59:59Z</time>
      </trkpt>
      <trkpt lat="46.438514" lon="14.204772">
        <ele>1992.4776</ele>
        <time>2016-08-04T08:00:09Z</time>
      </trkpt>
      <trkpt lat="46.438538" lon="14.204809">
        <ele>1993.6968</ele>
        <time>2016-08-04T08:00:14Z</time>
      </trkpt>
      <trkpt lat="46.438540" lon="14.204859">
        <ele>1994.3064</ele>
        <time>2016-08-04T08:00:19Z</time>
      </trkpt>
      <trkpt lat="46.438528" lon="14.204909">
        <ele>1994.6112</ele>
        <time>2016-08-04T08:00:26Z</time>
      </trkpt>
      <trkpt lat="46.438525" lon="14.204923">
        <ele>1994.916</ele>
        <time>2016-08-04T08:00:27Z</time>
      </trkpt>
      <trkpt lat="46.438525" lon="14.204948">
        <ele>1995.5256</ele>
        <time>2016-08-04T08:00:33Z</time>
      </trkpt>
      <trkpt lat="46.438527" lon="14.204961">
        <ele>1996.7448</ele>
        <time>2016-08-04T08:00:37Z</time>
      </trkpt>
      <trkpt lat="46.438546" lon="14.205000">
        <ele>1997.6592</ele>
        <time>2016-08-04T08:00:41Z</time>
      </trkpt>
      <trkpt lat="46.438563" lon="14.205071">
        <ele>1998.5736</ele>
        <time>2016-08-04T08:00:49Z</time>
      </trkpt>
      <trkpt lat="46.438566" lon="14.205080">
        <ele>1998.8784</ele>
        <time>2016-08-04T08:00:50Z</time>
      </trkpt>
      <trkpt lat="46.438557" lon="14.205120">
        <ele>2000.0976</ele>
        <time>2016-08-04T08:00:57Z</time>
      </trkpt>
      <trkpt lat="46.438558" lon="14.205170">
        <ele>2001.012</ele>
        <time>2016-08-04T08:01:26Z</time>
      </trkpt>
      <trkpt lat="46.438576" lon="14.205143">
        <ele>2001.9264</ele>
        <time>2016-08-04T08:01:32Z</time>
      </trkpt>
      <trkpt lat="46.438588" lon="14.205138">
        <ele>2001.6216</ele>
        <time>2016-08-04T08:01:38Z</time>
      </trkpt>
      <trkpt lat="46.438591" lon="14.205157">
        <ele>2001.3168</ele>
        <time>2016-08-04T08:01:48Z</time>
      </trkpt>
      <trkpt lat="46.438600" lon="14.205160">
        <ele>2001.3168</ele>
        <time>2016-08-04T08:01:55Z</time>
      </trkpt>
      <trkpt lat="46.438603" lon="14.205153">
        <ele>2001.6216</ele>
        <time>2016-08-04T08:01:58Z</time>
      </trkpt>
      <trkpt lat="46.438615" lon="14.205136">
        <ele>2001.6216</ele>
        <time>2016-08-04T08:02:07Z</time>
      </trkpt>
      <trkpt lat="46.438616" lon="14.205137">
        <ele>2001.6216</ele>
        <time>2016-08-04T08:02:11Z</time>
      </trkpt>
      <trkpt lat="46.438616" lon="14.205138">
        <ele>2001.3168</ele>
        <time>2016-08-04T08:02:22Z</time>
      </trkpt>
      <trkpt lat="46.438616" lon="14.205141">
        <ele>2001.3168</ele>
        <time>2016-08-04T08:02:29Z</time>
      </trkpt>
      <trkpt lat="46.438616" lon="14.205141">
        <ele>2001.3168</ele>
        <time>2016-08-04T08:02:32Z</time>
      </trkpt>
      <trkpt lat="46.438609" lon="14.205147">
        <ele>2001.3168</ele>
        <time>2016-08-04T08:02:56Z</time>
      </trkpt>
      <trkpt lat="46.438619" lon="14.205145">
        <ele>2001.3168</ele>
        <time>2016-08-04T08:03:12Z</time>
      </trkpt>
      <trkpt lat="46.438616" lon="14.205141">
        <ele>2001.3168</ele>
        <time>2016-08-04T08:03:16Z</time>
      </trkpt>
      <trkpt lat="46.438610" lon="14.205141">
        <ele>2001.3168</ele>
        <time>2016-08-04T08:03:16Z</time>
      </trkpt>
      <trkpt lat="46.438602" lon="14.205146">
        <ele>2001.3168</ele>
        <time>2016-08-04T08:03:24Z</time>
      </trkpt>
      <trkpt lat="46.438602" lon="14.205140">
        <ele>2000.7072</ele>
        <time>2016-08-04T08:03:30Z</time>
      </trkpt>
      <trkpt lat="46.438603" lon="14.205140">
        <ele>2000.7072</ele>
        <time>2016-08-04T08:03:31Z</time>
      </trkpt>
      <trkpt lat="46.438603" lon="14.205139">
        <ele>2000.7072</ele>
        <time>2016-08-04T08:03:31Z</time>
      </trkpt>
      <trkpt lat="46.438603" lon="14.205141">
        <ele>2000.7072</ele>
        <time>2016-08-04T08:03:32Z</time>
      </trkpt>
      <trkpt lat="46.438613" lon="14.205153">
        <ele>2000.7072</ele>
        <time>2016-08-04T08:03:41Z</time>
      </trkpt>
      <trkpt lat="46.438617" lon="14.205132">
        <ele>2000.4024</ele>
        <time>2016-08-04T08:03:59Z</time>
      </trkpt>
      <trkpt lat="46.438612" lon="14.205144">
        <ele>2001.012</ele>
        <time>2016-08-04T08:04:14Z</time>
      </trkpt>
      <trkpt lat="46.438590" lon="14.205150">
        <ele>2000.7072</ele>
        <time>2016-08-04T08:04:20Z</time>
      </trkpt>
      <trkpt lat="46.438598" lon="14.205153">
        <ele>2000.0976</ele>
        <time>2016-08-04T08:04:22Z</time>
      </trkpt>
      <trkpt lat="46.438606" lon="14.205143">
        <ele>2000.0976</ele>
        <time>2016-08-04T08:04:33Z</time>
      </trkpt>
      <trkpt lat="46.438603" lon="14.205147">
        <ele>2000.4024</ele>
        <time>2016-08-04T08:04:35Z</time>
      </trkpt>
      <trkpt lat="46.438607" lon="14.205161">
        <ele>2000.4024</ele>
        <time>2016-08-04T08:04:40Z</time>
      </trkpt>
      <trkpt lat="46.438613" lon="14.205167">
        <ele>2000.4024</ele>
        <time>2016-08-04T08:04:44Z</time>
      </trkpt>
      <trkpt lat="46.438610" lon="14.205168">
        <ele>2000.0976</ele>
        <time>2016-08-04T08:04:48Z</time>
      </trkpt>
      <trkpt lat="46.438610" lon="14.205170">
        <ele>2000.0976</ele>
        <time>2016-08-04T08:04:49Z</time>
      </trkpt>
      <trkpt lat="46.438599" lon="14.205171">
        <ele>2000.4024</ele>
        <time>2016-08-04T08:04:55Z</time>
      </trkpt>
      <trkpt lat="46.438590" lon="14.205194">
        <ele>2001.9264</ele>
        <time>2016-08-04T08:05:02Z</time>
      </trkpt>
      <trkpt lat="46.438588" lon="14.205202">
        <ele>2003.1456</ele>
        <time>2016-08-04T08:05:07Z</time>
      </trkpt>
      <trkpt lat="46.438590" lon="14.205233">
        <ele>2004.3648</ele>
        <time>2016-08-04T08:05:14Z</time>
      </trkpt>
      <trkpt lat="46.438597" lon="14.205269">
        <ele>2005.2792</ele>
        <time>2016-08-04T08:05:19Z</time>
      </trkpt>
      <trkpt lat="46.438604" lon="14.205292">
        <ele>2005.8888</ele>
        <time>2016-08-04T08:05:24Z</time>
      </trkpt>
      <trkpt lat="46.438618" lon="14.205308">
        <ele>2006.1936</ele>
        <time>2016-08-04T08:05:31Z</time>
      </trkpt>
      <trkpt lat="46.438622" lon="14.205309">
        <ele>2006.4984</ele>
        <time>2016-08-04T08:05:34Z</time>
      </trkpt>
      <trkpt lat="46.438624" lon="14.205328">
        <ele>2007.7176</ele>
        <time>2016-08-04T08:05:39Z</time>
      </trkpt>
      <trkpt lat="46.438637" lon="14.205349">
        <ele>2008.9368</ele>
        <time>2016-08-04T08:05:47Z</time>
      </trkpt>
      <trkpt lat="46.438652" lon="14.205365">
        <ele>2009.8512</ele>
        <time>2016-08-04T08:05:51Z</time>
      </trkpt>
      <trkpt lat="46.438650" lon="14.205352">
        <ele>2010.7656</ele>
        <time>2016-08-04T08:06:00Z</time>
      </trkpt>
      <trkpt lat="46.438652" lon="14.205289">
        <ele>2011.9848</ele>
        <time>2016-08-04T08:06:09Z</time>
      </trkpt>
      <trkpt lat="46.438667" lon="14.205307">
        <ele>2012.8992</ele>
        <time>2016-08-04T08:06:21Z</time>
      </trkpt>
      <trkpt lat="46.438687" lon="14.205336">
        <ele>2014.1184</ele>
        <time>2016-08-04T08:06:28Z</time>
      </trkpt>
      <trkpt lat="46.438693" lon="14.205334">
        <ele>2014.728</ele>
        <time>2016-08-04T08:06:35Z</time>
      </trkpt>
      <trkpt lat="46.438699" lon="14.205343">
        <ele>2015.0328</ele>
        <time>2016-08-04T08:06:36Z</time>
      </trkpt>
      <trkpt lat="46.438717" lon="14.205357">
        <ele>2016.252</ele>
        <time>2016-08-04T08:06:41Z</time>
      </trkpt>
      <trkpt lat="46.438719" lon="14.205308">
        <ele>2017.1664</ele>
        <time>2016-08-04T08:06:55Z</time>
      </trkpt>
      <trkpt lat="46.438725" lon="14.205260">
        <ele>2018.0808</ele>
        <time>2016-08-04T08:07:02Z</time>
      </trkpt>
      <trkpt lat="46.438722" lon="14.205191">
        <ele>2019.3</ele>
        <time>2016-08-04T08:07:11Z</time>
      </trkpt>
      <trkpt lat="46.438728" lon="14.205164">
        <ele>2020.5192</ele>
        <time>2016-08-04T08:07:18Z</time>
      </trkpt>
      <trkpt lat="46.438742" lon="14.205143">
        <ele>2021.4336</ele>
        <time>2016-08-04T08:07:23Z</time>
      </trkpt>
      <trkpt lat="46.438764" lon="14.205115">
        <ele>2022.6528</ele>
        <time>2016-08-04T08:07:31Z</time>
      </trkpt>
      <trkpt lat="46.438771" lon="14.205100">
        <ele>2023.2624</ele>
        <time>2016-08-04T08:07:35Z</time>
      </trkpt>
      <trkpt lat="46.438776" lon="14.205081">
        <ele>2023.5672</ele>
        <time>2016-08-04T08:07:38Z</time>
      </trkpt>
      <trkpt lat="46.438779" lon="14.205052">
        <ele>2023.872</ele>
        <time>2016-08-04T08:07:41Z</time>
      </trkpt>
      <trkpt lat="46.438785" lon="14.205022">
        <ele>2024.7864</ele>
        <time>2016-08-04T08:07:45Z</time>
      </trkpt>
      <trkpt lat="46.438792" lon="14.205008">
        <ele>2025.0912</ele>
        <time>2016-08-04T08:07:48Z</time>
      </trkpt>
      <trkpt lat="46.438796" lon="14.204999">
        <ele>2025.7008</ele>
        <time>2016-08-04T08:07:50Z</time>
      </trkpt>
      <trkpt lat="46.438800" lon="14.205000">
        <ele>2025.7008</ele>
        <time>2016-08-04T08:07:52Z</time>
      </trkpt>
      <trkpt lat="46.438821" lon="14.205085">
        <ele>2026.6152</ele>
        <time>2016-08-04T08:07:58Z</time>
      </trkpt>
      <trkpt lat="46.438818" lon="14.205099">
        <ele>2026.92</ele>
        <time>2016-08-04T08:08:01Z</time>
      </trkpt>
      <trkpt lat="46.438820" lon="14.205132">
        <ele>2027.2248</ele>
        <time>2016-08-04T08:08:04Z</time>
      </trkpt>
      <trkpt lat="46.438821" lon="14.205165">
        <ele>2027.5296</ele>
        <time>2016-08-04T08:08:06Z</time>
      </trkpt>
      <trkpt lat="46.438820" lon="14.205181">
        <ele>2027.5296</ele>
        <time>2016-08-04T08:08:09Z</time>
      </trkpt>
      <trkpt lat="46.438829" lon="14.205204">
        <ele>2027.5296</ele>
        <time>2016-08-04T08:08:12Z</time>
      </trkpt>
      <trkpt lat="46.438828" lon="14.205217">
        <ele>2027.8344</ele>
        <time>2016-08-04T08:08:13Z</time>
      </trkpt>
      <trkpt lat="46.438817" lon="14.205253">
        <ele>2028.7488</ele>
        <time>2016-08-04T08:08:20Z</time>
      </trkpt>
      <trkpt lat="46.438833" lon="14.205276">
        <ele>2029.6632</ele>
        <time>2016-08-04T08:08:27Z</time>
      </trkpt>
      <trkpt lat="46.438843" lon="14.205330">
        <ele>2030.8824</ele>
        <time>2016-08-04T08:08:35Z</time>
      </trkpt>
      <trkpt lat="46.438851" lon="14.205380">
        <ele>2032.1016</ele>
        <time>2016-08-04T08:08:44Z</time>
      </trkpt>
      <trkpt lat="46.438854" lon="14.205433">
        <ele>2033.3208</ele>
        <time>2016-08-04T08:08:52Z</time>
      </trkpt>
      <trkpt lat="46.438857" lon="14.205438">
        <ele>2033.3208</ele>
        <time>2016-08-04T08:08:54Z</time>
      </trkpt>
      <trkpt lat="46.438877" lon="14.205468">
        <ele>2034.54</ele>
        <time>2016-08-04T08:08:59Z</time>
      </trkpt>
      <trkpt lat="46.438848" lon="14.205508">
        <ele>2035.1496</ele>
        <time>2016-08-04T08:09:07Z</time>
      </trkpt>
      <trkpt lat="46.438848" lon="14.205522">
        <ele>2035.4544</ele>
        <time>2016-08-04T08:09:10Z</time>
      </trkpt>
      <trkpt lat="46.438868" lon="14.205581">
        <ele>2036.6736</ele>
        <time>2016-08-04T08:09:18Z</time>
      </trkpt>
      <trkpt lat="46.438881" lon="14.205617">
        <ele>2037.588</ele>
        <time>2016-08-04T08:09:26Z</time>
      </trkpt>
      <trkpt lat="46.438888" lon="14.205660">
        <ele>2038.5024</ele>
        <time>2016-08-04T08:09:34Z</time>
      </trkpt>
      <trkpt lat="46.438939" lon="14.205737">
        <ele>2039.7216</ele>
        <time>2016-08-04T08:09:46Z</time>
      </trkpt>
      <trkpt lat="46.438971" lon="14.205754">
        <ele>2040.9408</ele>
        <time>2016-08-04T08:09:53Z</time>
      </trkpt>
      <trkpt lat="46.438993" lon="14.205749">
        <ele>2041.8552</ele>
        <time>2016-08-04T08:09:57Z</time>
      </trkpt>
      <trkpt lat="46.439012" lon="14.205720">
        <ele>2042.7696</ele>
        <time>2016-08-04T08:10:04Z</time>
      </trkpt>
      <trkpt lat="46.439001" lon="14.205719">
        <ele>2043.684</ele>
        <time>2016-08-04T08:10:11Z</time>
      </trkpt>
      <trkpt lat="46.438998" lon="14.205722">
        <ele>2043.9888</ele>
        <time>2016-08-04T08:10:12Z</time>
      </trkpt>
      <trkpt lat="46.439098" lon="14.205653">
        <ele>2044.9032</ele>
        <time>2016-08-04T08:10:28Z</time>
      </trkpt>
      <trkpt lat="46.439092" lon="14.205623">
        <ele>2046.1224</ele>
        <time>2016-08-04T08:10:34Z</time>
      </trkpt>
      <trkpt lat="46.439081" lon="14.205606">
        <ele>2047.3416</ele>
        <time>2016-08-04T08:10:39Z</time>
      </trkpt>
      <trkpt lat="46.439101" lon="14.205596">
        <ele>2048.256</ele>
        <time>2016-08-04T08:10:44Z</time>
      </trkpt>
      <trkpt lat="46.439125" lon="14.205578">
        <ele>2049.4752</ele>
        <time>2016-08-04T08:10:53Z</time>
      </trkpt>
      <trkpt lat="46.439150" lon="14.205572">
        <ele>2050.6944</ele>
        <time>2016-08-04T08:10:58Z</time>
      </trkpt>
      <trkpt lat="46.439174" lon="14.205572">
        <ele>2051.6088</ele>
        <time>2016-08-04T08:11:02Z</time>
      </trkpt>
      <trkpt lat="46.439236" lon="14.205610">
        <ele>2052.828</ele>
        <time>2016-08-04T08:11:11Z</time>
      </trkpt>
      <trkpt lat="46.439249" lon="14.205651">
        <ele>2054.0472</ele>
        <time>2016-08-04T08:11:18Z</time>
      </trkpt>
      <trkpt lat="46.439257" lon="14.205673">
        <ele>2054.352</ele>
        <time>2016-08-04T08:11:22Z</time>
      </trkpt>
      <trkpt lat="46.439262" lon="14.205674">
        <ele>2054.9616</ele>
        <time>2016-08-04T08:11:28Z</time>
      </trkpt>
      <trkpt lat="46.439274" lon="14.205756">
        <ele>2055.2664</ele>
        <time>2016-08-04T08:11:47Z</time>
      </trkpt>
      <trkpt lat="46.439290" lon="14.205807">
        <ele>2055.876</ele>
        <time>2016-08-04T08:11:52Z</time>
      </trkpt>
      <trkpt lat="46.439334" lon="14.205958">
        <ele>2057.0952</ele>
        <time>2016-08-04T08:12:12Z</time>
      </trkpt>
      <trkpt lat="46.439343" lon="14.206013">
        <ele>2058.3144</ele>
        <time>2016-08-04T08:12:28Z</time>
      </trkpt>
      <trkpt lat="46.439361" lon="14.206024">
        <ele>2059.5336</ele>
        <time>2016-08-04T08:12:35Z</time>
      </trkpt>
      <trkpt lat="46.439383" lon="14.206073">
        <ele>2060.448</ele>
        <time>2016-08-04T08:12:46Z</time>
      </trkpt>
      <trkpt lat="46.439391" lon="14.206132">
        <ele>2061.6672</ele>
        <time>2016-08-04T08:12:54Z</time>
      </trkpt>
      <trkpt lat="46.439383" lon="14.206179">
        <ele>2062.5816</ele>
        <time>2016-08-04T08:12:59Z</time>
      </trkpt>
      <trkpt lat="46.439380" lon="14.206220">
        <ele>2063.496</ele>
        <time>2016-08-04T08:13:06Z</time>
      </trkpt>
      <trkpt lat="46.439396" lon="14.206252">
        <ele>2063.8008</ele>
        <time>2016-08-04T08:13:12Z</time>
      </trkpt>
      <trkpt lat="46.439396" lon="14.206271">
        <ele>2064.1056</ele>
        <time>2016-08-04T08:13:13Z</time>
      </trkpt>
      <trkpt lat="46.439387" lon="14.206285">
        <ele>2064.7152</ele>
        <time>2016-08-04T08:13:17Z</time>
      </trkpt>
      <trkpt lat="46.439398" lon="14.206300">
        <ele>2065.9344</ele>
        <time>2016-08-04T08:13:24Z</time>
      </trkpt>
      <trkpt lat="46.439400" lon="14.206323">
        <ele>2066.8488</ele>
        <time>2016-08-04T08:13:35Z</time>
      </trkpt>
      <trkpt lat="46.439405" lon="14.206326">
        <ele>2067.1536</ele>
        <time>2016-08-04T08:13:40Z</time>
      </trkpt>
      <trkpt lat="46.439404" lon="14.206328">
        <ele>2067.1536</ele>
        <time>2016-08-04T08:13:44Z</time>
      </trkpt>
      <trkpt lat="46.439402" lon="14.206327">
        <ele>2067.1536</ele>
        <time>2016-08-04T08:13:44Z</time>
      </trkpt>
      <trkpt lat="46.439402" lon="14.206326">
        <ele>2067.1536</ele>
        <time>2016-08-04T08:13:45Z</time>
      </trkpt>
      <trkpt lat="46.439382" lon="14.206361">
        <ele>2068.068</ele>
        <time>2016-08-04T08:14:00Z</time>
      </trkpt>
      <trkpt lat="46.439386" lon="14.206351">
        <ele>2068.068</ele>
        <time>2016-08-04T08:14:06Z</time>
      </trkpt>
      <trkpt lat="46.439387" lon="14.206349">
        <ele>2068.068</ele>
        <time>2016-08-04T08:14:11Z</time>
      </trkpt>
      <trkpt lat="46.439387" lon="14.206349">
        <ele>2068.068</ele>
        <time>2016-08-04T08:14:15Z</time>
      </trkpt>
      <trkpt lat="46.439389" lon="14.206348">
        <ele>2067.7632</ele>
        <time>2016-08-04T08:14:18Z</time>
      </trkpt>
      <trkpt lat="46.439388" lon="14.206349">
        <ele>2067.7632</ele>
        <time>2016-08-04T08:14:19Z</time>
      </trkpt>
      <trkpt lat="46.439386" lon="14.206349">
        <ele>2067.7632</ele>
        <time>2016-08-04T08:14:22Z</time>
      </trkpt>
      <trkpt lat="46.439416" lon="14.206429">
        <ele>2068.9824</ele>
        <time>2016-08-04T08:15:09Z</time>
      </trkpt>
      <trkpt lat="46.439419" lon="14.206428">
        <ele>2069.2872</ele>
        <time>2016-08-04T08:15:09Z</time>
      </trkpt>
      <trkpt lat="46.439441" lon="14.206433">
        <ele>2070.2016</ele>
        <time>2016-08-04T08:15:14Z</time>
      </trkpt>
      <trkpt lat="46.439442" lon="14.206434">
        <ele>2070.5064</ele>
        <time>2016-08-04T08:15:17Z</time>
      </trkpt>
      <trkpt lat="46.439440" lon="14.206442">
        <ele>2071.116</ele>
        <time>2016-08-04T08:15:20Z</time>
      </trkpt>
      <trkpt lat="46.439447" lon="14.206455">
        <ele>2071.4208</ele>
        <time>2016-08-04T08:15:21Z</time>
      </trkpt>
      <trkpt lat="46.439448" lon="14.206464">
        <ele>2071.7256</ele>
        <time>2016-08-04T08:15:24Z</time>
      </trkpt>
      <trkpt lat="46.439470" lon="14.206503">
        <ele>2070.8112</ele>
        <time>2016-08-04T08:15:29Z</time>
      </trkpt>
      <trkpt lat="46.439475" lon="14.206525">
        <ele>2070.2016</ele>
        <time>2016-08-04T08:15:32Z</time>
      </trkpt>
      <trkpt lat="46.439471" lon="14.206566">
        <ele>2069.2872</ele>
        <time>2016-08-04T08:15:40Z</time>
      </trkpt>
      <trkpt lat="46.439468" lon="14.206607">
        <ele>2068.3728</ele>
        <time>2016-08-04T08:15:45Z</time>
      </trkpt>
      <trkpt lat="46.439467" lon="14.206623">
        <ele>2068.068</ele>
        <time>2016-08-04T08:15:48Z</time>
      </trkpt>
      <trkpt lat="46.439461" lon="14.206669">
        <ele>2067.4584</ele>
        <time>2016-08-04T08:15:52Z</time>
      </trkpt>
      <trkpt lat="46.439455" lon="14.206699">
        <ele>2067.4584</ele>
        <time>2016-08-04T08:15:55Z</time>
      </trkpt>
      <trkpt lat="46.439459" lon="14.206762">
        <ele>2068.068</ele>
        <time>2016-08-04T08:16:17Z</time>
      </trkpt>
      <trkpt lat="46.439385" lon="14.206842">
        <ele>2067.4584</ele>
        <time>2016-08-04T08:16:38Z</time>
      </trkpt>
      <trkpt lat="46.439369" lon="14.206857">
        <ele>2067.1536</ele>
        <time>2016-08-04T08:16:41Z</time>
      </trkpt>
      <trkpt lat="46.439345" lon="14.206967">
        <ele>2068.9824</ele>
        <time>2016-08-04T08:17:00Z</time>
      </trkpt>
      <trkpt lat="46.439351" lon="14.207010">
        <ele>2070.2016</ele>
        <time>2016-08-04T08:17:05Z</time>
      </trkpt>
      <trkpt lat="46.439374" lon="14.207120">
        <ele>2071.116</ele>
        <time>2016-08-04T08:17:16Z</time>
      </trkpt>
      <trkpt lat="46.439375" lon="14.207184">
        <ele>2072.3352</ele>
        <time>2016-08-04T08:17:23Z</time>
      </trkpt>
      <trkpt lat="46.439383" lon="14.207235">
        <ele>2073.2496</ele>
        <time>2016-08-04T08:17:31Z</time>
      </trkpt>
      <trkpt lat="46.439385" lon="14.207271">
        <ele>2074.4688</ele>
        <time>2016-08-04T08:17:39Z</time>
      </trkpt>
      <trkpt lat="46.439375" lon="14.207303">
        <ele>2075.688</ele>
        <time>2016-08-04T08:17:46Z</time>
      </trkpt>
      <trkpt lat="46.439365" lon="14.207362">
        <ele>2076.2976</ele>
        <time>2016-08-04T08:17:56Z</time>
      </trkpt>
      <trkpt lat="46.439364" lon="14.207394">
        <ele>2076.9072</ele>
        <time>2016-08-04T08:18:00Z</time>
      </trkpt>
      <trkpt lat="46.439313" lon="14.207428">
        <ele>2077.8216</ele>
        <time>2016-08-04T08:18:07Z</time>
      </trkpt>
      <trkpt lat="46.439284" lon="14.207476">
        <ele>2077.8216</ele>
        <time>2016-08-04T08:18:13Z</time>
      </trkpt>
      <trkpt lat="46.439254" lon="14.207533">
        <ele>2077.5168</ele>
        <time>2016-08-04T08:18:18Z</time>
      </trkpt>
      <trkpt lat="46.439275" lon="14.207651">
        <ele>2076.6024</ele>
        <time>2016-08-04T08:18:36Z</time>
      </trkpt>
      <trkpt lat="46.439286" lon="14.207701">
        <ele>2075.688</ele>
        <time>2016-08-04T08:18:42Z</time>
      </trkpt>
      <trkpt lat="46.439287" lon="14.207744">
        <ele>2074.4688</ele>
        <time>2016-08-04T08:18:49Z</time>
      </trkpt>
      <trkpt lat="46.439326" lon="14.207826">
        <ele>2073.2496</ele>
        <time>2016-08-04T08:18:57Z</time>
      </trkpt>
      <trkpt lat="46.439351" lon="14.207912">
        <ele>2072.9448</ele>
        <time>2016-08-04T08:19:01Z</time>
      </trkpt>
      <trkpt lat="46.439349" lon="14.207962">
        <ele>2072.3352</ele>
        <time>2016-08-04T08:19:04Z</time>
      </trkpt>
      <trkpt lat="46.439343" lon="14.208025">
        <ele>2071.116</ele>
        <time>2016-08-04T08:19:08Z</time>
      </trkpt>
      <trkpt lat="46.439334" lon="14.208053">
        <ele>2070.5064</ele>
        <time>2016-08-04T08:19:11Z</time>
      </trkpt>
      <trkpt lat="46.439326" lon="14.208143">
        <ele>2070.2016</ele>
        <time>2016-08-04T08:19:16Z</time>
      </trkpt>
      <trkpt lat="46.439325" lon="14.208158">
        <ele>2070.5064</ele>
        <time>2016-08-04T08:19:16Z</time>
      </trkpt>
      <trkpt lat="46.439316" lon="14.208199">
        <ele>2070.8112</ele>
        <time>2016-08-04T08:19:20Z</time>
      </trkpt>
      <trkpt lat="46.439318" lon="14.208216">
        <ele>2071.116</ele>
        <time>2016-08-04T08:19:21Z</time>
      </trkpt>
      <trkpt lat="46.439322" lon="14.208223">
        <ele>2071.4208</ele>
        <time>2016-08-04T08:19:23Z</time>
      </trkpt>
      <trkpt lat="46.439329" lon="14.208237">
        <ele>2072.3352</ele>
        <time>2016-08-04T08:19:26Z</time>
      </trkpt>
      <trkpt lat="46.439331" lon="14.208277">
        <ele>2073.2496</ele>
        <time>2016-08-04T08:19:34Z</time>
      </trkpt>
      <trkpt lat="46.439344" lon="14.208347">
        <ele>2073.5544</ele>
        <time>2016-08-04T08:19:43Z</time>
      </trkpt>
      <trkpt lat="46.439365" lon="14.208394">
        <ele>2072.64</ele>
        <time>2016-08-04T08:19:47Z</time>
      </trkpt>
      <trkpt lat="46.439374" lon="14.208451">
        <ele>2072.3352</ele>
        <time>2016-08-04T08:19:54Z</time>
      </trkpt>
      <trkpt lat="46.439391" lon="14.208510">
        <ele>2071.4208</ele>
        <time>2016-08-04T08:20:03Z</time>
      </trkpt>
      <trkpt lat="46.439379" lon="14.208536">
        <ele>2071.116</ele>
        <time>2016-08-04T08:20:06Z</time>
      </trkpt>
      <trkpt lat="46.439375" lon="14.208583">
        <ele>2070.5064</ele>
        <time>2016-08-04T08:20:10Z</time>
      </trkpt>
      <trkpt lat="46.439379" lon="14.208614">
        <ele>2070.2016</ele>
        <time>2016-08-04T08:20:14Z</time>
      </trkpt>
      <trkpt lat="46.439395" lon="14.208643">
        <ele>2068.9824</ele>
        <time>2016-08-04T08:20:20Z</time>
      </trkpt>
      <trkpt lat="46.439409" lon="14.208775">
        <ele>2068.068</ele>
        <time>2016-08-04T08:20:33Z</time>
      </trkpt>
      <trkpt lat="46.439441" lon="14.208838">
        <ele>2066.8488</ele>
        <time>2016-08-04T08:20:42Z</time>
      </trkpt>
      <trkpt lat="46.439496" lon="14.208839">
        <ele>2067.1536</ele>
        <time>2016-08-04T08:20:51Z</time>
      </trkpt>
      <trkpt lat="46.439514" lon="14.208865">
        <ele>2067.4584</ele>
        <time>2016-08-04T08:20:52Z</time>
      </trkpt>
      <trkpt lat="46.439557" lon="14.208908">
        <ele>2067.4584</ele>
        <time>2016-08-04T08:20:57Z</time>
      </trkpt>
      <trkpt lat="46.439573" lon="14.208941">
        <ele>2067.4584</ele>
        <time>2016-08-04T08:21:00Z</time>
      </trkpt>
      <trkpt lat="46.439579" lon="14.208977">
        <ele>2067.1536</ele>
        <time>2016-08-04T08:21:04Z</time>
      </trkpt>
      <trkpt lat="46.439644" lon="14.209010">
        <ele>2067.7632</ele>
        <time>2016-08-04T08:21:12Z</time>
      </trkpt>
      <trkpt lat="46.439659" lon="14.209021">
        <ele>2068.068</ele>
        <time>2016-08-04T08:21:14Z</time>
      </trkpt>
      <trkpt lat="46.439670" lon="14.209043">
        <ele>2068.068</ele>
        <time>2016-08-04T08:21:16Z</time>
      </trkpt>
      <trkpt lat="46.439679" lon="14.209074">
        <ele>2068.3728</ele>
        <time>2016-08-04T08:21:19Z</time>
      </trkpt>
      <trkpt lat="46.439692" lon="14.209104">
        <ele>2068.9824</ele>
        <time>2016-08-04T08:21:23Z</time>
      </trkpt>
      <trkpt lat="46.439699" lon="14.209113">
        <ele>2068.9824</ele>
        <time>2016-08-04T08:21:23Z</time>
      </trkpt>
      <trkpt lat="46.439708" lon="14.209155">
        <ele>2069.8968</ele>
        <time>2016-08-04T08:21:27Z</time>
      </trkpt>
      <trkpt lat="46.439714" lon="14.209188">
        <ele>2070.2016</ele>
        <time>2016-08-04T08:21:30Z</time>
      </trkpt>
      <trkpt lat="46.439715" lon="14.209200">
        <ele>2070.5064</ele>
        <time>2016-08-04T08:21:31Z</time>
      </trkpt>
      <trkpt lat="46.439728" lon="14.209260">
        <ele>2071.116</ele>
        <time>2016-08-04T08:21:35Z</time>
      </trkpt>
      <trkpt lat="46.439740" lon="14.209285">
        <ele>2071.116</ele>
        <time>2016-08-04T08:21:39Z</time>
      </trkpt>
      <trkpt lat="46.439740" lon="14.209359">
        <ele>2070.8112</ele>
        <time>2016-08-04T08:21:43Z</time>
      </trkpt>
      <trkpt lat="46.439750" lon="14.209404">
        <ele>2070.5064</ele>
        <time>2016-08-04T08:21:47Z</time>
      </trkpt>
      <trkpt lat="46.439754" lon="14.209443">
        <ele>2070.8112</ele>
        <time>2016-08-04T08:21:50Z</time>
      </trkpt>
      <trkpt lat="46.439754" lon="14.209467">
        <ele>2071.116</ele>
        <time>2016-08-04T08:21:53Z</time>
      </trkpt>
      <trkpt lat="46.439749" lon="14.209476">
        <ele>2071.7256</ele>
        <time>2016-08-04T08:21:54Z</time>
      </trkpt>
      <trkpt lat="46.439754" lon="14.209599">
        <ele>2072.3352</ele>
        <time>2016-08-04T08:22:08Z</time>
      </trkpt>
      <trkpt lat="46.439750" lon="14.209839">
        <ele>2073.2496</ele>
        <time>2016-08-04T08:22:35Z</time>
      </trkpt>
      <trkpt lat="46.439745" lon="14.209857">
        <ele>2073.2496</ele>
        <time>2016-08-04T08:22:39Z</time>
      </trkpt>
      <trkpt lat="46.439764" lon="14.209897">
        <ele>2074.4688</ele>
        <time>2016-08-04T08:22:48Z</time>
      </trkpt>
      <trkpt lat="46.439787" lon="14.209928">
        <ele>2075.688</ele>
        <time>2016-08-04T08:22:57Z</time>
      </trkpt>
      <trkpt lat="46.439785" lon="14.209966">
        <ele>2076.9072</ele>
        <time>2016-08-04T08:23:04Z</time>
      </trkpt>
      <trkpt lat="46.439771" lon="14.209985">
        <ele>2077.5168</ele>
        <time>2016-08-04T08:23:08Z</time>
      </trkpt>
      <trkpt lat="46.439761" lon="14.210011">
        <ele>2078.1264</ele>
        <time>2016-08-04T08:23:14Z</time>
      </trkpt>
      <trkpt lat="46.439695" lon="14.210074">
        <ele>2079.0408</ele>
        <time>2016-08-04T08:23:31Z</time>
      </trkpt>
      <trkpt lat="46.439684" lon="14.210090">
        <ele>2079.9552</ele>
        <time>2016-08-04T08:23:34Z</time>
      </trkpt>
      <trkpt lat="46.439675" lon="14.210104">
        <ele>2080.8696</ele>
        <time>2016-08-04T08:23:46Z</time>
      </trkpt>
      <trkpt lat="46.439673" lon="14.210107">
        <ele>2080.8696</ele>
        <time>2016-08-04T08:23:46Z</time>
      </trkpt>
      <trkpt lat="46.439662" lon="14.210152">
        <ele>2082.0888</ele>
        <time>2016-08-04T08:23:57Z</time>
      </trkpt>
      <trkpt lat="46.439597" lon="14.210338">
        <ele>2083.308</ele>
        <time>2016-08-04T08:24:28Z</time>
      </trkpt>
      <trkpt lat="46.439578" lon="14.210344">
        <ele>2083.9176</ele>
        <time>2016-08-04T08:24:33Z</time>
      </trkpt>
      <trkpt lat="46.439572" lon="14.210362">
        <ele>2084.5272</ele>
        <time>2016-08-04T08:24:40Z</time>
      </trkpt>
      <trkpt lat="46.439591" lon="14.210371">
        <ele>2085.7464</ele>
        <time>2016-08-04T08:24:47Z</time>
      </trkpt>
      <trkpt lat="46.439599" lon="14.210387">
        <ele>2086.6608</ele>
        <time>2016-08-04T08:24:52Z</time>
      </trkpt>
      <trkpt lat="46.439595" lon="14.210405">
        <ele>2087.2704</ele>
        <time>2016-08-04T08:25:11Z</time>
      </trkpt>
      <trkpt lat="46.439554" lon="14.210403">
        <ele>2086.9656</ele>
        <time>2016-08-04T08:25:23Z</time>
      </trkpt>
      <trkpt lat="46.439551" lon="14.210424">
        <ele>2087.5752</ele>
        <time>2016-08-04T08:25:27Z</time>
      </trkpt>
      <trkpt lat="46.439551" lon="14.210430">
        <ele>2087.88</ele>
        <time>2016-08-04T08:25:30Z</time>
      </trkpt>
      <trkpt lat="46.439540" lon="14.210432">
        <ele>2088.4896</ele>
        <time>2016-08-04T08:25:33Z</time>
      </trkpt>
      <trkpt lat="46.439534" lon="14.210434">
        <ele>2089.0992</ele>
        <time>2016-08-04T08:25:34Z</time>
      </trkpt>
      <trkpt lat="46.439541" lon="14.210437">
        <ele>2089.7088</ele>
        <time>2016-08-04T08:25:42Z</time>
      </trkpt>
      <trkpt lat="46.439547" lon="14.210446">
        <ele>2089.7088</ele>
        <time>2016-08-04T08:25:45Z</time>
      </trkpt>
      <trkpt lat="46.439553" lon="14.210459">
        <ele>2090.0136</ele>
        <time>2016-08-04T08:25:46Z</time>
      </trkpt>
      <trkpt lat="46.439568" lon="14.210472">
        <ele>2090.0136</ele>
        <time>2016-08-04T08:25:49Z</time>
      </trkpt>
      <trkpt lat="46.439566" lon="14.210476">
        <ele>2090.0136</ele>
        <time>2016-08-04T08:25:50Z</time>
      </trkpt>
      <trkpt lat="46.439563" lon="14.210477">
        <ele>2089.7088</ele>
        <time>2016-08-04T08:25:53Z</time>
      </trkpt>
      <trkpt lat="46.439573" lon="14.210544">
        <ele>2089.0992</ele>
        <time>2016-08-04T08:26:11Z</time>
      </trkpt>
      <trkpt lat="46.439614" lon="14.210503">
        <ele>2088.7944</ele>
        <time>2016-08-04T08:26:43Z</time>
      </trkpt>
      <trkpt lat="46.439627" lon="14.210527">
        <ele>2087.88</ele>
        <time>2016-08-04T08:26:51Z</time>
      </trkpt>
      <trkpt lat="46.439641" lon="14.210584">
        <ele>2086.6608</ele>
        <time>2016-08-04T08:26:59Z</time>
      </trkpt>
      <trkpt lat="46.439587" lon="14.210768">
        <ele>2087.88</ele>
        <time>2016-08-04T08:27:33Z</time>
      </trkpt>
      <trkpt lat="46.439580" lon="14.210829">
        <ele>2087.88</ele>
        <time>2016-08-04T08:27:37Z</time>
      </trkpt>
      <trkpt lat="46.439615" lon="14.210868">
        <ele>2088.1848</ele>
        <time>2016-08-04T08:27:41Z</time>
      </trkpt>
      <trkpt lat="46.439616" lon="14.210937">
        <ele>2088.7944</ele>
        <time>2016-08-04T08:27:50Z</time>
      </trkpt>
      <trkpt lat="46.439614" lon="14.210976">
        <ele>2089.7088</ele>
        <time>2016-08-04T08:27:57Z</time>
      </trkpt>
      <trkpt lat="46.439610" lon="14.211005">
        <ele>2090.928</ele>
        <time>2016-08-04T08:28:04Z</time>
      </trkpt>
      <trkpt lat="46.439639" lon="14.211095">
        <ele>2091.8424</ele>
        <time>2016-08-04T08:28:24Z</time>
      </trkpt>
      <trkpt lat="46.439659" lon="14.211130">
        <ele>2093.0616</ele>
        <time>2016-08-04T08:28:31Z</time>
      </trkpt>
      <trkpt lat="46.439634" lon="14.211159">
        <ele>2093.976</ele>
        <time>2016-08-04T08:28:47Z</time>
      </trkpt>
      <trkpt lat="46.439632" lon="14.211171">
        <ele>2094.2808</ele>
        <time>2016-08-04T08:28:53Z</time>
      </trkpt>
      <trkpt lat="46.439641" lon="14.211259">
        <ele>2094.8904</ele>
        <time>2016-08-04T08:29:02Z</time>
      </trkpt>
      <trkpt lat="46.439635" lon="14.211301">
        <ele>2095.1952</ele>
        <time>2016-08-04T08:29:07Z</time>
      </trkpt>
      <trkpt lat="46.439630" lon="14.211352">
        <ele>2096.4144</ele>
        <time>2016-08-04T08:29:14Z</time>
      </trkpt>
      <trkpt lat="46.439631" lon="14.211378">
        <ele>2097.024</ele>
        <time>2016-08-04T08:29:21Z</time>
      </trkpt>
      <trkpt lat="46.439636" lon="14.211383">
        <ele>2097.3288</ele>
        <time>2016-08-04T08:29:24Z</time>
      </trkpt>
      <trkpt lat="46.439636" lon="14.211387">
        <ele>2097.6336</ele>
        <time>2016-08-04T08:29:25Z</time>
      </trkpt>
      <trkpt lat="46.439626" lon="14.211389">
        <ele>2097.9384</ele>
        <time>2016-08-04T08:29:29Z</time>
      </trkpt>
      <trkpt lat="46.439625" lon="14.211389">
        <ele>2098.548</ele>
        <time>2016-08-04T08:29:33Z</time>
      </trkpt>
      <trkpt lat="46.439663" lon="14.211446">
        <ele>2099.7672</ele>
        <time>2016-08-04T08:29:52Z</time>
      </trkpt>
      <trkpt lat="46.439661" lon="14.211446">
        <ele>2100.072</ele>
        <time>2016-08-04T08:29:52Z</time>
      </trkpt>
      <trkpt lat="46.439640" lon="14.211454">
        <ele>2100.9864</ele>
        <time>2016-08-04T08:29:56Z</time>
      </trkpt>
      <trkpt lat="46.439660" lon="14.211461">
        <ele>2101.9008</ele>
        <time>2016-08-04T08:30:16Z</time>
      </trkpt>
      <trkpt lat="46.439654" lon="14.211462">
        <ele>2101.9008</ele>
        <time>2016-08-04T08:30:19Z</time>
      </trkpt>
      <trkpt lat="46.439666" lon="14.211509">
        <ele>2103.12</ele>
        <time>2016-08-04T08:30:35Z</time>
      </trkpt>
      <trkpt lat="46.439700" lon="14.211576">
        <ele>2103.7296</ele>
        <time>2016-08-04T08:31:06Z</time>
      </trkpt>
      <trkpt lat="46.439701" lon="14.211576">
        <ele>2103.7296</ele>
        <time>2016-08-04T08:31:17Z</time>
      </trkpt>
      <trkpt lat="46.439690" lon="14.211614">
        <ele>2104.0344</ele>
        <time>2016-08-04T08:31:35Z</time>
      </trkpt>
      <trkpt lat="46.439693" lon="14.211614">
        <ele>2104.3392</ele>
        <time>2016-08-04T08:31:36Z</time>
      </trkpt>
      <trkpt lat="46.439695" lon="14.211625">
        <ele>2105.2536</ele>
        <time>2016-08-04T08:31:40Z</time>
      </trkpt>
      <trkpt lat="46.439701" lon="14.211641">
        <ele>2105.8632</ele>
        <time>2016-08-04T08:31:45Z</time>
      </trkpt>
      <trkpt lat="46.439702" lon="14.211648">
        <ele>2106.4728</ele>
        <time>2016-08-04T08:31:47Z</time>
      </trkpt>
      <trkpt lat="46.439706" lon="14.211662">
        <ele>2107.3872</ele>
        <time>2016-08-04T08:31:51Z</time>
      </trkpt>
      <trkpt lat="46.439706" lon="14.211668">
        <ele>2107.692</ele>
        <time>2016-08-04T08:31:52Z</time>
      </trkpt>
      <trkpt lat="46.439705" lon="14.211682">
        <ele>2107.9968</ele>
        <time>2016-08-04T08:31:53Z</time>
      </trkpt>
      <trkpt lat="46.439707" lon="14.211684">
        <ele>2108.3016</ele>
        <time>2016-08-04T08:31:55Z</time>
      </trkpt>
      <trkpt lat="46.439715" lon="14.211690">
        <ele>2108.6064</ele>
        <time>2016-08-04T08:31:56Z</time>
      </trkpt>
      <trkpt lat="46.439725" lon="14.211715">
        <ele>2109.5208</ele>
        <time>2016-08-04T08:32:02Z</time>
      </trkpt>
      <trkpt lat="46.439741" lon="14.211742">
        <ele>2110.74</ele>
        <time>2016-08-04T08:32:07Z</time>
      </trkpt>
      <trkpt lat="46.439743" lon="14.211750">
        <ele>2111.6544</ele>
        <time>2016-08-04T08:32:12Z</time>
      </trkpt>
      <trkpt lat="46.439771" lon="14.211743">
        <ele>2112.264</ele>
        <time>2016-08-04T08:32:24Z</time>
      </trkpt>
      <trkpt lat="46.439776" lon="14.211744">
        <ele>2112.5688</ele>
        <time>2016-08-04T08:32:50Z</time>
      </trkpt>
      <trkpt lat="46.439769" lon="14.211752">
        <ele>2112.5688</ele>
        <time>2016-08-04T08:32:53Z</time>
      </trkpt>
      <trkpt lat="46.439771" lon="14.211759">
        <ele>2112.8736</ele>
        <time>2016-08-04T08:32:54Z</time>
      </trkpt>
      <trkpt lat="46.439766" lon="14.211768">
        <ele>2113.4832</ele>
        <time>2016-08-04T08:32:57Z</time>
      </trkpt>
      <trkpt lat="46.439758" lon="14.211807">
        <ele>2114.0928</ele>
        <time>2016-08-04T08:33:05Z</time>
      </trkpt>
      <trkpt lat="46.439774" lon="14.211861">
        <ele>2114.0928</ele>
        <time>2016-08-04T08:33:14Z</time>
      </trkpt>
      <trkpt lat="46.439807" lon="14.211905">
        <ele>2114.3976</ele>
        <time>2016-08-04T08:33:20Z</time>
      </trkpt>
      <trkpt lat="46.439810" lon="14.211911">
        <ele>2114.3976</ele>
        <time>2016-08-04T08:33:21Z</time>
      </trkpt>
      <trkpt lat="46.439824" lon="14.211919">
        <ele>2114.3976</ele>
        <time>2016-08-04T08:33:24Z</time>
      </trkpt>
      <trkpt lat="46.439827" lon="14.211936">
        <ele>2114.7024</ele>
        <time>2016-08-04T08:33:25Z</time>
      </trkpt>
      <trkpt lat="46.439826" lon="14.211952">
        <ele>2115.0072</ele>
        <time>2016-08-04T08:33:28Z</time>
      </trkpt>
      <trkpt lat="46.439825" lon="14.212019">
        <ele>2116.2264</ele>
        <time>2016-08-04T08:33:33Z</time>
      </trkpt>
      <trkpt lat="46.439830" lon="14.212035">
        <ele>2116.5312</ele>
        <time>2016-08-04T08:33:36Z</time>
      </trkpt>
      <trkpt lat="46.439837" lon="14.212056">
        <ele>2116.836</ele>
        <time>2016-08-04T08:33:39Z</time>
      </trkpt>
      <trkpt lat="46.439846" lon="14.212082">
        <ele>2117.1408</ele>
        <time>2016-08-04T08:33:41Z</time>
      </trkpt>
      <trkpt lat="46.439849" lon="14.212097">
        <ele>2117.1408</ele>
        <time>2016-08-04T08:33:44Z</time>
      </trkpt>
      <trkpt lat="46.439846" lon="14.212118">
        <ele>2117.4456</ele>
        <time>2016-08-04T08:33:48Z</time>
      </trkpt>
      <trkpt lat="46.439853" lon="14.212156">
        <ele>2118.36</ele>
        <time>2016-08-04T08:33:52Z</time>
      </trkpt>
      <trkpt lat="46.439858" lon="14.212159">
        <ele>2118.6648</ele>
        <time>2016-08-04T08:33:54Z</time>
      </trkpt>
      <trkpt lat="46.439881" lon="14.212171">
        <ele>2119.2744</ele>
        <time>2016-08-04T08:33:56Z</time>
      </trkpt>
      <trkpt lat="46.439878" lon="14.212178">
        <ele>2119.2744</ele>
        <time>2016-08-04T08:33:58Z</time>
      </trkpt>
      <trkpt lat="46.439871" lon="14.212185">
        <ele>2119.884</ele>
        <time>2016-08-04T08:33:59Z</time>
      </trkpt>
      <trkpt lat="46.439868" lon="14.212180">
        <ele>2119.884</ele>
        <time>2016-08-04T08:34:03Z</time>
      </trkpt>
      <trkpt lat="46.439875" lon="14.212190">
        <ele>2119.884</ele>
        <time>2016-08-04T08:34:07Z</time>
      </trkpt>
      <trkpt lat="46.439882" lon="14.212203">
        <ele>2119.884</ele>
        <time>2016-08-04T08:34:08Z</time>
      </trkpt>
      <trkpt lat="46.439878" lon="14.212223">
        <ele>2120.4936</ele>
        <time>2016-08-04T08:34:11Z</time>
      </trkpt>
      <trkpt lat="46.439903" lon="14.212211">
        <ele>2121.7128</ele>
        <time>2016-08-04T08:34:19Z</time>
      </trkpt>
      <trkpt lat="46.439919" lon="14.212238">
        <ele>2122.932</ele>
        <time>2016-08-04T08:34:26Z</time>
      </trkpt>
      <trkpt lat="46.439928" lon="14.212241">
        <ele>2124.1512</ele>
        <time>2016-08-04T08:34:31Z</time>
      </trkpt>
      <trkpt lat="46.439944" lon="14.212250">
        <ele>2125.0656</ele>
        <time>2016-08-04T08:34:37Z</time>
      </trkpt>
      <trkpt lat="46.439938" lon="14.212283">
        <ele>2126.2848</ele>
        <time>2016-08-04T08:34:44Z</time>
      </trkpt>
      <trkpt lat="46.439954" lon="14.212313">
        <ele>2127.504</ele>
        <time>2016-08-04T08:34:52Z</time>
      </trkpt>
      <trkpt lat="46.439971" lon="14.212304">
        <ele>2128.7232</ele>
        <time>2016-08-04T08:34:54Z</time>
      </trkpt>
      <trkpt lat="46.439983" lon="14.212280">
        <ele>2129.3328</ele>
        <time>2016-08-04T08:34:58Z</time>
      </trkpt>
      <trkpt lat="46.439992" lon="14.212264">
        <ele>2129.6376</ele>
        <time>2016-08-04T08:35:04Z</time>
      </trkpt>
      <trkpt lat="46.439993" lon="14.212265">
        <ele>2129.9424</ele>
        <time>2016-08-04T08:35:05Z</time>
      </trkpt>
      <trkpt lat="46.440006" lon="14.212240">
        <ele>2130.8568</ele>
        <time>2016-08-04T08:35:31Z</time>
      </trkpt>
      <trkpt lat="46.439985" lon="14.212259">
        <ele>2130.8568</ele>
        <time>2016-08-04T08:35:58Z</time>
      </trkpt>
      <trkpt lat="46.439990" lon="14.212251">
        <ele>2131.1616</ele>
        <time>2016-08-04T08:35:59Z</time>
      </trkpt>
      <trkpt lat="46.439988" lon="14.212263">
        <ele>2130.8568</ele>
        <time>2016-08-04T08:36:05Z</time>
      </trkpt>
      <trkpt lat="46.439993" lon="14.212281">
        <ele>2130.552</ele>
        <time>2016-08-04T08:36:10Z</time>
      </trkpt>
      <trkpt lat="46.439983" lon="14.212280">
        <ele>2130.552</ele>
        <time>2016-08-04T08:36:37Z</time>
      </trkpt>
      <trkpt lat="46.439987" lon="14.212269">
        <ele>2130.552</ele>
        <time>2016-08-04T08:36:53Z</time>
      </trkpt>
      <trkpt lat="46.439989" lon="14.212248">
        <ele>2130.552</ele>
        <time>2016-08-04T08:37:04Z</time>
      </trkpt>
      <trkpt lat="46.439993" lon="14.212246">
        <ele>2130.552</ele>
        <time>2016-08-04T08:37:20Z</time>
      </trkpt>
      <trkpt lat="46.439989" lon="14.212276">
        <ele>2130.552</ele>
        <time>2016-08-04T08:58:06Z</time>
      </trkpt>
      <trkpt lat="46.439979" lon="14.212309">
        <ele>2131.7712</ele>
        <time>2016-08-04T08:58:21Z</time>
      </trkpt>
      <trkpt lat="46.439979" lon="14.212300">
        <ele>2130.8568</ele>
        <time>2016-08-04T08:58:25Z</time>
      </trkpt>
      <trkpt lat="46.439946" lon="14.212334">
        <ele>2129.6376</ele>
        <time>2016-08-04T08:58:49Z</time>
      </trkpt>
      <trkpt lat="46.439918" lon="14.212331">
        <ele>2128.7232</ele>
        <time>2016-08-04T08:59:04Z</time>
      </trkpt>
      <trkpt lat="46.439944" lon="14.212291">
        <ele>2127.504</ele>
        <time>2016-08-04T08:59:16Z</time>
      </trkpt>
      <trkpt lat="46.439950" lon="14.212242">
        <ele>2126.2848</ele>
        <time>2016-08-04T08:59:22Z</time>
      </trkpt>
      <trkpt lat="46.439947" lon="14.212210">
        <ele>2125.0656</ele>
        <time>2016-08-04T08:59:30Z</time>
      </trkpt>
      <trkpt lat="46.439926" lon="14.212194">
        <ele>2124.1512</ele>
        <time>2016-08-04T08:59:46Z</time>
      </trkpt>
      <trkpt lat="46.439918" lon="14.212185">
        <ele>2122.932</ele>
        <time>2016-08-04T08:59:51Z</time>
      </trkpt>
      <trkpt lat="46.439918" lon="14.212185">
        <ele>2122.932</ele>
        <time>2016-08-04T08:59:53Z</time>
      </trkpt>
      <trkpt lat="46.439913" lon="14.212167">
        <ele>2121.7128</ele>
        <time>2016-08-04T09:00:02Z</time>
      </trkpt>
      <trkpt lat="46.439896" lon="14.212146">
        <ele>2120.4936</ele>
        <time>2016-08-04T09:00:06Z</time>
      </trkpt>
      <trkpt lat="46.439866" lon="14.212121">
        <ele>2119.2744</ele>
        <time>2016-08-04T09:00:13Z</time>
      </trkpt>
      <trkpt lat="46.439861" lon="14.212111">
        <ele>2118.9696</ele>
        <time>2016-08-04T09:00:13Z</time>
      </trkpt>
      <trkpt lat="46.439851" lon="14.212085">
        <ele>2118.0552</ele>
        <time>2016-08-04T09:00:16Z</time>
      </trkpt>
      <trkpt lat="46.439846" lon="14.212071">
        <ele>2117.7504</ele>
        <time>2016-08-04T09:00:17Z</time>
      </trkpt>
      <trkpt lat="46.439831" lon="14.212032">
        <ele>2117.1408</ele>
        <time>2016-08-04T09:00:20Z</time>
      </trkpt>
      <trkpt lat="46.439818" lon="14.212015">
        <ele>2116.836</ele>
        <time>2016-08-04T09:00:21Z</time>
      </trkpt>
      <trkpt lat="46.439816" lon="14.211960">
        <ele>2116.5312</ele>
        <time>2016-08-04T09:00:27Z</time>
      </trkpt>
      <trkpt lat="46.439819" lon="14.211930">
        <ele>2116.5312</ele>
        <time>2016-08-04T09:00:28Z</time>
      </trkpt>
      <trkpt lat="46.439818" lon="14.211900">
        <ele>2115.9216</ele>
        <time>2016-08-04T09:00:31Z</time>
      </trkpt>
      <trkpt lat="46.439815" lon="14.211869">
        <ele>2115.312</ele>
        <time>2016-08-04T09:00:35Z</time>
      </trkpt>
      <trkpt lat="46.439813" lon="14.211867">
        <ele>2114.7024</ele>
        <time>2016-08-04T09:00:36Z</time>
      </trkpt>
      <trkpt lat="46.439810" lon="14.211866">
        <ele>2114.3976</ele>
        <time>2016-08-04T09:00:39Z</time>
      </trkpt>
      <trkpt lat="46.439788" lon="14.211806">
        <ele>2113.4832</ele>
        <time>2016-08-04T09:00:45Z</time>
      </trkpt>
      <trkpt lat="46.439767" lon="14.211720">
        <ele>2112.5688</ele>
        <time>2016-08-04T09:01:10Z</time>
      </trkpt>
      <trkpt lat="46.439747" lon="14.211688">
        <ele>2111.6544</ele>
        <time>2016-08-04T09:01:19Z</time>
      </trkpt>
      <trkpt lat="46.439745" lon="14.211665">
        <ele>2110.74</ele>
        <time>2016-08-04T09:01:25Z</time>
      </trkpt>
      <trkpt lat="46.439741" lon="14.211638">
        <ele>2109.5208</ele>
        <time>2016-08-04T09:01:35Z</time>
      </trkpt>
      <trkpt lat="46.439732" lon="14.211620">
        <ele>2108.3016</ele>
        <time>2016-08-04T09:01:45Z</time>
      </trkpt>
      <trkpt lat="46.439719" lon="14.211612">
        <ele>2107.692</ele>
        <time>2016-08-04T09:01:52Z</time>
      </trkpt>
      <trkpt lat="46.439718" lon="14.211611">
        <ele>2107.692</ele>
        <time>2016-08-04T09:01:53Z</time>
      </trkpt>
      <trkpt lat="46.439714" lon="14.211603">
        <ele>2107.3872</ele>
        <time>2016-08-04T09:01:57Z</time>
      </trkpt>
      <trkpt lat="46.439708" lon="14.211595">
        <ele>2107.0824</ele>
        <time>2016-08-04T09:01:58Z</time>
      </trkpt>
      <trkpt lat="46.439700" lon="14.211570">
        <ele>2106.168</ele>
        <time>2016-08-04T09:02:05Z</time>
      </trkpt>
      <trkpt lat="46.439691" lon="14.211554">
        <ele>2104.9488</ele>
        <time>2016-08-04T09:02:13Z</time>
      </trkpt>
      <trkpt lat="46.439667" lon="14.211533">
        <ele>2104.0344</ele>
        <time>2016-08-04T09:02:16Z</time>
      </trkpt>
      <trkpt lat="46.439700" lon="14.211500">
        <ele>2103.12</ele>
        <time>2016-08-04T09:02:24Z</time>
      </trkpt>
      <trkpt lat="46.439706" lon="14.211457">
        <ele>2101.9008</ele>
        <time>2016-08-04T09:02:32Z</time>
      </trkpt>
      <trkpt lat="46.439728" lon="14.211482">
        <ele>2101.596</ele>
        <time>2016-08-04T09:02:54Z</time>
      </trkpt>
      <trkpt lat="46.439722" lon="14.211458">
        <ele>2100.6816</ele>
        <time>2016-08-04T09:03:07Z</time>
      </trkpt>
      <trkpt lat="46.439661" lon="14.211414">
        <ele>2100.072</ele>
        <time>2016-08-04T09:03:14Z</time>
      </trkpt>
      <trkpt lat="46.439651" lon="14.211413">
        <ele>2100.072</ele>
        <time>2016-08-04T09:03:15Z</time>
      </trkpt>
      <trkpt lat="46.439646" lon="14.211413">
        <ele>2099.4624</ele>
        <time>2016-08-04T09:03:18Z</time>
      </trkpt>
      <trkpt lat="46.439621" lon="14.211383">
        <ele>2098.548</ele>
        <time>2016-08-04T09:03:26Z</time>
      </trkpt>
      <trkpt lat="46.439620" lon="14.211377">
        <ele>2097.9384</ele>
        <time>2016-08-04T09:03:30Z</time>
      </trkpt>
      <trkpt lat="46.439614" lon="14.211375">
        <ele>2097.9384</ele>
        <time>2016-08-04T09:03:30Z</time>
      </trkpt>
      <trkpt lat="46.439629" lon="14.211365">
        <ele>2097.3288</ele>
        <time>2016-08-04T09:03:36Z</time>
      </trkpt>
      <trkpt lat="46.439634" lon="14.211359">
        <ele>2097.3288</ele>
        <time>2016-08-04T09:03:37Z</time>
      </trkpt>
      <trkpt lat="46.439631" lon="14.211354">
        <ele>2097.3288</ele>
        <time>2016-08-04T09:03:37Z</time>
      </trkpt>
      <trkpt lat="46.439628" lon="14.211348">
        <ele>2097.024</ele>
        <time>2016-08-04T09:03:38Z</time>
      </trkpt>
      <trkpt lat="46.439638" lon="14.211301">
        <ele>2096.7192</ele>
        <time>2016-08-04T09:03:44Z</time>
      </trkpt>
      <trkpt lat="46.439637" lon="14.211292">
        <ele>2096.4144</ele>
        <time>2016-08-04T09:03:45Z</time>
      </trkpt>
      <trkpt lat="46.439639" lon="14.211252">
        <ele>2095.5</ele>
        <time>2016-08-04T09:03:49Z</time>
      </trkpt>
      <trkpt lat="46.439639" lon="14.211246">
        <ele>2095.5</ele>
        <time>2016-08-04T09:03:50Z</time>
      </trkpt>
      <trkpt lat="46.439631" lon="14.211175">
        <ele>2094.2808</ele>
        <time>2016-08-04T09:04:00Z</time>
      </trkpt>
      <trkpt lat="46.439636" lon="14.211157">
        <ele>2093.0616</ele>
        <time>2016-08-04T09:04:05Z</time>
      </trkpt>
      <trkpt lat="46.439624" lon="14.211095">
        <ele>2092.1472</ele>
        <time>2016-08-04T09:04:16Z</time>
      </trkpt>
      <trkpt lat="46.439620" lon="14.211027">
        <ele>2090.928</ele>
        <time>2016-08-04T09:04:23Z</time>
      </trkpt>
      <trkpt lat="46.439613" lon="14.210899">
        <ele>2090.0136</ele>
        <time>2016-08-04T09:04:38Z</time>
      </trkpt>
      <trkpt lat="46.439600" lon="14.210853">
        <ele>2088.7944</ele>
        <time>2016-08-04T09:04:44Z</time>
      </trkpt>
      <trkpt lat="46.439594" lon="14.210800">
        <ele>2087.88</ele>
        <time>2016-08-04T09:04:50Z</time>
      </trkpt>
      <trkpt lat="46.439566" lon="14.210728">
        <ele>2087.2704</ele>
        <time>2016-08-04T09:04:54Z</time>
      </trkpt>
      <trkpt lat="46.439578" lon="14.210685">
        <ele>2086.9656</ele>
        <time>2016-08-04T09:04:57Z</time>
      </trkpt>
      <trkpt lat="46.439630" lon="14.210651">
        <ele>2086.6608</ele>
        <time>2016-08-04T09:05:01Z</time>
      </trkpt>
      <trkpt lat="46.439641" lon="14.210644">
        <ele>2086.356</ele>
        <time>2016-08-04T09:05:02Z</time>
      </trkpt>
      <trkpt lat="46.439673" lon="14.210602">
        <ele>2085.7464</ele>
        <time>2016-08-04T09:05:06Z</time>
      </trkpt>
      <trkpt lat="46.439676" lon="14.210592">
        <ele>2085.7464</ele>
        <time>2016-08-04T09:05:07Z</time>
      </trkpt>
      <trkpt lat="46.439674" lon="14.210570">
        <ele>2085.1368</ele>
        <time>2016-08-04T09:05:10Z</time>
      </trkpt>
      <trkpt lat="46.439668" lon="14.210546">
        <ele>2084.832</ele>
        <time>2016-08-04T09:05:11Z</time>
      </trkpt>
      <trkpt lat="46.439656" lon="14.210524">
        <ele>2084.832</ele>
        <time>2016-08-04T09:05:14Z</time>
      </trkpt>
      <trkpt lat="46.439648" lon="14.210508">
        <ele>2085.4416</ele>
        <time>2016-08-04T09:05:18Z</time>
      </trkpt>
      <trkpt lat="46.439608" lon="14.210499">
        <ele>2086.6608</ele>
        <time>2016-08-04T09:05:24Z</time>
      </trkpt>
      <trkpt lat="46.439606" lon="14.210522">
        <ele>2087.88</ele>
        <time>2016-08-04T09:05:28Z</time>
      </trkpt>
      <trkpt lat="46.439605" lon="14.210501">
        <ele>2086.0512</ele>
        <time>2016-08-04T09:05:29Z</time>
      </trkpt>
      <trkpt lat="46.439546" lon="14.210414">
        <ele>2085.1368</ele>
        <time>2016-08-04T09:06:19Z</time>
      </trkpt>
      <trkpt lat="46.439568" lon="14.210388">
        <ele>2085.1368</ele>
        <time>2016-08-04T09:06:27Z</time>
      </trkpt>
      <trkpt lat="46.439576" lon="14.210353">
        <ele>2083.9176</ele>
        <time>2016-08-04T09:06:35Z</time>
      </trkpt>
      <trkpt lat="46.439638" lon="14.210330">
        <ele>2083.0032</ele>
        <time>2016-08-04T09:06:43Z</time>
      </trkpt>
      <trkpt lat="46.439648" lon="14.210316">
        <ele>2083.308</ele>
        <time>2016-08-04T09:06:46Z</time>
      </trkpt>
      <trkpt lat="46.439656" lon="14.210322">
        <ele>2083.0032</ele>
        <time>2016-08-04T09:06:50Z</time>
      </trkpt>
      <trkpt lat="46.439654" lon="14.210316">
        <ele>2083.0032</ele>
        <time>2016-08-04T09:06:50Z</time>
      </trkpt>
      <trkpt lat="46.439651" lon="14.210313">
        <ele>2082.6984</ele>
        <time>2016-08-04T09:06:51Z</time>
      </trkpt>
      <trkpt lat="46.439650" lon="14.210311">
        <ele>2082.6984</ele>
        <time>2016-08-04T09:06:53Z</time>
      </trkpt>
      <trkpt lat="46.439641" lon="14.210319">
        <ele>2082.0888</ele>
        <time>2016-08-04T09:06:55Z</time>
      </trkpt>
      <trkpt lat="46.439643" lon="14.210285">
        <ele>2082.0888</ele>
        <time>2016-08-04T09:07:01Z</time>
      </trkpt>
      <trkpt lat="46.439658" lon="14.210260">
        <ele>2080.8696</ele>
        <time>2016-08-04T09:07:09Z</time>
      </trkpt>
      <trkpt lat="46.439650" lon="14.210205">
        <ele>2079.6504</ele>
        <time>2016-08-04T09:07:16Z</time>
      </trkpt>
      <trkpt lat="46.439674" lon="14.210171">
        <ele>2078.736</ele>
        <time>2016-08-04T09:07:20Z</time>
      </trkpt>
      <trkpt lat="46.439689" lon="14.210138">
        <ele>2079.0408</ele>
        <time>2016-08-04T09:07:24Z</time>
      </trkpt>
      <trkpt lat="46.439691" lon="14.210106">
        <ele>2078.736</ele>
        <time>2016-08-04T09:07:29Z</time>
      </trkpt>
      <trkpt lat="46.439732" lon="14.210019">
        <ele>2077.212</ele>
        <time>2016-08-04T09:07:43Z</time>
      </trkpt>
      <trkpt lat="46.439767" lon="14.209988">
        <ele>2076.2976</ele>
        <time>2016-08-04T09:07:48Z</time>
      </trkpt>
      <trkpt lat="46.439783" lon="14.209938">
        <ele>2075.0784</ele>
        <time>2016-08-04T09:07:59Z</time>
      </trkpt>
      <trkpt lat="46.439773" lon="14.209880">
        <ele>2073.5544</ele>
        <time>2016-08-04T09:08:07Z</time>
      </trkpt>
      <trkpt lat="46.439765" lon="14.209872">
        <ele>2072.64</ele>
        <time>2016-08-04T09:08:11Z</time>
      </trkpt>
      <trkpt lat="46.439764" lon="14.209824">
        <ele>2071.4208</ele>
        <time>2016-08-04T09:08:26Z</time>
      </trkpt>
      <trkpt lat="46.439768" lon="14.209763">
        <ele>2070.2016</ele>
        <time>2016-08-04T09:08:31Z</time>
      </trkpt>
      <trkpt lat="46.439742" lon="14.209681">
        <ele>2069.8968</ele>
        <time>2016-08-04T09:08:37Z</time>
      </trkpt>
      <trkpt lat="46.439745" lon="14.209655">
        <ele>2070.2016</ele>
        <time>2016-08-04T09:08:38Z</time>
      </trkpt>
      <trkpt lat="46.439744" lon="14.209580">
        <ele>2068.9824</ele>
        <time>2016-08-04T09:08:50Z</time>
      </trkpt>
      <trkpt lat="46.439751" lon="14.209398">
        <ele>2068.068</ele>
        <time>2016-08-04T09:09:09Z</time>
      </trkpt>
      <trkpt lat="46.439713" lon="14.209134">
        <ele>2067.4584</ele>
        <time>2016-08-04T09:09:27Z</time>
      </trkpt>
      <trkpt lat="46.439694" lon="14.209097">
        <ele>2066.8488</ele>
        <time>2016-08-04T09:09:29Z</time>
      </trkpt>
      <trkpt lat="46.439679" lon="14.209074">
        <ele>2066.544</ele>
        <time>2016-08-04T09:09:32Z</time>
      </trkpt>
      <trkpt lat="46.439618" lon="14.209010">
        <ele>2065.9344</ele>
        <time>2016-08-04T09:09:36Z</time>
      </trkpt>
      <trkpt lat="46.439557" lon="14.208969">
        <ele>2064.7152</ele>
        <time>2016-08-04T09:09:40Z</time>
      </trkpt>
      <trkpt lat="46.439534" lon="14.208929">
        <ele>2063.496</ele>
        <time>2016-08-04T09:09:45Z</time>
      </trkpt>
      <trkpt lat="46.439533" lon="14.208916">
        <ele>2063.496</ele>
        <time>2016-08-04T09:09:47Z</time>
      </trkpt>
      <trkpt lat="46.439533" lon="14.208848">
        <ele>2063.1912</ele>
        <time>2016-08-04T09:09:51Z</time>
      </trkpt>
      <trkpt lat="46.439522" lon="14.208769">
        <ele>2064.1056</ele>
        <time>2016-08-04T09:09:56Z</time>
      </trkpt>
      <trkpt lat="46.439501" lon="14.208739">
        <ele>2063.8008</ele>
        <time>2016-08-04T09:09:59Z</time>
      </trkpt>
      <trkpt lat="46.439473" lon="14.208709">
        <ele>2063.496</ele>
        <time>2016-08-04T09:10:03Z</time>
      </trkpt>
      <trkpt lat="46.439450" lon="14.208682">
        <ele>2064.1056</ele>
        <time>2016-08-04T09:10:07Z</time>
      </trkpt>
      <trkpt lat="46.439442" lon="14.208665">
        <ele>2064.7152</ele>
        <time>2016-08-04T09:10:11Z</time>
      </trkpt>
      <trkpt lat="46.439437" lon="14.208660">
        <ele>2064.7152</ele>
        <time>2016-08-04T09:10:15Z</time>
      </trkpt>
      <trkpt lat="46.439455" lon="14.208641">
        <ele>2065.02</ele>
        <time>2016-08-04T09:10:17Z</time>
      </trkpt>
      <trkpt lat="46.439425" lon="14.208613">
        <ele>2065.3248</ele>
        <time>2016-08-04T09:10:21Z</time>
      </trkpt>
      <trkpt lat="46.439402" lon="14.208609">
        <ele>2065.6296</ele>
        <time>2016-08-04T09:10:22Z</time>
      </trkpt>
      <trkpt lat="46.439388" lon="14.208590">
        <ele>2066.8488</ele>
        <time>2016-08-04T09:10:27Z</time>
      </trkpt>
      <trkpt lat="46.439383" lon="14.208478">
        <ele>2067.4584</ele>
        <time>2016-08-04T09:10:42Z</time>
      </trkpt>
      <trkpt lat="46.439379" lon="14.208457">
        <ele>2068.068</ele>
        <time>2016-08-04T09:10:44Z</time>
      </trkpt>
      <trkpt lat="46.439374" lon="14.208394">
        <ele>2069.2872</ele>
        <time>2016-08-04T09:10:49Z</time>
      </trkpt>
      <trkpt lat="46.439355" lon="14.208300">
        <ele>2070.2016</ele>
        <time>2016-08-04T09:11:00Z</time>
      </trkpt>
      <trkpt lat="46.439341" lon="14.208275">
        <ele>2070.5064</ele>
        <time>2016-08-04T09:11:02Z</time>
      </trkpt>
      <trkpt lat="46.439351" lon="14.208140">
        <ele>2068.9824</ele>
        <time>2016-08-04T09:11:20Z</time>
      </trkpt>
      <trkpt lat="46.439356" lon="14.208117">
        <ele>2068.068</ele>
        <time>2016-08-04T09:11:23Z</time>
      </trkpt>
      <trkpt lat="46.439354" lon="14.208088">
        <ele>2066.8488</ele>
        <time>2016-08-04T09:11:25Z</time>
      </trkpt>
      <trkpt lat="46.439353" lon="14.208041">
        <ele>2066.544</ele>
        <time>2016-08-04T09:11:29Z</time>
      </trkpt>
      <trkpt lat="46.439351" lon="14.208038">
        <ele>2065.9344</ele>
        <time>2016-08-04T09:11:36Z</time>
      </trkpt>
      <trkpt lat="46.439331" lon="14.208066">
        <ele>2066.544</ele>
        <time>2016-08-04T09:12:07Z</time>
      </trkpt>
      <trkpt lat="46.439325" lon="14.208060">
        <ele>2066.8488</ele>
        <time>2016-08-04T09:12:09Z</time>
      </trkpt>
      <trkpt lat="46.439316" lon="14.208054">
        <ele>2067.4584</ele>
        <time>2016-08-04T09:12:13Z</time>
      </trkpt>
      <trkpt lat="46.439319" lon="14.208052">
        <ele>2067.4584</ele>
        <time>2016-08-04T09:12:18Z</time>
      </trkpt>
      <trkpt lat="46.439343" lon="14.208047">
        <ele>2065.9344</ele>
        <time>2016-08-04T09:12:25Z</time>
      </trkpt>
      <trkpt lat="46.439359" lon="14.208042">
        <ele>2066.2392</ele>
        <time>2016-08-04T09:12:37Z</time>
      </trkpt>
      <trkpt lat="46.439359" lon="14.208042">
        <ele>2066.8488</ele>
        <time>2016-08-04T09:12:49Z</time>
      </trkpt>
      <trkpt lat="46.439358" lon="14.208041">
        <ele>2066.8488</ele>
        <time>2016-08-04T09:12:53Z</time>
      </trkpt>
      <trkpt lat="46.439357" lon="14.208038">
        <ele>2065.9344</ele>
        <time>2016-08-04T09:13:12Z</time>
      </trkpt>
      <trkpt lat="46.439371" lon="14.207930">
        <ele>2067.7632</ele>
        <time>2016-08-04T09:13:35Z</time>
      </trkpt>
      <trkpt lat="46.439386" lon="14.207901">
        <ele>2068.3728</ele>
        <time>2016-08-04T09:13:39Z</time>
      </trkpt>
      <trkpt lat="46.439386" lon="14.207888">
        <ele>2068.9824</ele>
        <time>2016-08-04T09:13:40Z</time>
      </trkpt>
      <trkpt lat="46.439380" lon="14.207881">
        <ele>2069.8968</ele>
        <time>2016-08-04T09:13:43Z</time>
      </trkpt>
      <trkpt lat="46.439374" lon="14.207874">
        <ele>2069.8968</ele>
        <time>2016-08-04T09:13:46Z</time>
      </trkpt>
      <trkpt lat="46.439373" lon="14.207868">
        <ele>2069.8968</ele>
        <time>2016-08-04T09:13:47Z</time>
      </trkpt>
      <trkpt lat="46.439370" lon="14.207856">
        <ele>2069.8968</ele>
        <time>2016-08-04T09:13:50Z</time>
      </trkpt>
      <trkpt lat="46.439356" lon="14.207805">
        <ele>2070.8112</ele>
        <time>2016-08-04T09:13:55Z</time>
      </trkpt>
      <trkpt lat="46.439352" lon="14.207801">
        <ele>2071.116</ele>
        <time>2016-08-04T09:13:58Z</time>
      </trkpt>
      <trkpt lat="46.439334" lon="14.207787">
        <ele>2071.116</ele>
        <time>2016-08-04T09:14:02Z</time>
      </trkpt>
      <trkpt lat="46.439322" lon="14.207772">
        <ele>2070.8112</ele>
        <time>2016-08-04T09:14:05Z</time>
      </trkpt>
      <trkpt lat="46.439316" lon="14.207761">
        <ele>2070.8112</ele>
        <time>2016-08-04T09:14:06Z</time>
      </trkpt>
      <trkpt lat="46.439313" lon="14.207747">
        <ele>2070.5064</ele>
        <time>2016-08-04T09:14:06Z</time>
      </trkpt>
      <trkpt lat="46.439310" lon="14.207731">
        <ele>2070.5064</ele>
        <time>2016-08-04T09:14:07Z</time>
      </trkpt>
      <trkpt lat="46.439308" lon="14.207705">
        <ele>2070.8112</ele>
        <time>2016-08-04T09:14:10Z</time>
      </trkpt>
      <trkpt lat="46.439308" lon="14.207688">
        <ele>2071.116</ele>
        <time>2016-08-04T09:14:11Z</time>
      </trkpt>
      <trkpt lat="46.439311" lon="14.207683">
        <ele>2071.116</ele>
        <time>2016-08-04T09:14:13Z</time>
      </trkpt>
      <trkpt lat="46.439303" lon="14.207643">
        <ele>2071.7256</ele>
        <time>2016-08-04T09:14:18Z</time>
      </trkpt>
      <trkpt lat="46.439299" lon="14.207639">
        <ele>2072.3352</ele>
        <time>2016-08-04T09:14:20Z</time>
      </trkpt>
      <trkpt lat="46.439294" lon="14.207621">
        <ele>2072.64</ele>
        <time>2016-08-04T09:14:22Z</time>
      </trkpt>
      <trkpt lat="46.439289" lon="14.207587">
        <ele>2073.2496</ele>
        <time>2016-08-04T09:14:25Z</time>
      </trkpt>
      <trkpt lat="46.439268" lon="14.207520">
        <ele>2073.8592</ele>
        <time>2016-08-04T09:14:29Z</time>
      </trkpt>
      <trkpt lat="46.439274" lon="14.207492">
        <ele>2074.164</ele>
        <time>2016-08-04T09:14:32Z</time>
      </trkpt>
      <trkpt lat="46.439308" lon="14.207419">
        <ele>2074.4688</ele>
        <time>2016-08-04T09:14:37Z</time>
      </trkpt>
      <trkpt lat="46.439327" lon="14.207386">
        <ele>2074.4688</ele>
        <time>2016-08-04T09:14:41Z</time>
      </trkpt>
      <trkpt lat="46.439359" lon="14.207372">
        <ele>2074.7736</ele>
        <time>2016-08-04T09:14:44Z</time>
      </trkpt>
      <trkpt lat="46.439369" lon="14.207361">
        <ele>2075.0784</ele>
        <time>2016-08-04T09:14:45Z</time>
      </trkpt>
      <trkpt lat="46.439372" lon="14.207341">
        <ele>2074.4688</ele>
        <time>2016-08-04T09:14:49Z</time>
      </trkpt>
      <trkpt lat="46.439371" lon="14.207335">
        <ele>2073.8592</ele>
        <time>2016-08-04T09:14:49Z</time>
      </trkpt>
      <trkpt lat="46.439382" lon="14.207313">
        <ele>2073.2496</ele>
        <time>2016-08-04T09:14:52Z</time>
      </trkpt>
      <trkpt lat="46.439376" lon="14.207236">
        <ele>2072.3352</ele>
        <time>2016-08-04T09:15:15Z</time>
      </trkpt>
      <trkpt lat="46.439383" lon="14.207252">
        <ele>2071.7256</ele>
        <time>2016-08-04T09:15:20Z</time>
      </trkpt>
      <trkpt lat="46.439364" lon="14.207170">
        <ele>2071.4208</ele>
        <time>2016-08-04T09:15:28Z</time>
      </trkpt>
      <trkpt lat="46.439374" lon="14.207118">
        <ele>2070.2016</ele>
        <time>2016-08-04T09:15:36Z</time>
      </trkpt>
      <trkpt lat="46.439378" lon="14.207051">
        <ele>2068.9824</ele>
        <time>2016-08-04T09:15:43Z</time>
      </trkpt>
      <trkpt lat="46.439369" lon="14.206964">
        <ele>2067.7632</ele>
        <time>2016-08-04T09:15:53Z</time>
      </trkpt>
      <trkpt lat="46.439355" lon="14.206898">
        <ele>2066.8488</ele>
        <time>2016-08-04T09:16:01Z</time>
      </trkpt>
      <trkpt lat="46.439374" lon="14.206816">
        <ele>2065.6296</ele>
        <time>2016-08-04T09:16:08Z</time>
      </trkpt>
      <trkpt lat="46.439404" lon="14.206786">
        <ele>2064.4104</ele>
        <time>2016-08-04T09:16:10Z</time>
      </trkpt>
      <trkpt lat="46.439483" lon="14.206716">
        <ele>2064.7152</ele>
        <time>2016-08-04T09:16:20Z</time>
      </trkpt>
      <trkpt lat="46.439499" lon="14.206518">
        <ele>2065.6296</ele>
        <time>2016-08-04T09:16:48Z</time>
      </trkpt>
      <trkpt lat="46.439507" lon="14.206469">
        <ele>2066.8488</ele>
        <time>2016-08-04T09:16:52Z</time>
      </trkpt>
      <trkpt lat="46.439494" lon="14.206443">
        <ele>2067.7632</ele>
        <time>2016-08-04T09:16:57Z</time>
      </trkpt>
      <trkpt lat="46.439477" lon="14.206431">
        <ele>2068.9824</ele>
        <time>2016-08-04T09:17:03Z</time>
      </trkpt>
      <trkpt lat="46.439451" lon="14.206430">
        <ele>2068.068</ele>
        <time>2016-08-04T09:17:18Z</time>
      </trkpt>
      <trkpt lat="46.439444" lon="14.206403">
        <ele>2066.8488</ele>
        <time>2016-08-04T09:17:38Z</time>
      </trkpt>
      <trkpt lat="46.439415" lon="14.206298">
        <ele>2065.9344</ele>
        <time>2016-08-04T09:17:49Z</time>
      </trkpt>
      <trkpt lat="46.439415" lon="14.206287">
        <ele>2065.9344</ele>
        <time>2016-08-04T09:17:50Z</time>
      </trkpt>
      <trkpt lat="46.439415" lon="14.206271">
        <ele>2065.3248</ele>
        <time>2016-08-04T09:17:51Z</time>
      </trkpt>
      <trkpt lat="46.439412" lon="14.206255">
        <ele>2064.7152</ele>
        <time>2016-08-04T09:17:54Z</time>
      </trkpt>
      <trkpt lat="46.439400" lon="14.206208">
        <ele>2063.496</ele>
        <time>2016-08-04T09:18:01Z</time>
      </trkpt>
      <trkpt lat="46.439396" lon="14.206183">
        <ele>2062.5816</ele>
        <time>2016-08-04T09:18:04Z</time>
      </trkpt>
      <trkpt lat="46.439394" lon="14.206172">
        <ele>2061.972</ele>
        <time>2016-08-04T09:18:05Z</time>
      </trkpt>
      <trkpt lat="46.439396" lon="14.206176">
        <ele>2061.972</ele>
        <time>2016-08-04T09:18:06Z</time>
      </trkpt>
      <trkpt lat="46.439389" lon="14.206175">
        <ele>2061.3624</ele>
        <time>2016-08-04T09:18:09Z</time>
      </trkpt>
      <trkpt lat="46.439368" lon="14.206136">
        <ele>2060.448</ele>
        <time>2016-08-04T09:18:16Z</time>
      </trkpt>
      <trkpt lat="46.439365" lon="14.206124">
        <ele>2060.1432</ele>
        <time>2016-08-04T09:18:17Z</time>
      </trkpt>
      <trkpt lat="46.439367" lon="14.206061">
        <ele>2059.2288</ele>
        <time>2016-08-04T09:18:23Z</time>
      </trkpt>
      <trkpt lat="46.439370" lon="14.205995">
        <ele>2057.7048</ele>
        <time>2016-08-04T09:18:29Z</time>
      </trkpt>
      <trkpt lat="46.439371" lon="14.205990">
        <ele>2056.7904</ele>
        <time>2016-08-04T09:18:35Z</time>
      </trkpt>
      <trkpt lat="46.439362" lon="14.205953">
        <ele>2055.876</ele>
        <time>2016-08-04T09:18:44Z</time>
      </trkpt>
      <trkpt lat="46.439333" lon="14.205902">
        <ele>2054.6568</ele>
        <time>2016-08-04T09:18:55Z</time>
      </trkpt>
      <trkpt lat="46.439316" lon="14.205728">
        <ele>2053.7424</ele>
        <time>2016-08-04T09:19:15Z</time>
      </trkpt>
      <trkpt lat="46.439319" lon="14.205720">
        <ele>2053.7424</ele>
        <time>2016-08-04T09:19:15Z</time>
      </trkpt>
      <trkpt lat="46.439301" lon="14.205675">
        <ele>2052.5232</ele>
        <time>2016-08-04T09:19:22Z</time>
      </trkpt>
      <trkpt lat="46.439267" lon="14.205643">
        <ele>2051.6088</ele>
        <time>2016-08-04T09:19:29Z</time>
      </trkpt>
      <trkpt lat="46.439234" lon="14.205612">
        <ele>2050.3896</ele>
        <time>2016-08-04T09:19:34Z</time>
      </trkpt>
      <trkpt lat="46.439201" lon="14.205604">
        <ele>2049.1704</ele>
        <time>2016-08-04T09:19:39Z</time>
      </trkpt>
      <trkpt lat="46.439178" lon="14.205600">
        <ele>2048.256</ele>
        <time>2016-08-04T09:19:48Z</time>
      </trkpt>
      <trkpt lat="46.439178" lon="14.205596">
        <ele>2048.256</ele>
        <time>2016-08-04T09:19:52Z</time>
      </trkpt>
      <trkpt lat="46.439171" lon="14.205595">
        <ele>2047.0368</ele>
        <time>2016-08-04T09:19:58Z</time>
      </trkpt>
      <trkpt lat="46.439149" lon="14.205613">
        <ele>2046.1224</ele>
        <time>2016-08-04T09:20:06Z</time>
      </trkpt>
      <trkpt lat="46.439177" lon="14.205635">
        <ele>2044.9032</ele>
        <time>2016-08-04T09:20:13Z</time>
      </trkpt>
      <trkpt lat="46.439162" lon="14.205639">
        <ele>2043.684</ele>
        <time>2016-08-04T09:20:17Z</time>
      </trkpt>
      <trkpt lat="46.439131" lon="14.205657">
        <ele>2042.4648</ele>
        <time>2016-08-04T09:20:24Z</time>
      </trkpt>
      <trkpt lat="46.439097" lon="14.205687">
        <ele>2041.5504</ele>
        <time>2016-08-04T09:20:28Z</time>
      </trkpt>
      <trkpt lat="46.439092" lon="14.205691">
        <ele>2041.5504</ele>
        <time>2016-08-04T09:20:29Z</time>
      </trkpt>
      <trkpt lat="46.439005" lon="14.205748">
        <ele>2040.3312</ele>
        <time>2016-08-04T09:20:46Z</time>
      </trkpt>
      <trkpt lat="46.438981" lon="14.205743">
        <ele>2040.3312</ele>
        <time>2016-08-04T09:20:47Z</time>
      </trkpt>
      <trkpt lat="46.438950" lon="14.205708">
        <ele>2039.112</ele>
        <time>2016-08-04T09:20:51Z</time>
      </trkpt>
      <trkpt lat="46.438939" lon="14.205701">
        <ele>2038.5024</ele>
        <time>2016-08-04T09:20:52Z</time>
      </trkpt>
      <trkpt lat="46.438930" lon="14.205692">
        <ele>2037.8928</ele>
        <time>2016-08-04T09:20:54Z</time>
      </trkpt>
      <trkpt lat="46.438922" lon="14.205670">
        <ele>2037.2832</ele>
        <time>2016-08-04T09:20:55Z</time>
      </trkpt>
      <trkpt lat="46.438917" lon="14.205646">
        <ele>2036.6736</ele>
        <time>2016-08-04T09:20:59Z</time>
      </trkpt>
      <trkpt lat="46.438883" lon="14.205609">
        <ele>2035.7592</ele>
        <time>2016-08-04T09:21:06Z</time>
      </trkpt>
      <trkpt lat="46.438855" lon="14.205556">
        <ele>2034.54</ele>
        <time>2016-08-04T09:21:13Z</time>
      </trkpt>
      <trkpt lat="46.438837" lon="14.205512">
        <ele>2033.3208</ele>
        <time>2016-08-04T09:21:17Z</time>
      </trkpt>
      <trkpt lat="46.438845" lon="14.205472">
        <ele>2032.7112</ele>
        <time>2016-08-04T09:21:18Z</time>
      </trkpt>
      <trkpt lat="46.438843" lon="14.205458">
        <ele>2032.4064</ele>
        <time>2016-08-04T09:21:21Z</time>
      </trkpt>
      <trkpt lat="46.438870" lon="14.205442">
        <ele>2031.1872</ele>
        <time>2016-08-04T09:21:33Z</time>
      </trkpt>
      <trkpt lat="46.438874" lon="14.205442">
        <ele>2031.492</ele>
        <time>2016-08-04T09:21:34Z</time>
      </trkpt>
      <trkpt lat="46.438872" lon="14.205427">
        <ele>2031.492</ele>
        <time>2016-08-04T09:21:41Z</time>
      </trkpt>
      <trkpt lat="46.438876" lon="14.205384">
        <ele>2031.7968</ele>
        <time>2016-08-04T09:21:45Z</time>
      </trkpt>
      <trkpt lat="46.438859" lon="14.205347">
        <ele>2030.2728</ele>
        <time>2016-08-04T09:21:56Z</time>
      </trkpt>
      <trkpt lat="46.438837" lon="14.205283">
        <ele>2029.0536</ele>
        <time>2016-08-04T09:22:01Z</time>
      </trkpt>
      <trkpt lat="46.438827" lon="14.205244">
        <ele>2027.8344</ele>
        <time>2016-08-04T09:22:05Z</time>
      </trkpt>
      <trkpt lat="46.438816" lon="14.205211">
        <ele>2026.92</ele>
        <time>2016-08-04T09:22:09Z</time>
      </trkpt>
      <trkpt lat="46.438811" lon="14.205148">
        <ele>2025.7008</ele>
        <time>2016-08-04T09:22:19Z</time>
      </trkpt>
      <trkpt lat="46.438813" lon="14.205114">
        <ele>2024.4816</ele>
        <time>2016-08-04T09:22:21Z</time>
      </trkpt>
      <trkpt lat="46.438813" lon="14.205027">
        <ele>2023.5672</ele>
        <time>2016-08-04T09:22:32Z</time>
      </trkpt>
      <trkpt lat="46.438786" lon="14.205098">
        <ele>2022.348</ele>
        <time>2016-08-04T09:22:54Z</time>
      </trkpt>
      <trkpt lat="46.438774" lon="14.205115">
        <ele>2021.4336</ele>
        <time>2016-08-04T09:22:57Z</time>
      </trkpt>
      <trkpt lat="46.438757" lon="14.205138">
        <ele>2020.2144</ele>
        <time>2016-08-04T09:22:59Z</time>
      </trkpt>
      <trkpt lat="46.438785" lon="14.205196">
        <ele>2018.9952</ele>
        <time>2016-08-04T09:23:06Z</time>
      </trkpt>
      <trkpt lat="46.438802" lon="14.205235">
        <ele>2017.776</ele>
        <time>2016-08-04T09:23:10Z</time>
      </trkpt>
      <trkpt lat="46.438797" lon="14.205291">
        <ele>2016.8616</ele>
        <time>2016-08-04T09:23:15Z</time>
      </trkpt>
      <trkpt lat="46.438747" lon="14.205317">
        <ele>2015.3376</ele>
        <time>2016-08-04T09:23:24Z</time>
      </trkpt>
      <trkpt lat="46.438715" lon="14.205343">
        <ele>2014.4232</ele>
        <time>2016-08-04T09:23:30Z</time>
      </trkpt>
      <trkpt lat="46.438687" lon="14.205315">
        <ele>2013.5088</ele>
        <time>2016-08-04T09:23:37Z</time>
      </trkpt>
      <trkpt lat="46.438689" lon="14.205310">
        <ele>2012.2896</ele>
        <time>2016-08-04T09:23:51Z</time>
      </trkpt>
      <trkpt lat="46.438682" lon="14.205288">
        <ele>2011.0704</ele>
        <time>2016-08-04T09:23:59Z</time>
      </trkpt>
      <trkpt lat="46.438680" lon="14.205282">
        <ele>2010.4608</ele>
        <time>2016-08-04T09:24:04Z</time>
      </trkpt>
      <trkpt lat="46.438680" lon="14.205291">
        <ele>2010.156</ele>
        <time>2016-08-04T09:24:16Z</time>
      </trkpt>
      <trkpt lat="46.438683" lon="14.205322">
        <ele>2009.2416</ele>
        <time>2016-08-04T09:24:26Z</time>
      </trkpt>
      <trkpt lat="46.438651" lon="14.205327">
        <ele>2008.0224</ele>
        <time>2016-08-04T09:24:31Z</time>
      </trkpt>
      <trkpt lat="46.438640" lon="14.205302">
        <ele>2006.8032</ele>
        <time>2016-08-04T09:24:36Z</time>
      </trkpt>
      <trkpt lat="46.438621" lon="14.205256">
        <ele>2005.8888</ele>
        <time>2016-08-04T09:24:43Z</time>
      </trkpt>
      <trkpt lat="46.438613" lon="14.205238">
        <ele>2004.6696</ele>
        <time>2016-08-04T09:24:46Z</time>
      </trkpt>
      <trkpt lat="46.438607" lon="14.205210">
        <ele>2003.4504</ele>
        <time>2016-08-04T09:24:54Z</time>
      </trkpt>
      <trkpt lat="46.438607" lon="14.205207">
        <ele>2003.4504</ele>
        <time>2016-08-04T09:24:54Z</time>
      </trkpt>
      <trkpt lat="46.438606" lon="14.205199">
        <ele>2003.1456</ele>
        <time>2016-08-04T09:24:58Z</time>
      </trkpt>
      <trkpt lat="46.438606" lon="14.205193">
        <ele>2003.1456</ele>
        <time>2016-08-04T09:24:58Z</time>
      </trkpt>
      <trkpt lat="46.438603" lon="14.205185">
        <ele>2003.1456</ele>
        <time>2016-08-04T09:24:59Z</time>
      </trkpt>
      <trkpt lat="46.438602" lon="14.205181">
        <ele>2002.8408</ele>
        <time>2016-08-04T09:25:01Z</time>
      </trkpt>
      <trkpt lat="46.438605" lon="14.205183">
        <ele>2002.8408</ele>
        <time>2016-08-04T09:25:02Z</time>
      </trkpt>
      <trkpt lat="46.438607" lon="14.205182">
        <ele>2002.536</ele>
        <time>2016-08-04T09:25:03Z</time>
      </trkpt>
      <trkpt lat="46.438606" lon="14.205183">
        <ele>2002.2312</ele>
        <time>2016-08-04T09:25:08Z</time>
      </trkpt>
      <trkpt lat="46.438605" lon="14.205182">
        <ele>2002.2312</ele>
        <time>2016-08-04T09:25:09Z</time>
      </trkpt>
      <trkpt lat="46.438602" lon="14.205178">
        <ele>2001.9264</ele>
        <time>2016-08-04T09:25:10Z</time>
      </trkpt>
      <trkpt lat="46.438600" lon="14.205178">
        <ele>2001.9264</ele>
        <time>2016-08-04T09:25:10Z</time>
      </trkpt>
      <trkpt lat="46.438595" lon="14.205178">
        <ele>2001.6216</ele>
        <time>2016-08-04T09:25:13Z</time>
      </trkpt>
      <trkpt lat="46.438580" lon="14.205147">
        <ele>2000.7072</ele>
        <time>2016-08-04T09:25:24Z</time>
      </trkpt>
      <trkpt lat="46.438576" lon="14.205143">
        <ele>2000.4024</ele>
        <time>2016-08-04T09:25:26Z</time>
      </trkpt>
      <trkpt lat="46.438565" lon="14.205137">
        <ele>1999.1832</ele>
        <time>2016-08-04T09:25:35Z</time>
      </trkpt>
      <trkpt lat="46.438549" lon="14.205122">
        <ele>1998.5736</ele>
        <time>2016-08-04T09:25:40Z</time>
      </trkpt>
      <trkpt lat="46.438541" lon="14.205106">
        <ele>1998.2688</ele>
        <time>2016-08-04T09:25:43Z</time>
      </trkpt>
      <trkpt lat="46.438543" lon="14.205069">
        <ele>1997.0496</ele>
        <time>2016-08-04T09:25:48Z</time>
      </trkpt>
      <trkpt lat="46.438550" lon="14.205051">
        <ele>1996.1352</ele>
        <time>2016-08-04T09:25:52Z</time>
      </trkpt>
      <trkpt lat="46.438545" lon="14.204977">
        <ele>1994.916</ele>
        <time>2016-08-04T09:26:00Z</time>
      </trkpt>
      <trkpt lat="46.438544" lon="14.204939">
        <ele>1993.6968</ele>
        <time>2016-08-04T09:26:06Z</time>
      </trkpt>
      <trkpt lat="46.438542" lon="14.204914">
        <ele>1992.7824</ele>
        <time>2016-08-04T09:26:12Z</time>
      </trkpt>
      <trkpt lat="46.438513" lon="14.204880">
        <ele>1991.868</ele>
        <time>2016-08-04T09:26:23Z</time>
      </trkpt>
      <trkpt lat="46.438519" lon="14.204825">
        <ele>1991.2584</ele>
        <time>2016-08-04T09:26:38Z</time>
      </trkpt>
      <trkpt lat="46.438529" lon="14.204842">
        <ele>1990.9536</ele>
        <time>2016-08-04T09:27:09Z</time>
      </trkpt>
      <trkpt lat="46.438534" lon="14.204810">
        <ele>1990.6488</ele>
        <time>2016-08-04T09:27:12Z</time>
      </trkpt>
      <trkpt lat="46.438524" lon="14.204770">
        <ele>1990.344</ele>
        <time>2016-08-04T09:27:21Z</time>
      </trkpt>
      <trkpt lat="46.438522" lon="14.204772">
        <ele>1990.344</ele>
        <time>2016-08-04T09:27:24Z</time>
      </trkpt>
      <trkpt lat="46.438517" lon="14.204777">
        <ele>1990.0392</ele>
        <time>2016-08-04T09:27:27Z</time>
      </trkpt>
      <trkpt lat="46.438522" lon="14.204770">
        <ele>1989.7344</ele>
        <time>2016-08-04T09:27:29Z</time>
      </trkpt>
      <trkpt lat="46.438522" lon="14.204770">
        <ele>1989.4296</ele>
        <time>2016-08-04T09:27:31Z</time>
      </trkpt>
      <trkpt lat="46.438528" lon="14.204771">
        <ele>1989.1248</ele>
        <time>2016-08-04T09:27:32Z</time>
      </trkpt>
      <trkpt lat="46.438529" lon="14.204774">
        <ele>1989.1248</ele>
        <time>2016-08-04T09:27:33Z</time>
      </trkpt>
      <trkpt lat="46.438519" lon="14.204786">
        <ele>1988.5152</ele>
        <time>2016-08-04T09:27:37Z</time>
      </trkpt>
      <trkpt lat="46.438520" lon="14.204783">
        <ele>1988.2104</ele>
        <time>2016-08-04T09:27:40Z</time>
      </trkpt>
      <trkpt lat="46.438518" lon="14.204784">
        <ele>1988.2104</ele>
        <time>2016-08-04T09:27:40Z</time>
      </trkpt>
      <trkpt lat="46.438485" lon="14.204783">
        <ele>1987.296</ele>
        <time>2016-08-04T09:27:47Z</time>
      </trkpt>
      <trkpt lat="46.438480" lon="14.204778">
        <ele>1986.6864</ele>
        <time>2016-08-04T09:27:59Z</time>
      </trkpt>
      <trkpt lat="46.438484" lon="14.204781">
        <ele>1986.0768</ele>
        <time>2016-08-04T09:28:03Z</time>
      </trkpt>
      <trkpt lat="46.438448" lon="14.204795">
        <ele>1985.772</ele>
        <time>2016-08-04T09:28:15Z</time>
      </trkpt>
      <trkpt lat="46.438436" lon="14.204789">
        <ele>1984.8576</ele>
        <time>2016-08-04T09:28:19Z</time>
      </trkpt>
      <trkpt lat="46.438428" lon="14.204785">
        <ele>1983.9432</ele>
        <time>2016-08-04T09:28:26Z</time>
      </trkpt>
      <trkpt lat="46.438416" lon="14.204757">
        <ele>1982.724</ele>
        <time>2016-08-04T09:28:37Z</time>
      </trkpt>
      <trkpt lat="46.438420" lon="14.204739">
        <ele>1981.8096</ele>
        <time>2016-08-04T09:28:45Z</time>
      </trkpt>
      <trkpt lat="46.438410" lon="14.204720">
        <ele>1981.2</ele>
        <time>2016-08-04T09:29:02Z</time>
      </trkpt>
      <trkpt lat="46.438410" lon="14.204719">
        <ele>1981.2</ele>
        <time>2016-08-04T09:29:04Z</time>
      </trkpt>
      <trkpt lat="46.438426" lon="14.204657">
        <ele>1980.8952</ele>
        <time>2016-08-04T09:29:28Z</time>
      </trkpt>
      <trkpt lat="46.438430" lon="14.204624">
        <ele>1979.676</ele>
        <time>2016-08-04T09:29:32Z</time>
      </trkpt>
      <trkpt lat="46.438432" lon="14.204600">
        <ele>1978.4568</ele>
        <time>2016-08-04T09:29:39Z</time>
      </trkpt>
      <trkpt lat="46.438430" lon="14.204644">
        <ele>1977.8472</ele>
        <time>2016-08-04T09:29:43Z</time>
      </trkpt>
      <trkpt lat="46.438435" lon="14.204648">
        <ele>1977.5424</ele>
        <time>2016-08-04T09:29:47Z</time>
      </trkpt>
      <trkpt lat="46.438432" lon="14.204645">
        <ele>1977.5424</ele>
        <time>2016-08-04T09:29:47Z</time>
      </trkpt>
      <trkpt lat="46.438425" lon="14.204647">
        <ele>1976.9328</ele>
        <time>2016-08-04T09:29:50Z</time>
      </trkpt>
      <trkpt lat="46.438411" lon="14.204648">
        <ele>1976.3232</ele>
        <time>2016-08-04T09:29:51Z</time>
      </trkpt>
      <trkpt lat="46.438407" lon="14.204644">
        <ele>1976.3232</ele>
        <time>2016-08-04T09:29:52Z</time>
      </trkpt>
      <trkpt lat="46.438404" lon="14.204640">
        <ele>1976.3232</ele>
        <time>2016-08-04T09:29:54Z</time>
      </trkpt>
      <trkpt lat="46.438386" lon="14.204623">
        <ele>1975.7136</ele>
        <time>2016-08-04T09:29:59Z</time>
      </trkpt>
      <trkpt lat="46.438360" lon="14.204595">
        <ele>1975.104</ele>
        <time>2016-08-04T09:30:06Z</time>
      </trkpt>
      <trkpt lat="46.438347" lon="14.204573">
        <ele>1974.1896</ele>
        <time>2016-08-04T09:30:13Z</time>
      </trkpt>
      <trkpt lat="46.438343" lon="14.204558">
        <ele>1973.2752</ele>
        <time>2016-08-04T09:30:17Z</time>
      </trkpt>
      <trkpt lat="46.438317" lon="14.204517">
        <ele>1972.056</ele>
        <time>2016-08-04T09:30:23Z</time>
      </trkpt>
      <trkpt lat="46.438322" lon="14.204498">
        <ele>1971.1416</ele>
        <time>2016-08-04T09:30:30Z</time>
      </trkpt>
      <trkpt lat="46.438300" lon="14.204439">
        <ele>1969.6176</ele>
        <time>2016-08-04T09:30:34Z</time>
      </trkpt>
      <trkpt lat="46.438296" lon="14.204417">
        <ele>1969.008</ele>
        <time>2016-08-04T09:30:37Z</time>
      </trkpt>
      <trkpt lat="46.438294" lon="14.204428">
        <ele>1968.3984</ele>
        <time>2016-08-04T09:30:45Z</time>
      </trkpt>
      <trkpt lat="46.438267" lon="14.204394">
        <ele>1967.484</ele>
        <time>2016-08-04T09:30:53Z</time>
      </trkpt>
      <trkpt lat="46.438259" lon="14.204388">
        <ele>1967.1792</ele>
        <time>2016-08-04T09:30:54Z</time>
      </trkpt>
      <trkpt lat="46.438254" lon="14.204384">
        <ele>1966.2648</ele>
        <time>2016-08-04T09:31:04Z</time>
      </trkpt>
      <trkpt lat="46.438256" lon="14.204395">
        <ele>1965.6552</ele>
        <time>2016-08-04T09:31:07Z</time>
      </trkpt>
      <trkpt lat="46.438243" lon="14.204410">
        <ele>1965.3504</ele>
        <time>2016-08-04T09:31:09Z</time>
      </trkpt>
      <trkpt lat="46.438229" lon="14.204402">
        <ele>1964.7408</ele>
        <time>2016-08-04T09:31:16Z</time>
      </trkpt>
      <trkpt lat="46.438228" lon="14.204398">
        <ele>1964.7408</ele>
        <time>2016-08-04T09:31:16Z</time>
      </trkpt>
      <trkpt lat="46.438227" lon="14.204386">
        <ele>1964.1312</ele>
        <time>2016-08-04T09:31:20Z</time>
      </trkpt>
      <trkpt lat="46.438227" lon="14.204386">
        <ele>1962.912</ele>
        <time>2016-08-04T09:31:30Z</time>
      </trkpt>
      <trkpt lat="46.438204" lon="14.204369">
        <ele>1961.6928</ele>
        <time>2016-08-04T09:31:39Z</time>
      </trkpt>
      <trkpt lat="46.438195" lon="14.204363">
        <ele>1960.7784</ele>
        <time>2016-08-04T09:31:46Z</time>
      </trkpt>
      <trkpt lat="46.438194" lon="14.204361">
        <ele>1960.7784</ele>
        <time>2016-08-04T09:31:48Z</time>
      </trkpt>
      <trkpt lat="46.438188" lon="14.204366">
        <ele>1959.2544</ele>
        <time>2016-08-04T09:31:55Z</time>
      </trkpt>
      <trkpt lat="46.438191" lon="14.204371">
        <ele>1958.34</ele>
        <time>2016-08-04T09:31:59Z</time>
      </trkpt>
      <trkpt lat="46.438174" lon="14.204378">
        <ele>1957.4256</ele>
        <time>2016-08-04T09:32:06Z</time>
      </trkpt>
      <trkpt lat="46.438154" lon="14.204372">
        <ele>1957.1208</ele>
        <time>2016-08-04T09:32:10Z</time>
      </trkpt>
      <trkpt lat="46.438138" lon="14.204360">
        <ele>1956.2064</ele>
        <time>2016-08-04T09:32:14Z</time>
      </trkpt>
      <trkpt lat="46.438119" lon="14.204372">
        <ele>1955.292</ele>
        <time>2016-08-04T09:32:22Z</time>
      </trkpt>
      <trkpt lat="46.438108" lon="14.204362">
        <ele>1954.0728</ele>
        <time>2016-08-04T09:32:29Z</time>
      </trkpt>
      <trkpt lat="46.438109" lon="14.204338">
        <ele>1952.8536</ele>
        <time>2016-08-04T09:32:33Z</time>
      </trkpt>
      <trkpt lat="46.438104" lon="14.204306">
        <ele>1951.9392</ele>
        <time>2016-08-04T09:32:38Z</time>
      </trkpt>
      <trkpt lat="46.438108" lon="14.204306">
        <ele>1950.72</ele>
        <time>2016-08-04T09:32:42Z</time>
      </trkpt>
      <trkpt lat="46.438079" lon="14.204272">
        <ele>1949.5008</ele>
        <time>2016-08-04T09:32:51Z</time>
      </trkpt>
      <trkpt lat="46.438075" lon="14.204251">
        <ele>1948.5864</ele>
        <time>2016-08-04T09:32:52Z</time>
      </trkpt>
      <trkpt lat="46.438075" lon="14.204244">
        <ele>1948.2816</ele>
        <time>2016-08-04T09:32:53Z</time>
      </trkpt>
      <trkpt lat="46.438067" lon="14.204212">
        <ele>1947.672</ele>
        <time>2016-08-04T09:32:57Z</time>
      </trkpt>
      <trkpt lat="46.438067" lon="14.204184">
        <ele>1947.0624</ele>
        <time>2016-08-04T09:33:00Z</time>
      </trkpt>
      <trkpt lat="46.438057" lon="14.204150">
        <ele>1946.148</ele>
        <time>2016-08-04T09:33:05Z</time>
      </trkpt>
      <trkpt lat="46.438059" lon="14.204119">
        <ele>1944.9288</ele>
        <time>2016-08-04T09:33:12Z</time>
      </trkpt>
      <trkpt lat="46.438048" lon="14.204076">
        <ele>1943.7096</ele>
        <time>2016-08-04T09:33:19Z</time>
      </trkpt>
      <trkpt lat="46.438046" lon="14.204060">
        <ele>1942.4904</ele>
        <time>2016-08-04T09:33:27Z</time>
      </trkpt>
      <trkpt lat="46.438040" lon="14.204033">
        <ele>1941.576</ele>
        <time>2016-08-04T09:33:42Z</time>
      </trkpt>
      <trkpt lat="46.437972" lon="14.204039">
        <ele>1940.6616</ele>
        <time>2016-08-04T09:33:50Z</time>
      </trkpt>
      <trkpt lat="46.437992" lon="14.204039">
        <ele>1939.4424</ele>
        <time>2016-08-04T09:33:58Z</time>
      </trkpt>
      <trkpt lat="46.437979" lon="14.204009">
        <ele>1938.528</ele>
        <time>2016-08-04T09:34:06Z</time>
      </trkpt>
      <trkpt lat="46.437965" lon="14.203991">
        <ele>1937.3088</ele>
        <time>2016-08-04T09:34:16Z</time>
      </trkpt>
      <trkpt lat="46.437946" lon="14.203980">
        <ele>1936.0896</ele>
        <time>2016-08-04T09:34:22Z</time>
      </trkpt>
      <trkpt lat="46.437936" lon="14.203955">
        <ele>1934.8704</ele>
        <time>2016-08-04T09:34:26Z</time>
      </trkpt>
      <trkpt lat="46.437939" lon="14.203949">
        <ele>1933.956</ele>
        <time>2016-08-04T09:34:33Z</time>
      </trkpt>
      <trkpt lat="46.437942" lon="14.203959">
        <ele>1932.7368</ele>
        <time>2016-08-04T09:34:39Z</time>
      </trkpt>
      <trkpt lat="46.437907" lon="14.203960">
        <ele>1931.8224</ele>
        <time>2016-08-04T09:34:45Z</time>
      </trkpt>
      <trkpt lat="46.437896" lon="14.203935">
        <ele>1930.908</ele>
        <time>2016-08-04T09:34:55Z</time>
      </trkpt>
      <trkpt lat="46.437896" lon="14.203886">
        <ele>1929.6888</ele>
        <time>2016-08-04T09:35:00Z</time>
      </trkpt>
      <trkpt lat="46.437889" lon="14.203855">
        <ele>1928.4696</ele>
        <time>2016-08-04T09:35:04Z</time>
      </trkpt>
      <trkpt lat="46.437887" lon="14.203853">
        <ele>1928.4696</ele>
        <time>2016-08-04T09:35:04Z</time>
      </trkpt>
      <trkpt lat="46.437872" lon="14.203817">
        <ele>1926.9456</ele>
        <time>2016-08-04T09:35:10Z</time>
      </trkpt>
      <trkpt lat="46.437868" lon="14.203814">
        <ele>1926.9456</ele>
        <time>2016-08-04T09:35:11Z</time>
      </trkpt>
      <trkpt lat="46.437854" lon="14.203770">
        <ele>1926.0312</ele>
        <time>2016-08-04T09:35:15Z</time>
      </trkpt>
      <trkpt lat="46.437851" lon="14.203720">
        <ele>1924.5072</ele>
        <time>2016-08-04T09:35:19Z</time>
      </trkpt>
      <trkpt lat="46.437845" lon="14.203680">
        <ele>1923.288</ele>
        <time>2016-08-04T09:35:23Z</time>
      </trkpt>
      <trkpt lat="46.437842" lon="14.203644">
        <ele>1922.6784</ele>
        <time>2016-08-04T09:35:27Z</time>
      </trkpt>
      <trkpt lat="46.437836" lon="14.203617">
        <ele>1922.0688</ele>
        <time>2016-08-04T09:35:30Z</time>
      </trkpt>
      <trkpt lat="46.437834" lon="14.203603">
        <ele>1922.0688</ele>
        <time>2016-08-04T09:35:31Z</time>
      </trkpt>
      <trkpt lat="46.437825" lon="14.203583">
        <ele>1921.4592</ele>
        <time>2016-08-04T09:35:34Z</time>
      </trkpt>
      <trkpt lat="46.437822" lon="14.203578">
        <ele>1921.1544</ele>
        <time>2016-08-04T09:35:34Z</time>
      </trkpt>
      <trkpt lat="46.437813" lon="14.203564">
        <ele>1920.8496</ele>
        <time>2016-08-04T09:35:37Z</time>
      </trkpt>
      <trkpt lat="46.437798" lon="14.203533">
        <ele>1920.24</ele>
        <time>2016-08-04T09:35:39Z</time>
      </trkpt>
      <trkpt lat="46.437796" lon="14.203521">
        <ele>1919.9352</ele>
        <time>2016-08-04T09:35:41Z</time>
      </trkpt>
      <trkpt lat="46.437795" lon="14.203508">
        <ele>1919.9352</ele>
        <time>2016-08-04T09:35:42Z</time>
      </trkpt>
      <trkpt lat="46.437789" lon="14.203514">
        <ele>1919.9352</ele>
        <time>2016-08-04T09:35:45Z</time>
      </trkpt>
      <trkpt lat="46.437788" lon="14.203516">
        <ele>1919.6304</ele>
        <time>2016-08-04T09:35:46Z</time>
      </trkpt>
      <trkpt lat="46.437800" lon="14.203514">
        <ele>1919.6304</ele>
        <time>2016-08-04T09:35:56Z</time>
      </trkpt>
      <trkpt lat="46.437785" lon="14.203516">
        <ele>1919.3256</ele>
        <time>2016-08-04T09:36:01Z</time>
      </trkpt>
      <trkpt lat="46.437797" lon="14.203550">
        <ele>1919.0208</ele>
        <time>2016-08-04T09:37:39Z</time>
      </trkpt>
      <trkpt lat="46.437794" lon="14.203557">
        <ele>1919.0208</ele>
        <time>2016-08-04T09:37:50Z</time>
      </trkpt>
      <trkpt lat="46.437793" lon="14.203549">
        <ele>1919.0208</ele>
        <time>2016-08-04T09:38:00Z</time>
      </trkpt>
      <trkpt lat="46.437788" lon="14.203543">
        <ele>1919.0208</ele>
        <time>2016-08-04T09:38:02Z</time>
      </trkpt>
      <trkpt lat="46.437788" lon="14.203543">
        <ele>1919.0208</ele>
        <time>2016-08-04T09:38:05Z</time>
      </trkpt>
      <trkpt lat="46.437787" lon="14.203539">
        <ele>1919.0208</ele>
        <time>2016-08-04T09:38:09Z</time>
      </trkpt>
      <trkpt lat="46.437785" lon="14.203537">
        <ele>1919.0208</ele>
        <time>2016-08-04T09:38:13Z</time>
      </trkpt>
      <trkpt lat="46.437776" lon="14.203541">
        <ele>1919.0208</ele>
        <time>2016-08-04T09:38:17Z</time>
      </trkpt>
      <trkpt lat="46.437777" lon="14.203540">
        <ele>1919.0208</ele>
        <time>2016-08-04T09:38:24Z</time>
      </trkpt>
      <trkpt lat="46.437739" lon="14.203569">
        <ele>1919.0208</ele>
        <time>2016-08-04T09:38:56Z</time>
      </trkpt>
      <trkpt lat="46.437704" lon="14.203549">
        <ele>1919.0208</ele>
        <time>2016-08-04T09:39:03Z</time>
      </trkpt>
      <trkpt lat="46.437758" lon="14.203574">
        <ele>1919.0208</ele>
        <time>2016-08-04T09:39:10Z</time>
      </trkpt>
      <trkpt lat="46.437766" lon="14.203613">
        <ele>1919.0208</ele>
        <time>2016-08-04T09:39:18Z</time>
      </trkpt>
      <trkpt lat="46.437766" lon="14.203627">
        <ele>1918.716</ele>
        <time>2016-08-04T09:39:18Z</time>
      </trkpt>
      <trkpt lat="46.437770" lon="14.203680">
        <ele>1917.4968</ele>
        <time>2016-08-04T09:39:22Z</time>
      </trkpt>
      <trkpt lat="46.437779" lon="14.203713">
        <ele>1917.4968</ele>
        <time>2016-08-04T09:39:23Z</time>
      </trkpt>
      <trkpt lat="46.437796" lon="14.203887">
        <ele>1916.2776</ele>
        <time>2016-08-04T09:39:37Z</time>
      </trkpt>
      <trkpt lat="46.437784" lon="14.203942">
        <ele>1915.9728</ele>
        <time>2016-08-04T09:39:41Z</time>
      </trkpt>
      <trkpt lat="46.437780" lon="14.203952">
        <ele>1915.668</ele>
        <time>2016-08-04T09:39:44Z</time>
      </trkpt>
      <trkpt lat="46.437781" lon="14.203981">
        <ele>1915.668</ele>
        <time>2016-08-04T09:39:45Z</time>
      </trkpt>
      <trkpt lat="46.437780" lon="14.204009">
        <ele>1915.668</ele>
        <time>2016-08-04T09:39:48Z</time>
      </trkpt>
      <trkpt lat="46.437780" lon="14.204062">
        <ele>1915.668</ele>
        <time>2016-08-04T09:39:52Z</time>
      </trkpt>
      <trkpt lat="46.437784" lon="14.204084">
        <ele>1915.668</ele>
        <time>2016-08-04T09:39:53Z</time>
      </trkpt>
      <trkpt lat="46.437773" lon="14.204109">
        <ele>1915.0584</ele>
        <time>2016-08-04T09:39:57Z</time>
      </trkpt>
      <trkpt lat="46.437765" lon="14.204138">
        <ele>1915.0584</ele>
        <time>2016-08-04T09:39:59Z</time>
      </trkpt>
      <trkpt lat="46.437763" lon="14.204150">
        <ele>1914.7536</ele>
        <time>2016-08-04T09:40:00Z</time>
      </trkpt>
      <trkpt lat="46.437756" lon="14.204163">
        <ele>1914.4488</ele>
        <time>2016-08-04T09:40:01Z</time>
      </trkpt>
      <trkpt lat="46.437754" lon="14.204178">
        <ele>1914.4488</ele>
        <time>2016-08-04T09:40:01Z</time>
      </trkpt>
      <trkpt lat="46.437754" lon="14.204206">
        <ele>1914.144</ele>
        <time>2016-08-04T09:40:04Z</time>
      </trkpt>
      <trkpt lat="46.437747" lon="14.204223">
        <ele>1913.8392</ele>
        <time>2016-08-04T09:40:05Z</time>
      </trkpt>
      <trkpt lat="46.437745" lon="14.204258">
        <ele>1913.5344</ele>
        <time>2016-08-04T09:40:08Z</time>
      </trkpt>
      <trkpt lat="46.437747" lon="14.204286">
        <ele>1913.5344</ele>
        <time>2016-08-04T09:40:12Z</time>
      </trkpt>
      <trkpt lat="46.437752" lon="14.204295">
        <ele>1913.5344</ele>
        <time>2016-08-04T09:40:13Z</time>
      </trkpt>
      <trkpt lat="46.437753" lon="14.204303">
        <ele>1913.5344</ele>
        <time>2016-08-04T09:40:15Z</time>
      </trkpt>
      <trkpt lat="46.437753" lon="14.204310">
        <ele>1913.5344</ele>
        <time>2016-08-04T09:40:16Z</time>
      </trkpt>
      <trkpt lat="46.437754" lon="14.204319">
        <ele>1913.2296</ele>
        <time>2016-08-04T09:40:16Z</time>
      </trkpt>
      <trkpt lat="46.437756" lon="14.204338">
        <ele>1912.9248</ele>
        <time>2016-08-04T09:40:19Z</time>
      </trkpt>
      <trkpt lat="46.437758" lon="14.204350">
        <ele>1912.9248</ele>
        <time>2016-08-04T09:40:20Z</time>
      </trkpt>
      <trkpt lat="46.437764" lon="14.204365">
        <ele>1912.9248</ele>
        <time>2016-08-04T09:40:20Z</time>
      </trkpt>
      <trkpt lat="46.437789" lon="14.204446">
        <ele>1912.0104</ele>
        <time>2016-08-04T09:40:28Z</time>
      </trkpt>
      <trkpt lat="46.437787" lon="14.204460">
        <ele>1911.7056</ele>
        <time>2016-08-04T09:40:30Z</time>
      </trkpt>
      <trkpt lat="46.437777" lon="14.204564">
        <ele>1910.7912</ele>
        <time>2016-08-04T09:40:36Z</time>
      </trkpt>
      <trkpt lat="46.437812" lon="14.204685">
        <ele>1909.8768</ele>
        <time>2016-08-04T09:40:47Z</time>
      </trkpt>
      <trkpt lat="46.437808" lon="14.204699">
        <ele>1909.8768</ele>
        <time>2016-08-04T09:40:47Z</time>
      </trkpt>
      <trkpt lat="46.437738" lon="14.204953">
        <ele>1909.2672</ele>
        <time>2016-08-04T09:41:06Z</time>
      </trkpt>
      <trkpt lat="46.437732" lon="14.204980">
        <ele>1909.2672</ele>
        <time>2016-08-04T09:41:09Z</time>
      </trkpt>
      <trkpt lat="46.437682" lon="14.205078">
        <ele>1908.6576</ele>
        <time>2016-08-04T09:41:17Z</time>
      </trkpt>
      <trkpt lat="46.437679" lon="14.205142">
        <ele>1909.2672</ele>
        <time>2016-08-04T09:41:22Z</time>
      </trkpt>
      <trkpt lat="46.437670" lon="14.205182">
        <ele>1908.6576</ele>
        <time>2016-08-04T09:41:28Z</time>
      </trkpt>
      <trkpt lat="46.437670" lon="14.205194">
        <ele>1908.6576</ele>
        <time>2016-08-04T09:41:29Z</time>
      </trkpt>
      <trkpt lat="46.437663" lon="14.205242">
        <ele>1908.048</ele>
        <time>2016-08-04T09:41:32Z</time>
      </trkpt>
      <trkpt lat="46.437641" lon="14.205251">
        <ele>1907.7432</ele>
        <time>2016-08-04T09:41:34Z</time>
      </trkpt>
      <trkpt lat="46.437636" lon="14.205251">
        <ele>1907.7432</ele>
        <time>2016-08-04T09:41:36Z</time>
      </trkpt>
      <trkpt lat="46.437621" lon="14.205261">
        <ele>1907.4384</ele>
        <time>2016-08-04T09:41:37Z</time>
      </trkpt>
      <trkpt lat="46.437608" lon="14.205289">
        <ele>1906.524</ele>
        <time>2016-08-04T09:41:41Z</time>
      </trkpt>
      <trkpt lat="46.437594" lon="14.205307">
        <ele>1906.2192</ele>
        <time>2016-08-04T09:41:42Z</time>
      </trkpt>
      <trkpt lat="46.437581" lon="14.205330">
        <ele>1905.3048</ele>
        <time>2016-08-04T09:41:47Z</time>
      </trkpt>
      <trkpt lat="46.437573" lon="14.205345">
        <ele>1905</ele>
        <time>2016-08-04T09:41:49Z</time>
      </trkpt>
      <trkpt lat="46.437563" lon="14.205367">
        <ele>1904.3904</ele>
        <time>2016-08-04T09:41:51Z</time>
      </trkpt>
      <trkpt lat="46.437560" lon="14.205389">
        <ele>1903.476</ele>
        <time>2016-08-04T09:41:52Z</time>
      </trkpt>
      <trkpt lat="46.437555" lon="14.205411">
        <ele>1903.1712</ele>
        <time>2016-08-04T09:41:55Z</time>
      </trkpt>
      <trkpt lat="46.437553" lon="14.205425">
        <ele>1902.8664</ele>
        <time>2016-08-04T09:41:56Z</time>
      </trkpt>
      <trkpt lat="46.437546" lon="14.205438">
        <ele>1902.8664</ele>
        <time>2016-08-04T09:41:57Z</time>
      </trkpt>
      <trkpt lat="46.437547" lon="14.205465">
        <ele>1902.5616</ele>
        <time>2016-08-04T09:42:01Z</time>
      </trkpt>
      <trkpt lat="46.437547" lon="14.205478">
        <ele>1902.2568</ele>
        <time>2016-08-04T09:42:04Z</time>
      </trkpt>
      <trkpt lat="46.437548" lon="14.205487">
        <ele>1902.2568</ele>
        <time>2016-08-04T09:42:05Z</time>
      </trkpt>
      <trkpt lat="46.437537" lon="14.205519">
        <ele>1901.0376</ele>
        <time>2016-08-04T09:42:12Z</time>
      </trkpt>
      <trkpt lat="46.437514" lon="14.205624">
        <ele>1900.1232</ele>
        <time>2016-08-04T09:42:20Z</time>
      </trkpt>
      <trkpt lat="46.437493" lon="14.205697">
        <ele>1899.8184</ele>
        <time>2016-08-04T09:42:27Z</time>
      </trkpt>
      <trkpt lat="46.437469" lon="14.205788">
        <ele>1900.1232</ele>
        <time>2016-08-04T09:42:35Z</time>
      </trkpt>
      <trkpt lat="46.437459" lon="14.205810">
        <ele>1900.1232</ele>
        <time>2016-08-04T09:42:36Z</time>
      </trkpt>
      <trkpt lat="46.437453" lon="14.205839">
        <ele>1900.1232</ele>
        <time>2016-08-04T09:42:39Z</time>
      </trkpt>
      <trkpt lat="46.437457" lon="14.205858">
        <ele>1899.5136</ele>
        <time>2016-08-04T09:42:45Z</time>
      </trkpt>
      <trkpt lat="46.437466" lon="14.205890">
        <ele>1898.904</ele>
        <time>2016-08-04T09:42:49Z</time>
      </trkpt>
      <trkpt lat="46.437477" lon="14.205999">
        <ele>1899.8184</ele>
        <time>2016-08-04T09:42:59Z</time>
      </trkpt>
      <trkpt lat="46.437473" lon="14.206055">
        <ele>1900.1232</ele>
        <time>2016-08-04T09:43:09Z</time>
      </trkpt>
      <trkpt lat="46.437452" lon="14.206069">
        <ele>1900.7328</ele>
        <time>2016-08-04T09:43:13Z</time>
      </trkpt>
      <trkpt lat="46.437356" lon="14.206030">
        <ele>1901.0376</ele>
        <time>2016-08-04T09:43:17Z</time>
      </trkpt>
      <trkpt lat="46.437317" lon="14.206025">
        <ele>1900.428</ele>
        <time>2016-08-04T09:43:22Z</time>
      </trkpt>
      <trkpt lat="46.437328" lon="14.206068">
        <ele>1900.1232</ele>
        <time>2016-08-04T09:43:25Z</time>
      </trkpt>
      <trkpt lat="46.437296" lon="14.206095">
        <ele>1899.8184</ele>
        <time>2016-08-04T09:43:29Z</time>
      </trkpt>
      <trkpt lat="46.437223" lon="14.206172">
        <ele>1900.428</ele>
        <time>2016-08-04T09:43:43Z</time>
      </trkpt>
      <trkpt lat="46.437133" lon="14.206267">
        <ele>1898.904</ele>
        <time>2016-08-04T09:43:55Z</time>
      </trkpt>
      <trkpt lat="46.437121" lon="14.206276">
        <ele>1898.2944</ele>
        <time>2016-08-04T09:43:56Z</time>
      </trkpt>
      <trkpt lat="46.437111" lon="14.206291">
        <ele>1897.6848</ele>
        <time>2016-08-04T09:44:00Z</time>
      </trkpt>
      <trkpt lat="46.437090" lon="14.206339">
        <ele>1896.4656</ele>
        <time>2016-08-04T09:44:06Z</time>
      </trkpt>
      <trkpt lat="46.437065" lon="14.206359">
        <ele>1895.856</ele>
        <time>2016-08-04T09:44:10Z</time>
      </trkpt>
      <trkpt lat="46.437056" lon="14.206372">
        <ele>1895.5512</ele>
        <time>2016-08-04T09:44:12Z</time>
      </trkpt>
      <trkpt lat="46.437059" lon="14.206402">
        <ele>1894.332</ele>
        <time>2016-08-04T09:44:16Z</time>
      </trkpt>
      <trkpt lat="46.437040" lon="14.206426">
        <ele>1893.1128</ele>
        <time>2016-08-04T09:44:22Z</time>
      </trkpt>
      <trkpt lat="46.437002" lon="14.206430">
        <ele>1891.8936</ele>
        <time>2016-08-04T09:44:27Z</time>
      </trkpt>
      <trkpt lat="46.436985" lon="14.206380">
        <ele>1890.9792</ele>
        <time>2016-08-04T09:44:33Z</time>
      </trkpt>
      <trkpt lat="46.436981" lon="14.206363">
        <ele>1890.0648</ele>
        <time>2016-08-04T09:44:43Z</time>
      </trkpt>
      <trkpt lat="46.436971" lon="14.206396">
        <ele>1888.8456</ele>
        <time>2016-08-04T09:44:50Z</time>
      </trkpt>
      <trkpt lat="46.436959" lon="14.206420">
        <ele>1887.6264</ele>
        <time>2016-08-04T09:44:54Z</time>
      </trkpt>
      <trkpt lat="46.436938" lon="14.206447">
        <ele>1886.712</ele>
        <time>2016-08-04T09:45:04Z</time>
      </trkpt>
      <trkpt lat="46.436922" lon="14.206463">
        <ele>1885.4928</ele>
        <time>2016-08-04T09:45:09Z</time>
      </trkpt>
      <trkpt lat="46.436901" lon="14.206504">
        <ele>1884.2736</ele>
        <time>2016-08-04T09:45:14Z</time>
      </trkpt>
      <trkpt lat="46.436882" lon="14.206546">
        <ele>1883.0544</ele>
        <time>2016-08-04T09:45:20Z</time>
      </trkpt>
      <trkpt lat="46.436883" lon="14.206576">
        <ele>1882.14</ele>
        <time>2016-08-04T09:45:25Z</time>
      </trkpt>
      <trkpt lat="46.436863" lon="14.206617">
        <ele>1880.9208</ele>
        <time>2016-08-04T09:45:32Z</time>
      </trkpt>
      <trkpt lat="46.436824" lon="14.206653">
        <ele>1879.7016</ele>
        <time>2016-08-04T09:45:40Z</time>
      </trkpt>
      <trkpt lat="46.436818" lon="14.206664">
        <ele>1879.7016</ele>
        <time>2016-08-04T09:45:41Z</time>
      </trkpt>
      <trkpt lat="46.436778" lon="14.206718">
        <ele>1878.4824</ele>
        <time>2016-08-04T09:45:48Z</time>
      </trkpt>
      <trkpt lat="46.436768" lon="14.206724">
        <ele>1877.2632</ele>
        <time>2016-08-04T09:45:55Z</time>
      </trkpt>
      <trkpt lat="46.436738" lon="14.206777">
        <ele>1876.3488</ele>
        <time>2016-08-04T09:46:06Z</time>
      </trkpt>
      <trkpt lat="46.436717" lon="14.206810">
        <ele>1875.4344</ele>
        <time>2016-08-04T09:46:11Z</time>
      </trkpt>
      <trkpt lat="46.436698" lon="14.206844">
        <ele>1874.2152</ele>
        <time>2016-08-04T09:46:15Z</time>
      </trkpt>
      <trkpt lat="46.436661" lon="14.206885">
        <ele>1873.3008</ele>
        <time>2016-08-04T09:46:26Z</time>
      </trkpt>
      <trkpt lat="46.436645" lon="14.206911">
        <ele>1872.996</ele>
        <time>2016-08-04T09:46:30Z</time>
      </trkpt>
      <trkpt lat="46.436625" lon="14.206930">
        <ele>1872.0816</ele>
        <time>2016-08-04T09:46:33Z</time>
      </trkpt>
      <trkpt lat="46.436620" lon="14.206938">
        <ele>1871.7768</ele>
        <time>2016-08-04T09:46:34Z</time>
      </trkpt>
      <trkpt lat="46.436612" lon="14.206960">
        <ele>1871.472</ele>
        <time>2016-08-04T09:46:37Z</time>
      </trkpt>
      <trkpt lat="46.436605" lon="14.206981">
        <ele>1870.8624</ele>
        <time>2016-08-04T09:46:38Z</time>
      </trkpt>
      <trkpt lat="46.436596" lon="14.207010">
        <ele>1869.948</ele>
        <time>2016-08-04T09:46:42Z</time>
      </trkpt>
      <trkpt lat="46.436593" lon="14.207020">
        <ele>1869.948</ele>
        <time>2016-08-04T09:46:42Z</time>
      </trkpt>
      <trkpt lat="46.436566" lon="14.207064">
        <ele>1868.7288</ele>
        <time>2016-08-04T09:46:56Z</time>
      </trkpt>
      <trkpt lat="46.436564" lon="14.207071">
        <ele>1867.5096</ele>
        <time>2016-08-04T09:47:01Z</time>
      </trkpt>
      <trkpt lat="46.436557" lon="14.207104">
        <ele>1866.2904</ele>
        <time>2016-08-04T09:47:09Z</time>
      </trkpt>
      <trkpt lat="46.436557" lon="14.207123">
        <ele>1865.0712</ele>
        <time>2016-08-04T09:47:12Z</time>
      </trkpt>
      <trkpt lat="46.436531" lon="14.207096">
        <ele>1864.1568</ele>
        <time>2016-08-04T09:47:17Z</time>
      </trkpt>
      <trkpt lat="46.436500" lon="14.207063">
        <ele>1862.9376</ele>
        <time>2016-08-04T09:47:24Z</time>
      </trkpt>
      <trkpt lat="46.436488" lon="14.207038">
        <ele>1861.7184</ele>
        <time>2016-08-04T09:47:27Z</time>
      </trkpt>
      <trkpt lat="46.436474" lon="14.207018">
        <ele>1861.1088</ele>
        <time>2016-08-04T09:47:28Z</time>
      </trkpt>
      <trkpt lat="46.436469" lon="14.207011">
        <ele>1860.804</ele>
        <time>2016-08-04T09:47:31Z</time>
      </trkpt>
      <trkpt lat="46.436465" lon="14.207015">
        <ele>1860.4992</ele>
        <time>2016-08-04T09:47:39Z</time>
      </trkpt>
      <trkpt lat="46.436458" lon="14.206979">
        <ele>1859.5848</ele>
        <time>2016-08-04T09:47:58Z</time>
      </trkpt>
      <trkpt lat="46.436440" lon="14.207050">
        <ele>1858.6704</ele>
        <time>2016-08-04T09:48:06Z</time>
      </trkpt>
      <trkpt lat="46.436437" lon="14.207108">
        <ele>1857.1464</ele>
        <time>2016-08-04T09:48:11Z</time>
      </trkpt>
      <trkpt lat="46.436436" lon="14.207115">
        <ele>1857.1464</ele>
        <time>2016-08-04T09:48:13Z</time>
      </trkpt>
      <trkpt lat="46.436440" lon="14.207174">
        <ele>1855.9272</ele>
        <time>2016-08-04T09:48:18Z</time>
      </trkpt>
      <trkpt lat="46.436448" lon="14.207203">
        <ele>1855.0128</ele>
        <time>2016-08-04T09:48:22Z</time>
      </trkpt>
      <trkpt lat="46.436455" lon="14.207215">
        <ele>1854.0984</ele>
        <time>2016-08-04T09:48:29Z</time>
      </trkpt>
      <trkpt lat="46.436452" lon="14.207215">
        <ele>1853.7936</ele>
        <time>2016-08-04T09:48:30Z</time>
      </trkpt>
      <trkpt lat="46.436451" lon="14.207219">
        <ele>1853.7936</ele>
        <time>2016-08-04T09:48:34Z</time>
      </trkpt>
      <trkpt lat="46.436440" lon="14.207224">
        <ele>1852.5744</ele>
        <time>2016-08-04T09:48:41Z</time>
      </trkpt>
      <trkpt lat="46.436439" lon="14.207258">
        <ele>1851.66</ele>
        <time>2016-08-04T09:48:45Z</time>
      </trkpt>
      <trkpt lat="46.436441" lon="14.207312">
        <ele>1850.4408</ele>
        <time>2016-08-04T09:48:50Z</time>
      </trkpt>
      <trkpt lat="46.436442" lon="14.207336">
        <ele>1850.136</ele>
        <time>2016-08-04T09:48:53Z</time>
      </trkpt>
      <trkpt lat="46.436442" lon="14.207346">
        <ele>1849.8312</ele>
        <time>2016-08-04T09:48:53Z</time>
      </trkpt>
      <trkpt lat="46.436440" lon="14.207381">
        <ele>1849.5264</ele>
        <time>2016-08-04T09:48:56Z</time>
      </trkpt>
      <trkpt lat="46.436438" lon="14.207401">
        <ele>1849.2216</ele>
        <time>2016-08-04T09:48:57Z</time>
      </trkpt>
      <trkpt lat="46.436438" lon="14.207445">
        <ele>1848.0024</ele>
        <time>2016-08-04T09:49:01Z</time>
      </trkpt>
      <trkpt lat="46.436434" lon="14.207475">
        <ele>1847.088</ele>
        <time>2016-08-04T09:49:08Z</time>
      </trkpt>
      <trkpt lat="46.436441" lon="14.207525">
        <ele>1845.8688</ele>
        <time>2016-08-04T09:49:15Z</time>
      </trkpt>
      <trkpt lat="46.436443" lon="14.207571">
        <ele>1844.3448</ele>
        <time>2016-08-04T09:49:20Z</time>
      </trkpt>
      <trkpt lat="46.436433" lon="14.207614">
        <ele>1843.4304</ele>
        <time>2016-08-04T09:49:24Z</time>
      </trkpt>
      <trkpt lat="46.436412" lon="14.207633">
        <ele>1842.516</ele>
        <time>2016-08-04T09:49:28Z</time>
      </trkpt>
      <trkpt lat="46.436416" lon="14.207692">
        <ele>1841.2968</ele>
        <time>2016-08-04T09:49:36Z</time>
      </trkpt>
      <trkpt lat="46.436424" lon="14.207737">
        <ele>1840.0776</ele>
        <time>2016-08-04T09:49:42Z</time>
      </trkpt>
      <trkpt lat="46.436435" lon="14.207769">
        <ele>1839.1632</ele>
        <time>2016-08-04T09:49:47Z</time>
      </trkpt>
      <trkpt lat="46.436446" lon="14.207826">
        <ele>1838.2488</ele>
        <time>2016-08-04T09:49:55Z</time>
      </trkpt>
      <trkpt lat="46.436416" lon="14.207870">
        <ele>1837.0296</ele>
        <time>2016-08-04T09:50:02Z</time>
      </trkpt>
      <trkpt lat="46.436395" lon="14.207922">
        <ele>1835.8104</ele>
        <time>2016-08-04T09:50:09Z</time>
      </trkpt>
      <trkpt lat="46.436380" lon="14.207978">
        <ele>1834.5912</ele>
        <time>2016-08-04T09:50:14Z</time>
      </trkpt>
      <trkpt lat="46.436338" lon="14.208017">
        <ele>1833.6768</ele>
        <time>2016-08-04T09:50:18Z</time>
      </trkpt>
      <trkpt lat="46.436311" lon="14.208075">
        <ele>1832.1528</ele>
        <time>2016-08-04T09:50:25Z</time>
      </trkpt>
      <trkpt lat="46.436301" lon="14.208130">
        <ele>1830.9336</ele>
        <time>2016-08-04T09:50:32Z</time>
      </trkpt>
      <trkpt lat="46.436301" lon="14.208174">
        <ele>1830.0192</ele>
        <time>2016-08-04T09:50:36Z</time>
      </trkpt>
      <trkpt lat="46.436296" lon="14.208222">
        <ele>1829.1048</ele>
        <time>2016-08-04T09:50:41Z</time>
      </trkpt>
      <trkpt lat="46.436276" lon="14.208265">
        <ele>1827.8856</ele>
        <time>2016-08-04T09:50:47Z</time>
      </trkpt>
      <trkpt lat="46.436230" lon="14.208287">
        <ele>1826.6664</ele>
        <time>2016-08-04T09:50:52Z</time>
      </trkpt>
      <trkpt lat="46.436200" lon="14.208261">
        <ele>1825.752</ele>
        <time>2016-08-04T09:50:56Z</time>
      </trkpt>
      <trkpt lat="46.436191" lon="14.208256">
        <ele>1825.4472</ele>
        <time>2016-08-04T09:50:57Z</time>
      </trkpt>
      <trkpt lat="46.436156" lon="14.208230">
        <ele>1824.228</ele>
        <time>2016-08-04T09:51:03Z</time>
      </trkpt>
      <trkpt lat="46.436127" lon="14.208216">
        <ele>1823.0088</ele>
        <time>2016-08-04T09:51:08Z</time>
      </trkpt>
      <trkpt lat="46.436105" lon="14.208196">
        <ele>1821.7896</ele>
        <time>2016-08-04T09:51:12Z</time>
      </trkpt>
      <trkpt lat="46.436080" lon="14.208164">
        <ele>1820.5704</ele>
        <time>2016-08-04T09:51:16Z</time>
      </trkpt>
      <trkpt lat="46.436066" lon="14.208129">
        <ele>1819.656</ele>
        <time>2016-08-04T09:51:22Z</time>
      </trkpt>
      <trkpt lat="46.436069" lon="14.208176">
        <ele>1818.4368</ele>
        <time>2016-08-04T09:51:28Z</time>
      </trkpt>
      <trkpt lat="46.436058" lon="14.208237">
        <ele>1817.5224</ele>
        <time>2016-08-04T09:51:34Z</time>
      </trkpt>
      <trkpt lat="46.436041" lon="14.208287">
        <ele>1815.9984</ele>
        <time>2016-08-04T09:51:43Z</time>
      </trkpt>
      <trkpt lat="46.436035" lon="14.208318">
        <ele>1814.7792</ele>
        <time>2016-08-04T09:51:47Z</time>
      </trkpt>
      <trkpt lat="46.436019" lon="14.208346">
        <ele>1813.56</ele>
        <time>2016-08-04T09:51:51Z</time>
      </trkpt>
      <trkpt lat="46.436010" lon="14.208402">
        <ele>1812.6456</ele>
        <time>2016-08-04T09:51:58Z</time>
      </trkpt>
      <trkpt lat="46.436007" lon="14.208452">
        <ele>1811.4264</ele>
        <time>2016-08-04T09:52:03Z</time>
      </trkpt>
      <trkpt lat="46.435990" lon="14.208488">
        <ele>1810.512</ele>
        <time>2016-08-04T09:52:16Z</time>
      </trkpt>
      <trkpt lat="46.435986" lon="14.208523">
        <ele>1809.5976</ele>
        <time>2016-08-04T09:52:29Z</time>
      </trkpt>
      <trkpt lat="46.435982" lon="14.208529">
        <ele>1809.2928</ele>
        <time>2016-08-04T09:52:32Z</time>
      </trkpt>
      <trkpt lat="46.435966" lon="14.208562">
        <ele>1808.0736</ele>
        <time>2016-08-04T09:52:44Z</time>
      </trkpt>
      <trkpt lat="46.435965" lon="14.208573">
        <ele>1806.8544</ele>
        <time>2016-08-04T09:52:49Z</time>
      </trkpt>
      <trkpt lat="46.435936" lon="14.208634">
        <ele>1805.94</ele>
        <time>2016-08-04T09:52:56Z</time>
      </trkpt>
      <trkpt lat="46.435931" lon="14.208642">
        <ele>1805.94</ele>
        <time>2016-08-04T09:52:57Z</time>
      </trkpt>
      <trkpt lat="46.435903" lon="14.208704">
        <ele>1804.7208</ele>
        <time>2016-08-04T09:53:04Z</time>
      </trkpt>
      <trkpt lat="46.435860" lon="14.208731">
        <ele>1803.5016</ele>
        <time>2016-08-04T09:53:11Z</time>
      </trkpt>
      <trkpt lat="46.435858" lon="14.208769">
        <ele>1802.2824</ele>
        <time>2016-08-04T09:53:15Z</time>
      </trkpt>
      <trkpt lat="46.435816" lon="14.208752">
        <ele>1801.368</ele>
        <time>2016-08-04T09:53:23Z</time>
      </trkpt>
      <trkpt lat="46.435802" lon="14.208717">
        <ele>1800.4536</ele>
        <time>2016-08-04T09:53:27Z</time>
      </trkpt>
      <trkpt lat="46.435798" lon="14.208701">
        <ele>1800.1488</ele>
        <time>2016-08-04T09:53:30Z</time>
      </trkpt>
      <trkpt lat="46.435784" lon="14.208656">
        <ele>1798.9296</ele>
        <time>2016-08-04T09:53:37Z</time>
      </trkpt>
      <trkpt lat="46.435765" lon="14.208644">
        <ele>1798.0152</ele>
        <time>2016-08-04T09:53:42Z</time>
      </trkpt>
      <trkpt lat="46.435763" lon="14.208698">
        <ele>1796.796</ele>
        <time>2016-08-04T09:53:50Z</time>
      </trkpt>
      <trkpt lat="46.435754" lon="14.208725">
        <ele>1795.8816</ele>
        <time>2016-08-04T09:53:54Z</time>
      </trkpt>
      <trkpt lat="46.435702" lon="14.208776">
        <ele>1794.6624</ele>
        <time>2016-08-04T09:54:01Z</time>
      </trkpt>
      <trkpt lat="46.435670" lon="14.208789">
        <ele>1793.748</ele>
        <time>2016-08-04T09:54:06Z</time>
      </trkpt>
      <trkpt lat="46.435652" lon="14.208822">
        <ele>1792.5288</ele>
        <time>2016-08-04T09:54:13Z</time>
      </trkpt>
      <trkpt lat="46.435641" lon="14.208844">
        <ele>1791.3096</ele>
        <time>2016-08-04T09:54:17Z</time>
      </trkpt>
      <trkpt lat="46.435623" lon="14.208869">
        <ele>1790.3952</ele>
        <time>2016-08-04T09:54:25Z</time>
      </trkpt>
      <trkpt lat="46.435587" lon="14.208867">
        <ele>1789.4808</ele>
        <time>2016-08-04T09:54:29Z</time>
      </trkpt>
      <trkpt lat="46.435579" lon="14.208828">
        <ele>1788.2616</ele>
        <time>2016-08-04T09:54:36Z</time>
      </trkpt>
      <trkpt lat="46.435570" lon="14.208860">
        <ele>1787.0424</ele>
        <time>2016-08-04T09:54:41Z</time>
      </trkpt>
      <trkpt lat="46.435553" lon="14.208900">
        <ele>1786.128</ele>
        <time>2016-08-04T09:54:47Z</time>
      </trkpt>
      <trkpt lat="46.435543" lon="14.209011">
        <ele>1784.9088</ele>
        <time>2016-08-04T09:54:55Z</time>
      </trkpt>
      <trkpt lat="46.435544" lon="14.209040">
        <ele>1783.6896</ele>
        <time>2016-08-04T09:55:08Z</time>
      </trkpt>
      <trkpt lat="46.435518" lon="14.209125">
        <ele>1782.7752</ele>
        <time>2016-08-04T09:55:15Z</time>
      </trkpt>
      <trkpt lat="46.435505" lon="14.209166">
        <ele>1781.556</ele>
        <time>2016-08-04T09:55:22Z</time>
      </trkpt>
      <trkpt lat="46.435485" lon="14.209190">
        <ele>1780.3368</ele>
        <time>2016-08-04T09:55:26Z</time>
      </trkpt>
      <trkpt lat="46.435500" lon="14.209247">
        <ele>1779.1176</ele>
        <time>2016-08-04T09:55:31Z</time>
      </trkpt>
      <trkpt lat="46.435528" lon="14.209314">
        <ele>1778.2032</ele>
        <time>2016-08-04T09:55:39Z</time>
      </trkpt>
      <trkpt lat="46.435537" lon="14.209329">
        <ele>1777.2888</ele>
        <time>2016-08-04T09:55:46Z</time>
      </trkpt>
      <trkpt lat="46.435504" lon="14.209320">
        <ele>1776.0696</ele>
        <time>2016-08-04T09:55:57Z</time>
      </trkpt>
      <trkpt lat="46.435481" lon="14.209326">
        <ele>1774.8504</ele>
        <time>2016-08-04T09:56:01Z</time>
      </trkpt>
      <trkpt lat="46.435470" lon="14.209310">
        <ele>1773.936</ele>
        <time>2016-08-04T09:56:06Z</time>
      </trkpt>
      <trkpt lat="46.435456" lon="14.209360">
        <ele>1772.7168</ele>
        <time>2016-08-04T09:56:12Z</time>
      </trkpt>
      <trkpt lat="46.435461" lon="14.209378">
        <ele>1772.7168</ele>
        <time>2016-08-04T09:56:13Z</time>
      </trkpt>
      <trkpt lat="46.435476" lon="14.209383">
        <ele>1771.8024</ele>
        <time>2016-08-04T09:56:23Z</time>
      </trkpt>
      <trkpt lat="46.435469" lon="14.209446">
        <ele>1770.5832</ele>
        <time>2016-08-04T09:56:32Z</time>
      </trkpt>
      <trkpt lat="46.435481" lon="14.209444">
        <ele>1769.6688</ele>
        <time>2016-08-04T09:56:36Z</time>
      </trkpt>
      <trkpt lat="46.435475" lon="14.209488">
        <ele>1768.4496</ele>
        <time>2016-08-04T09:56:44Z</time>
      </trkpt>
      <trkpt lat="46.435460" lon="14.209519">
        <ele>1767.5352</ele>
        <time>2016-08-04T09:56:51Z</time>
      </trkpt>
      <trkpt lat="46.435423" lon="14.209525">
        <ele>1766.316</ele>
        <time>2016-08-04T09:56:59Z</time>
      </trkpt>
      <trkpt lat="46.435420" lon="14.209538">
        <ele>1765.4016</ele>
        <time>2016-08-04T09:57:03Z</time>
      </trkpt>
      <trkpt lat="46.435418" lon="14.209540">
        <ele>1765.0968</ele>
        <time>2016-08-04T09:57:05Z</time>
      </trkpt>
      <trkpt lat="46.435403" lon="14.209576">
        <ele>1763.8776</ele>
        <time>2016-08-04T09:57:10Z</time>
      </trkpt>
      <trkpt lat="46.435411" lon="14.209590">
        <ele>1762.6584</ele>
        <time>2016-08-04T09:57:15Z</time>
      </trkpt>
      <trkpt lat="46.435426" lon="14.209592">
        <ele>1761.744</ele>
        <time>2016-08-04T09:57:25Z</time>
      </trkpt>
      <trkpt lat="46.435416" lon="14.209596">
        <ele>1760.8296</ele>
        <time>2016-08-04T09:57:33Z</time>
      </trkpt>
      <trkpt lat="46.435424" lon="14.209659">
        <ele>1759.6104</ele>
        <time>2016-08-04T09:57:40Z</time>
      </trkpt>
      <trkpt lat="46.435437" lon="14.209675">
        <ele>1759.3056</ele>
        <time>2016-08-04T09:57:42Z</time>
      </trkpt>
      <trkpt lat="46.435445" lon="14.209694">
        <ele>1758.696</ele>
        <time>2016-08-04T09:57:45Z</time>
      </trkpt>
      <trkpt lat="46.435460" lon="14.209729">
        <ele>1758.0864</ele>
        <time>2016-08-04T09:57:49Z</time>
      </trkpt>
      <trkpt lat="46.435469" lon="14.209730">
        <ele>1757.4768</ele>
        <time>2016-08-04T09:57:53Z</time>
      </trkpt>
      <trkpt lat="46.435472" lon="14.209734">
        <ele>1757.4768</ele>
        <time>2016-08-04T09:57:53Z</time>
      </trkpt>
      <trkpt lat="46.435477" lon="14.209806">
        <ele>1756.2576</ele>
        <time>2016-08-04T09:58:00Z</time>
      </trkpt>
      <trkpt lat="46.435452" lon="14.209863">
        <ele>1755.3432</ele>
        <time>2016-08-04T09:58:12Z</time>
      </trkpt>
      <trkpt lat="46.435454" lon="14.209893">
        <ele>1754.124</ele>
        <time>2016-08-04T09:58:17Z</time>
      </trkpt>
      <trkpt lat="46.435472" lon="14.209917">
        <ele>1753.5144</ele>
        <time>2016-08-04T09:58:24Z</time>
      </trkpt>
      <trkpt lat="46.435475" lon="14.209920">
        <ele>1753.2096</ele>
        <time>2016-08-04T09:58:26Z</time>
      </trkpt>
      <trkpt lat="46.435488" lon="14.209940">
        <ele>1751.9904</ele>
        <time>2016-08-04T09:58:38Z</time>
      </trkpt>
      <trkpt lat="46.435467" lon="14.209978">
        <ele>1750.7712</ele>
        <time>2016-08-04T09:58:43Z</time>
      </trkpt>
      <trkpt lat="46.435448" lon="14.209996">
        <ele>1749.552</ele>
        <time>2016-08-04T09:58:48Z</time>
      </trkpt>
      <trkpt lat="46.435427" lon="14.209976">
        <ele>1748.6376</ele>
        <time>2016-08-04T09:58:55Z</time>
      </trkpt>
      <trkpt lat="46.435385" lon="14.209954">
        <ele>1747.4184</ele>
        <time>2016-08-04T09:59:01Z</time>
      </trkpt>
      <trkpt lat="46.435340" lon="14.209908">
        <ele>1746.504</ele>
        <time>2016-08-04T09:59:14Z</time>
      </trkpt>
      <trkpt lat="46.435313" lon="14.209924">
        <ele>1744.98</ele>
        <time>2016-08-04T09:59:21Z</time>
      </trkpt>
      <trkpt lat="46.435314" lon="14.209967">
        <ele>1744.0656</ele>
        <time>2016-08-04T09:59:29Z</time>
      </trkpt>
      <trkpt lat="46.435332" lon="14.209987">
        <ele>1743.1512</ele>
        <time>2016-08-04T09:59:33Z</time>
      </trkpt>
      <trkpt lat="46.435367" lon="14.210044">
        <ele>1741.932</ele>
        <time>2016-08-04T09:59:41Z</time>
      </trkpt>
      <trkpt lat="46.435372" lon="14.210106">
        <ele>1740.7128</ele>
        <time>2016-08-04T09:59:52Z</time>
      </trkpt>
      <trkpt lat="46.435370" lon="14.210180">
        <ele>1739.7984</ele>
        <time>2016-08-04T10:00:00Z</time>
      </trkpt>
      <trkpt lat="46.435373" lon="14.210234">
        <ele>1738.5792</ele>
        <time>2016-08-04T10:00:08Z</time>
      </trkpt>
      <trkpt lat="46.435370" lon="14.210294">
        <ele>1737.6648</ele>
        <time>2016-08-04T10:00:16Z</time>
      </trkpt>
      <trkpt lat="46.435364" lon="14.210327">
        <ele>1736.7504</ele>
        <time>2016-08-04T10:00:23Z</time>
      </trkpt>
      <trkpt lat="46.435354" lon="14.210363">
        <ele>1735.5312</ele>
        <time>2016-08-04T10:00:27Z</time>
      </trkpt>
      <trkpt lat="46.435362" lon="14.210419">
        <ele>1734.6168</ele>
        <time>2016-08-04T10:00:31Z</time>
      </trkpt>
      <trkpt lat="46.435365" lon="14.210475">
        <ele>1733.3976</ele>
        <time>2016-08-04T10:00:36Z</time>
      </trkpt>
      <trkpt lat="46.435356" lon="14.210519">
        <ele>1732.4832</ele>
        <time>2016-08-04T10:00:41Z</time>
      </trkpt>
      <trkpt lat="46.435339" lon="14.210566">
        <ele>1731.264</ele>
        <time>2016-08-04T10:00:46Z</time>
      </trkpt>
      <trkpt lat="46.435345" lon="14.210559">
        <ele>1730.3496</ele>
        <time>2016-08-04T10:00:50Z</time>
      </trkpt>
      <trkpt lat="46.435329" lon="14.210518">
        <ele>1729.1304</ele>
        <time>2016-08-04T10:00:54Z</time>
      </trkpt>
      <trkpt lat="46.435278" lon="14.210461">
        <ele>1728.216</ele>
        <time>2016-08-04T10:00:59Z</time>
      </trkpt>
      <trkpt lat="46.435250" lon="14.210426">
        <ele>1727.3016</ele>
        <time>2016-08-04T10:01:03Z</time>
      </trkpt>
      <trkpt lat="46.435232" lon="14.210411">
        <ele>1726.9968</ele>
        <time>2016-08-04T10:01:06Z</time>
      </trkpt>
      <trkpt lat="46.435213" lon="14.210393">
        <ele>1726.692</ele>
        <time>2016-08-04T10:01:08Z</time>
      </trkpt>
      <trkpt lat="46.435196" lon="14.210382">
        <ele>1725.7776</ele>
        <time>2016-08-04T10:01:10Z</time>
      </trkpt>
      <trkpt lat="46.435186" lon="14.210372">
        <ele>1725.4728</ele>
        <time>2016-08-04T10:01:12Z</time>
      </trkpt>
      <trkpt lat="46.435183" lon="14.210369">
        <ele>1724.5584</ele>
        <time>2016-08-04T10:01:16Z</time>
      </trkpt>
      <trkpt lat="46.435192" lon="14.210457">
        <ele>1723.644</ele>
        <time>2016-08-04T10:01:30Z</time>
      </trkpt>
      <trkpt lat="46.435190" lon="14.210520">
        <ele>1722.4248</ele>
        <time>2016-08-04T10:01:37Z</time>
      </trkpt>
      <trkpt lat="46.435151" lon="14.210579">
        <ele>1721.2056</ele>
        <time>2016-08-04T10:01:44Z</time>
      </trkpt>
      <trkpt lat="46.435132" lon="14.210607">
        <ele>1720.2912</ele>
        <time>2016-08-04T10:01:48Z</time>
      </trkpt>
      <trkpt lat="46.435122" lon="14.210627">
        <ele>1719.072</ele>
        <time>2016-08-04T10:01:53Z</time>
      </trkpt>
      <trkpt lat="46.435106" lon="14.210630">
        <ele>1717.8528</ele>
        <time>2016-08-04T10:02:00Z</time>
      </trkpt>
      <trkpt lat="46.435099" lon="14.210688">
        <ele>1716.9384</ele>
        <time>2016-08-04T10:02:06Z</time>
      </trkpt>
      <trkpt lat="46.435097" lon="14.210718">
        <ele>1716.6336</ele>
        <time>2016-08-04T10:02:07Z</time>
      </trkpt>
      <trkpt lat="46.435100" lon="14.210732">
        <ele>1716.3288</ele>
        <time>2016-08-04T10:02:08Z</time>
      </trkpt>
      <trkpt lat="46.435095" lon="14.210764">
        <ele>1715.7192</ele>
        <time>2016-08-04T10:02:11Z</time>
      </trkpt>
      <trkpt lat="46.435090" lon="14.210837">
        <ele>1714.8048</ele>
        <time>2016-08-04T10:02:19Z</time>
      </trkpt>
      <trkpt lat="46.435074" lon="14.210843">
        <ele>1713.8904</ele>
        <time>2016-08-04T10:02:22Z</time>
      </trkpt>
      <trkpt lat="46.435058" lon="14.210881">
        <ele>1712.6712</ele>
        <time>2016-08-04T10:02:30Z</time>
      </trkpt>
      <trkpt lat="46.435035" lon="14.210891">
        <ele>1711.452</ele>
        <time>2016-08-04T10:02:34Z</time>
      </trkpt>
      <trkpt lat="46.435025" lon="14.210910">
        <ele>1710.5376</ele>
        <time>2016-08-04T10:02:38Z</time>
      </trkpt>
      <trkpt lat="46.435005" lon="14.210993">
        <ele>1709.3184</ele>
        <time>2016-08-04T10:02:46Z</time>
      </trkpt>
      <trkpt lat="46.435010" lon="14.211021">
        <ele>1708.7088</ele>
        <time>2016-08-04T10:02:47Z</time>
      </trkpt>
      <trkpt lat="46.435013" lon="14.211042">
        <ele>1708.0992</ele>
        <time>2016-08-04T10:02:50Z</time>
      </trkpt>
      <trkpt lat="46.435009" lon="14.211063">
        <ele>1707.4896</ele>
        <time>2016-08-04T10:02:53Z</time>
      </trkpt>
      <trkpt lat="46.435018" lon="14.211078">
        <ele>1707.1848</ele>
        <time>2016-08-04T10:02:56Z</time>
      </trkpt>
      <trkpt lat="46.435026" lon="14.211107">
        <ele>1705.9656</ele>
        <time>2016-08-04T10:03:01Z</time>
      </trkpt>
      <trkpt lat="46.435034" lon="14.211206">
        <ele>1704.7464</ele>
        <time>2016-08-04T10:03:09Z</time>
      </trkpt>
      <trkpt lat="46.435051" lon="14.211246">
        <ele>1704.1368</ele>
        <time>2016-08-04T10:03:21Z</time>
      </trkpt>
      <trkpt lat="46.435056" lon="14.211377">
        <ele>1703.832</ele>
        <time>2016-08-04T10:03:27Z</time>
      </trkpt>
      <trkpt lat="46.435059" lon="14.211380">
        <ele>1703.5272</ele>
        <time>2016-08-04T10:03:28Z</time>
      </trkpt>
      <trkpt lat="46.435080" lon="14.211374">
        <ele>1703.2224</ele>
        <time>2016-08-04T10:03:31Z</time>
      </trkpt>
      <trkpt lat="46.435096" lon="14.211398">
        <ele>1702.308</ele>
        <time>2016-08-04T10:03:35Z</time>
      </trkpt>
      <trkpt lat="46.435061" lon="14.211409">
        <ele>1701.6984</ele>
        <time>2016-08-04T10:03:37Z</time>
      </trkpt>
      <trkpt lat="46.435058" lon="14.211403">
        <ele>1701.3936</ele>
        <time>2016-08-04T10:03:40Z</time>
      </trkpt>
      <trkpt lat="46.435059" lon="14.211425">
        <ele>1701.0888</ele>
        <time>2016-08-04T10:03:43Z</time>
      </trkpt>
      <trkpt lat="46.435063" lon="14.211450">
        <ele>1700.1744</ele>
        <time>2016-08-04T10:03:45Z</time>
      </trkpt>
      <trkpt lat="46.435069" lon="14.211492">
        <ele>1699.8696</ele>
        <time>2016-08-04T10:03:48Z</time>
      </trkpt>
      <trkpt lat="46.435075" lon="14.211521">
        <ele>1699.26</ele>
        <time>2016-08-04T10:03:52Z</time>
      </trkpt>
      <trkpt lat="46.435084" lon="14.211585">
        <ele>1698.3456</ele>
        <time>2016-08-04T10:03:56Z</time>
      </trkpt>
      <trkpt lat="46.435088" lon="14.211625">
        <ele>1698.0408</ele>
        <time>2016-08-04T10:03:59Z</time>
      </trkpt>
      <trkpt lat="46.435107" lon="14.211718">
        <ele>1697.1264</ele>
        <time>2016-08-04T10:04:07Z</time>
      </trkpt>
      <trkpt lat="46.435123" lon="14.211778">
        <ele>1695.9072</ele>
        <time>2016-08-04T10:04:12Z</time>
      </trkpt>
      <trkpt lat="46.435171" lon="14.211913">
        <ele>1695.6024</ele>
        <time>2016-08-04T10:04:23Z</time>
      </trkpt>
      <trkpt lat="46.435185" lon="14.211979">
        <ele>1696.5168</ele>
        <time>2016-08-04T10:04:30Z</time>
      </trkpt>
      <trkpt lat="46.435190" lon="14.211998">
        <ele>1697.1264</ele>
        <time>2016-08-04T10:04:33Z</time>
      </trkpt>
      <trkpt lat="46.435195" lon="14.212015">
        <ele>1697.4312</ele>
        <time>2016-08-04T10:04:34Z</time>
      </trkpt>
      <trkpt lat="46.435210" lon="14.212060">
        <ele>1698.0408</ele>
        <time>2016-08-04T10:04:39Z</time>
      </trkpt>
      <trkpt lat="46.435200" lon="14.212157">
        <ele>1698.3456</ele>
        <time>2016-08-04T10:04:46Z</time>
      </trkpt>
      <trkpt lat="46.435196" lon="14.212198">
        <ele>1698.3456</ele>
        <time>2016-08-04T10:04:49Z</time>
      </trkpt>
      <trkpt lat="46.435199" lon="14.212229">
        <ele>1698.0408</ele>
        <time>2016-08-04T10:04:52Z</time>
      </trkpt>
      <trkpt lat="46.435223" lon="14.212293">
        <ele>1698.0408</ele>
        <time>2016-08-04T10:04:57Z</time>
      </trkpt>
      <trkpt lat="46.435229" lon="14.212330">
        <ele>1698.0408</ele>
        <time>2016-08-04T10:05:00Z</time>
      </trkpt>
      <trkpt lat="46.435239" lon="14.212346">
        <ele>1698.0408</ele>
        <time>2016-08-04T10:05:01Z</time>
      </trkpt>
      <trkpt lat="46.435275" lon="14.212440">
        <ele>1697.736</ele>
        <time>2016-08-04T10:05:09Z</time>
      </trkpt>
      <trkpt lat="46.435302" lon="14.212504">
        <ele>1697.736</ele>
        <time>2016-08-04T10:05:15Z</time>
      </trkpt>
      <trkpt lat="46.435316" lon="14.212618">
        <ele>1697.1264</ele>
        <time>2016-08-04T10:05:24Z</time>
      </trkpt>
      <trkpt lat="46.435311" lon="14.212648">
        <ele>1696.8216</ele>
        <time>2016-08-04T10:05:25Z</time>
      </trkpt>
      <trkpt lat="46.435316" lon="14.212657">
        <ele>1696.8216</ele>
        <time>2016-08-04T10:05:27Z</time>
      </trkpt>
      <trkpt lat="46.435324" lon="14.212681">
        <ele>1696.5168</ele>
        <time>2016-08-04T10:05:28Z</time>
      </trkpt>
      <trkpt lat="46.435332" lon="14.212726">
        <ele>1695.9072</ele>
        <time>2016-08-04T10:05:32Z</time>
      </trkpt>
      <trkpt lat="46.435329" lon="14.212760">
        <ele>1695.2976</ele>
        <time>2016-08-04T10:05:36Z</time>
      </trkpt>
      <trkpt lat="46.435331" lon="14.212783">
        <ele>1694.688</ele>
        <time>2016-08-04T10:05:40Z</time>
      </trkpt>
      <trkpt lat="46.435328" lon="14.212805">
        <ele>1693.4688</ele>
        <time>2016-08-04T10:05:44Z</time>
      </trkpt>
      <trkpt lat="46.435322" lon="14.212887">
        <ele>1692.2496</ele>
        <time>2016-08-04T10:05:52Z</time>
      </trkpt>
      <trkpt lat="46.435335" lon="14.212904">
        <ele>1692.2496</ele>
        <time>2016-08-04T10:05:55Z</time>
      </trkpt>
      <trkpt lat="46.435391" lon="14.213032">
        <ele>1691.3352</ele>
        <time>2016-08-04T10:06:06Z</time>
      </trkpt>
      <trkpt lat="46.435394" lon="14.213043">
        <ele>1691.3352</ele>
        <time>2016-08-04T10:06:07Z</time>
      </trkpt>
      <trkpt lat="46.435408" lon="14.213081">
        <ele>1690.7256</ele>
        <time>2016-08-04T10:06:10Z</time>
      </trkpt>
      <trkpt lat="46.435412" lon="14.213120">
        <ele>1690.4208</ele>
        <time>2016-08-04T10:06:11Z</time>
      </trkpt>
      <trkpt lat="46.435412" lon="14.213138">
        <ele>1690.116</ele>
        <time>2016-08-04T10:06:13Z</time>
      </trkpt>
      <trkpt lat="46.435371" lon="14.213256">
        <ele>1689.5064</ele>
        <time>2016-08-04T10:06:21Z</time>
      </trkpt>
      <trkpt lat="46.435330" lon="14.213293">
        <ele>1689.5064</ele>
        <time>2016-08-04T10:06:25Z</time>
      </trkpt>
      <trkpt lat="46.435316" lon="14.213311">
        <ele>1689.5064</ele>
        <time>2016-08-04T10:06:26Z</time>
      </trkpt>
      <trkpt lat="46.435301" lon="14.213339">
        <ele>1689.5064</ele>
        <time>2016-08-04T10:06:27Z</time>
      </trkpt>
      <trkpt lat="46.435281" lon="14.213397">
        <ele>1688.8968</ele>
        <time>2016-08-04T10:06:32Z</time>
      </trkpt>
      <trkpt lat="46.435253" lon="14.213500">
        <ele>1687.6776</ele>
        <time>2016-08-04T10:06:40Z</time>
      </trkpt>
      <trkpt lat="46.435231" lon="14.213558">
        <ele>1687.068</ele>
        <time>2016-08-04T10:06:45Z</time>
      </trkpt>
      <trkpt lat="46.435216" lon="14.213606">
        <ele>1686.4584</ele>
        <time>2016-08-04T10:06:49Z</time>
      </trkpt>
      <trkpt lat="46.435232" lon="14.213695">
        <ele>1685.8488</ele>
        <time>2016-08-04T10:06:56Z</time>
      </trkpt>
      <trkpt lat="46.435227" lon="14.213724">
        <ele>1685.544</ele>
        <time>2016-08-04T10:06:57Z</time>
      </trkpt>
      <trkpt lat="46.435219" lon="14.213764">
        <ele>1685.544</ele>
        <time>2016-08-04T10:07:01Z</time>
      </trkpt>
      <trkpt lat="46.435221" lon="14.213799">
        <ele>1685.2392</ele>
        <time>2016-08-04T10:07:04Z</time>
      </trkpt>
      <trkpt lat="46.435226" lon="14.213821">
        <ele>1684.9344</ele>
        <time>2016-08-04T10:07:07Z</time>
      </trkpt>
      <trkpt lat="46.435227" lon="14.213834">
        <ele>1684.6296</ele>
        <time>2016-08-04T10:07:08Z</time>
      </trkpt>
      <trkpt lat="46.435216" lon="14.213849">
        <ele>1684.3248</ele>
        <time>2016-08-04T10:07:09Z</time>
      </trkpt>
      <trkpt lat="46.435213" lon="14.213874">
        <ele>1684.02</ele>
        <time>2016-08-04T10:07:12Z</time>
      </trkpt>
      <trkpt lat="46.435209" lon="14.213887">
        <ele>1683.7152</ele>
        <time>2016-08-04T10:07:15Z</time>
      </trkpt>
      <trkpt lat="46.435211" lon="14.213889">
        <ele>1683.1056</ele>
        <time>2016-08-04T10:07:16Z</time>
      </trkpt>
      <trkpt lat="46.435206" lon="14.213966">
        <ele>1682.496</ele>
        <time>2016-08-04T10:07:23Z</time>
      </trkpt>
      <trkpt lat="46.435209" lon="14.213978">
        <ele>1682.1912</ele>
        <time>2016-08-04T10:07:24Z</time>
      </trkpt>
      <trkpt lat="46.435211" lon="14.213989">
        <ele>1681.8864</ele>
        <time>2016-08-04T10:07:24Z</time>
      </trkpt>
      <trkpt lat="46.435217" lon="14.214003">
        <ele>1681.5816</ele>
        <time>2016-08-04T10:07:27Z</time>
      </trkpt>
      <trkpt lat="46.435220" lon="14.214011">
        <ele>1681.2768</ele>
        <time>2016-08-04T10:07:28Z</time>
      </trkpt>
      <trkpt lat="46.435220" lon="14.214025">
        <ele>1681.2768</ele>
        <time>2016-08-04T10:07:28Z</time>
      </trkpt>
      <trkpt lat="46.435238" lon="14.214083">
        <ele>1680.0576</ele>
        <time>2016-08-04T10:07:34Z</time>
      </trkpt>
      <trkpt lat="46.435240" lon="14.214112">
        <ele>1679.448</ele>
        <time>2016-08-04T10:07:36Z</time>
      </trkpt>
      <trkpt lat="46.435227" lon="14.214125">
        <ele>1678.8384</ele>
        <time>2016-08-04T10:07:39Z</time>
      </trkpt>
      <trkpt lat="46.435222" lon="14.214150">
        <ele>1678.2288</ele>
        <time>2016-08-04T10:07:43Z</time>
      </trkpt>
      <trkpt lat="46.435210" lon="14.214165">
        <ele>1677.924</ele>
        <time>2016-08-04T10:07:46Z</time>
      </trkpt>
      <trkpt lat="46.435186" lon="14.214195">
        <ele>1677.3144</ele>
        <time>2016-08-04T10:07:50Z</time>
      </trkpt>
      <trkpt lat="46.435182" lon="14.214205">
        <ele>1676.7048</ele>
        <time>2016-08-04T10:07:51Z</time>
      </trkpt>
      <trkpt lat="46.435188" lon="14.214247">
        <ele>1675.7904</ele>
        <time>2016-08-04T10:07:54Z</time>
      </trkpt>
      <trkpt lat="46.435189" lon="14.214262">
        <ele>1675.4856</ele>
        <time>2016-08-04T10:07:55Z</time>
      </trkpt>
      <trkpt lat="46.435178" lon="14.214419">
        <ele>1674.2664</ele>
        <time>2016-08-04T10:08:06Z</time>
      </trkpt>
      <trkpt lat="46.435171" lon="14.214476">
        <ele>1674.2664</ele>
        <time>2016-08-04T10:08:11Z</time>
      </trkpt>
      <trkpt lat="46.435170" lon="14.214497">
        <ele>1674.2664</ele>
        <time>2016-08-04T10:08:14Z</time>
      </trkpt>
      <trkpt lat="46.435166" lon="14.214532">
        <ele>1674.2664</ele>
        <time>2016-08-04T10:08:15Z</time>
      </trkpt>
      <trkpt lat="46.435164" lon="14.214567">
        <ele>1674.2664</ele>
        <time>2016-08-04T10:08:18Z</time>
      </trkpt>
      <trkpt lat="46.435184" lon="14.214724">
        <ele>1673.6568</ele>
        <time>2016-08-04T10:08:25Z</time>
      </trkpt>
      <trkpt lat="46.435176" lon="14.214815">
        <ele>1674.2664</ele>
        <time>2016-08-04T10:08:30Z</time>
      </trkpt>
      <trkpt lat="46.435148" lon="14.214908">
        <ele>1674.5712</ele>
        <time>2016-08-04T10:08:38Z</time>
      </trkpt>
      <trkpt lat="46.435139" lon="14.214946">
        <ele>1674.5712</ele>
        <time>2016-08-04T10:08:41Z</time>
      </trkpt>
      <trkpt lat="46.435124" lon="14.214970">
        <ele>1674.876</ele>
        <time>2016-08-04T10:08:44Z</time>
      </trkpt>
      <trkpt lat="46.435116" lon="14.214992">
        <ele>1674.876</ele>
        <time>2016-08-04T10:08:45Z</time>
      </trkpt>
      <trkpt lat="46.435094" lon="14.215067">
        <ele>1675.1808</ele>
        <time>2016-08-04T10:08:52Z</time>
      </trkpt>
      <trkpt lat="46.435077" lon="14.215113">
        <ele>1675.4856</ele>
        <time>2016-08-04T10:08:56Z</time>
      </trkpt>
      <trkpt lat="46.435072" lon="14.215143">
        <ele>1676.0952</ele>
        <time>2016-08-04T10:08:59Z</time>
      </trkpt>
      <trkpt lat="46.435069" lon="14.215175">
        <ele>1676.7048</ele>
        <time>2016-08-04T10:09:01Z</time>
      </trkpt>
      <trkpt lat="46.435065" lon="14.215186">
        <ele>1676.7048</ele>
        <time>2016-08-04T10:09:03Z</time>
      </trkpt>
      <trkpt lat="46.435049" lon="14.215236">
        <ele>1677.3144</ele>
        <time>2016-08-04T10:09:07Z</time>
      </trkpt>
      <trkpt lat="46.435016" lon="14.215354">
        <ele>1676.7048</ele>
        <time>2016-08-04T10:09:14Z</time>
      </trkpt>
      <trkpt lat="46.434979" lon="14.215437">
        <ele>1676.7048</ele>
        <time>2016-08-04T10:09:19Z</time>
      </trkpt>
      <trkpt lat="46.434942" lon="14.215521">
        <ele>1675.4856</ele>
        <time>2016-08-04T10:09:27Z</time>
      </trkpt>
      <trkpt lat="46.434941" lon="14.215572">
        <ele>1674.876</ele>
        <time>2016-08-04T10:09:31Z</time>
      </trkpt>
      <trkpt lat="46.434931" lon="14.215682">
        <ele>1674.2664</ele>
        <time>2016-08-04T10:09:39Z</time>
      </trkpt>
      <trkpt lat="46.434927" lon="14.215716">
        <ele>1673.6568</ele>
        <time>2016-08-04T10:09:41Z</time>
      </trkpt>
      <trkpt lat="46.434926" lon="14.215728">
        <ele>1673.352</ele>
        <time>2016-08-04T10:09:42Z</time>
      </trkpt>
      <trkpt lat="46.434923" lon="14.215739">
        <ele>1673.352</ele>
        <time>2016-08-04T10:09:43Z</time>
      </trkpt>
      <trkpt lat="46.434902" lon="14.215770">
        <ele>1672.7424</ele>
        <time>2016-08-04T10:09:46Z</time>
      </trkpt>
      <trkpt lat="46.434882" lon="14.215824">
        <ele>1672.4376</ele>
        <time>2016-08-04T10:09:50Z</time>
      </trkpt>
      <trkpt lat="46.434873" lon="14.215835">
        <ele>1672.1328</ele>
        <time>2016-08-04T10:09:50Z</time>
      </trkpt>
      <trkpt lat="46.434853" lon="14.215849">
        <ele>1671.828</ele>
        <time>2016-08-04T10:09:54Z</time>
      </trkpt>
      <trkpt lat="46.434837" lon="14.215865">
        <ele>1671.2184</ele>
        <time>2016-08-04T10:09:57Z</time>
      </trkpt>
      <trkpt lat="46.434817" lon="14.215889">
        <ele>1670.9136</ele>
        <time>2016-08-04T10:09:59Z</time>
      </trkpt>
      <trkpt lat="46.434792" lon="14.215939">
        <ele>1670.304</ele>
        <time>2016-08-04T10:10:05Z</time>
      </trkpt>
      <trkpt lat="46.434755" lon="14.215979">
        <ele>1670.304</ele>
        <time>2016-08-04T10:10:10Z</time>
      </trkpt>
      <trkpt lat="46.434741" lon="14.215974">
        <ele>1670.304</ele>
        <time>2016-08-04T10:10:13Z</time>
      </trkpt>
      <trkpt lat="46.434726" lon="14.215979">
        <ele>1670.304</ele>
        <time>2016-08-04T10:10:14Z</time>
      </trkpt>
      <trkpt lat="46.434715" lon="14.215991">
        <ele>1669.9992</ele>
        <time>2016-08-04T10:10:16Z</time>
      </trkpt>
      <trkpt lat="46.434708" lon="14.216005">
        <ele>1669.3896</ele>
        <time>2016-08-04T10:10:17Z</time>
      </trkpt>
      <trkpt lat="46.434700" lon="14.216020">
        <ele>1669.0848</ele>
        <time>2016-08-04T10:10:20Z</time>
      </trkpt>
      <trkpt lat="46.434695" lon="14.216033">
        <ele>1668.78</ele>
        <time>2016-08-04T10:10:21Z</time>
      </trkpt>
      <trkpt lat="46.434676" lon="14.216090">
        <ele>1667.8656</ele>
        <time>2016-08-04T10:10:25Z</time>
      </trkpt>
      <trkpt lat="46.434673" lon="14.216149">
        <ele>1667.256</ele>
        <time>2016-08-04T10:10:29Z</time>
      </trkpt>
      <trkpt lat="46.434676" lon="14.216154">
        <ele>1667.256</ele>
        <time>2016-08-04T10:10:30Z</time>
      </trkpt>
      <trkpt lat="46.434644" lon="14.216242">
        <ele>1666.9512</ele>
        <time>2016-08-04T10:10:43Z</time>
      </trkpt>
      <trkpt lat="46.434605" lon="14.216373">
        <ele>1665.732</ele>
        <time>2016-08-04T10:10:49Z</time>
      </trkpt>
      <trkpt lat="46.434629" lon="14.216492">
        <ele>1664.5128</ele>
        <time>2016-08-04T10:11:00Z</time>
      </trkpt>
      <trkpt lat="46.434657" lon="14.216529">
        <ele>1664.5128</ele>
        <time>2016-08-04T10:11:04Z</time>
      </trkpt>
      <trkpt lat="46.434660" lon="14.216573">
        <ele>1663.2936</ele>
        <time>2016-08-04T10:11:12Z</time>
      </trkpt>
      <trkpt lat="46.434652" lon="14.216616">
        <ele>1662.3792</ele>
        <time>2016-08-04T10:11:16Z</time>
      </trkpt>
      <trkpt lat="46.434694" lon="14.216664">
        <ele>1661.4648</ele>
        <time>2016-08-04T10:11:24Z</time>
      </trkpt>
      <trkpt lat="46.434710" lon="14.216699">
        <ele>1660.2456</ele>
        <time>2016-08-04T10:11:29Z</time>
      </trkpt>
      <trkpt lat="46.434728" lon="14.216750">
        <ele>1659.0264</ele>
        <time>2016-08-04T10:11:34Z</time>
      </trkpt>
      <trkpt lat="46.434764" lon="14.216872">
        <ele>1658.112</ele>
        <time>2016-08-04T10:11:42Z</time>
      </trkpt>
      <trkpt lat="46.434797" lon="14.216953">
        <ele>1656.8928</ele>
        <time>2016-08-04T10:12:02Z</time>
      </trkpt>
      <trkpt lat="46.434799" lon="14.216982">
        <ele>1656.8928</ele>
        <time>2016-08-04T10:12:05Z</time>
      </trkpt>
      <trkpt lat="46.434806" lon="14.217008">
        <ele>1656.8928</ele>
        <time>2016-08-04T10:12:06Z</time>
      </trkpt>
      <trkpt lat="46.434830" lon="14.217061">
        <ele>1656.588</ele>
        <time>2016-08-04T10:12:12Z</time>
      </trkpt>
      <trkpt lat="46.434832" lon="14.217077">
        <ele>1656.2832</ele>
        <time>2016-08-04T10:12:13Z</time>
      </trkpt>
      <trkpt lat="46.434831" lon="14.217087">
        <ele>1656.2832</ele>
        <time>2016-08-04T10:12:14Z</time>
      </trkpt>
      <trkpt lat="46.434834" lon="14.217099">
        <ele>1656.2832</ele>
        <time>2016-08-04T10:12:16Z</time>
      </trkpt>
      <trkpt lat="46.434832" lon="14.217110">
        <ele>1655.9784</ele>
        <time>2016-08-04T10:12:17Z</time>
      </trkpt>
      <trkpt lat="46.434831" lon="14.217118">
        <ele>1655.6736</ele>
        <time>2016-08-04T10:12:17Z</time>
      </trkpt>
      <trkpt lat="46.434827" lon="14.217143">
        <ele>1655.064</ele>
        <time>2016-08-04T10:12:20Z</time>
      </trkpt>
      <trkpt lat="46.434822" lon="14.217171">
        <ele>1654.7592</ele>
        <time>2016-08-04T10:12:21Z</time>
      </trkpt>
      <trkpt lat="46.434820" lon="14.217216">
        <ele>1654.1496</ele>
        <time>2016-08-04T10:12:25Z</time>
      </trkpt>
      <trkpt lat="46.434805" lon="14.217241">
        <ele>1653.8448</ele>
        <time>2016-08-04T10:12:27Z</time>
      </trkpt>
      <trkpt lat="46.434778" lon="14.217289">
        <ele>1652.9304</ele>
        <time>2016-08-04T10:12:31Z</time>
      </trkpt>
      <trkpt lat="46.434765" lon="14.217317">
        <ele>1652.6256</ele>
        <time>2016-08-04T10:12:33Z</time>
      </trkpt>
      <trkpt lat="46.434758" lon="14.217322">
        <ele>1652.6256</ele>
        <time>2016-08-04T10:12:35Z</time>
      </trkpt>
      <trkpt lat="46.434743" lon="14.217331">
        <ele>1652.6256</ele>
        <time>2016-08-04T10:12:37Z</time>
      </trkpt>
      <trkpt lat="46.434731" lon="14.217324">
        <ele>1652.3208</ele>
        <time>2016-08-04T10:12:41Z</time>
      </trkpt>
      <trkpt lat="46.434722" lon="14.217375">
        <ele>1651.7112</ele>
        <time>2016-08-04T10:12:45Z</time>
      </trkpt>
      <trkpt lat="46.434714" lon="14.217388">
        <ele>1651.7112</ele>
        <time>2016-08-04T10:12:47Z</time>
      </trkpt>
      <trkpt lat="46.434714" lon="14.217415">
        <ele>1651.4064</ele>
        <time>2016-08-04T10:12:50Z</time>
      </trkpt>
      <trkpt lat="46.434688" lon="14.217389">
        <ele>1651.1016</ele>
        <time>2016-08-04T10:12:59Z</time>
      </trkpt>
      <trkpt lat="46.434637" lon="14.217367">
        <ele>1651.1016</ele>
        <time>2016-08-04T10:13:08Z</time>
      </trkpt>
      <trkpt lat="46.434632" lon="14.217375">
        <ele>1651.1016</ele>
        <time>2016-08-04T10:13:11Z</time>
      </trkpt>
      <trkpt lat="46.434609" lon="14.217392">
        <ele>1651.1016</ele>
        <time>2016-08-04T10:13:15Z</time>
      </trkpt>
      <trkpt lat="46.434655" lon="14.217489">
        <ele>1650.7968</ele>
        <time>2016-08-04T10:13:34Z</time>
      </trkpt>
      <trkpt lat="46.434708" lon="14.217525">
        <ele>1650.492</ele>
        <time>2016-08-04T10:13:37Z</time>
      </trkpt>
      <trkpt lat="46.434719" lon="14.217566">
        <ele>1650.492</ele>
        <time>2016-08-04T10:13:39Z</time>
      </trkpt>
      <trkpt lat="46.434727" lon="14.217582">
        <ele>1650.492</ele>
        <time>2016-08-04T10:13:42Z</time>
      </trkpt>
      <trkpt lat="46.434714" lon="14.217628">
        <ele>1650.1872</ele>
        <time>2016-08-04T10:13:46Z</time>
      </trkpt>
      <trkpt lat="46.434722" lon="14.217656">
        <ele>1649.5776</ele>
        <time>2016-08-04T10:13:53Z</time>
      </trkpt>
      <trkpt lat="46.434706" lon="14.217671">
        <ele>1649.2728</ele>
        <time>2016-08-04T10:13:57Z</time>
      </trkpt>
      <trkpt lat="46.434694" lon="14.217732">
        <ele>1648.968</ele>
        <time>2016-08-04T10:14:02Z</time>
      </trkpt>
      <trkpt lat="46.434698" lon="14.217740">
        <ele>1648.968</ele>
        <time>2016-08-04T10:14:04Z</time>
      </trkpt>
      <trkpt lat="46.434704" lon="14.217757">
        <ele>1648.968</ele>
        <time>2016-08-04T10:14:05Z</time>
      </trkpt>
      <trkpt lat="46.434720" lon="14.217823">
        <ele>1648.3584</ele>
        <time>2016-08-04T10:14:16Z</time>
      </trkpt>
      <trkpt lat="46.434748" lon="14.217944">
        <ele>1647.1392</ele>
        <time>2016-08-04T10:14:25Z</time>
      </trkpt>
      <trkpt lat="46.434750" lon="14.218028">
        <ele>1646.2248</ele>
        <time>2016-08-04T10:14:29Z</time>
      </trkpt>
      <trkpt lat="46.434753" lon="14.218041">
        <ele>1646.2248</ele>
        <time>2016-08-04T10:14:31Z</time>
      </trkpt>
      <trkpt lat="46.434784" lon="14.218114">
        <ele>1646.5296</ele>
        <time>2016-08-04T10:14:36Z</time>
      </trkpt>
      <trkpt lat="46.434790" lon="14.218135">
        <ele>1646.5296</ele>
        <time>2016-08-04T10:14:40Z</time>
      </trkpt>
      <trkpt lat="46.434797" lon="14.218176">
        <ele>1646.2248</ele>
        <time>2016-08-04T10:14:43Z</time>
      </trkpt>
      <trkpt lat="46.434803" lon="14.218202">
        <ele>1645.92</ele>
        <time>2016-08-04T10:14:46Z</time>
      </trkpt>
      <trkpt lat="46.434810" lon="14.218232">
        <ele>1645.92</ele>
        <time>2016-08-04T10:14:47Z</time>
      </trkpt>
      <trkpt lat="46.434812" lon="14.218268">
        <ele>1645.3104</ele>
        <time>2016-08-04T10:14:51Z</time>
      </trkpt>
      <trkpt lat="46.434813" lon="14.218303">
        <ele>1645.0056</ele>
        <time>2016-08-04T10:14:52Z</time>
      </trkpt>
      <trkpt lat="46.434830" lon="14.218344">
        <ele>1644.7008</ele>
        <time>2016-08-04T10:14:55Z</time>
      </trkpt>
      <trkpt lat="46.434831" lon="14.218376">
        <ele>1644.0912</ele>
        <time>2016-08-04T10:14:58Z</time>
      </trkpt>
      <trkpt lat="46.434844" lon="14.218410">
        <ele>1643.4816</ele>
        <time>2016-08-04T10:15:02Z</time>
      </trkpt>
      <trkpt lat="46.434875" lon="14.218426">
        <ele>1643.4816</ele>
        <time>2016-08-04T10:15:06Z</time>
      </trkpt>
      <trkpt lat="46.434875" lon="14.218441">
        <ele>1643.4816</ele>
        <time>2016-08-04T10:15:07Z</time>
      </trkpt>
      <trkpt lat="46.434879" lon="14.218526">
        <ele>1644.0912</ele>
        <time>2016-08-04T10:15:11Z</time>
      </trkpt>
      <trkpt lat="46.434881" lon="14.218603">
        <ele>1643.7864</ele>
        <time>2016-08-04T10:15:17Z</time>
      </trkpt>
      <trkpt lat="46.434882" lon="14.218618">
        <ele>1643.7864</ele>
        <time>2016-08-04T10:15:18Z</time>
      </trkpt>
      <trkpt lat="46.434876" lon="14.218648">
        <ele>1643.7864</ele>
        <time>2016-08-04T10:15:19Z</time>
      </trkpt>
      <trkpt lat="46.434864" lon="14.218746">
        <ele>1642.872</ele>
        <time>2016-08-04T10:15:27Z</time>
      </trkpt>
      <trkpt lat="46.434868" lon="14.218798">
        <ele>1642.2624</ele>
        <time>2016-08-04T10:15:32Z</time>
      </trkpt>
      <trkpt lat="46.434873" lon="14.218834">
        <ele>1641.9576</ele>
        <time>2016-08-04T10:15:34Z</time>
      </trkpt>
      <trkpt lat="46.434881" lon="14.218861">
        <ele>1641.6528</ele>
        <time>2016-08-04T10:15:36Z</time>
      </trkpt>
      <trkpt lat="46.434884" lon="14.218884">
        <ele>1641.6528</ele>
        <time>2016-08-04T10:15:37Z</time>
      </trkpt>
      <trkpt lat="46.434888" lon="14.218916">
        <ele>1641.348</ele>
        <time>2016-08-04T10:15:41Z</time>
      </trkpt>
      <trkpt lat="46.434874" lon="14.218946">
        <ele>1641.0432</ele>
        <time>2016-08-04T10:15:44Z</time>
      </trkpt>
      <trkpt lat="46.434864" lon="14.218957">
        <ele>1640.7384</ele>
        <time>2016-08-04T10:15:45Z</time>
      </trkpt>
      <trkpt lat="46.434865" lon="14.218987">
        <ele>1640.1288</ele>
        <time>2016-08-04T10:15:48Z</time>
      </trkpt>
      <trkpt lat="46.434877" lon="14.219052">
        <ele>1639.5192</ele>
        <time>2016-08-04T10:15:53Z</time>
      </trkpt>
      <trkpt lat="46.434885" lon="14.219102">
        <ele>1639.5192</ele>
        <time>2016-08-04T10:15:56Z</time>
      </trkpt>
      <trkpt lat="46.434883" lon="14.219134">
        <ele>1639.5192</ele>
        <time>2016-08-04T10:15:57Z</time>
      </trkpt>
      <trkpt lat="46.434884" lon="14.219179">
        <ele>1638.3</ele>
        <time>2016-08-04T10:16:01Z</time>
      </trkpt>
      <trkpt lat="46.434884" lon="14.219191">
        <ele>1638.3</ele>
        <time>2016-08-04T10:16:01Z</time>
      </trkpt>
      <trkpt lat="46.434889" lon="14.219286">
        <ele>1637.3856</ele>
        <time>2016-08-04T10:16:08Z</time>
      </trkpt>
      <trkpt lat="46.434902" lon="14.219345">
        <ele>1636.776</ele>
        <time>2016-08-04T10:16:12Z</time>
      </trkpt>
      <trkpt lat="46.434911" lon="14.219409">
        <ele>1636.1664</ele>
        <time>2016-08-04T10:16:16Z</time>
      </trkpt>
      <trkpt lat="46.434923" lon="14.219482">
        <ele>1635.5568</ele>
        <time>2016-08-04T10:16:21Z</time>
      </trkpt>
      <trkpt lat="46.434927" lon="14.219519">
        <ele>1635.252</ele>
        <time>2016-08-04T10:16:24Z</time>
      </trkpt>
      <trkpt lat="46.434929" lon="14.219530">
        <ele>1635.252</ele>
        <time>2016-08-04T10:16:26Z</time>
      </trkpt>
      <trkpt lat="46.434942" lon="14.219572">
        <ele>1635.252</ele>
        <time>2016-08-04T10:16:30Z</time>
      </trkpt>
      <trkpt lat="46.434951" lon="14.219599">
        <ele>1635.8616</ele>
        <time>2016-08-04T10:16:32Z</time>
      </trkpt>
      <trkpt lat="46.434961" lon="14.219658">
        <ele>1635.5568</ele>
        <time>2016-08-04T10:16:36Z</time>
      </trkpt>
      <trkpt lat="46.434952" lon="14.219698">
        <ele>1635.252</ele>
        <time>2016-08-04T10:16:40Z</time>
      </trkpt>
      <trkpt lat="46.434943" lon="14.219724">
        <ele>1635.252</ele>
        <time>2016-08-04T10:16:43Z</time>
      </trkpt>
      <trkpt lat="46.434950" lon="14.219798">
        <ele>1634.6424</ele>
        <time>2016-08-04T10:16:53Z</time>
      </trkpt>
      <trkpt lat="46.434953" lon="14.219811">
        <ele>1634.3376</ele>
        <time>2016-08-04T10:16:55Z</time>
      </trkpt>
      <trkpt lat="46.434956" lon="14.219902">
        <ele>1633.1184</ele>
        <time>2016-08-04T10:17:03Z</time>
      </trkpt>
      <trkpt lat="46.434928" lon="14.219967">
        <ele>1631.8992</ele>
        <time>2016-08-04T10:17:18Z</time>
      </trkpt>
      <trkpt lat="46.434901" lon="14.220036">
        <ele>1630.68</ele>
        <time>2016-08-04T10:17:29Z</time>
      </trkpt>
      <trkpt lat="46.434888" lon="14.220068">
        <ele>1629.4608</ele>
        <time>2016-08-04T10:17:34Z</time>
      </trkpt>
      <trkpt lat="46.434873" lon="14.220100">
        <ele>1628.5464</ele>
        <time>2016-08-04T10:17:38Z</time>
      </trkpt>
      <trkpt lat="46.434868" lon="14.220206">
        <ele>1627.3272</ele>
        <time>2016-08-04T10:17:49Z</time>
      </trkpt>
      <trkpt lat="46.434859" lon="14.220262">
        <ele>1626.108</ele>
        <time>2016-08-04T10:17:56Z</time>
      </trkpt>
      <trkpt lat="46.434859" lon="14.220288">
        <ele>1625.4984</ele>
        <time>2016-08-04T10:17:59Z</time>
      </trkpt>
      <trkpt lat="46.434864" lon="14.220311">
        <ele>1625.1936</ele>
        <time>2016-08-04T10:18:00Z</time>
      </trkpt>
      <trkpt lat="46.434838" lon="14.220401">
        <ele>1624.8888</ele>
        <time>2016-08-04T10:18:11Z</time>
      </trkpt>
      <trkpt lat="46.434809" lon="14.220565">
        <ele>1624.2792</ele>
        <time>2016-08-04T10:18:31Z</time>
      </trkpt>
      <trkpt lat="46.434821" lon="14.220592">
        <ele>1623.9744</ele>
        <time>2016-08-04T10:18:34Z</time>
      </trkpt>
      <trkpt lat="46.434837" lon="14.220642">
        <ele>1623.06</ele>
        <time>2016-08-04T10:18:39Z</time>
      </trkpt>
      <trkpt lat="46.434877" lon="14.220651">
        <ele>1622.1456</ele>
        <time>2016-08-04T10:18:46Z</time>
      </trkpt>
      <trkpt lat="46.434900" lon="14.220694">
        <ele>1620.9264</ele>
        <time>2016-08-04T10:18:50Z</time>
      </trkpt>
      <trkpt lat="46.434887" lon="14.220809">
        <ele>1620.012</ele>
        <time>2016-08-04T10:19:01Z</time>
      </trkpt>
      <trkpt lat="46.434873" lon="14.220850">
        <ele>1619.0976</ele>
        <time>2016-08-04T10:19:03Z</time>
      </trkpt>
      <trkpt lat="46.434880" lon="14.220880">
        <ele>1618.7928</ele>
        <time>2016-08-04T10:19:06Z</time>
      </trkpt>
      <trkpt lat="46.434888" lon="14.220908">
        <ele>1618.488</ele>
        <time>2016-08-04T10:19:08Z</time>
      </trkpt>
      <trkpt lat="46.434911" lon="14.220944">
        <ele>1617.8784</ele>
        <time>2016-08-04T10:19:12Z</time>
      </trkpt>
      <trkpt lat="46.434904" lon="14.220970">
        <ele>1617.5736</ele>
        <time>2016-08-04T10:19:13Z</time>
      </trkpt>
      <trkpt lat="46.434869" lon="14.221007">
        <ele>1616.964</ele>
        <time>2016-08-04T10:19:17Z</time>
      </trkpt>
      <trkpt lat="46.434851" lon="14.221026">
        <ele>1616.6592</ele>
        <time>2016-08-04T10:19:21Z</time>
      </trkpt>
      <trkpt lat="46.434850" lon="14.221033">
        <ele>1616.3544</ele>
        <time>2016-08-04T10:19:22Z</time>
      </trkpt>
      <trkpt lat="46.434841" lon="14.221081">
        <ele>1615.44</ele>
        <time>2016-08-04T10:19:28Z</time>
      </trkpt>
      <trkpt lat="46.434829" lon="14.221121">
        <ele>1615.1352</ele>
        <time>2016-08-04T10:19:30Z</time>
      </trkpt>
      <trkpt lat="46.434815" lon="14.221179">
        <ele>1614.5256</ele>
        <time>2016-08-04T10:19:36Z</time>
      </trkpt>
      <trkpt lat="46.434816" lon="14.221190">
        <ele>1613.916</ele>
        <time>2016-08-04T10:19:37Z</time>
      </trkpt>
      <trkpt lat="46.434816" lon="14.221216">
        <ele>1613.3064</ele>
        <time>2016-08-04T10:19:40Z</time>
      </trkpt>
      <trkpt lat="46.434828" lon="14.221262">
        <ele>1612.0872</ele>
        <time>2016-08-04T10:19:45Z</time>
      </trkpt>
      <trkpt lat="46.434836" lon="14.221350">
        <ele>1611.1728</ele>
        <time>2016-08-04T10:19:55Z</time>
      </trkpt>
      <trkpt lat="46.434841" lon="14.221447">
        <ele>1609.9536</ele>
        <time>2016-08-04T10:20:02Z</time>
      </trkpt>
      <trkpt lat="46.434851" lon="14.221554">
        <ele>1609.0392</ele>
        <time>2016-08-04T10:20:08Z</time>
      </trkpt>
      <trkpt lat="46.434850" lon="14.221644">
        <ele>1608.7344</ele>
        <time>2016-08-04T10:20:15Z</time>
      </trkpt>
      <trkpt lat="46.434839" lon="14.221685">
        <ele>1608.4296</ele>
        <time>2016-08-04T10:20:19Z</time>
      </trkpt>
      <trkpt lat="46.434843" lon="14.221710">
        <ele>1608.1248</ele>
        <time>2016-08-04T10:20:23Z</time>
      </trkpt>
      <trkpt lat="46.434852" lon="14.221738">
        <ele>1608.1248</ele>
        <time>2016-08-04T10:20:24Z</time>
      </trkpt>
      <trkpt lat="46.434859" lon="14.221763">
        <ele>1608.1248</ele>
        <time>2016-08-04T10:20:27Z</time>
      </trkpt>
      <trkpt lat="46.434857" lon="14.221791">
        <ele>1608.1248</ele>
        <time>2016-08-04T10:20:29Z</time>
      </trkpt>
      <trkpt lat="46.434858" lon="14.221807">
        <ele>1608.1248</ele>
        <time>2016-08-04T10:20:30Z</time>
      </trkpt>
      <trkpt lat="46.434860" lon="14.221898">
        <ele>1607.82</ele>
        <time>2016-08-04T10:20:35Z</time>
      </trkpt>
      <trkpt lat="46.434873" lon="14.221956">
        <ele>1608.1248</ele>
        <time>2016-08-04T10:20:42Z</time>
      </trkpt>
      <trkpt lat="46.434882" lon="14.221993">
        <ele>1607.82</ele>
        <time>2016-08-04T10:20:45Z</time>
      </trkpt>
      <trkpt lat="46.434887" lon="14.222022">
        <ele>1607.5152</ele>
        <time>2016-08-04T10:20:46Z</time>
      </trkpt>
      <trkpt lat="46.434888" lon="14.222063">
        <ele>1607.5152</ele>
        <time>2016-08-04T10:20:50Z</time>
      </trkpt>
      <trkpt lat="46.434881" lon="14.222079">
        <ele>1607.82</ele>
        <time>2016-08-04T10:20:54Z</time>
      </trkpt>
      <trkpt lat="46.434887" lon="14.222231">
        <ele>1607.82</ele>
        <time>2016-08-04T10:21:06Z</time>
      </trkpt>
      <trkpt lat="46.434881" lon="14.222283">
        <ele>1607.2104</ele>
        <time>2016-08-04T10:21:10Z</time>
      </trkpt>
      <trkpt lat="46.434888" lon="14.222340">
        <ele>1607.2104</ele>
        <time>2016-08-04T10:21:13Z</time>
      </trkpt>
      <trkpt lat="46.434876" lon="14.222407">
        <ele>1606.9056</ele>
        <time>2016-08-04T10:21:17Z</time>
      </trkpt>
      <trkpt lat="46.434870" lon="14.222447">
        <ele>1607.5152</ele>
        <time>2016-08-04T10:21:21Z</time>
      </trkpt>
      <trkpt lat="46.434885" lon="14.222495">
        <ele>1607.5152</ele>
        <time>2016-08-04T10:21:24Z</time>
      </trkpt>
      <trkpt lat="46.434901" lon="14.222577">
        <ele>1606.9056</ele>
        <time>2016-08-04T10:21:29Z</time>
      </trkpt>
      <trkpt lat="46.434892" lon="14.222605">
        <ele>1606.9056</ele>
        <time>2016-08-04T10:21:32Z</time>
      </trkpt>
      <trkpt lat="46.434900" lon="14.222632">
        <ele>1606.296</ele>
        <time>2016-08-04T10:21:35Z</time>
      </trkpt>
      <trkpt lat="46.434913" lon="14.222662">
        <ele>1605.6864</ele>
        <time>2016-08-04T10:21:37Z</time>
      </trkpt>
      <trkpt lat="46.434954" lon="14.222692">
        <ele>1605.0768</ele>
        <time>2016-08-04T10:21:44Z</time>
      </trkpt>
      <trkpt lat="46.434960" lon="14.222696">
        <ele>1604.772</ele>
        <time>2016-08-04T10:21:45Z</time>
      </trkpt>
      <trkpt lat="46.434968" lon="14.222704">
        <ele>1604.4672</ele>
        <time>2016-08-04T10:21:48Z</time>
      </trkpt>
      <trkpt lat="46.434930" lon="14.222787">
        <ele>1603.8576</ele>
        <time>2016-08-04T10:21:54Z</time>
      </trkpt>
      <trkpt lat="46.434925" lon="14.222833">
        <ele>1603.5528</ele>
        <time>2016-08-04T10:21:56Z</time>
      </trkpt>
      <trkpt lat="46.434916" lon="14.222869">
        <ele>1603.248</ele>
        <time>2016-08-04T10:21:59Z</time>
      </trkpt>
      <trkpt lat="46.434888" lon="14.222929">
        <ele>1603.5528</ele>
        <time>2016-08-04T10:22:06Z</time>
      </trkpt>
      <trkpt lat="46.434889" lon="14.222944">
        <ele>1603.8576</ele>
        <time>2016-08-04T10:22:07Z</time>
      </trkpt>
      <trkpt lat="46.434882" lon="14.222966">
        <ele>1603.8576</ele>
        <time>2016-08-04T10:22:10Z</time>
      </trkpt>
      <trkpt lat="46.434877" lon="14.223017">
        <ele>1604.4672</ele>
        <time>2016-08-04T10:22:14Z</time>
      </trkpt>
      <trkpt lat="46.434873" lon="14.223071">
        <ele>1604.4672</ele>
        <time>2016-08-04T10:22:17Z</time>
      </trkpt>
      <trkpt lat="46.434870" lon="14.223092">
        <ele>1604.1624</ele>
        <time>2016-08-04T10:22:19Z</time>
      </trkpt>
      <trkpt lat="46.434839" lon="14.223175">
        <ele>1603.8576</ele>
        <time>2016-08-04T10:22:25Z</time>
      </trkpt>
      <trkpt lat="46.434828" lon="14.223252">
        <ele>1603.248</ele>
        <time>2016-08-04T10:22:30Z</time>
      </trkpt>
      <trkpt lat="46.434811" lon="14.223307">
        <ele>1603.248</ele>
        <time>2016-08-04T10:22:34Z</time>
      </trkpt>
      <trkpt lat="46.434804" lon="14.223363">
        <ele>1602.9432</ele>
        <time>2016-08-04T10:22:38Z</time>
      </trkpt>
      <trkpt lat="46.434786" lon="14.223383">
        <ele>1602.3336</ele>
        <time>2016-08-04T10:22:41Z</time>
      </trkpt>
      <trkpt lat="46.434780" lon="14.223412">
        <ele>1602.0288</ele>
        <time>2016-08-04T10:22:42Z</time>
      </trkpt>
      <trkpt lat="46.434773" lon="14.223442">
        <ele>1601.724</ele>
        <time>2016-08-04T10:22:45Z</time>
      </trkpt>
      <trkpt lat="46.434771" lon="14.223474">
        <ele>1601.1144</ele>
        <time>2016-08-04T10:22:46Z</time>
      </trkpt>
      <trkpt lat="46.434755" lon="14.223539">
        <ele>1601.1144</ele>
        <time>2016-08-04T10:22:52Z</time>
      </trkpt>
      <trkpt lat="46.434762" lon="14.223557">
        <ele>1601.1144</ele>
        <time>2016-08-04T10:22:53Z</time>
      </trkpt>
      <trkpt lat="46.434766" lon="14.223573">
        <ele>1601.1144</ele>
        <time>2016-08-04T10:22:56Z</time>
      </trkpt>
      <trkpt lat="46.434779" lon="14.223663">
        <ele>1601.724</ele>
        <time>2016-08-04T10:23:04Z</time>
      </trkpt>
      <trkpt lat="46.434778" lon="14.223681">
        <ele>1601.4192</ele>
        <time>2016-08-04T10:23:06Z</time>
      </trkpt>
      <trkpt lat="46.434777" lon="14.223722">
        <ele>1601.1144</ele>
        <time>2016-08-04T10:23:09Z</time>
      </trkpt>
      <trkpt lat="46.434772" lon="14.223738">
        <ele>1601.1144</ele>
        <time>2016-08-04T10:23:12Z</time>
      </trkpt>
      <trkpt lat="46.434754" lon="14.223796">
        <ele>1601.1144</ele>
        <time>2016-08-04T10:23:16Z</time>
      </trkpt>
      <trkpt lat="46.434713" lon="14.223916">
        <ele>1600.8096</ele>
        <time>2016-08-04T10:23:24Z</time>
      </trkpt>
      <trkpt lat="46.434684" lon="14.223972">
        <ele>1600.2</ele>
        <time>2016-08-04T10:23:28Z</time>
      </trkpt>
      <trkpt lat="46.434678" lon="14.223979">
        <ele>1599.8952</ele>
        <time>2016-08-04T10:23:31Z</time>
      </trkpt>
      <trkpt lat="46.434672" lon="14.223993">
        <ele>1599.8952</ele>
        <time>2016-08-04T10:23:32Z</time>
      </trkpt>
      <trkpt lat="46.434648" lon="14.224032">
        <ele>1599.5904</ele>
        <time>2016-08-04T10:23:36Z</time>
      </trkpt>
      <trkpt lat="46.434643" lon="14.224063">
        <ele>1599.2856</ele>
        <time>2016-08-04T10:23:39Z</time>
      </trkpt>
      <trkpt lat="46.434610" lon="14.224104">
        <ele>1599.2856</ele>
        <time>2016-08-04T10:23:43Z</time>
      </trkpt>
      <trkpt lat="46.434603" lon="14.224115">
        <ele>1598.9808</ele>
        <time>2016-08-04T10:23:43Z</time>
      </trkpt>
      <trkpt lat="46.434598" lon="14.224125">
        <ele>1598.9808</ele>
        <time>2016-08-04T10:23:44Z</time>
      </trkpt>
      <trkpt lat="46.434576" lon="14.224156">
        <ele>1598.3712</ele>
        <time>2016-08-04T10:23:47Z</time>
      </trkpt>
      <trkpt lat="46.434532" lon="14.224188">
        <ele>1597.7616</ele>
        <time>2016-08-04T10:23:51Z</time>
      </trkpt>
      <trkpt lat="46.434523" lon="14.224189">
        <ele>1597.4568</ele>
        <time>2016-08-04T10:23:52Z</time>
      </trkpt>
      <trkpt lat="46.434499" lon="14.224208">
        <ele>1596.8472</ele>
        <time>2016-08-04T10:23:56Z</time>
      </trkpt>
      <trkpt lat="46.434487" lon="14.224236">
        <ele>1596.2376</ele>
        <time>2016-08-04T10:23:59Z</time>
      </trkpt>
      <trkpt lat="46.434488" lon="14.224265">
        <ele>1595.628</ele>
        <time>2016-08-04T10:24:02Z</time>
      </trkpt>
      <trkpt lat="46.434497" lon="14.224281">
        <ele>1595.3232</ele>
        <time>2016-08-04T10:24:03Z</time>
      </trkpt>
      <trkpt lat="46.434498" lon="14.224311">
        <ele>1595.0184</ele>
        <time>2016-08-04T10:24:09Z</time>
      </trkpt>
      <trkpt lat="46.434502" lon="14.224325">
        <ele>1594.7136</ele>
        <time>2016-08-04T10:24:10Z</time>
      </trkpt>
      <trkpt lat="46.434478" lon="14.224386">
        <ele>1593.4944</ele>
        <time>2016-08-04T10:24:17Z</time>
      </trkpt>
      <trkpt lat="46.434468" lon="14.224399">
        <ele>1593.4944</ele>
        <time>2016-08-04T10:24:18Z</time>
      </trkpt>
      <trkpt lat="46.434438" lon="14.224457">
        <ele>1592.8848</ele>
        <time>2016-08-04T10:24:22Z</time>
      </trkpt>
      <trkpt lat="46.434425" lon="14.224484">
        <ele>1592.58</ele>
        <time>2016-08-04T10:24:23Z</time>
      </trkpt>
      <trkpt lat="46.434423" lon="14.224496">
        <ele>1592.2752</ele>
        <time>2016-08-04T10:24:25Z</time>
      </trkpt>
      <trkpt lat="46.434419" lon="14.224515">
        <ele>1592.2752</ele>
        <time>2016-08-04T10:24:26Z</time>
      </trkpt>
      <trkpt lat="46.434410" lon="14.224561">
        <ele>1591.9704</ele>
        <time>2016-08-04T10:24:30Z</time>
      </trkpt>
      <trkpt lat="46.434386" lon="14.224597">
        <ele>1591.6656</ele>
        <time>2016-08-04T10:24:33Z</time>
      </trkpt>
      <trkpt lat="46.434374" lon="14.224616">
        <ele>1591.6656</ele>
        <time>2016-08-04T10:24:34Z</time>
      </trkpt>
      <trkpt lat="46.434367" lon="14.224639">
        <ele>1591.3608</ele>
        <time>2016-08-04T10:24:37Z</time>
      </trkpt>
      <trkpt lat="46.434347" lon="14.224660">
        <ele>1591.056</ele>
        <time>2016-08-04T10:24:38Z</time>
      </trkpt>
      <trkpt lat="46.434311" lon="14.224713">
        <ele>1590.7512</ele>
        <time>2016-08-04T10:24:42Z</time>
      </trkpt>
      <trkpt lat="46.434302" lon="14.224773">
        <ele>1590.4464</ele>
        <time>2016-08-04T10:24:46Z</time>
      </trkpt>
      <trkpt lat="46.434290" lon="14.224820">
        <ele>1590.4464</ele>
        <time>2016-08-04T10:24:50Z</time>
      </trkpt>
      <trkpt lat="46.434314" lon="14.224832">
        <ele>1591.056</ele>
        <time>2016-08-04T10:24:53Z</time>
      </trkpt>
      <trkpt lat="46.434311" lon="14.224844">
        <ele>1591.6656</ele>
        <time>2016-08-04T10:24:56Z</time>
      </trkpt>
      <trkpt lat="46.434311" lon="14.224858">
        <ele>1591.6656</ele>
        <time>2016-08-04T10:24:57Z</time>
      </trkpt>
      <trkpt lat="46.434280" lon="14.224933">
        <ele>1591.9704</ele>
        <time>2016-08-04T10:25:01Z</time>
      </trkpt>
      <trkpt lat="46.434219" lon="14.225042">
        <ele>1592.2752</ele>
        <time>2016-08-04T10:25:08Z</time>
      </trkpt>
      <trkpt lat="46.434198" lon="14.225082">
        <ele>1592.58</ele>
        <time>2016-08-04T10:25:12Z</time>
      </trkpt>
      <trkpt lat="46.434192" lon="14.225102">
        <ele>1592.58</ele>
        <time>2016-08-04T10:25:15Z</time>
      </trkpt>
      <trkpt lat="46.434185" lon="14.225130">
        <ele>1592.2752</ele>
        <time>2016-08-04T10:25:16Z</time>
      </trkpt>
      <trkpt lat="46.434188" lon="14.225157">
        <ele>1591.9704</ele>
        <time>2016-08-04T10:25:20Z</time>
      </trkpt>
      <trkpt lat="46.434199" lon="14.225185">
        <ele>1591.3608</ele>
        <time>2016-08-04T10:25:23Z</time>
      </trkpt>
      <trkpt lat="46.434203" lon="14.225203">
        <ele>1591.056</ele>
        <time>2016-08-04T10:25:24Z</time>
      </trkpt>
      <trkpt lat="46.434214" lon="14.225216">
        <ele>1590.7512</ele>
        <time>2016-08-04T10:25:27Z</time>
      </trkpt>
      <trkpt lat="46.434227" lon="14.225262">
        <ele>1590.4464</ele>
        <time>2016-08-04T10:25:31Z</time>
      </trkpt>
      <trkpt lat="46.434242" lon="14.225267">
        <ele>1589.532</ele>
        <time>2016-08-04T10:25:36Z</time>
      </trkpt>
      <trkpt lat="46.434243" lon="14.225270">
        <ele>1589.532</ele>
        <time>2016-08-04T10:25:38Z</time>
      </trkpt>
      <trkpt lat="46.434218" lon="14.225308">
        <ele>1589.2272</ele>
        <time>2016-08-04T10:25:43Z</time>
      </trkpt>
      <trkpt lat="46.434206" lon="14.225367">
        <ele>1588.6176</ele>
        <time>2016-08-04T10:25:55Z</time>
      </trkpt>
      <trkpt lat="46.434184" lon="14.225469">
        <ele>1587.7032</ele>
        <time>2016-08-04T10:26:06Z</time>
      </trkpt>
      <trkpt lat="46.434171" lon="14.225524">
        <ele>1586.484</ele>
        <time>2016-08-04T10:26:14Z</time>
      </trkpt>
      <trkpt lat="46.434165" lon="14.225563">
        <ele>1586.484</ele>
        <time>2016-08-04T10:26:18Z</time>
      </trkpt>
      <trkpt lat="46.434140" lon="14.225590">
        <ele>1585.8744</ele>
        <time>2016-08-04T10:26:21Z</time>
      </trkpt>
      <trkpt lat="46.434079" lon="14.225655">
        <ele>1585.2648</ele>
        <time>2016-08-04T10:26:25Z</time>
      </trkpt>
      <trkpt lat="46.434053" lon="14.225707">
        <ele>1585.2648</ele>
        <time>2016-08-04T10:26:29Z</time>
      </trkpt>
      <trkpt lat="46.434046" lon="14.225735">
        <ele>1584.6552</ele>
        <time>2016-08-04T10:26:33Z</time>
      </trkpt>
      <trkpt lat="46.434033" lon="14.225760">
        <ele>1584.3504</ele>
        <time>2016-08-04T10:26:37Z</time>
      </trkpt>
      <trkpt lat="46.434001" lon="14.225812">
        <ele>1583.7408</ele>
        <time>2016-08-04T10:26:41Z</time>
      </trkpt>
      <trkpt lat="46.433971" lon="14.225846">
        <ele>1583.7408</ele>
        <time>2016-08-04T10:26:44Z</time>
      </trkpt>
      <trkpt lat="46.433959" lon="14.225885">
        <ele>1583.436</ele>
        <time>2016-08-04T10:26:47Z</time>
      </trkpt>
      <trkpt lat="46.433965" lon="14.225903">
        <ele>1583.1312</ele>
        <time>2016-08-04T10:26:49Z</time>
      </trkpt>
      <trkpt lat="46.433961" lon="14.225947">
        <ele>1582.5216</ele>
        <time>2016-08-04T10:26:53Z</time>
      </trkpt>
      <trkpt lat="46.433952" lon="14.225993">
        <ele>1582.2168</ele>
        <time>2016-08-04T10:26:59Z</time>
      </trkpt>
      <trkpt lat="46.433945" lon="14.226013">
        <ele>1581.912</ele>
        <time>2016-08-04T10:27:00Z</time>
      </trkpt>
      <trkpt lat="46.433936" lon="14.226029">
        <ele>1581.3024</ele>
        <time>2016-08-04T10:27:03Z</time>
      </trkpt>
      <trkpt lat="46.433913" lon="14.226059">
        <ele>1580.6928</ele>
        <time>2016-08-04T10:27:05Z</time>
      </trkpt>
      <trkpt lat="46.433893" lon="14.226070">
        <ele>1580.0832</ele>
        <time>2016-08-04T10:27:08Z</time>
      </trkpt>
      <trkpt lat="46.433893" lon="14.226072">
        <ele>1579.7784</ele>
        <time>2016-08-04T10:27:09Z</time>
      </trkpt>
      <trkpt lat="46.433888" lon="14.226087">
        <ele>1578.864</ele>
        <time>2016-08-04T10:27:14Z</time>
      </trkpt>
      <trkpt lat="46.433849" lon="14.226117">
        <ele>1577.9496</ele>
        <time>2016-08-04T10:27:19Z</time>
      </trkpt>
      <trkpt lat="46.433794" lon="14.226178">
        <ele>1576.7304</ele>
        <time>2016-08-04T10:27:26Z</time>
      </trkpt>
      <trkpt lat="46.433784" lon="14.226193">
        <ele>1576.7304</ele>
        <time>2016-08-04T10:27:27Z</time>
      </trkpt>
      <trkpt lat="46.433764" lon="14.226219">
        <ele>1576.4256</ele>
        <time>2016-08-04T10:27:28Z</time>
      </trkpt>
      <trkpt lat="46.433745" lon="14.226247">
        <ele>1576.1208</ele>
        <time>2016-08-04T10:27:31Z</time>
      </trkpt>
      <trkpt lat="46.433735" lon="14.226271">
        <ele>1575.816</ele>
        <time>2016-08-04T10:27:32Z</time>
      </trkpt>
      <trkpt lat="46.433737" lon="14.226287">
        <ele>1575.2064</ele>
        <time>2016-08-04T10:27:35Z</time>
      </trkpt>
      <trkpt lat="46.433712" lon="14.226312">
        <ele>1574.5968</ele>
        <time>2016-08-04T10:27:38Z</time>
      </trkpt>
      <trkpt lat="46.433705" lon="14.226317">
        <ele>1574.5968</ele>
        <time>2016-08-04T10:27:39Z</time>
      </trkpt>
      <trkpt lat="46.433692" lon="14.226326">
        <ele>1574.292</ele>
        <time>2016-08-04T10:27:41Z</time>
      </trkpt>
      <trkpt lat="46.433678" lon="14.226339">
        <ele>1573.3776</ele>
        <time>2016-08-04T10:27:43Z</time>
      </trkpt>
      <trkpt lat="46.433652" lon="14.226379">
        <ele>1572.768</ele>
        <time>2016-08-04T10:27:47Z</time>
      </trkpt>
      <trkpt lat="46.433647" lon="14.226405">
        <ele>1572.4632</ele>
        <time>2016-08-04T10:27:50Z</time>
      </trkpt>
      <trkpt lat="46.433643" lon="14.226436">
        <ele>1572.4632</ele>
        <time>2016-08-04T10:27:53Z</time>
      </trkpt>
      <trkpt lat="46.433645" lon="14.226478">
        <ele>1571.5488</ele>
        <time>2016-08-04T10:27:57Z</time>
      </trkpt>
      <trkpt lat="46.433646" lon="14.226487">
        <ele>1571.5488</ele>
        <time>2016-08-04T10:27:58Z</time>
      </trkpt>
      <trkpt lat="46.433652" lon="14.226489">
        <ele>1571.244</ele>
        <time>2016-08-04T10:27:59Z</time>
      </trkpt>
      <trkpt lat="46.433649" lon="14.226506">
        <ele>1570.3296</ele>
        <time>2016-08-04T10:28:03Z</time>
      </trkpt>
      <trkpt lat="46.433651" lon="14.226508">
        <ele>1570.3296</ele>
        <time>2016-08-04T10:28:05Z</time>
      </trkpt>
      <trkpt lat="46.433647" lon="14.226514">
        <ele>1570.0248</ele>
        <time>2016-08-04T10:28:06Z</time>
      </trkpt>
      <trkpt lat="46.433637" lon="14.226554">
        <ele>1569.1104</ele>
        <time>2016-08-04T10:28:09Z</time>
      </trkpt>
      <trkpt lat="46.433637" lon="14.226566">
        <ele>1569.1104</ele>
        <time>2016-08-04T10:28:10Z</time>
      </trkpt>
      <trkpt lat="46.433630" lon="14.226585">
        <ele>1568.5008</ele>
        <time>2016-08-04T10:28:12Z</time>
      </trkpt>
      <trkpt lat="46.433622" lon="14.226603">
        <ele>1567.8912</ele>
        <time>2016-08-04T10:28:13Z</time>
      </trkpt>
      <trkpt lat="46.433612" lon="14.226667">
        <ele>1567.2816</ele>
        <time>2016-08-04T10:28:20Z</time>
      </trkpt>
      <trkpt lat="46.433605" lon="14.226694">
        <ele>1566.672</ele>
        <time>2016-08-04T10:28:21Z</time>
      </trkpt>
      <trkpt lat="46.433599" lon="14.226711">
        <ele>1566.672</ele>
        <time>2016-08-04T10:28:22Z</time>
      </trkpt>
      <trkpt lat="46.433590" lon="14.226729">
        <ele>1566.0624</ele>
        <time>2016-08-04T10:28:25Z</time>
      </trkpt>
      <trkpt lat="46.433570" lon="14.226752">
        <ele>1566.0624</ele>
        <time>2016-08-04T10:28:28Z</time>
      </trkpt>
      <trkpt lat="46.433552" lon="14.226818">
        <ele>1565.7576</ele>
        <time>2016-08-04T10:28:32Z</time>
      </trkpt>
      <trkpt lat="46.433534" lon="14.226837">
        <ele>1565.4528</ele>
        <time>2016-08-04T10:28:33Z</time>
      </trkpt>
      <trkpt lat="46.433506" lon="14.226879">
        <ele>1565.4528</ele>
        <time>2016-08-04T10:28:37Z</time>
      </trkpt>
      <trkpt lat="46.433486" lon="14.226887">
        <ele>1565.4528</ele>
        <time>2016-08-04T10:28:37Z</time>
      </trkpt>
      <trkpt lat="46.433428" lon="14.226937">
        <ele>1566.672</ele>
        <time>2016-08-04T10:28:44Z</time>
      </trkpt>
      <trkpt lat="46.433407" lon="14.226947">
        <ele>1566.672</ele>
        <time>2016-08-04T10:28:47Z</time>
      </trkpt>
      <trkpt lat="46.433397" lon="14.226967">
        <ele>1566.9768</ele>
        <time>2016-08-04T10:28:48Z</time>
      </trkpt>
      <trkpt lat="46.433361" lon="14.226978">
        <ele>1567.2816</ele>
        <time>2016-08-04T10:28:52Z</time>
      </trkpt>
      <trkpt lat="46.433306" lon="14.227003">
        <ele>1566.672</ele>
        <time>2016-08-04T10:29:00Z</time>
      </trkpt>
      <trkpt lat="46.433231" lon="14.227041">
        <ele>1566.0624</ele>
        <time>2016-08-04T10:29:07Z</time>
      </trkpt>
      <trkpt lat="46.433203" lon="14.227062">
        <ele>1566.0624</ele>
        <time>2016-08-04T10:29:11Z</time>
      </trkpt>
      <trkpt lat="46.433094" lon="14.227210">
        <ele>1566.672</ele>
        <time>2016-08-04T10:29:22Z</time>
      </trkpt>
      <trkpt lat="46.433059" lon="14.227261">
        <ele>1566.9768</ele>
        <time>2016-08-04T10:29:27Z</time>
      </trkpt>
      <trkpt lat="46.433033" lon="14.227309">
        <ele>1567.2816</ele>
        <time>2016-08-04T10:29:31Z</time>
      </trkpt>
      <trkpt lat="46.433016" lon="14.227326">
        <ele>1566.9768</ele>
        <time>2016-08-04T10:29:34Z</time>
      </trkpt>
      <trkpt lat="46.432999" lon="14.227370">
        <ele>1565.4528</ele>
        <time>2016-08-04T10:29:41Z</time>
      </trkpt>
      <trkpt lat="46.432991" lon="14.227373">
        <ele>1565.4528</ele>
        <time>2016-08-04T10:29:42Z</time>
      </trkpt>
      <trkpt lat="46.432958" lon="14.227395">
        <ele>1564.5384</ele>
        <time>2016-08-04T10:29:46Z</time>
      </trkpt>
      <trkpt lat="46.432936" lon="14.227427">
        <ele>1563.3192</ele>
        <time>2016-08-04T10:29:50Z</time>
      </trkpt>
      <trkpt lat="46.432937" lon="14.227438">
        <ele>1563.3192</ele>
        <time>2016-08-04T10:29:50Z</time>
      </trkpt>
      <trkpt lat="46.432920" lon="14.227474">
        <ele>1562.7096</ele>
        <time>2016-08-04T10:29:54Z</time>
      </trkpt>
      <trkpt lat="46.432920" lon="14.227495">
        <ele>1562.4048</ele>
        <time>2016-08-04T10:29:57Z</time>
      </trkpt>
      <trkpt lat="46.432929" lon="14.227507">
        <ele>1562.4048</ele>
        <time>2016-08-04T10:29:58Z</time>
      </trkpt>
      <trkpt lat="46.432935" lon="14.227523">
        <ele>1562.1</ele>
        <time>2016-08-04T10:30:00Z</time>
      </trkpt>
      <trkpt lat="46.432962" lon="14.227556">
        <ele>1561.4904</ele>
        <time>2016-08-04T10:30:02Z</time>
      </trkpt>
      <trkpt lat="46.432973" lon="14.227568">
        <ele>1561.1856</ele>
        <time>2016-08-04T10:30:04Z</time>
      </trkpt>
      <trkpt lat="46.432988" lon="14.227586">
        <ele>1560.8808</ele>
        <time>2016-08-04T10:30:05Z</time>
      </trkpt>
      <trkpt lat="46.433001" lon="14.227606">
        <ele>1560.576</ele>
        <time>2016-08-04T10:30:09Z</time>
      </trkpt>
      <trkpt lat="46.433007" lon="14.227669">
        <ele>1560.2712</ele>
        <time>2016-08-04T10:30:13Z</time>
      </trkpt>
      <trkpt lat="46.433004" lon="14.227682">
        <ele>1560.2712</ele>
        <time>2016-08-04T10:30:14Z</time>
      </trkpt>
      <trkpt lat="46.432998" lon="14.227698">
        <ele>1559.9664</ele>
        <time>2016-08-04T10:30:16Z</time>
      </trkpt>
      <trkpt lat="46.432968" lon="14.227783">
        <ele>1559.6616</ele>
        <time>2016-08-04T10:30:20Z</time>
      </trkpt>
      <trkpt lat="46.432969" lon="14.227890">
        <ele>1559.6616</ele>
        <time>2016-08-04T10:30:27Z</time>
      </trkpt>
      <trkpt lat="46.432966" lon="14.227915">
        <ele>1559.6616</ele>
        <time>2016-08-04T10:30:29Z</time>
      </trkpt>
      <trkpt lat="46.432955" lon="14.227941">
        <ele>1559.3568</ele>
        <time>2016-08-04T10:30:32Z</time>
      </trkpt>
      <trkpt lat="46.432948" lon="14.227952">
        <ele>1559.6616</ele>
        <time>2016-08-04T10:30:33Z</time>
      </trkpt>
      <trkpt lat="46.432941" lon="14.227972">
        <ele>1559.6616</ele>
        <time>2016-08-04T10:30:36Z</time>
      </trkpt>
      <trkpt lat="46.432936" lon="14.227987">
        <ele>1559.6616</ele>
        <time>2016-08-04T10:30:37Z</time>
      </trkpt>
      <trkpt lat="46.432925" lon="14.227999">
        <ele>1559.3568</ele>
        <time>2016-08-04T10:30:39Z</time>
      </trkpt>
      <trkpt lat="46.432921" lon="14.228016">
        <ele>1559.052</ele>
        <time>2016-08-04T10:30:40Z</time>
      </trkpt>
      <trkpt lat="46.432921" lon="14.228026">
        <ele>1559.052</ele>
        <time>2016-08-04T10:30:40Z</time>
      </trkpt>
      <trkpt lat="46.432919" lon="14.228055">
        <ele>1559.052</ele>
        <time>2016-08-04T10:30:43Z</time>
      </trkpt>
      <trkpt lat="46.432918" lon="14.228077">
        <ele>1559.052</ele>
        <time>2016-08-04T10:30:44Z</time>
      </trkpt>
      <trkpt lat="46.432917" lon="14.228122">
        <ele>1559.052</ele>
        <time>2016-08-04T10:30:48Z</time>
      </trkpt>
      <trkpt lat="46.432923" lon="14.228147">
        <ele>1559.3568</ele>
        <time>2016-08-04T10:30:51Z</time>
      </trkpt>
      <trkpt lat="46.432921" lon="14.228198">
        <ele>1559.6616</ele>
        <time>2016-08-04T10:30:55Z</time>
      </trkpt>
      <trkpt lat="46.432898" lon="14.228224">
        <ele>1559.6616</ele>
        <time>2016-08-04T10:30:59Z</time>
      </trkpt>
      <trkpt lat="46.432886" lon="14.228230">
        <ele>1559.6616</ele>
        <time>2016-08-04T10:30:59Z</time>
      </trkpt>
      <trkpt lat="46.432876" lon="14.228238">
        <ele>1559.6616</ele>
        <time>2016-08-04T10:31:00Z</time>
      </trkpt>
      <trkpt lat="46.432861" lon="14.228254">
        <ele>1559.9664</ele>
        <time>2016-08-04T10:31:03Z</time>
      </trkpt>
      <trkpt lat="46.432839" lon="14.228292">
        <ele>1559.6616</ele>
        <time>2016-08-04T10:31:06Z</time>
      </trkpt>
      <trkpt lat="46.432828" lon="14.228314">
        <ele>1559.9664</ele>
        <time>2016-08-04T10:31:07Z</time>
      </trkpt>
      <trkpt lat="46.432820" lon="14.228350">
        <ele>1560.2712</ele>
        <time>2016-08-04T10:31:11Z</time>
      </trkpt>
      <trkpt lat="46.432791" lon="14.228414">
        <ele>1560.8808</ele>
        <time>2016-08-04T10:31:15Z</time>
      </trkpt>
      <trkpt lat="46.432781" lon="14.228442">
        <ele>1560.8808</ele>
        <time>2016-08-04T10:31:17Z</time>
      </trkpt>
      <trkpt lat="46.432766" lon="14.228484">
        <ele>1560.8808</ele>
        <time>2016-08-04T10:31:19Z</time>
      </trkpt>
      <trkpt lat="46.432752" lon="14.228504">
        <ele>1560.8808</ele>
        <time>2016-08-04T10:31:21Z</time>
      </trkpt>
      <trkpt lat="46.432750" lon="14.228542">
        <ele>1560.2712</ele>
        <time>2016-08-04T10:31:25Z</time>
      </trkpt>
      <trkpt lat="46.432755" lon="14.228580">
        <ele>1559.9664</ele>
        <time>2016-08-04T10:31:27Z</time>
      </trkpt>
      <trkpt lat="46.432759" lon="14.228614">
        <ele>1559.9664</ele>
        <time>2016-08-04T10:31:30Z</time>
      </trkpt>
      <trkpt lat="46.432732" lon="14.228650">
        <ele>1559.6616</ele>
        <time>2016-08-04T10:31:34Z</time>
      </trkpt>
      <trkpt lat="46.432714" lon="14.228667">
        <ele>1559.6616</ele>
        <time>2016-08-04T10:31:37Z</time>
      </trkpt>
      <trkpt lat="46.432682" lon="14.228705">
        <ele>1559.6616</ele>
        <time>2016-08-04T10:31:41Z</time>
      </trkpt>
      <trkpt lat="46.432676" lon="14.228736">
        <ele>1560.2712</ele>
        <time>2016-08-04T10:31:42Z</time>
      </trkpt>
      <trkpt lat="46.432658" lon="14.228799">
        <ele>1560.2712</ele>
        <time>2016-08-04T10:31:46Z</time>
      </trkpt>
      <trkpt lat="46.432650" lon="14.228848">
        <ele>1559.6616</ele>
        <time>2016-08-04T10:31:49Z</time>
      </trkpt>
      <trkpt lat="46.432641" lon="14.228869">
        <ele>1559.052</ele>
        <time>2016-08-04T10:31:50Z</time>
      </trkpt>
      <trkpt lat="46.432638" lon="14.228879">
        <ele>1559.052</ele>
        <time>2016-08-04T10:31:52Z</time>
      </trkpt>
      <trkpt lat="46.432633" lon="14.228883">
        <ele>1559.052</ele>
        <time>2016-08-04T10:31:53Z</time>
      </trkpt>
      <trkpt lat="46.432622" lon="14.228892">
        <ele>1558.7472</ele>
        <time>2016-08-04T10:31:54Z</time>
      </trkpt>
      <trkpt lat="46.432604" lon="14.228891">
        <ele>1558.1376</ele>
        <time>2016-08-04T10:31:57Z</time>
      </trkpt>
      <trkpt lat="46.432591" lon="14.228889">
        <ele>1557.2232</ele>
        <time>2016-08-04T10:32:01Z</time>
      </trkpt>
      <trkpt lat="46.432575" lon="14.228892">
        <ele>1556.9184</ele>
        <time>2016-08-04T10:32:02Z</time>
      </trkpt>
      <trkpt lat="46.432566" lon="14.228900">
        <ele>1556.6136</ele>
        <time>2016-08-04T10:32:04Z</time>
      </trkpt>
      <trkpt lat="46.432556" lon="14.228926">
        <ele>1556.004</ele>
        <time>2016-08-04T10:32:05Z</time>
      </trkpt>
      <trkpt lat="46.432551" lon="14.228932">
        <ele>1555.6992</ele>
        <time>2016-08-04T10:32:06Z</time>
      </trkpt>
      <trkpt lat="46.432541" lon="14.228942">
        <ele>1555.3944</ele>
        <time>2016-08-04T10:32:08Z</time>
      </trkpt>
      <trkpt lat="46.432533" lon="14.228952">
        <ele>1555.0896</ele>
        <time>2016-08-04T10:32:09Z</time>
      </trkpt>
      <trkpt lat="46.432523" lon="14.228960">
        <ele>1554.7848</ele>
        <time>2016-08-04T10:32:09Z</time>
      </trkpt>
      <trkpt lat="46.432508" lon="14.228976">
        <ele>1554.48</ele>
        <time>2016-08-04T10:32:11Z</time>
      </trkpt>
      <trkpt lat="46.432499" lon="14.228985">
        <ele>1554.48</ele>
        <time>2016-08-04T10:32:12Z</time>
      </trkpt>
      <trkpt lat="46.432504" lon="14.228995">
        <ele>1554.48</ele>
        <time>2016-08-04T10:32:13Z</time>
      </trkpt>
      <trkpt lat="46.432521" lon="14.229018">
        <ele>1554.48</ele>
        <time>2016-08-04T10:32:16Z</time>
      </trkpt>
      <trkpt lat="46.432517" lon="14.229043">
        <ele>1553.8704</ele>
        <time>2016-08-04T10:32:17Z</time>
      </trkpt>
      <trkpt lat="46.432510" lon="14.229072">
        <ele>1553.5656</ele>
        <time>2016-08-04T10:32:20Z</time>
      </trkpt>
      <trkpt lat="46.432493" lon="14.229148">
        <ele>1553.2608</ele>
        <time>2016-08-04T10:32:24Z</time>
      </trkpt>
      <trkpt lat="46.432483" lon="14.229166">
        <ele>1553.2608</ele>
        <time>2016-08-04T10:32:27Z</time>
      </trkpt>
      <trkpt lat="46.432440" lon="14.229236">
        <ele>1553.2608</ele>
        <time>2016-08-04T10:32:33Z</time>
      </trkpt>
      <trkpt lat="46.432355" lon="14.229338">
        <ele>1553.2608</ele>
        <time>2016-08-04T10:32:43Z</time>
      </trkpt>
      <trkpt lat="46.432332" lon="14.229361">
        <ele>1552.956</ele>
        <time>2016-08-04T10:32:46Z</time>
      </trkpt>
      <trkpt lat="46.432307" lon="14.229388">
        <ele>1552.3464</ele>
        <time>2016-08-04T10:32:48Z</time>
      </trkpt>
      <trkpt lat="46.432280" lon="14.229416">
        <ele>1551.7368</ele>
        <time>2016-08-04T10:32:51Z</time>
      </trkpt>
      <trkpt lat="46.432254" lon="14.229445">
        <ele>1551.432</ele>
        <time>2016-08-04T10:32:55Z</time>
      </trkpt>
      <trkpt lat="46.432240" lon="14.229468">
        <ele>1551.1272</ele>
        <time>2016-08-04T10:32:58Z</time>
      </trkpt>
      <trkpt lat="46.432218" lon="14.229508">
        <ele>1550.2128</ele>
        <time>2016-08-04T10:33:02Z</time>
      </trkpt>
      <trkpt lat="46.432205" lon="14.229523">
        <ele>1549.908</ele>
        <time>2016-08-04T10:33:03Z</time>
      </trkpt>
      <trkpt lat="46.432193" lon="14.229539">
        <ele>1549.6032</ele>
        <time>2016-08-04T10:33:06Z</time>
      </trkpt>
      <trkpt lat="46.432190" lon="14.229553">
        <ele>1549.2984</ele>
        <time>2016-08-04T10:33:07Z</time>
      </trkpt>
      <trkpt lat="46.432186" lon="14.229559">
        <ele>1548.9936</ele>
        <time>2016-08-04T10:33:09Z</time>
      </trkpt>
      <trkpt lat="46.432174" lon="14.229557">
        <ele>1548.6888</ele>
        <time>2016-08-04T10:33:10Z</time>
      </trkpt>
      <trkpt lat="46.432166" lon="14.229554">
        <ele>1548.0792</ele>
        <time>2016-08-04T10:33:13Z</time>
      </trkpt>
      <trkpt lat="46.432165" lon="14.229555">
        <ele>1548.0792</ele>
        <time>2016-08-04T10:33:14Z</time>
      </trkpt>
      <trkpt lat="46.432158" lon="14.229556">
        <ele>1547.7744</ele>
        <time>2016-08-04T10:33:15Z</time>
      </trkpt>
      <trkpt lat="46.432124" lon="14.229592">
        <ele>1546.86</ele>
        <time>2016-08-04T10:33:21Z</time>
      </trkpt>
      <trkpt lat="46.432105" lon="14.229632">
        <ele>1545.6408</ele>
        <time>2016-08-04T10:33:26Z</time>
      </trkpt>
      <trkpt lat="46.432101" lon="14.229640">
        <ele>1544.4216</ele>
        <time>2016-08-04T10:33:30Z</time>
      </trkpt>
      <trkpt lat="46.432074" lon="14.229664">
        <ele>1543.2024</ele>
        <time>2016-08-04T10:33:44Z</time>
      </trkpt>
      <trkpt lat="46.432054" lon="14.229678">
        <ele>1542.288</ele>
        <time>2016-08-04T10:33:46Z</time>
      </trkpt>
      <trkpt lat="46.432037" lon="14.229712">
        <ele>1541.0688</ele>
        <time>2016-08-04T10:33:50Z</time>
      </trkpt>
      <trkpt lat="46.431963" lon="14.229795">
        <ele>1539.8496</ele>
        <time>2016-08-04T10:34:01Z</time>
      </trkpt>
      <trkpt lat="46.431921" lon="14.229802">
        <ele>1539.24</ele>
        <time>2016-08-04T10:34:07Z</time>
      </trkpt>
      <trkpt lat="46.431896" lon="14.229807">
        <ele>1538.9352</ele>
        <time>2016-08-04T10:34:08Z</time>
      </trkpt>
      <trkpt lat="46.431862" lon="14.229818">
        <ele>1538.6304</ele>
        <time>2016-08-04T10:34:11Z</time>
      </trkpt>
      <trkpt lat="46.431795" lon="14.229916">
        <ele>1537.716</ele>
        <time>2016-08-04T10:34:17Z</time>
      </trkpt>
      <trkpt lat="46.431782" lon="14.229933">
        <ele>1537.716</ele>
        <time>2016-08-04T10:34:20Z</time>
      </trkpt>
      <trkpt lat="46.431770" lon="14.229942">
        <ele>1537.4112</ele>
        <time>2016-08-04T10:34:23Z</time>
      </trkpt>
      <trkpt lat="46.431750" lon="14.229989">
        <ele>1536.4968</ele>
        <time>2016-08-04T10:34:28Z</time>
      </trkpt>
      <trkpt lat="46.431724" lon="14.230031">
        <ele>1536.4968</ele>
        <time>2016-08-04T10:34:35Z</time>
      </trkpt>
      <trkpt lat="46.431580" lon="14.230141">
        <ele>1537.716</ele>
        <time>2016-08-04T10:34:50Z</time>
      </trkpt>
      <trkpt lat="46.431580" lon="14.230155">
        <ele>1538.3256</ele>
        <time>2016-08-04T10:34:51Z</time>
      </trkpt>
      <trkpt lat="46.431579" lon="14.230169">
        <ele>1538.3256</ele>
        <time>2016-08-04T10:34:51Z</time>
      </trkpt>
      <trkpt lat="46.431579" lon="14.230180">
        <ele>1538.6304</ele>
        <time>2016-08-04T10:34:53Z</time>
      </trkpt>
      <trkpt lat="46.431582" lon="14.230199">
        <ele>1538.9352</ele>
        <time>2016-08-04T10:34:55Z</time>
      </trkpt>
      <trkpt lat="46.431576" lon="14.230248">
        <ele>1539.5448</ele>
        <time>2016-08-04T10:34:58Z</time>
      </trkpt>
      <trkpt lat="46.431571" lon="14.230295">
        <ele>1539.5448</ele>
        <time>2016-08-04T10:35:01Z</time>
      </trkpt>
      <trkpt lat="46.431579" lon="14.230318">
        <ele>1539.5448</ele>
        <time>2016-08-04T10:35:02Z</time>
      </trkpt>
      <trkpt lat="46.431570" lon="14.230362">
        <ele>1539.8496</ele>
        <time>2016-08-04T10:35:06Z</time>
      </trkpt>
      <trkpt lat="46.431572" lon="14.230422">
        <ele>1539.8496</ele>
        <time>2016-08-04T10:35:10Z</time>
      </trkpt>
      <trkpt lat="46.431561" lon="14.230451">
        <ele>1540.1544</ele>
        <time>2016-08-04T10:35:14Z</time>
      </trkpt>
      <trkpt lat="46.431558" lon="14.230466">
        <ele>1540.1544</ele>
        <time>2016-08-04T10:35:14Z</time>
      </trkpt>
      <trkpt lat="46.431561" lon="14.230500">
        <ele>1540.4592</ele>
        <time>2016-08-04T10:35:17Z</time>
      </trkpt>
      <trkpt lat="46.431537" lon="14.230552">
        <ele>1540.4592</ele>
        <time>2016-08-04T10:35:21Z</time>
      </trkpt>
      <trkpt lat="46.431509" lon="14.230601">
        <ele>1540.764</ele>
        <time>2016-08-04T10:35:24Z</time>
      </trkpt>
      <trkpt lat="46.431470" lon="14.230662">
        <ele>1540.764</ele>
        <time>2016-08-04T10:35:25Z</time>
      </trkpt>
      <trkpt lat="46.431439" lon="14.230717">
        <ele>1540.764</ele>
        <time>2016-08-04T10:35:29Z</time>
      </trkpt>
      <trkpt lat="46.431434" lon="14.230747">
        <ele>1540.764</ele>
        <time>2016-08-04T10:35:30Z</time>
      </trkpt>
      <trkpt lat="46.431425" lon="14.230766">
        <ele>1541.0688</ele>
        <time>2016-08-04T10:35:33Z</time>
      </trkpt>
      <trkpt lat="46.431406" lon="14.230790">
        <ele>1541.0688</ele>
        <time>2016-08-04T10:35:34Z</time>
      </trkpt>
      <trkpt lat="46.431398" lon="14.230799">
        <ele>1541.0688</ele>
        <time>2016-08-04T10:35:36Z</time>
      </trkpt>
      <trkpt lat="46.431392" lon="14.230842">
        <ele>1541.9832</ele>
        <time>2016-08-04T10:35:40Z</time>
      </trkpt>
      <trkpt lat="46.431394" lon="14.230851">
        <ele>1542.288</ele>
        <time>2016-08-04T10:35:41Z</time>
      </trkpt>
      <trkpt lat="46.431386" lon="14.230858">
        <ele>1542.288</ele>
        <time>2016-08-04T10:35:41Z</time>
      </trkpt>
      <trkpt lat="46.431368" lon="14.230876">
        <ele>1542.288</ele>
        <time>2016-08-04T10:35:45Z</time>
      </trkpt>
      <trkpt lat="46.431358" lon="14.230897">
        <ele>1542.5928</ele>
        <time>2016-08-04T10:35:47Z</time>
      </trkpt>
      <trkpt lat="46.431339" lon="14.231018">
        <ele>1542.8976</ele>
        <time>2016-08-04T10:35:56Z</time>
      </trkpt>
      <trkpt lat="46.431323" lon="14.231068">
        <ele>1542.8976</ele>
        <time>2016-08-04T10:36:00Z</time>
      </trkpt>
      <trkpt lat="46.431297" lon="14.231109">
        <ele>1542.8976</ele>
        <time>2016-08-04T10:36:03Z</time>
      </trkpt>
      <trkpt lat="46.431285" lon="14.231126">
        <ele>1543.2024</ele>
        <time>2016-08-04T10:36:04Z</time>
      </trkpt>
      <trkpt lat="46.431259" lon="14.231195">
        <ele>1543.5072</ele>
        <time>2016-08-04T10:36:11Z</time>
      </trkpt>
      <trkpt lat="46.431223" lon="14.231237">
        <ele>1543.5072</ele>
        <time>2016-08-04T10:36:15Z</time>
      </trkpt>
      <trkpt lat="46.431207" lon="14.231294">
        <ele>1543.2024</ele>
        <time>2016-08-04T10:36:19Z</time>
      </trkpt>
      <trkpt lat="46.431159" lon="14.231357">
        <ele>1543.5072</ele>
        <time>2016-08-04T10:36:24Z</time>
      </trkpt>
      <trkpt lat="46.431143" lon="14.231419">
        <ele>1543.812</ele>
        <time>2016-08-04T10:36:30Z</time>
      </trkpt>
      <trkpt lat="46.431128" lon="14.231425">
        <ele>1544.1168</ele>
        <time>2016-08-04T10:36:31Z</time>
      </trkpt>
      <trkpt lat="46.431103" lon="14.231456">
        <ele>1544.1168</ele>
        <time>2016-08-04T10:36:35Z</time>
      </trkpt>
      <trkpt lat="46.431086" lon="14.231463">
        <ele>1544.1168</ele>
        <time>2016-08-04T10:36:38Z</time>
      </trkpt>
      <trkpt lat="46.431072" lon="14.231379">
        <ele>1544.1168</ele>
        <time>2016-08-04T10:36:47Z</time>
      </trkpt>
      <trkpt lat="46.431014" lon="14.231450">
        <ele>1544.1168</ele>
        <time>2016-08-04T10:36:54Z</time>
      </trkpt>
      <trkpt lat="46.430994" lon="14.231471">
        <ele>1544.7264</ele>
        <time>2016-08-04T10:36:57Z</time>
      </trkpt>
      <trkpt lat="46.430922" lon="14.231725">
        <ele>1544.1168</ele>
        <time>2016-08-04T10:37:10Z</time>
      </trkpt>
      <trkpt lat="46.430919" lon="14.231741">
        <ele>1544.1168</ele>
        <time>2016-08-04T10:37:12Z</time>
      </trkpt>
      <trkpt lat="46.430894" lon="14.231800">
        <ele>1544.7264</ele>
        <time>2016-08-04T10:37:17Z</time>
      </trkpt>
      <trkpt lat="46.430888" lon="14.231823">
        <ele>1544.7264</ele>
        <time>2016-08-04T10:37:20Z</time>
      </trkpt>
      <trkpt lat="46.430885" lon="14.231855">
        <ele>1544.7264</ele>
        <time>2016-08-04T10:37:21Z</time>
      </trkpt>
      <trkpt lat="46.430886" lon="14.231900">
        <ele>1545.0312</ele>
        <time>2016-08-04T10:37:25Z</time>
      </trkpt>
      <trkpt lat="46.430856" lon="14.232011">
        <ele>1545.0312</ele>
        <time>2016-08-04T10:37:37Z</time>
      </trkpt>
      <trkpt lat="46.430842" lon="14.231986">
        <ele>1544.7264</ele>
        <time>2016-08-04T10:37:40Z</time>
      </trkpt>
      <trkpt lat="46.430822" lon="14.232000">
        <ele>1544.7264</ele>
        <time>2016-08-04T10:37:43Z</time>
      </trkpt>
      <trkpt lat="46.430802" lon="14.232032">
        <ele>1544.7264</ele>
        <time>2016-08-04T10:37:44Z</time>
      </trkpt>
      <trkpt lat="46.430758" lon="14.232070">
        <ele>1544.7264</ele>
        <time>2016-08-04T10:37:48Z</time>
      </trkpt>
      <trkpt lat="46.430745" lon="14.232079">
        <ele>1544.7264</ele>
        <time>2016-08-04T10:37:51Z</time>
      </trkpt>
      <trkpt lat="46.430726" lon="14.232114">
        <ele>1544.7264</ele>
        <time>2016-08-04T10:37:53Z</time>
      </trkpt>
      <trkpt lat="46.430709" lon="14.232126">
        <ele>1545.0312</ele>
        <time>2016-08-04T10:37:56Z</time>
      </trkpt>
      <trkpt lat="46.430686" lon="14.232175">
        <ele>1545.336</ele>
        <time>2016-08-04T10:38:00Z</time>
      </trkpt>
      <trkpt lat="46.430652" lon="14.232218">
        <ele>1545.336</ele>
        <time>2016-08-04T10:38:04Z</time>
      </trkpt>
      <trkpt lat="46.430531" lon="14.232353">
        <ele>1545.336</ele>
        <time>2016-08-04T10:38:16Z</time>
      </trkpt>
      <trkpt lat="46.430487" lon="14.232500">
        <ele>1544.7264</ele>
        <time>2016-08-04T10:38:27Z</time>
      </trkpt>
      <trkpt lat="46.430475" lon="14.232522">
        <ele>1544.1168</ele>
        <time>2016-08-04T10:38:29Z</time>
      </trkpt>
      <trkpt lat="46.430466" lon="14.232568">
        <ele>1543.812</ele>
        <time>2016-08-04T10:38:31Z</time>
      </trkpt>
      <trkpt lat="46.430438" lon="14.232594">
        <ele>1543.5072</ele>
        <time>2016-08-04T10:38:35Z</time>
      </trkpt>
      <trkpt lat="46.430425" lon="14.232596">
        <ele>1543.5072</ele>
        <time>2016-08-04T10:38:38Z</time>
      </trkpt>
      <trkpt lat="46.430415" lon="14.232591">
        <ele>1543.2024</ele>
        <time>2016-08-04T10:38:39Z</time>
      </trkpt>
      <trkpt lat="46.430408" lon="14.232592">
        <ele>1542.8976</ele>
        <time>2016-08-04T10:38:42Z</time>
      </trkpt>
      <trkpt lat="46.430400" lon="14.232598">
        <ele>1542.288</ele>
        <time>2016-08-04T10:38:43Z</time>
      </trkpt>
      <trkpt lat="46.430374" lon="14.232624">
        <ele>1541.9832</ele>
        <time>2016-08-04T10:38:47Z</time>
      </trkpt>
      <trkpt lat="46.430342" lon="14.232664">
        <ele>1541.0688</ele>
        <time>2016-08-04T10:38:56Z</time>
      </trkpt>
      <trkpt lat="46.430259" lon="14.232691">
        <ele>1539.8496</ele>
        <time>2016-08-04T10:39:05Z</time>
      </trkpt>
      <trkpt lat="46.430244" lon="14.232703">
        <ele>1539.8496</ele>
        <time>2016-08-04T10:39:08Z</time>
      </trkpt>
      <trkpt lat="46.430230" lon="14.232707">
        <ele>1539.5448</ele>
        <time>2016-08-04T10:39:09Z</time>
      </trkpt>
      <trkpt lat="46.430110" lon="14.232851">
        <ele>1538.9352</ele>
        <time>2016-08-04T10:39:28Z</time>
      </trkpt>
      <trkpt lat="46.430100" lon="14.232853">
        <ele>1538.9352</ele>
        <time>2016-08-04T10:39:28Z</time>
      </trkpt>
      <trkpt lat="46.430090" lon="14.232852">
        <ele>1538.6304</ele>
        <time>2016-08-04T10:39:29Z</time>
      </trkpt>
      <trkpt lat="46.430075" lon="14.232862">
        <ele>1538.3256</ele>
        <time>2016-08-04T10:39:32Z</time>
      </trkpt>
      <trkpt lat="46.430046" lon="14.232886">
        <ele>1538.0208</ele>
        <time>2016-08-04T10:39:35Z</time>
      </trkpt>
      <trkpt lat="46.430038" lon="14.232887">
        <ele>1537.716</ele>
        <time>2016-08-04T10:39:36Z</time>
      </trkpt>
      <trkpt lat="46.429991" lon="14.232897">
        <ele>1536.8016</ele>
        <time>2016-08-04T10:39:41Z</time>
      </trkpt>
      <trkpt lat="46.429969" lon="14.232894">
        <ele>1536.4968</ele>
        <time>2016-08-04T10:39:44Z</time>
      </trkpt>
      <trkpt lat="46.429951" lon="14.232891">
        <ele>1535.8872</ele>
        <time>2016-08-04T10:39:45Z</time>
      </trkpt>
      <trkpt lat="46.429934" lon="14.232878">
        <ele>1535.5824</ele>
        <time>2016-08-04T10:39:48Z</time>
      </trkpt>
      <trkpt lat="46.429926" lon="14.232875">
        <ele>1535.5824</ele>
        <time>2016-08-04T10:39:48Z</time>
      </trkpt>
      <trkpt lat="46.429903" lon="14.232841">
        <ele>1535.2776</ele>
        <time>2016-08-04T10:39:54Z</time>
      </trkpt>
      <trkpt lat="46.429876" lon="14.232821">
        <ele>1534.668</ele>
        <time>2016-08-04T10:39:58Z</time>
      </trkpt>
      <trkpt lat="46.429862" lon="14.232809">
        <ele>1534.668</ele>
        <time>2016-08-04T10:39:59Z</time>
      </trkpt>
      <trkpt lat="46.429808" lon="14.232793">
        <ele>1533.4488</ele>
        <time>2016-08-04T10:40:04Z</time>
      </trkpt>
      <trkpt lat="46.429727" lon="14.232777">
        <ele>1532.5344</ele>
        <time>2016-08-04T10:40:12Z</time>
      </trkpt>
      <trkpt lat="46.429703" lon="14.232780">
        <ele>1531.9248</ele>
        <time>2016-08-04T10:40:15Z</time>
      </trkpt>
      <trkpt lat="46.429654" lon="14.232820">
        <ele>1531.3152</ele>
        <time>2016-08-04T10:40:18Z</time>
      </trkpt>
      <trkpt lat="46.429642" lon="14.232832">
        <ele>1531.0104</ele>
        <time>2016-08-04T10:40:19Z</time>
      </trkpt>
      <trkpt lat="46.429624" lon="14.232843">
        <ele>1530.7056</ele>
        <time>2016-08-04T10:40:21Z</time>
      </trkpt>
      <trkpt lat="46.429612" lon="14.232852">
        <ele>1530.7056</ele>
        <time>2016-08-04T10:40:22Z</time>
      </trkpt>
      <trkpt lat="46.429589" lon="14.232890">
        <ele>1530.096</ele>
        <time>2016-08-04T10:40:26Z</time>
      </trkpt>
      <trkpt lat="46.429550" lon="14.232932">
        <ele>1528.8768</ele>
        <time>2016-08-04T10:40:30Z</time>
      </trkpt>
      <trkpt lat="46.429527" lon="14.232969">
        <ele>1527.6576</ele>
        <time>2016-08-04T10:40:34Z</time>
      </trkpt>
      <trkpt lat="46.429508" lon="14.233007">
        <ele>1527.048</ele>
        <time>2016-08-04T10:40:38Z</time>
      </trkpt>
      <trkpt lat="46.429496" lon="14.233025">
        <ele>1526.7432</ele>
        <time>2016-08-04T10:40:41Z</time>
      </trkpt>
      <trkpt lat="46.429479" lon="14.233074">
        <ele>1525.8288</ele>
        <time>2016-08-04T10:40:46Z</time>
      </trkpt>
      <trkpt lat="46.429465" lon="14.233048">
        <ele>1524.9144</ele>
        <time>2016-08-04T10:41:01Z</time>
      </trkpt>
      <trkpt lat="46.429449" lon="14.233106">
        <ele>1523.6952</ele>
        <time>2016-08-04T10:41:08Z</time>
      </trkpt>
      <trkpt lat="46.429394" lon="14.233170">
        <ele>1522.476</ele>
        <time>2016-08-04T10:41:16Z</time>
      </trkpt>
      <trkpt lat="46.429381" lon="14.233180">
        <ele>1522.1712</ele>
        <time>2016-08-04T10:41:17Z</time>
      </trkpt>
      <trkpt lat="46.429371" lon="14.233209">
        <ele>1521.2568</ele>
        <time>2016-08-04T10:41:20Z</time>
      </trkpt>
      <trkpt lat="46.429367" lon="14.233261">
        <ele>1520.952</ele>
        <time>2016-08-04T10:41:24Z</time>
      </trkpt>
      <trkpt lat="46.429355" lon="14.233321">
        <ele>1520.3424</ele>
        <time>2016-08-04T10:41:28Z</time>
      </trkpt>
      <trkpt lat="46.429337" lon="14.233364">
        <ele>1519.1232</ele>
        <time>2016-08-04T10:41:32Z</time>
      </trkpt>
      <trkpt lat="46.429333" lon="14.233373">
        <ele>1519.1232</ele>
        <time>2016-08-04T10:41:32Z</time>
      </trkpt>
      <trkpt lat="46.429319" lon="14.233411">
        <ele>1518.5136</ele>
        <time>2016-08-04T10:41:36Z</time>
      </trkpt>
      <trkpt lat="46.429312" lon="14.233418">
        <ele>1518.2088</ele>
        <time>2016-08-04T10:41:36Z</time>
      </trkpt>
      <trkpt lat="46.429299" lon="14.233437">
        <ele>1518.2088</ele>
        <time>2016-08-04T10:41:39Z</time>
      </trkpt>
      <trkpt lat="46.429290" lon="14.233448">
        <ele>1517.904</ele>
        <time>2016-08-04T10:41:40Z</time>
      </trkpt>
      <trkpt lat="46.429282" lon="14.233458">
        <ele>1517.904</ele>
        <time>2016-08-04T10:41:40Z</time>
      </trkpt>
      <trkpt lat="46.429272" lon="14.233464">
        <ele>1517.904</ele>
        <time>2016-08-04T10:41:42Z</time>
      </trkpt>
      <trkpt lat="46.429271" lon="14.233478">
        <ele>1517.904</ele>
        <time>2016-08-04T10:41:43Z</time>
      </trkpt>
      <trkpt lat="46.429248" lon="14.233523">
        <ele>1516.9896</ele>
        <time>2016-08-04T10:41:46Z</time>
      </trkpt>
      <trkpt lat="46.429215" lon="14.233587">
        <ele>1516.38</ele>
        <time>2016-08-04T10:41:50Z</time>
      </trkpt>
      <trkpt lat="46.429159" lon="14.233659">
        <ele>1515.7704</ele>
        <time>2016-08-04T10:41:55Z</time>
      </trkpt>
      <trkpt lat="46.429144" lon="14.233712">
        <ele>1515.4656</ele>
        <time>2016-08-04T10:41:59Z</time>
      </trkpt>
      <trkpt lat="46.429155" lon="14.233890">
        <ele>1515.4656</ele>
        <time>2016-08-04T10:42:10Z</time>
      </trkpt>
      <trkpt lat="46.429130" lon="14.233899">
        <ele>1515.4656</ele>
        <time>2016-08-04T10:42:13Z</time>
      </trkpt>
      <trkpt lat="46.429080" lon="14.233884">
        <ele>1515.1608</ele>
        <time>2016-08-04T10:42:15Z</time>
      </trkpt>
      <trkpt lat="46.429035" lon="14.233848">
        <ele>1515.4656</ele>
        <time>2016-08-04T10:42:19Z</time>
      </trkpt>
      <trkpt lat="46.428922" lon="14.233695">
        <ele>1515.1608</ele>
        <time>2016-08-04T10:42:32Z</time>
      </trkpt>
      <trkpt lat="46.428908" lon="14.233695">
        <ele>1514.5512</ele>
        <time>2016-08-04T10:42:34Z</time>
      </trkpt>
      <trkpt lat="46.428898" lon="14.233711">
        <ele>1514.5512</ele>
        <time>2016-08-04T10:42:37Z</time>
      </trkpt>
      <trkpt lat="46.428899" lon="14.233707">
        <ele>1514.2464</ele>
        <time>2016-08-04T10:42:38Z</time>
      </trkpt>
      <trkpt lat="46.428899" lon="14.233705">
        <ele>1514.2464</ele>
        <time>2016-08-04T10:42:40Z</time>
      </trkpt>
      <trkpt lat="46.428911" lon="14.233681">
        <ele>1514.856</ele>
        <time>2016-08-04T10:42:44Z</time>
      </trkpt>
      <trkpt lat="46.428950" lon="14.233686">
        <ele>1515.4656</ele>
        <time>2016-08-04T10:42:46Z</time>
      </trkpt>
      <trkpt lat="46.428985" lon="14.233685">
        <ele>1515.7704</ele>
        <time>2016-08-04T10:42:50Z</time>
      </trkpt>
      <trkpt lat="46.428999" lon="14.233681">
        <ele>1516.0752</ele>
        <time>2016-08-04T10:42:53Z</time>
      </trkpt>
      <trkpt lat="46.428971" lon="14.233718">
        <ele>1516.38</ele>
        <time>2016-08-04T10:43:00Z</time>
      </trkpt>
      <trkpt lat="46.428811" lon="14.233722">
        <ele>1516.0752</ele>
        <time>2016-08-04T10:43:05Z</time>
      </trkpt>
      <trkpt lat="46.428768" lon="14.233735">
        <ele>1516.0752</ele>
        <time>2016-08-04T10:43:08Z</time>
      </trkpt>
      <trkpt lat="46.428682" lon="14.233733">
        <ele>1516.0752</ele>
        <time>2016-08-04T10:43:16Z</time>
      </trkpt>
      <trkpt lat="46.428680" lon="14.233747">
        <ele>1516.0752</ele>
        <time>2016-08-04T10:43:17Z</time>
      </trkpt>
      <trkpt lat="46.428671" lon="14.233768">
        <ele>1516.0752</ele>
        <time>2016-08-04T10:43:20Z</time>
      </trkpt>
      <trkpt lat="46.428672" lon="14.233803">
        <ele>1516.0752</ele>
        <time>2016-08-04T10:43:24Z</time>
      </trkpt>
      <trkpt lat="46.428685" lon="14.233818">
        <ele>1516.38</ele>
        <time>2016-08-04T10:43:28Z</time>
      </trkpt>
      <trkpt lat="46.428663" lon="14.233867">
        <ele>1516.38</ele>
        <time>2016-08-04T10:43:31Z</time>
      </trkpt>
      <trkpt lat="46.428639" lon="14.233891">
        <ele>1516.38</ele>
        <time>2016-08-04T10:43:34Z</time>
      </trkpt>
      <trkpt lat="46.428616" lon="14.233912">
        <ele>1516.38</ele>
        <time>2016-08-04T10:43:35Z</time>
      </trkpt>
      <trkpt lat="46.428474" lon="14.233732">
        <ele>1516.38</ele>
        <time>2016-08-04T10:43:43Z</time>
      </trkpt>
      <trkpt lat="46.428236" lon="14.233529">
        <ele>1515.4656</ele>
        <time>2016-08-04T10:43:51Z</time>
      </trkpt>
      <trkpt lat="46.428693" lon="14.233585">
        <ele>1513.9416</ele>
        <time>2016-08-04T11:21:42Z</time>
      </trkpt>
      <trkpt lat="46.428836" lon="14.233604">
        <ele>1513.0272</ele>
        <time>2016-08-04T11:21:43Z</time>
      </trkpt>
      <trkpt lat="46.428851" lon="14.233581">
        <ele>1513.332</ele>
        <time>2016-08-04T11:21:46Z</time>
      </trkpt>
      <trkpt lat="46.428840" lon="14.233582">
        <ele>1513.0272</ele>
        <time>2016-08-04T11:21:47Z</time>
      </trkpt>
      <trkpt lat="46.428818" lon="14.233585">
        <ele>1513.332</ele>
        <time>2016-08-04T11:21:50Z</time>
      </trkpt>
      <trkpt lat="46.428793" lon="14.233616">
        <ele>1513.332</ele>
        <time>2016-08-04T11:21:51Z</time>
      </trkpt>
      <trkpt lat="46.428788" lon="14.233623">
        <ele>1513.332</ele>
        <time>2016-08-04T11:21:53Z</time>
      </trkpt>
      <trkpt lat="46.428735" lon="14.233706">
        <ele>1513.9416</ele>
        <time>2016-08-04T11:21:58Z</time>
      </trkpt>
      <trkpt lat="46.428705" lon="14.233787">
        <ele>1515.1608</ele>
        <time>2016-08-04T11:22:06Z</time>
      </trkpt>
      <trkpt lat="46.428688" lon="14.233808">
        <ele>1515.4656</ele>
        <time>2016-08-04T11:22:09Z</time>
      </trkpt>
      <trkpt lat="46.428666" lon="14.233854">
        <ele>1516.0752</ele>
        <time>2016-08-04T11:22:13Z</time>
      </trkpt>
      <trkpt lat="46.428661" lon="14.233867">
        <ele>1516.0752</ele>
        <time>2016-08-04T11:22:13Z</time>
      </trkpt>
      <trkpt lat="46.428571" lon="14.234095">
        <ele>1516.6848</ele>
        <time>2016-08-04T11:22:30Z</time>
      </trkpt>
      <trkpt lat="46.428514" lon="14.234305">
        <ele>1515.7704</ele>
        <time>2016-08-04T11:22:43Z</time>
      </trkpt>
      <trkpt lat="46.428511" lon="14.234380">
        <ele>1514.856</ele>
        <time>2016-08-04T11:22:48Z</time>
      </trkpt>
      <trkpt lat="46.428486" lon="14.234453">
        <ele>1513.9416</ele>
        <time>2016-08-04T11:22:52Z</time>
      </trkpt>
      <trkpt lat="46.428468" lon="14.234467">
        <ele>1513.6368</ele>
        <time>2016-08-04T11:22:55Z</time>
      </trkpt>
      <trkpt lat="46.428432" lon="14.234485">
        <ele>1513.0272</ele>
        <time>2016-08-04T11:22:57Z</time>
      </trkpt>
      <trkpt lat="46.428428" lon="14.234497">
        <ele>1513.0272</ele>
        <time>2016-08-04T11:22:59Z</time>
      </trkpt>
      <trkpt lat="46.428309" lon="14.234688">
        <ele>1512.7224</ele>
        <time>2016-08-04T11:23:15Z</time>
      </trkpt>
      <trkpt lat="46.428248" lon="14.234742">
        <ele>1511.808</ele>
        <time>2016-08-04T11:23:20Z</time>
      </trkpt>
      <trkpt lat="46.428142" lon="14.234766">
        <ele>1509.9792</ele>
        <time>2016-08-04T11:23:29Z</time>
      </trkpt>
      <trkpt lat="46.428120" lon="14.234771">
        <ele>1508.76</ele>
        <time>2016-08-04T11:23:31Z</time>
      </trkpt>
      <trkpt lat="46.428072" lon="14.234753">
        <ele>1507.5408</ele>
        <time>2016-08-04T11:23:34Z</time>
      </trkpt>
      <trkpt lat="46.427908" lon="14.234860">
        <ele>1507.236</ele>
        <time>2016-08-04T11:23:49Z</time>
      </trkpt>
      <trkpt lat="46.427773" lon="14.235052">
        <ele>1507.5408</ele>
        <time>2016-08-04T11:24:08Z</time>
      </trkpt>
      <trkpt lat="46.427747" lon="14.235102">
        <ele>1507.236</ele>
        <time>2016-08-04T11:24:12Z</time>
      </trkpt>
      <trkpt lat="46.427719" lon="14.235141">
        <ele>1506.9312</ele>
        <time>2016-08-04T11:24:17Z</time>
      </trkpt>
      <trkpt lat="46.427694" lon="14.235169">
        <ele>1506.3216</ele>
        <time>2016-08-04T11:24:20Z</time>
      </trkpt>
      <trkpt lat="46.427686" lon="14.235179">
        <ele>1506.3216</ele>
        <time>2016-08-04T11:24:21Z</time>
      </trkpt>
      <trkpt lat="46.427643" lon="14.235228">
        <ele>1505.1024</ele>
        <time>2016-08-04T11:24:25Z</time>
      </trkpt>
      <trkpt lat="46.427635" lon="14.235245">
        <ele>1504.4928</ele>
        <time>2016-08-04T11:24:28Z</time>
      </trkpt>
      <trkpt lat="46.427621" lon="14.235260">
        <ele>1504.4928</ele>
        <time>2016-08-04T11:24:29Z</time>
      </trkpt>
      <trkpt lat="46.427597" lon="14.235275">
        <ele>1503.8832</ele>
        <time>2016-08-04T11:24:32Z</time>
      </trkpt>
      <trkpt lat="46.427570" lon="14.235336">
        <ele>1502.9688</ele>
        <time>2016-08-04T11:24:37Z</time>
      </trkpt>
      <trkpt lat="46.427581" lon="14.235397">
        <ele>1502.0544</ele>
        <time>2016-08-04T11:24:44Z</time>
      </trkpt>
      <trkpt lat="46.427589" lon="14.235400">
        <ele>1501.7496</ele>
        <time>2016-08-04T11:24:44Z</time>
      </trkpt>
      <trkpt lat="46.427604" lon="14.235398">
        <ele>1501.7496</ele>
        <time>2016-08-04T11:24:48Z</time>
      </trkpt>
      <trkpt lat="46.427647" lon="14.235344">
        <ele>1501.14</ele>
        <time>2016-08-04T11:24:54Z</time>
      </trkpt>
      <trkpt lat="46.427656" lon="14.235337">
        <ele>1500.8352</ele>
        <time>2016-08-04T11:24:55Z</time>
      </trkpt>
      <trkpt lat="46.427671" lon="14.235325">
        <ele>1500.2256</ele>
        <time>2016-08-04T11:24:56Z</time>
      </trkpt>
      <trkpt lat="46.427695" lon="14.235297">
        <ele>1499.9208</ele>
        <time>2016-08-04T11:24:59Z</time>
      </trkpt>
      <trkpt lat="46.427704" lon="14.235292">
        <ele>1499.616</ele>
        <time>2016-08-04T11:25:00Z</time>
      </trkpt>
      <trkpt lat="46.427739" lon="14.235285">
        <ele>1498.3968</ele>
        <time>2016-08-04T11:25:04Z</time>
      </trkpt>
      <trkpt lat="46.427802" lon="14.235296">
        <ele>1497.1776</ele>
        <time>2016-08-04T11:25:11Z</time>
      </trkpt>
      <trkpt lat="46.427837" lon="14.235334">
        <ele>1495.9584</ele>
        <time>2016-08-04T11:25:15Z</time>
      </trkpt>
      <trkpt lat="46.427876" lon="14.235324">
        <ele>1494.7392</ele>
        <time>2016-08-04T11:25:21Z</time>
      </trkpt>
      <trkpt lat="46.427923" lon="14.235306">
        <ele>1494.1296</ele>
        <time>2016-08-04T11:25:25Z</time>
      </trkpt>
      <trkpt lat="46.427945" lon="14.235298">
        <ele>1493.52</ele>
        <time>2016-08-04T11:25:26Z</time>
      </trkpt>
      <trkpt lat="46.427981" lon="14.235291">
        <ele>1492.6056</ele>
        <time>2016-08-04T11:25:31Z</time>
      </trkpt>
      <trkpt lat="46.427990" lon="14.235285">
        <ele>1492.3008</ele>
        <time>2016-08-04T11:25:33Z</time>
      </trkpt>
      <trkpt lat="46.428016" lon="14.235274">
        <ele>1491.6912</ele>
        <time>2016-08-04T11:25:35Z</time>
      </trkpt>
      <trkpt lat="46.428024" lon="14.235269">
        <ele>1491.3864</ele>
        <time>2016-08-04T11:25:37Z</time>
      </trkpt>
      <trkpt lat="46.428039" lon="14.235261">
        <ele>1491.0816</ele>
        <time>2016-08-04T11:25:38Z</time>
      </trkpt>
      <trkpt lat="46.428056" lon="14.235261">
        <ele>1490.472</ele>
        <time>2016-08-04T11:25:41Z</time>
      </trkpt>
      <trkpt lat="46.428080" lon="14.235251">
        <ele>1489.8624</ele>
        <time>2016-08-04T11:25:44Z</time>
      </trkpt>
      <trkpt lat="46.428096" lon="14.235242">
        <ele>1489.2528</ele>
        <time>2016-08-04T11:25:46Z</time>
      </trkpt>
      <trkpt lat="46.428110" lon="14.235277">
        <ele>1488.3384</ele>
        <time>2016-08-04T11:25:49Z</time>
      </trkpt>
      <trkpt lat="46.428117" lon="14.235292">
        <ele>1487.7288</ele>
        <time>2016-08-04T11:25:50Z</time>
      </trkpt>
      <trkpt lat="46.428134" lon="14.235295">
        <ele>1487.424</ele>
        <time>2016-08-04T11:25:53Z</time>
      </trkpt>
      <trkpt lat="46.428155" lon="14.235300">
        <ele>1487.1192</ele>
        <time>2016-08-04T11:25:54Z</time>
      </trkpt>
      <trkpt lat="46.428167" lon="14.235303">
        <ele>1486.8144</ele>
        <time>2016-08-04T11:25:56Z</time>
      </trkpt>
      <trkpt lat="46.428182" lon="14.235329">
        <ele>1486.5096</ele>
        <time>2016-08-04T11:25:57Z</time>
      </trkpt>
      <trkpt lat="46.428187" lon="14.235346">
        <ele>1485.9</ele>
        <time>2016-08-04T11:25:58Z</time>
      </trkpt>
      <trkpt lat="46.428194" lon="14.235376">
        <ele>1484.9856</ele>
        <time>2016-08-04T11:26:01Z</time>
      </trkpt>
      <trkpt lat="46.428200" lon="14.235389">
        <ele>1484.6808</ele>
        <time>2016-08-04T11:26:02Z</time>
      </trkpt>
      <trkpt lat="46.428234" lon="14.235438">
        <ele>1484.0712</ele>
        <time>2016-08-04T11:26:06Z</time>
      </trkpt>
      <trkpt lat="46.428242" lon="14.235456">
        <ele>1483.4616</ele>
        <time>2016-08-04T11:26:08Z</time>
      </trkpt>
      <trkpt lat="46.428246" lon="14.235474">
        <ele>1483.1568</ele>
        <time>2016-08-04T11:26:09Z</time>
      </trkpt>
      <trkpt lat="46.428262" lon="14.235524">
        <ele>1482.5472</ele>
        <time>2016-08-04T11:26:12Z</time>
      </trkpt>
      <trkpt lat="46.428267" lon="14.235542">
        <ele>1482.5472</ele>
        <time>2016-08-04T11:26:13Z</time>
      </trkpt>
      <trkpt lat="46.428270" lon="14.235583">
        <ele>1481.328</ele>
        <time>2016-08-04T11:26:16Z</time>
      </trkpt>
      <trkpt lat="46.428271" lon="14.235594">
        <ele>1480.7184</ele>
        <time>2016-08-04T11:26:16Z</time>
      </trkpt>
      <trkpt lat="46.428273" lon="14.235629">
        <ele>1479.804</ele>
        <time>2016-08-04T11:26:20Z</time>
      </trkpt>
      <trkpt lat="46.428261" lon="14.235675">
        <ele>1478.5848</ele>
        <time>2016-08-04T11:26:24Z</time>
      </trkpt>
      <trkpt lat="46.428277" lon="14.235763">
        <ele>1477.6704</ele>
        <time>2016-08-04T11:26:31Z</time>
      </trkpt>
      <trkpt lat="46.428279" lon="14.235793">
        <ele>1476.4512</ele>
        <time>2016-08-04T11:26:35Z</time>
      </trkpt>
      <trkpt lat="46.428258" lon="14.235848">
        <ele>1475.5368</ele>
        <time>2016-08-04T11:26:42Z</time>
      </trkpt>
      <trkpt lat="46.428276" lon="14.235877">
        <ele>1474.6224</ele>
        <time>2016-08-04T11:26:44Z</time>
      </trkpt>
      <trkpt lat="46.428281" lon="14.235907">
        <ele>1474.3176</ele>
        <time>2016-08-04T11:26:47Z</time>
      </trkpt>
      <trkpt lat="46.428280" lon="14.235922">
        <ele>1474.0128</ele>
        <time>2016-08-04T11:26:47Z</time>
      </trkpt>
      <trkpt lat="46.428257" lon="14.235949">
        <ele>1473.0984</ele>
        <time>2016-08-04T11:26:51Z</time>
      </trkpt>
      <trkpt lat="46.428250" lon="14.235963">
        <ele>1472.4888</ele>
        <time>2016-08-04T11:26:52Z</time>
      </trkpt>
      <trkpt lat="46.428250" lon="14.235975">
        <ele>1472.4888</ele>
        <time>2016-08-04T11:26:55Z</time>
      </trkpt>
      <trkpt lat="46.428250" lon="14.235994">
        <ele>1472.184</ele>
        <time>2016-08-04T11:26:56Z</time>
      </trkpt>
      <trkpt lat="46.428267" lon="14.236045">
        <ele>1471.5744</ele>
        <time>2016-08-04T11:27:00Z</time>
      </trkpt>
      <trkpt lat="46.428272" lon="14.236054">
        <ele>1471.2696</ele>
        <time>2016-08-04T11:27:02Z</time>
      </trkpt>
      <trkpt lat="46.428275" lon="14.236066">
        <ele>1470.9648</ele>
        <time>2016-08-04T11:27:03Z</time>
      </trkpt>
      <trkpt lat="46.428274" lon="14.236080">
        <ele>1470.66</ele>
        <time>2016-08-04T11:27:03Z</time>
      </trkpt>
      <trkpt lat="46.428271" lon="14.236112">
        <ele>1470.3552</ele>
        <time>2016-08-04T11:27:06Z</time>
      </trkpt>
      <trkpt lat="46.428269" lon="14.236142">
        <ele>1470.0504</ele>
        <time>2016-08-04T11:27:07Z</time>
      </trkpt>
      <trkpt lat="46.428295" lon="14.236163">
        <ele>1469.136</ele>
        <time>2016-08-04T11:27:11Z</time>
      </trkpt>
      <trkpt lat="46.428321" lon="14.236174">
        <ele>1468.8312</ele>
        <time>2016-08-04T11:27:17Z</time>
      </trkpt>
      <trkpt lat="46.428285" lon="14.236154">
        <ele>1468.8312</ele>
        <time>2016-08-04T11:27:21Z</time>
      </trkpt>
      <trkpt lat="46.428281" lon="14.236153">
        <ele>1468.8312</ele>
        <time>2016-08-04T11:27:22Z</time>
      </trkpt>
      <trkpt lat="46.428296" lon="14.236247">
        <ele>1468.8312</ele>
        <time>2016-08-04T11:27:36Z</time>
      </trkpt>
      <trkpt lat="46.428274" lon="14.236242">
        <ele>1468.8312</ele>
        <time>2016-08-04T11:27:37Z</time>
      </trkpt>
      <trkpt lat="46.428260" lon="14.236270">
        <ele>1468.5264</ele>
        <time>2016-08-04T11:27:42Z</time>
      </trkpt>
      <trkpt lat="46.428252" lon="14.236328">
        <ele>1467.9168</ele>
        <time>2016-08-04T11:27:48Z</time>
      </trkpt>
      <trkpt lat="46.428254" lon="14.236340">
        <ele>1467.3072</ele>
        <time>2016-08-04T11:27:49Z</time>
      </trkpt>
      <trkpt lat="46.428254" lon="14.236364">
        <ele>1466.6976</ele>
        <time>2016-08-04T11:27:53Z</time>
      </trkpt>
      <trkpt lat="46.428249" lon="14.236431">
        <ele>1465.4784</ele>
        <time>2016-08-04T11:28:01Z</time>
      </trkpt>
      <trkpt lat="46.428276" lon="14.236488">
        <ele>1464.2592</ele>
        <time>2016-08-04T11:28:05Z</time>
      </trkpt>
      <trkpt lat="46.428285" lon="14.236518">
        <ele>1463.6496</ele>
        <time>2016-08-04T11:28:08Z</time>
      </trkpt>
      <trkpt lat="46.428283" lon="14.236589">
        <ele>1463.3448</ele>
        <time>2016-08-04T11:28:12Z</time>
      </trkpt>
      <trkpt lat="46.428344" lon="14.236694">
        <ele>1462.1256</ele>
        <time>2016-08-04T11:28:20Z</time>
      </trkpt>
      <trkpt lat="46.428352" lon="14.236705">
        <ele>1462.1256</ele>
        <time>2016-08-04T11:28:20Z</time>
      </trkpt>
      <trkpt lat="46.428389" lon="14.236765">
        <ele>1461.516</ele>
        <time>2016-08-04T11:28:26Z</time>
      </trkpt>
      <trkpt lat="46.428401" lon="14.236786">
        <ele>1460.9064</ele>
        <time>2016-08-04T11:28:28Z</time>
      </trkpt>
      <trkpt lat="46.428409" lon="14.236794">
        <ele>1460.6016</ele>
        <time>2016-08-04T11:28:28Z</time>
      </trkpt>
      <trkpt lat="46.428410" lon="14.236833">
        <ele>1460.2968</ele>
        <time>2016-08-04T11:28:31Z</time>
      </trkpt>
      <trkpt lat="46.428415" lon="14.236886">
        <ele>1459.6872</ele>
        <time>2016-08-04T11:28:34Z</time>
      </trkpt>
      <trkpt lat="46.428422" lon="14.236897">
        <ele>1459.6872</ele>
        <time>2016-08-04T11:28:35Z</time>
      </trkpt>
      <trkpt lat="46.428407" lon="14.236966">
        <ele>1458.7728</ele>
        <time>2016-08-04T11:28:39Z</time>
      </trkpt>
      <trkpt lat="46.428404" lon="14.236978">
        <ele>1458.468</ele>
        <time>2016-08-04T11:28:40Z</time>
      </trkpt>
      <trkpt lat="46.428393" lon="14.237013">
        <ele>1458.468</ele>
        <time>2016-08-04T11:28:43Z</time>
      </trkpt>
      <trkpt lat="46.428385" lon="14.237076">
        <ele>1457.5536</ele>
        <time>2016-08-04T11:28:46Z</time>
      </trkpt>
      <trkpt lat="46.428385" lon="14.237167">
        <ele>1456.3344</ele>
        <time>2016-08-04T11:28:50Z</time>
      </trkpt>
      <trkpt lat="46.428381" lon="14.237257">
        <ele>1455.7248</ele>
        <time>2016-08-04T11:28:54Z</time>
      </trkpt>
      <trkpt lat="46.428393" lon="14.237284">
        <ele>1455.1152</ele>
        <time>2016-08-04T11:28:55Z</time>
      </trkpt>
      <trkpt lat="46.428412" lon="14.237309">
        <ele>1454.5056</ele>
        <time>2016-08-04T11:28:58Z</time>
      </trkpt>
      <trkpt lat="46.428431" lon="14.237331">
        <ele>1454.2008</ele>
        <time>2016-08-04T11:28:59Z</time>
      </trkpt>
      <trkpt lat="46.428430" lon="14.237372">
        <ele>1454.2008</ele>
        <time>2016-08-04T11:29:02Z</time>
      </trkpt>
      <trkpt lat="46.428430" lon="14.237389">
        <ele>1453.896</ele>
        <time>2016-08-04T11:29:03Z</time>
      </trkpt>
      <trkpt lat="46.428444" lon="14.237461">
        <ele>1453.2864</ele>
        <time>2016-08-04T11:29:07Z</time>
      </trkpt>
      <trkpt lat="46.428440" lon="14.237486">
        <ele>1452.9816</ele>
        <time>2016-08-04T11:29:09Z</time>
      </trkpt>
      <trkpt lat="46.428442" lon="14.237506">
        <ele>1452.6768</ele>
        <time>2016-08-04T11:29:10Z</time>
      </trkpt>
      <trkpt lat="46.428429" lon="14.237623">
        <ele>1452.0672</ele>
        <time>2016-08-04T11:29:14Z</time>
      </trkpt>
      <trkpt lat="46.428378" lon="14.237841">
        <ele>1450.848</ele>
        <time>2016-08-04T11:29:25Z</time>
      </trkpt>
      <trkpt lat="46.428358" lon="14.237919">
        <ele>1449.9336</ele>
        <time>2016-08-04T11:29:29Z</time>
      </trkpt>
      <trkpt lat="46.428342" lon="14.237982">
        <ele>1448.7144</ele>
        <time>2016-08-04T11:29:33Z</time>
      </trkpt>
      <trkpt lat="46.428340" lon="14.238014">
        <ele>1448.4096</ele>
        <time>2016-08-04T11:29:34Z</time>
      </trkpt>
      <trkpt lat="46.428330" lon="14.238071">
        <ele>1447.4952</ele>
        <time>2016-08-04T11:29:38Z</time>
      </trkpt>
      <trkpt lat="46.428323" lon="14.238150">
        <ele>1446.5808</ele>
        <time>2016-08-04T11:29:44Z</time>
      </trkpt>
      <trkpt lat="46.428319" lon="14.238209">
        <ele>1445.6664</ele>
        <time>2016-08-04T11:29:48Z</time>
      </trkpt>
      <trkpt lat="46.428312" lon="14.238221">
        <ele>1445.3616</ele>
        <time>2016-08-04T11:29:49Z</time>
      </trkpt>
      <trkpt lat="46.428309" lon="14.238234">
        <ele>1445.0568</ele>
        <time>2016-08-04T11:29:49Z</time>
      </trkpt>
      <trkpt lat="46.428316" lon="14.238293">
        <ele>1444.4472</ele>
        <time>2016-08-04T11:29:53Z</time>
      </trkpt>
      <trkpt lat="46.428304" lon="14.238343">
        <ele>1443.8376</ele>
        <time>2016-08-04T11:29:56Z</time>
      </trkpt>
      <trkpt lat="46.428302" lon="14.238365">
        <ele>1443.5328</ele>
        <time>2016-08-04T11:29:59Z</time>
      </trkpt>
      <trkpt lat="46.428300" lon="14.238377">
        <ele>1443.5328</ele>
        <time>2016-08-04T11:30:00Z</time>
      </trkpt>
      <trkpt lat="46.428291" lon="14.238397">
        <ele>1443.228</ele>
        <time>2016-08-04T11:30:01Z</time>
      </trkpt>
      <trkpt lat="46.428286" lon="14.238427">
        <ele>1442.9232</ele>
        <time>2016-08-04T11:30:04Z</time>
      </trkpt>
      <trkpt lat="46.428286" lon="14.238446">
        <ele>1442.6184</ele>
        <time>2016-08-04T11:30:07Z</time>
      </trkpt>
      <trkpt lat="46.428289" lon="14.238453">
        <ele>1442.3136</ele>
        <time>2016-08-04T11:30:08Z</time>
      </trkpt>
      <trkpt lat="46.428294" lon="14.238471">
        <ele>1442.0088</ele>
        <time>2016-08-04T11:30:09Z</time>
      </trkpt>
      <trkpt lat="46.428309" lon="14.238505">
        <ele>1441.3992</ele>
        <time>2016-08-04T11:30:14Z</time>
      </trkpt>
      <trkpt lat="46.428316" lon="14.238515">
        <ele>1441.0944</ele>
        <time>2016-08-04T11:30:15Z</time>
      </trkpt>
      <trkpt lat="46.428315" lon="14.238527">
        <ele>1441.0944</ele>
        <time>2016-08-04T11:30:16Z</time>
      </trkpt>
      <trkpt lat="46.428309" lon="14.238582">
        <ele>1440.4848</ele>
        <time>2016-08-04T11:30:19Z</time>
      </trkpt>
      <trkpt lat="46.428325" lon="14.238596">
        <ele>1439.8752</ele>
        <time>2016-08-04T11:30:22Z</time>
      </trkpt>
      <trkpt lat="46.428351" lon="14.238634">
        <ele>1438.9608</ele>
        <time>2016-08-04T11:30:24Z</time>
      </trkpt>
      <trkpt lat="46.428378" lon="14.238665">
        <ele>1438.3512</ele>
        <time>2016-08-04T11:30:27Z</time>
      </trkpt>
      <trkpt lat="46.428392" lon="14.238683">
        <ele>1438.0464</ele>
        <time>2016-08-04T11:30:30Z</time>
      </trkpt>
      <trkpt lat="46.428391" lon="14.238694">
        <ele>1438.0464</ele>
        <time>2016-08-04T11:30:31Z</time>
      </trkpt>
      <trkpt lat="46.428377" lon="14.238755">
        <ele>1437.4368</ele>
        <time>2016-08-04T11:30:35Z</time>
      </trkpt>
      <trkpt lat="46.428374" lon="14.238825">
        <ele>1436.8272</ele>
        <time>2016-08-04T11:30:39Z</time>
      </trkpt>
      <trkpt lat="46.428349" lon="14.238902">
        <ele>1435.9128</ele>
        <time>2016-08-04T11:30:43Z</time>
      </trkpt>
      <trkpt lat="46.428331" lon="14.238979">
        <ele>1434.6936</ele>
        <time>2016-08-04T11:30:46Z</time>
      </trkpt>
      <trkpt lat="46.428334" lon="14.238995">
        <ele>1434.6936</ele>
        <time>2016-08-04T11:30:47Z</time>
      </trkpt>
      <trkpt lat="46.428335" lon="14.239089">
        <ele>1433.4744</ele>
        <time>2016-08-04T11:30:51Z</time>
      </trkpt>
      <trkpt lat="46.428312" lon="14.239204">
        <ele>1432.2552</ele>
        <time>2016-08-04T11:30:58Z</time>
      </trkpt>
      <trkpt lat="46.428281" lon="14.239248">
        <ele>1431.3408</ele>
        <time>2016-08-04T11:31:02Z</time>
      </trkpt>
      <trkpt lat="46.428277" lon="14.239258">
        <ele>1431.3408</ele>
        <time>2016-08-04T11:31:02Z</time>
      </trkpt>
      <trkpt lat="46.428270" lon="14.239270">
        <ele>1431.036</ele>
        <time>2016-08-04T11:31:03Z</time>
      </trkpt>
      <trkpt lat="46.428245" lon="14.239306">
        <ele>1430.1216</ele>
        <time>2016-08-04T11:31:08Z</time>
      </trkpt>
      <trkpt lat="46.428210" lon="14.239324">
        <ele>1428.9024</ele>
        <time>2016-08-04T11:31:12Z</time>
      </trkpt>
      <trkpt lat="46.428180" lon="14.239324">
        <ele>1427.6832</ele>
        <time>2016-08-04T11:31:16Z</time>
      </trkpt>
      <trkpt lat="46.428139" lon="14.239348">
        <ele>1426.464</ele>
        <time>2016-08-04T11:31:20Z</time>
      </trkpt>
      <trkpt lat="46.428123" lon="14.239368">
        <ele>1425.8544</ele>
        <time>2016-08-04T11:31:21Z</time>
      </trkpt>
      <trkpt lat="46.428111" lon="14.239388">
        <ele>1425.5496</ele>
        <time>2016-08-04T11:31:24Z</time>
      </trkpt>
      <trkpt lat="46.428065" lon="14.239444">
        <ele>1424.3304</ele>
        <time>2016-08-04T11:31:29Z</time>
      </trkpt>
      <trkpt lat="46.428062" lon="14.239537">
        <ele>1423.1112</ele>
        <time>2016-08-04T11:31:36Z</time>
      </trkpt>
      <trkpt lat="46.428068" lon="14.239609">
        <ele>1422.1968</ele>
        <time>2016-08-04T11:31:40Z</time>
      </trkpt>
      <trkpt lat="46.428077" lon="14.239626">
        <ele>1421.892</ele>
        <time>2016-08-04T11:31:43Z</time>
      </trkpt>
      <trkpt lat="46.428093" lon="14.239636">
        <ele>1421.5872</ele>
        <time>2016-08-04T11:31:44Z</time>
      </trkpt>
      <trkpt lat="46.428094" lon="14.239641">
        <ele>1421.5872</ele>
        <time>2016-08-04T11:31:47Z</time>
      </trkpt>
      <trkpt lat="46.428154" lon="14.239658">
        <ele>1420.6728</ele>
        <time>2016-08-04T11:31:49Z</time>
      </trkpt>
      <trkpt lat="46.428177" lon="14.239669">
        <ele>1420.6728</ele>
        <time>2016-08-04T11:31:51Z</time>
      </trkpt>
      <trkpt lat="46.428184" lon="14.239676">
        <ele>1420.368</ele>
        <time>2016-08-04T11:31:52Z</time>
      </trkpt>
      <trkpt lat="46.428232" lon="14.239711">
        <ele>1419.7584</ele>
        <time>2016-08-04T11:31:56Z</time>
      </trkpt>
      <trkpt lat="46.428247" lon="14.239727">
        <ele>1419.4536</ele>
        <time>2016-08-04T11:31:57Z</time>
      </trkpt>
      <trkpt lat="46.428269" lon="14.239795">
        <ele>1419.1488</ele>
        <time>2016-08-04T11:32:02Z</time>
      </trkpt>
      <trkpt lat="46.428265" lon="14.239849">
        <ele>1418.5392</ele>
        <time>2016-08-04T11:32:04Z</time>
      </trkpt>
      <trkpt lat="46.428264" lon="14.239873">
        <ele>1417.9296</ele>
        <time>2016-08-04T11:32:07Z</time>
      </trkpt>
      <trkpt lat="46.428244" lon="14.239922">
        <ele>1417.32</ele>
        <time>2016-08-04T11:32:11Z</time>
      </trkpt>
      <trkpt lat="46.428237" lon="14.239930">
        <ele>1417.0152</ele>
        <time>2016-08-04T11:32:11Z</time>
      </trkpt>
      <trkpt lat="46.428212" lon="14.239959">
        <ele>1416.1008</ele>
        <time>2016-08-04T11:32:15Z</time>
      </trkpt>
      <trkpt lat="46.428201" lon="14.239970">
        <ele>1416.1008</ele>
        <time>2016-08-04T11:32:15Z</time>
      </trkpt>
      <trkpt lat="46.428143" lon="14.240030">
        <ele>1414.8816</ele>
        <time>2016-08-04T11:32:22Z</time>
      </trkpt>
      <trkpt lat="46.428114" lon="14.240071">
        <ele>1413.6624</ele>
        <time>2016-08-04T11:32:26Z</time>
      </trkpt>
      <trkpt lat="46.428112" lon="14.240086">
        <ele>1413.6624</ele>
        <time>2016-08-04T11:32:27Z</time>
      </trkpt>
      <trkpt lat="46.428111" lon="14.240119">
        <ele>1413.6624</ele>
        <time>2016-08-04T11:32:29Z</time>
      </trkpt>
      <trkpt lat="46.428086" lon="14.240146">
        <ele>1413.3576</ele>
        <time>2016-08-04T11:32:31Z</time>
      </trkpt>
      <trkpt lat="46.428065" lon="14.240157">
        <ele>1412.748</ele>
        <time>2016-08-04T11:32:34Z</time>
      </trkpt>
      <trkpt lat="46.428064" lon="14.240156">
        <ele>1412.748</ele>
        <time>2016-08-04T11:32:34Z</time>
      </trkpt>
      <trkpt lat="46.428049" lon="14.240197">
        <ele>1411.5288</ele>
        <time>2016-08-04T11:32:39Z</time>
      </trkpt>
      <trkpt lat="46.428043" lon="14.240199">
        <ele>1410.3096</ele>
        <time>2016-08-04T11:32:42Z</time>
      </trkpt>
      <trkpt lat="46.428014" lon="14.240265">
        <ele>1409.7</ele>
        <time>2016-08-04T11:32:51Z</time>
      </trkpt>
      <trkpt lat="46.428001" lon="14.240290">
        <ele>1409.0904</ele>
        <time>2016-08-04T11:32:54Z</time>
      </trkpt>
      <trkpt lat="46.427985" lon="14.240318">
        <ele>1408.7856</ele>
        <time>2016-08-04T11:32:56Z</time>
      </trkpt>
      <trkpt lat="46.427951" lon="14.240385">
        <ele>1408.176</ele>
        <time>2016-08-04T11:33:01Z</time>
      </trkpt>
      <trkpt lat="46.427942" lon="14.240446">
        <ele>1407.5664</ele>
        <time>2016-08-04T11:33:06Z</time>
      </trkpt>
      <trkpt lat="46.427940" lon="14.240424">
        <ele>1407.2616</ele>
        <time>2016-08-04T11:33:14Z</time>
      </trkpt>
      <trkpt lat="46.427924" lon="14.240471">
        <ele>1406.9568</ele>
        <time>2016-08-04T11:33:21Z</time>
      </trkpt>
      <trkpt lat="46.427906" lon="14.240499">
        <ele>1405.7376</ele>
        <time>2016-08-04T11:33:28Z</time>
      </trkpt>
      <trkpt lat="46.427916" lon="14.240516">
        <ele>1405.4328</ele>
        <time>2016-08-04T11:33:32Z</time>
      </trkpt>
      <trkpt lat="46.427921" lon="14.240511">
        <ele>1405.4328</ele>
        <time>2016-08-04T11:33:33Z</time>
      </trkpt>
      <trkpt lat="46.427938" lon="14.240508">
        <ele>1404.8232</ele>
        <time>2016-08-04T11:33:36Z</time>
      </trkpt>
      <trkpt lat="46.427991" lon="14.240487">
        <ele>1403.9088</ele>
        <time>2016-08-04T11:33:44Z</time>
      </trkpt>
      <trkpt lat="46.427990" lon="14.240478">
        <ele>1403.9088</ele>
        <time>2016-08-04T11:33:44Z</time>
      </trkpt>
      <trkpt lat="46.427998" lon="14.240445">
        <ele>1402.6896</ele>
        <time>2016-08-04T11:33:48Z</time>
      </trkpt>
      <trkpt lat="46.428073" lon="14.240436">
        <ele>1401.4704</ele>
        <time>2016-08-04T11:33:55Z</time>
      </trkpt>
      <trkpt lat="46.428099" lon="14.240435">
        <ele>1400.556</ele>
        <time>2016-08-04T11:34:00Z</time>
      </trkpt>
      <trkpt lat="46.428137" lon="14.240427">
        <ele>1399.3368</ele>
        <time>2016-08-04T11:34:07Z</time>
      </trkpt>
      <trkpt lat="46.428224" lon="14.240415">
        <ele>1398.1176</ele>
        <time>2016-08-04T11:34:12Z</time>
      </trkpt>
      <trkpt lat="46.428248" lon="14.240422">
        <ele>1397.508</ele>
        <time>2016-08-04T11:34:15Z</time>
      </trkpt>
      <trkpt lat="46.428258" lon="14.240424">
        <ele>1397.2032</ele>
        <time>2016-08-04T11:34:17Z</time>
      </trkpt>
      <trkpt lat="46.428318" lon="14.240445">
        <ele>1396.8984</ele>
        <time>2016-08-04T11:34:22Z</time>
      </trkpt>
      <trkpt lat="46.428338" lon="14.240463">
        <ele>1396.5936</ele>
        <time>2016-08-04T11:34:23Z</time>
      </trkpt>
      <trkpt lat="46.428346" lon="14.240491">
        <ele>1395.984</ele>
        <time>2016-08-04T11:34:26Z</time>
      </trkpt>
      <trkpt lat="46.428312" lon="14.240518">
        <ele>1395.0696</ele>
        <time>2016-08-04T11:34:29Z</time>
      </trkpt>
      <trkpt lat="46.428275" lon="14.240538">
        <ele>1394.46</ele>
        <time>2016-08-04T11:34:31Z</time>
      </trkpt>
      <trkpt lat="46.428255" lon="14.240553">
        <ele>1393.8504</ele>
        <time>2016-08-04T11:34:35Z</time>
      </trkpt>
      <trkpt lat="46.428234" lon="14.240620">
        <ele>1392.6312</ele>
        <time>2016-08-04T11:34:45Z</time>
      </trkpt>
      <trkpt lat="46.428214" lon="14.240659">
        <ele>1391.7168</ele>
        <time>2016-08-04T11:34:50Z</time>
      </trkpt>
      <trkpt lat="46.428195" lon="14.240722">
        <ele>1390.4976</ele>
        <time>2016-08-04T11:34:57Z</time>
      </trkpt>
      <trkpt lat="46.428193" lon="14.240734">
        <ele>1390.4976</ele>
        <time>2016-08-04T11:34:57Z</time>
      </trkpt>
      <trkpt lat="46.428181" lon="14.240800">
        <ele>1389.2784</ele>
        <time>2016-08-04T11:35:02Z</time>
      </trkpt>
      <trkpt lat="46.428177" lon="14.240815">
        <ele>1389.2784</ele>
        <time>2016-08-04T11:35:04Z</time>
      </trkpt>
      <trkpt lat="46.428167" lon="14.240868">
        <ele>1388.0592</ele>
        <time>2016-08-04T11:35:08Z</time>
      </trkpt>
      <trkpt lat="46.428161" lon="14.240876">
        <ele>1388.0592</ele>
        <time>2016-08-04T11:35:09Z</time>
      </trkpt>
      <trkpt lat="46.428160" lon="14.240889">
        <ele>1387.1448</ele>
        <time>2016-08-04T11:35:13Z</time>
      </trkpt>
      <trkpt lat="46.428186" lon="14.240870">
        <ele>1385.9256</ele>
        <time>2016-08-04T11:35:32Z</time>
      </trkpt>
      <trkpt lat="46.428201" lon="14.240839">
        <ele>1384.7064</ele>
        <time>2016-08-04T11:35:36Z</time>
      </trkpt>
      <trkpt lat="46.428247" lon="14.240833">
        <ele>1383.792</ele>
        <time>2016-08-04T11:35:44Z</time>
      </trkpt>
      <trkpt lat="46.428313" lon="14.240837">
        <ele>1382.8776</ele>
        <time>2016-08-04T11:35:50Z</time>
      </trkpt>
      <trkpt lat="46.428340" lon="14.240821">
        <ele>1381.6584</ele>
        <time>2016-08-04T11:35:55Z</time>
      </trkpt>
      <trkpt lat="46.428435" lon="14.240854">
        <ele>1380.4392</ele>
        <time>2016-08-04T11:36:03Z</time>
      </trkpt>
      <trkpt lat="46.428464" lon="14.240865">
        <ele>1379.5248</ele>
        <time>2016-08-04T11:36:07Z</time>
      </trkpt>
      <trkpt lat="46.428457" lon="14.240858">
        <ele>1379.5248</ele>
        <time>2016-08-04T11:36:09Z</time>
      </trkpt>
      <trkpt lat="46.428444" lon="14.240838">
        <ele>1378.9152</ele>
        <time>2016-08-04T11:36:11Z</time>
      </trkpt>
      <trkpt lat="46.428462" lon="14.240851">
        <ele>1378.9152</ele>
        <time>2016-08-04T11:36:14Z</time>
      </trkpt>
      <trkpt lat="46.428478" lon="14.240867">
        <ele>1378.9152</ele>
        <time>2016-08-04T11:36:17Z</time>
      </trkpt>
      <trkpt lat="46.428507" lon="14.240899">
        <ele>1378.3056</ele>
        <time>2016-08-04T11:36:22Z</time>
      </trkpt>
      <trkpt lat="46.428530" lon="14.240898">
        <ele>1377.0864</ele>
        <time>2016-08-04T11:36:45Z</time>
      </trkpt>
      <trkpt lat="46.428558" lon="14.240881">
        <ele>1375.8672</ele>
        <time>2016-08-04T11:36:50Z</time>
      </trkpt>
      <trkpt lat="46.428584" lon="14.240847">
        <ele>1374.9528</ele>
        <time>2016-08-04T11:36:59Z</time>
      </trkpt>
      <trkpt lat="46.428573" lon="14.240838">
        <ele>1374.648</ele>
        <time>2016-08-04T11:37:01Z</time>
      </trkpt>
      <trkpt lat="46.428564" lon="14.240869">
        <ele>1373.7336</ele>
        <time>2016-08-04T11:37:07Z</time>
      </trkpt>
      <trkpt lat="46.428566" lon="14.240910">
        <ele>1373.124</ele>
        <time>2016-08-04T11:37:08Z</time>
      </trkpt>
      <trkpt lat="46.428554" lon="14.240930">
        <ele>1372.8192</ele>
        <time>2016-08-04T11:37:11Z</time>
      </trkpt>
      <trkpt lat="46.428546" lon="14.240936">
        <ele>1372.5144</ele>
        <time>2016-08-04T11:37:12Z</time>
      </trkpt>
      <trkpt lat="46.428536" lon="14.240954">
        <ele>1372.2096</ele>
        <time>2016-08-04T11:37:13Z</time>
      </trkpt>
      <trkpt lat="46.428539" lon="14.240993">
        <ele>1371.9048</ele>
        <time>2016-08-04T11:37:16Z</time>
      </trkpt>
      <trkpt lat="46.428523" lon="14.241049">
        <ele>1370.6856</ele>
        <time>2016-08-04T11:37:20Z</time>
      </trkpt>
      <trkpt lat="46.428526" lon="14.241080">
        <ele>1370.076</ele>
        <time>2016-08-04T11:37:23Z</time>
      </trkpt>
      <trkpt lat="46.428526" lon="14.241111">
        <ele>1369.4664</ele>
        <time>2016-08-04T11:37:24Z</time>
      </trkpt>
      <trkpt lat="46.428524" lon="14.241124">
        <ele>1369.4664</ele>
        <time>2016-08-04T11:37:26Z</time>
      </trkpt>
      <trkpt lat="46.428521" lon="14.241135">
        <ele>1369.1616</ele>
        <time>2016-08-04T11:37:27Z</time>
      </trkpt>
      <trkpt lat="46.428525" lon="14.241185">
        <ele>1368.8568</ele>
        <time>2016-08-04T11:37:31Z</time>
      </trkpt>
      <trkpt lat="46.428529" lon="14.241219">
        <ele>1368.552</ele>
        <time>2016-08-04T11:37:34Z</time>
      </trkpt>
      <trkpt lat="46.428534" lon="14.241326">
        <ele>1367.3328</ele>
        <time>2016-08-04T11:37:42Z</time>
      </trkpt>
      <trkpt lat="46.428545" lon="14.241359">
        <ele>1366.1136</ele>
        <time>2016-08-04T11:37:46Z</time>
      </trkpt>
      <trkpt lat="46.428534" lon="14.241421">
        <ele>1365.1992</ele>
        <time>2016-08-04T11:37:51Z</time>
      </trkpt>
      <trkpt lat="46.428530" lon="14.241417">
        <ele>1365.1992</ele>
        <time>2016-08-04T11:37:51Z</time>
      </trkpt>
      <trkpt lat="46.428506" lon="14.241464">
        <ele>1363.6752</ele>
        <time>2016-08-04T11:37:58Z</time>
      </trkpt>
      <trkpt lat="46.428472" lon="14.241505">
        <ele>1363.0656</ele>
        <time>2016-08-04T11:38:02Z</time>
      </trkpt>
      <trkpt lat="46.428461" lon="14.241511">
        <ele>1362.7608</ele>
        <time>2016-08-04T11:38:05Z</time>
      </trkpt>
      <trkpt lat="46.428448" lon="14.241514">
        <ele>1362.456</ele>
        <time>2016-08-04T11:38:06Z</time>
      </trkpt>
      <trkpt lat="46.428444" lon="14.241525">
        <ele>1362.1512</ele>
        <time>2016-08-04T11:38:09Z</time>
      </trkpt>
      <trkpt lat="46.428433" lon="14.241553">
        <ele>1361.5416</ele>
        <time>2016-08-04T11:38:11Z</time>
      </trkpt>
      <trkpt lat="46.428420" lon="14.241588">
        <ele>1360.3224</ele>
        <time>2016-08-04T11:38:15Z</time>
      </trkpt>
      <trkpt lat="46.428395" lon="14.241595">
        <ele>1359.408</ele>
        <time>2016-08-04T11:38:21Z</time>
      </trkpt>
      <trkpt lat="46.428394" lon="14.241589">
        <ele>1359.1032</ele>
        <time>2016-08-04T11:38:22Z</time>
      </trkpt>
      <trkpt lat="46.428381" lon="14.241614">
        <ele>1359.1032</ele>
        <time>2016-08-04T11:38:25Z</time>
      </trkpt>
      <trkpt lat="46.428375" lon="14.241652">
        <ele>1359.1032</ele>
        <time>2016-08-04T11:38:28Z</time>
      </trkpt>
      <trkpt lat="46.428370" lon="14.241683">
        <ele>1358.7984</ele>
        <time>2016-08-04T11:38:29Z</time>
      </trkpt>
      <trkpt lat="46.428362" lon="14.241715">
        <ele>1358.1888</ele>
        <time>2016-08-04T11:38:32Z</time>
      </trkpt>
      <trkpt lat="46.428333" lon="14.241800">
        <ele>1357.2744</ele>
        <time>2016-08-04T11:38:37Z</time>
      </trkpt>
      <trkpt lat="46.428331" lon="14.241813">
        <ele>1356.9696</ele>
        <time>2016-08-04T11:38:38Z</time>
      </trkpt>
      <trkpt lat="46.428310" lon="14.241857">
        <ele>1356.0552</ele>
        <time>2016-08-04T11:38:42Z</time>
      </trkpt>
      <trkpt lat="46.428267" lon="14.241904">
        <ele>1355.1408</ele>
        <time>2016-08-04T11:38:48Z</time>
      </trkpt>
      <trkpt lat="46.428252" lon="14.241921">
        <ele>1355.1408</ele>
        <time>2016-08-04T11:38:49Z</time>
      </trkpt>
      <trkpt lat="46.428243" lon="14.241932">
        <ele>1354.5312</ele>
        <time>2016-08-04T11:38:52Z</time>
      </trkpt>
      <trkpt lat="46.428243" lon="14.241952">
        <ele>1354.2264</ele>
        <time>2016-08-04T11:38:55Z</time>
      </trkpt>
      <trkpt lat="46.428248" lon="14.241964">
        <ele>1353.9216</ele>
        <time>2016-08-04T11:38:56Z</time>
      </trkpt>
      <trkpt lat="46.428224" lon="14.242014">
        <ele>1353.0072</ele>
        <time>2016-08-04T11:39:03Z</time>
      </trkpt>
      <trkpt lat="46.428237" lon="14.242038">
        <ele>1351.788</ele>
        <time>2016-08-04T11:39:07Z</time>
      </trkpt>
      <trkpt lat="46.428281" lon="14.242022">
        <ele>1350.5688</ele>
        <time>2016-08-04T11:39:11Z</time>
      </trkpt>
      <trkpt lat="46.428332" lon="14.242004">
        <ele>1349.6544</ele>
        <time>2016-08-04T11:39:16Z</time>
      </trkpt>
      <trkpt lat="46.428385" lon="14.242048">
        <ele>1348.4352</ele>
        <time>2016-08-04T11:39:22Z</time>
      </trkpt>
      <trkpt lat="46.428396" lon="14.242057">
        <ele>1348.1304</ele>
        <time>2016-08-04T11:39:23Z</time>
      </trkpt>
      <trkpt lat="46.428405" lon="14.242095">
        <ele>1347.5208</ele>
        <time>2016-08-04T11:39:24Z</time>
      </trkpt>
      <trkpt lat="46.428404" lon="14.242134">
        <ele>1346.9112</ele>
        <time>2016-08-04T11:39:27Z</time>
      </trkpt>
      <trkpt lat="46.428368" lon="14.242177">
        <ele>1345.9968</ele>
        <time>2016-08-04T11:39:31Z</time>
      </trkpt>
      <trkpt lat="46.428341" lon="14.242203">
        <ele>1344.4728</ele>
        <time>2016-08-04T11:39:34Z</time>
      </trkpt>
      <trkpt lat="46.428316" lon="14.242219">
        <ele>1343.5584</ele>
        <time>2016-08-04T11:39:36Z</time>
      </trkpt>
      <trkpt lat="46.428311" lon="14.242222">
        <ele>1343.2536</ele>
        <time>2016-08-04T11:39:38Z</time>
      </trkpt>
      <trkpt lat="46.428313" lon="14.242244">
        <ele>1342.644</ele>
        <time>2016-08-04T11:39:41Z</time>
      </trkpt>
      <trkpt lat="46.428321" lon="14.242295">
        <ele>1341.4248</ele>
        <time>2016-08-04T11:39:46Z</time>
      </trkpt>
      <trkpt lat="46.428282" lon="14.242347">
        <ele>1340.5104</ele>
        <time>2016-08-04T11:39:51Z</time>
      </trkpt>
      <trkpt lat="46.428282" lon="14.242354">
        <ele>1340.2056</ele>
        <time>2016-08-04T11:39:53Z</time>
      </trkpt>
      <trkpt lat="46.428278" lon="14.242380">
        <ele>1338.9864</ele>
        <time>2016-08-04T11:39:58Z</time>
      </trkpt>
      <trkpt lat="46.428274" lon="14.242418">
        <ele>1337.7672</ele>
        <time>2016-08-04T11:40:14Z</time>
      </trkpt>
      <trkpt lat="46.428217" lon="14.242472">
        <ele>1336.8528</ele>
        <time>2016-08-04T11:40:25Z</time>
      </trkpt>
      <trkpt lat="46.428255" lon="14.242486">
        <ele>1335.9384</ele>
        <time>2016-08-04T11:40:35Z</time>
      </trkpt>
      <trkpt lat="46.428282" lon="14.242493">
        <ele>1334.7192</ele>
        <time>2016-08-04T11:40:40Z</time>
      </trkpt>
      <trkpt lat="46.428295" lon="14.242441">
        <ele>1333.5</ele>
        <time>2016-08-04T11:40:48Z</time>
      </trkpt>
      <trkpt lat="46.428349" lon="14.242442">
        <ele>1332.8904</ele>
        <time>2016-08-04T11:41:00Z</time>
      </trkpt>
      <trkpt lat="46.428399" lon="14.242483">
        <ele>1332.2808</ele>
        <time>2016-08-04T11:41:04Z</time>
      </trkpt>
      <trkpt lat="46.428411" lon="14.242485">
        <ele>1331.976</ele>
        <time>2016-08-04T11:41:06Z</time>
      </trkpt>
      <trkpt lat="46.428437" lon="14.242487">
        <ele>1331.0616</ele>
        <time>2016-08-04T11:41:11Z</time>
      </trkpt>
      <trkpt lat="46.428461" lon="14.242483">
        <ele>1330.1472</ele>
        <time>2016-08-04T11:41:16Z</time>
      </trkpt>
      <trkpt lat="46.428505" lon="14.242515">
        <ele>1328.928</ele>
        <time>2016-08-04T11:41:23Z</time>
      </trkpt>
      <trkpt lat="46.428534" lon="14.242523">
        <ele>1327.7088</ele>
        <time>2016-08-04T11:41:27Z</time>
      </trkpt>
      <trkpt lat="46.428538" lon="14.242498">
        <ele>1326.7944</ele>
        <time>2016-08-04T11:41:35Z</time>
      </trkpt>
      <trkpt lat="46.428621" lon="14.242604">
        <ele>1325.88</ele>
        <time>2016-08-04T11:41:42Z</time>
      </trkpt>
      <trkpt lat="46.428619" lon="14.242616">
        <ele>1325.5752</ele>
        <time>2016-08-04T11:41:42Z</time>
      </trkpt>
      <trkpt lat="46.428595" lon="14.242630">
        <ele>1324.9656</ele>
        <time>2016-08-04T11:41:46Z</time>
      </trkpt>
      <trkpt lat="46.428582" lon="14.242645">
        <ele>1324.6608</ele>
        <time>2016-08-04T11:41:47Z</time>
      </trkpt>
      <trkpt lat="46.428569" lon="14.242660">
        <ele>1324.0512</ele>
        <time>2016-08-04T11:41:50Z</time>
      </trkpt>
      <trkpt lat="46.428559" lon="14.242667">
        <ele>1323.7464</ele>
        <time>2016-08-04T11:41:53Z</time>
      </trkpt>
      <trkpt lat="46.428559" lon="14.242669">
        <ele>1323.7464</ele>
        <time>2016-08-04T11:41:54Z</time>
      </trkpt>
      <trkpt lat="46.428550" lon="14.242677">
        <ele>1322.5272</ele>
        <time>2016-08-04T11:41:58Z</time>
      </trkpt>
      <trkpt lat="46.428519" lon="14.242705">
        <ele>1321.308</ele>
        <time>2016-08-04T11:42:05Z</time>
      </trkpt>
      <trkpt lat="46.428528" lon="14.242742">
        <ele>1320.0888</ele>
        <time>2016-08-04T11:42:10Z</time>
      </trkpt>
      <trkpt lat="46.428550" lon="14.242809">
        <ele>1319.1744</ele>
        <time>2016-08-04T11:42:17Z</time>
      </trkpt>
      <trkpt lat="46.428564" lon="14.242870">
        <ele>1317.9552</ele>
        <time>2016-08-04T11:42:23Z</time>
      </trkpt>
      <trkpt lat="46.428539" lon="14.242847">
        <ele>1317.0408</ele>
        <time>2016-08-04T11:42:29Z</time>
      </trkpt>
      <trkpt lat="46.428490" lon="14.242901">
        <ele>1316.1264</ele>
        <time>2016-08-04T11:42:40Z</time>
      </trkpt>
      <trkpt lat="46.428505" lon="14.242923">
        <ele>1315.212</ele>
        <time>2016-08-04T11:42:44Z</time>
      </trkpt>
      <trkpt lat="46.428510" lon="14.242921">
        <ele>1314.9072</ele>
        <time>2016-08-04T11:42:47Z</time>
      </trkpt>
      <trkpt lat="46.428517" lon="14.242915">
        <ele>1313.688</ele>
        <time>2016-08-04T11:42:52Z</time>
      </trkpt>
      <trkpt lat="46.428543" lon="14.242911">
        <ele>1312.4688</ele>
        <time>2016-08-04T11:42:59Z</time>
      </trkpt>
      <trkpt lat="46.428579" lon="14.242913">
        <ele>1311.2496</ele>
        <time>2016-08-04T11:43:11Z</time>
      </trkpt>
      <trkpt lat="46.428635" lon="14.242958">
        <ele>1310.3352</ele>
        <time>2016-08-04T11:43:19Z</time>
      </trkpt>
      <trkpt lat="46.428592" lon="14.242951">
        <ele>1309.116</ele>
        <time>2016-08-04T11:43:27Z</time>
      </trkpt>
      <trkpt lat="46.428646" lon="14.242987">
        <ele>1308.5064</ele>
        <time>2016-08-04T11:43:33Z</time>
      </trkpt>
      <trkpt lat="46.428658" lon="14.242983">
        <ele>1307.8968</ele>
        <time>2016-08-04T11:43:35Z</time>
      </trkpt>
      <trkpt lat="46.428671" lon="14.242984">
        <ele>1306.9824</ele>
        <time>2016-08-04T11:43:39Z</time>
      </trkpt>
      <trkpt lat="46.428755" lon="14.242995">
        <ele>1306.068</ele>
        <time>2016-08-04T11:43:49Z</time>
      </trkpt>
      <trkpt lat="46.428796" lon="14.243019">
        <ele>1305.1536</ele>
        <time>2016-08-04T11:43:52Z</time>
      </trkpt>
      <trkpt lat="46.428887" lon="14.243060">
        <ele>1304.8488</ele>
        <time>2016-08-04T11:43:53Z</time>
      </trkpt>
      <trkpt lat="46.428917" lon="14.243079">
        <ele>1304.544</ele>
        <time>2016-08-04T11:43:54Z</time>
      </trkpt>
      <trkpt lat="46.428934" lon="14.243083">
        <ele>1303.9344</ele>
        <time>2016-08-04T11:43:57Z</time>
      </trkpt>
      <trkpt lat="46.429016" lon="14.243109">
        <ele>1303.3248</ele>
        <time>2016-08-04T11:44:02Z</time>
      </trkpt>
      <trkpt lat="46.429052" lon="14.243095">
        <ele>1302.7152</ele>
        <time>2016-08-04T11:44:05Z</time>
      </trkpt>
      <trkpt lat="46.429103" lon="14.243122">
        <ele>1301.496</ele>
        <time>2016-08-04T11:44:13Z</time>
      </trkpt>
      <trkpt lat="46.429153" lon="14.243149">
        <ele>1300.2768</ele>
        <time>2016-08-04T11:44:19Z</time>
      </trkpt>
      <trkpt lat="46.429164" lon="14.243164">
        <ele>1299.0576</ele>
        <time>2016-08-04T11:44:24Z</time>
      </trkpt>
      <trkpt lat="46.429221" lon="14.243205">
        <ele>1298.1432</ele>
        <time>2016-08-04T11:44:28Z</time>
      </trkpt>
      <trkpt lat="46.429232" lon="14.243217">
        <ele>1297.8384</ele>
        <time>2016-08-04T11:44:29Z</time>
      </trkpt>
      <trkpt lat="46.429246" lon="14.243235">
        <ele>1297.2288</ele>
        <time>2016-08-04T11:44:32Z</time>
      </trkpt>
      <trkpt lat="46.429245" lon="14.243241">
        <ele>1296.924</ele>
        <time>2016-08-04T11:44:33Z</time>
      </trkpt>
      <trkpt lat="46.429349" lon="14.243353">
        <ele>1295.7048</ele>
        <time>2016-08-04T11:44:47Z</time>
      </trkpt>
      <trkpt lat="46.429351" lon="14.243365">
        <ele>1294.4856</ele>
        <time>2016-08-04T11:44:51Z</time>
      </trkpt>
      <trkpt lat="46.429255" lon="14.243309">
        <ele>1293.876</ele>
        <time>2016-08-04T11:45:07Z</time>
      </trkpt>
      <trkpt lat="46.429284" lon="14.243318">
        <ele>1293.5712</ele>
        <time>2016-08-04T11:45:10Z</time>
      </trkpt>
      <trkpt lat="46.429310" lon="14.243334">
        <ele>1293.2664</ele>
        <time>2016-08-04T11:45:11Z</time>
      </trkpt>
      <trkpt lat="46.429394" lon="14.243388">
        <ele>1292.6568</ele>
        <time>2016-08-04T11:45:17Z</time>
      </trkpt>
      <trkpt lat="46.429397" lon="14.243392">
        <ele>1292.352</ele>
        <time>2016-08-04T11:45:18Z</time>
      </trkpt>
      <trkpt lat="46.429458" lon="14.243494">
        <ele>1291.1328</ele>
        <time>2016-08-04T11:45:22Z</time>
      </trkpt>
      <trkpt lat="46.429487" lon="14.243562">
        <ele>1290.2184</ele>
        <time>2016-08-04T11:45:26Z</time>
      </trkpt>
      <trkpt lat="46.429528" lon="14.243611">
        <ele>1289.304</ele>
        <time>2016-08-04T11:45:30Z</time>
      </trkpt>
      <trkpt lat="46.429482" lon="14.243608">
        <ele>1289.304</ele>
        <time>2016-08-04T11:45:34Z</time>
      </trkpt>
      <trkpt lat="46.429442" lon="14.243570">
        <ele>1288.9992</ele>
        <time>2016-08-04T11:45:37Z</time>
      </trkpt>
      <trkpt lat="46.429417" lon="14.243498">
        <ele>1288.6944</ele>
        <time>2016-08-04T11:45:45Z</time>
      </trkpt>
      <trkpt lat="46.429441" lon="14.243564">
        <ele>1289.304</ele>
        <time>2016-08-04T11:45:53Z</time>
      </trkpt>
      <trkpt lat="46.429440" lon="14.243590">
        <ele>1289.304</ele>
        <time>2016-08-04T11:45:54Z</time>
      </trkpt>
      <trkpt lat="46.429439" lon="14.243625">
        <ele>1287.78</ele>
        <time>2016-08-04T11:45:59Z</time>
      </trkpt>
      <trkpt lat="46.429465" lon="14.243645">
        <ele>1287.1704</ele>
        <time>2016-08-04T11:46:01Z</time>
      </trkpt>
      <trkpt lat="46.429476" lon="14.243653">
        <ele>1286.8656</ele>
        <time>2016-08-04T11:46:04Z</time>
      </trkpt>
      <trkpt lat="46.429478" lon="14.243658">
        <ele>1286.5608</ele>
        <time>2016-08-04T11:46:05Z</time>
      </trkpt>
      <trkpt lat="46.429502" lon="14.243675">
        <ele>1285.9512</ele>
        <time>2016-08-04T11:46:08Z</time>
      </trkpt>
      <trkpt lat="46.429534" lon="14.243708">
        <ele>1285.6464</ele>
        <time>2016-08-04T11:46:11Z</time>
      </trkpt>
      <trkpt lat="46.429539" lon="14.243715">
        <ele>1285.6464</ele>
        <time>2016-08-04T11:46:12Z</time>
      </trkpt>
      <trkpt lat="46.429552" lon="14.243732">
        <ele>1285.3416</ele>
        <time>2016-08-04T11:46:15Z</time>
      </trkpt>
      <trkpt lat="46.429560" lon="14.243743">
        <ele>1284.732</ele>
        <time>2016-08-04T11:46:16Z</time>
      </trkpt>
      <trkpt lat="46.429607" lon="14.243808">
        <ele>1284.732</ele>
        <time>2016-08-04T11:46:24Z</time>
      </trkpt>
      <trkpt lat="46.429627" lon="14.243852">
        <ele>1283.8176</ele>
        <time>2016-08-04T11:46:27Z</time>
      </trkpt>
      <trkpt lat="46.429654" lon="14.243878">
        <ele>1283.5128</ele>
        <time>2016-08-04T11:46:28Z</time>
      </trkpt>
      <trkpt lat="46.429722" lon="14.243928">
        <ele>1282.9032</ele>
        <time>2016-08-04T11:46:32Z</time>
      </trkpt>
      <trkpt lat="46.429818" lon="14.244010">
        <ele>1282.9032</ele>
        <time>2016-08-04T11:46:42Z</time>
      </trkpt>
      <trkpt lat="46.429833" lon="14.244011">
        <ele>1282.5984</ele>
        <time>2016-08-04T11:46:43Z</time>
      </trkpt>
      <trkpt lat="46.429844" lon="14.244012">
        <ele>1282.5984</ele>
        <time>2016-08-04T11:46:43Z</time>
      </trkpt>
      <trkpt lat="46.429879" lon="14.244009">
        <ele>1282.2936</ele>
        <time>2016-08-04T11:46:47Z</time>
      </trkpt>
      <trkpt lat="46.429874" lon="14.244014">
        <ele>1282.2936</ele>
        <time>2016-08-04T11:46:47Z</time>
      </trkpt>
      <trkpt lat="46.429913" lon="14.244020">
        <ele>1282.2936</ele>
        <time>2016-08-04T11:46:50Z</time>
      </trkpt>
      <trkpt lat="46.429918" lon="14.244016">
        <ele>1282.2936</ele>
        <time>2016-08-04T11:46:51Z</time>
      </trkpt>
      <trkpt lat="46.429923" lon="14.244011">
        <ele>1282.2936</ele>
        <time>2016-08-04T11:46:51Z</time>
      </trkpt>
      <trkpt lat="46.429893" lon="14.244000">
        <ele>1282.2936</ele>
        <time>2016-08-04T11:46:57Z</time>
      </trkpt>
      <trkpt lat="46.429903" lon="14.244015">
        <ele>1282.2936</ele>
        <time>2016-08-04T11:46:58Z</time>
      </trkpt>
      <trkpt lat="46.429937" lon="14.244089">
        <ele>1282.2936</ele>
        <time>2016-08-04T11:47:06Z</time>
      </trkpt>
      <trkpt lat="46.430133" lon="14.244194">
        <ele>1282.2936</ele>
        <time>2016-08-04T11:47:14Z</time>
      </trkpt>
      <trkpt lat="46.430145" lon="14.244223">
        <ele>1282.2936</ele>
        <time>2016-08-04T11:47:18Z</time>
      </trkpt>
      <trkpt lat="46.430105" lon="14.244226">
        <ele>1282.2936</ele>
        <time>2016-08-04T11:47:21Z</time>
      </trkpt>
      <trkpt lat="46.430018" lon="14.244226">
        <ele>1282.2936</ele>
        <time>2016-08-04T11:47:24Z</time>
      </trkpt>
      <trkpt lat="46.430050" lon="14.244292">
        <ele>1282.2936</ele>
        <time>2016-08-04T11:47:29Z</time>
      </trkpt>
      <trkpt lat="46.430055" lon="14.244301">
        <ele>1282.2936</ele>
        <time>2016-08-04T11:47:32Z</time>
      </trkpt>
      <trkpt lat="46.430103" lon="14.244364">
        <ele>1281.684</ele>
        <time>2016-08-04T11:47:37Z</time>
      </trkpt>
      <trkpt lat="46.430107" lon="14.244386">
        <ele>1281.3792</ele>
        <time>2016-08-04T11:47:38Z</time>
      </trkpt>
      <trkpt lat="46.430108" lon="14.244451">
        <ele>1280.4648</ele>
        <time>2016-08-04T11:47:45Z</time>
      </trkpt>
      <trkpt lat="46.430112" lon="14.244476">
        <ele>1280.16</ele>
        <time>2016-08-04T11:47:48Z</time>
      </trkpt>
      <trkpt lat="46.430048" lon="14.244451">
        <ele>1279.8552</ele>
        <time>2016-08-04T11:47:52Z</time>
      </trkpt>
      <trkpt lat="46.429992" lon="14.244406">
        <ele>1279.5504</ele>
        <time>2016-08-04T11:47:55Z</time>
      </trkpt>
      <trkpt lat="46.429996" lon="14.244428">
        <ele>1279.2456</ele>
        <time>2016-08-04T11:47:59Z</time>
      </trkpt>
      <trkpt lat="46.429981" lon="14.244437">
        <ele>1279.2456</ele>
        <time>2016-08-04T11:48:00Z</time>
      </trkpt>
      <trkpt lat="46.430049" lon="14.244476">
        <ele>1278.9408</ele>
        <time>2016-08-04T11:48:04Z</time>
      </trkpt>
      <trkpt lat="46.430068" lon="14.244502">
        <ele>1278.3312</ele>
        <time>2016-08-04T11:48:05Z</time>
      </trkpt>
      <trkpt lat="46.430078" lon="14.244525">
        <ele>1278.3312</ele>
        <time>2016-08-04T11:48:08Z</time>
      </trkpt>
      <trkpt lat="46.430042" lon="14.244601">
        <ele>1278.3312</ele>
        <time>2016-08-04T11:48:16Z</time>
      </trkpt>
      <trkpt lat="46.430050" lon="14.244622">
        <ele>1278.3312</ele>
        <time>2016-08-04T11:48:16Z</time>
      </trkpt>
      <trkpt lat="46.430062" lon="14.244644">
        <ele>1278.3312</ele>
        <time>2016-08-04T11:48:18Z</time>
      </trkpt>
      <trkpt lat="46.430084" lon="14.244674">
        <ele>1278.3312</ele>
        <time>2016-08-04T11:48:19Z</time>
      </trkpt>
      <trkpt lat="46.430145" lon="14.244727">
        <ele>1278.0264</ele>
        <time>2016-08-04T11:48:23Z</time>
      </trkpt>
      <trkpt lat="46.430179" lon="14.244771">
        <ele>1278.0264</ele>
        <time>2016-08-04T11:48:24Z</time>
      </trkpt>
      <trkpt lat="46.430231" lon="14.244809">
        <ele>1277.7216</ele>
        <time>2016-08-04T11:48:27Z</time>
      </trkpt>
      <trkpt lat="46.430196" lon="14.244840">
        <ele>1277.7216</ele>
        <time>2016-08-04T11:48:28Z</time>
      </trkpt>
      <trkpt lat="46.430179" lon="14.244915">
        <ele>1277.4168</ele>
        <time>2016-08-04T11:48:34Z</time>
      </trkpt>
      <trkpt lat="46.430174" lon="14.244932">
        <ele>1277.112</ele>
        <time>2016-08-04T11:48:35Z</time>
      </trkpt>
      <trkpt lat="46.430136" lon="14.244965">
        <ele>1275.8928</ele>
        <time>2016-08-04T11:48:39Z</time>
      </trkpt>
      <trkpt lat="46.430117" lon="14.244960">
        <ele>1275.8928</ele>
        <time>2016-08-04T11:48:39Z</time>
      </trkpt>
      <trkpt lat="46.430119" lon="14.244979">
        <ele>1275.8928</ele>
        <time>2016-08-04T11:48:42Z</time>
      </trkpt>
      <trkpt lat="46.430138" lon="14.245009">
        <ele>1274.6736</ele>
        <time>2016-08-04T11:48:45Z</time>
      </trkpt>
      <trkpt lat="46.430157" lon="14.245022">
        <ele>1274.3688</ele>
        <time>2016-08-04T11:48:46Z</time>
      </trkpt>
      <trkpt lat="46.430186" lon="14.245041">
        <ele>1273.7592</ele>
        <time>2016-08-04T11:48:49Z</time>
      </trkpt>
      <trkpt lat="46.430174" lon="14.245043">
        <ele>1273.4544</ele>
        <time>2016-08-04T11:48:50Z</time>
      </trkpt>
      <trkpt lat="46.430184" lon="14.245085">
        <ele>1272.8448</ele>
        <time>2016-08-04T11:48:53Z</time>
      </trkpt>
      <trkpt lat="46.430197" lon="14.245103">
        <ele>1272.54</ele>
        <time>2016-08-04T11:48:54Z</time>
      </trkpt>
      <trkpt lat="46.430191" lon="14.245121">
        <ele>1272.54</ele>
        <time>2016-08-04T11:48:57Z</time>
      </trkpt>
      <trkpt lat="46.430236" lon="14.245181">
        <ele>1271.6256</ele>
        <time>2016-08-04T11:48:59Z</time>
      </trkpt>
      <trkpt lat="46.430240" lon="14.245214">
        <ele>1271.3208</ele>
        <time>2016-08-04T11:49:02Z</time>
      </trkpt>
      <trkpt lat="46.430241" lon="14.245273">
        <ele>1270.7112</ele>
        <time>2016-08-04T11:49:05Z</time>
      </trkpt>
      <trkpt lat="46.430220" lon="14.245282">
        <ele>1270.4064</ele>
        <time>2016-08-04T11:49:06Z</time>
      </trkpt>
      <trkpt lat="46.430167" lon="14.245332">
        <ele>1269.492</ele>
        <time>2016-08-04T11:49:10Z</time>
      </trkpt>
      <trkpt lat="46.430168" lon="14.245340">
        <ele>1269.1872</ele>
        <time>2016-08-04T11:49:12Z</time>
      </trkpt>
      <trkpt lat="46.430139" lon="14.245365">
        <ele>1268.5776</ele>
        <time>2016-08-04T11:49:16Z</time>
      </trkpt>
      <trkpt lat="46.430144" lon="14.245383">
        <ele>1268.2728</ele>
        <time>2016-08-04T11:49:17Z</time>
      </trkpt>
      <trkpt lat="46.430130" lon="14.245391">
        <ele>1267.968</ele>
        <time>2016-08-04T11:49:17Z</time>
      </trkpt>
      <trkpt lat="46.430076" lon="14.245390">
        <ele>1267.0536</ele>
        <time>2016-08-04T11:49:21Z</time>
      </trkpt>
      <trkpt lat="46.430065" lon="14.245394">
        <ele>1267.0536</ele>
        <time>2016-08-04T11:49:21Z</time>
      </trkpt>
      <trkpt lat="46.430053" lon="14.245403">
        <ele>1266.7488</ele>
        <time>2016-08-04T11:49:22Z</time>
      </trkpt>
      <trkpt lat="46.430054" lon="14.245448">
        <ele>1265.5296</ele>
        <time>2016-08-04T11:49:25Z</time>
      </trkpt>
      <trkpt lat="46.430032" lon="14.245460">
        <ele>1265.2248</ele>
        <time>2016-08-04T11:49:26Z</time>
      </trkpt>
      <trkpt lat="46.430053" lon="14.245486">
        <ele>1264.6152</ele>
        <time>2016-08-04T11:49:29Z</time>
      </trkpt>
      <trkpt lat="46.430061" lon="14.245501">
        <ele>1264.6152</ele>
        <time>2016-08-04T11:49:29Z</time>
      </trkpt>
      <trkpt lat="46.430098" lon="14.245528">
        <ele>1264.6152</ele>
        <time>2016-08-04T11:49:30Z</time>
      </trkpt>
      <trkpt lat="46.430178" lon="14.245620">
        <ele>1264.0056</ele>
        <time>2016-08-04T11:49:33Z</time>
      </trkpt>
      <trkpt lat="46.430193" lon="14.245671">
        <ele>1263.0912</ele>
        <time>2016-08-04T11:49:36Z</time>
      </trkpt>
      <trkpt lat="46.430193" lon="14.245692">
        <ele>1263.0912</ele>
        <time>2016-08-04T11:49:37Z</time>
      </trkpt>
      <trkpt lat="46.430214" lon="14.245743">
        <ele>1262.7864</ele>
        <time>2016-08-04T11:49:39Z</time>
      </trkpt>
      <trkpt lat="46.430229" lon="14.245827">
        <ele>1262.1768</ele>
        <time>2016-08-04T11:49:41Z</time>
      </trkpt>
      <trkpt lat="46.430397" lon="14.246010">
        <ele>1261.2624</ele>
        <time>2016-08-04T11:49:49Z</time>
      </trkpt>
      <trkpt lat="46.430432" lon="14.246062">
        <ele>1261.2624</ele>
        <time>2016-08-04T11:49:52Z</time>
      </trkpt>
      <trkpt lat="46.430469" lon="14.246092">
        <ele>1260.9576</ele>
        <time>2016-08-04T11:49:53Z</time>
      </trkpt>
      <trkpt lat="46.430517" lon="14.246200">
        <ele>1260.348</ele>
        <time>2016-08-04T11:49:59Z</time>
      </trkpt>
      <trkpt lat="46.430548" lon="14.246245">
        <ele>1260.0432</ele>
        <time>2016-08-04T11:50:00Z</time>
      </trkpt>
      <trkpt lat="46.430606" lon="14.246313">
        <ele>1259.7384</ele>
        <time>2016-08-04T11:50:04Z</time>
      </trkpt>
      <trkpt lat="46.430607" lon="14.246345">
        <ele>1259.4336</ele>
        <time>2016-08-04T11:50:07Z</time>
      </trkpt>
      <trkpt lat="46.430633" lon="14.246361">
        <ele>1259.1288</ele>
        <time>2016-08-04T11:50:08Z</time>
      </trkpt>
      <trkpt lat="46.430527" lon="14.246380">
        <ele>1258.5192</ele>
        <time>2016-08-04T11:50:15Z</time>
      </trkpt>
      <trkpt lat="46.430335" lon="14.246342">
        <ele>1257.9096</ele>
        <time>2016-08-04T11:50:18Z</time>
      </trkpt>
      <trkpt lat="46.430162" lon="14.246347">
        <ele>1256.6904</ele>
        <time>2016-08-04T11:50:23Z</time>
      </trkpt>
      <trkpt lat="46.430159" lon="14.246357">
        <ele>1256.6904</ele>
        <time>2016-08-04T11:50:23Z</time>
      </trkpt>
      <trkpt lat="46.430141" lon="14.246390">
        <ele>1256.0808</ele>
        <time>2016-08-04T11:50:27Z</time>
      </trkpt>
      <trkpt lat="46.430130" lon="14.246397">
        <ele>1255.4712</ele>
        <time>2016-08-04T11:50:27Z</time>
      </trkpt>
      <trkpt lat="46.430115" lon="14.246405">
        <ele>1255.1664</ele>
        <time>2016-08-04T11:50:29Z</time>
      </trkpt>
      <trkpt lat="46.430075" lon="14.246444">
        <ele>1254.8616</ele>
        <time>2016-08-04T11:50:33Z</time>
      </trkpt>
      <trkpt lat="46.430054" lon="14.246477">
        <ele>1254.8616</ele>
        <time>2016-08-04T11:50:35Z</time>
      </trkpt>
      <trkpt lat="46.430047" lon="14.246499">
        <ele>1254.5568</ele>
        <time>2016-08-04T11:50:38Z</time>
      </trkpt>
      <trkpt lat="46.430056" lon="14.246518">
        <ele>1253.9472</ele>
        <time>2016-08-04T11:50:39Z</time>
      </trkpt>
      <trkpt lat="46.430060" lon="14.246531">
        <ele>1253.3376</ele>
        <time>2016-08-04T11:50:41Z</time>
      </trkpt>
      <trkpt lat="46.430057" lon="14.246539">
        <ele>1253.3376</ele>
        <time>2016-08-04T11:50:42Z</time>
      </trkpt>
      <trkpt lat="46.430099" lon="14.246592">
        <ele>1253.0328</ele>
        <time>2016-08-04T11:50:43Z</time>
      </trkpt>
      <trkpt lat="46.430127" lon="14.246627">
        <ele>1253.0328</ele>
        <time>2016-08-04T11:50:46Z</time>
      </trkpt>
      <trkpt lat="46.430214" lon="14.246854">
        <ele>1252.4232</ele>
        <time>2016-08-04T11:50:54Z</time>
      </trkpt>
      <trkpt lat="46.430311" lon="14.246984">
        <ele>1251.5088</ele>
        <time>2016-08-04T11:50:56Z</time>
      </trkpt>
      <trkpt lat="46.430318" lon="14.246999">
        <ele>1251.204</ele>
        <time>2016-08-04T11:50:57Z</time>
      </trkpt>
      <trkpt lat="46.430358" lon="14.247097">
        <ele>1250.2896</ele>
        <time>2016-08-04T11:51:05Z</time>
      </trkpt>
      <trkpt lat="46.430518" lon="14.247280">
        <ele>1250.2896</ele>
        <time>2016-08-04T11:51:14Z</time>
      </trkpt>
      <trkpt lat="46.430526" lon="14.247293">
        <ele>1250.2896</ele>
        <time>2016-08-04T11:51:16Z</time>
      </trkpt>
      <trkpt lat="46.430564" lon="14.247348">
        <ele>1249.0704</ele>
        <time>2016-08-04T11:51:20Z</time>
      </trkpt>
      <trkpt lat="46.430674" lon="14.247576">
        <ele>1248.156</ele>
        <time>2016-08-04T11:51:33Z</time>
      </trkpt>
      <trkpt lat="46.430689" lon="14.247598">
        <ele>1247.8512</ele>
        <time>2016-08-04T11:51:35Z</time>
      </trkpt>
      <trkpt lat="46.430651" lon="14.247671">
        <ele>1246.9368</ele>
        <time>2016-08-04T11:51:40Z</time>
      </trkpt>
      <trkpt lat="46.430633" lon="14.247725">
        <ele>1245.7176</ele>
        <time>2016-08-04T11:51:44Z</time>
      </trkpt>
      <trkpt lat="46.430646" lon="14.247745">
        <ele>1245.4128</ele>
        <time>2016-08-04T11:51:45Z</time>
      </trkpt>
      <trkpt lat="46.430656" lon="14.247811">
        <ele>1244.8032</ele>
        <time>2016-08-04T11:51:50Z</time>
      </trkpt>
      <trkpt lat="46.430663" lon="14.247822">
        <ele>1244.4984</ele>
        <time>2016-08-04T11:51:51Z</time>
      </trkpt>
      <trkpt lat="46.430664" lon="14.247835">
        <ele>1244.4984</ele>
        <time>2016-08-04T11:51:52Z</time>
      </trkpt>
      <trkpt lat="46.430680" lon="14.247901">
        <ele>1243.584</ele>
        <time>2016-08-04T11:51:56Z</time>
      </trkpt>
      <trkpt lat="46.430711" lon="14.247982">
        <ele>1242.6696</ele>
        <time>2016-08-04T11:52:02Z</time>
      </trkpt>
      <trkpt lat="46.430729" lon="14.248005">
        <ele>1242.06</ele>
        <time>2016-08-04T11:52:03Z</time>
      </trkpt>
      <trkpt lat="46.430746" lon="14.248058">
        <ele>1241.4504</ele>
        <time>2016-08-04T11:52:06Z</time>
      </trkpt>
      <trkpt lat="46.430763" lon="14.248103">
        <ele>1241.1456</ele>
        <time>2016-08-04T11:52:08Z</time>
      </trkpt>
      <trkpt lat="46.430724" lon="14.248131">
        <ele>1240.2312</ele>
        <time>2016-08-04T11:52:12Z</time>
      </trkpt>
      <trkpt lat="46.430699" lon="14.248151">
        <ele>1239.9264</ele>
        <time>2016-08-04T11:52:15Z</time>
      </trkpt>
      <trkpt lat="46.430699" lon="14.248185">
        <ele>1239.3168</ele>
        <time>2016-08-04T11:52:18Z</time>
      </trkpt>
      <trkpt lat="46.430707" lon="14.248257">
        <ele>1238.4024</ele>
        <time>2016-08-04T11:52:22Z</time>
      </trkpt>
      <trkpt lat="46.430699" lon="14.248269">
        <ele>1237.7928</ele>
        <time>2016-08-04T11:52:22Z</time>
      </trkpt>
      <trkpt lat="46.430703" lon="14.248300">
        <ele>1237.1832</ele>
        <time>2016-08-04T11:52:25Z</time>
      </trkpt>
      <trkpt lat="46.430705" lon="14.248357">
        <ele>1236.5736</ele>
        <time>2016-08-04T11:52:27Z</time>
      </trkpt>
      <trkpt lat="46.430709" lon="14.248385">
        <ele>1235.6592</ele>
        <time>2016-08-04T11:52:30Z</time>
      </trkpt>
      <trkpt lat="46.430694" lon="14.248393">
        <ele>1235.3544</ele>
        <time>2016-08-04T11:52:30Z</time>
      </trkpt>
      <trkpt lat="46.430645" lon="14.248401">
        <ele>1234.7448</ele>
        <time>2016-08-04T11:52:33Z</time>
      </trkpt>
      <trkpt lat="46.430668" lon="14.248443">
        <ele>1234.44</ele>
        <time>2016-08-04T11:52:34Z</time>
      </trkpt>
      <trkpt lat="46.430687" lon="14.248545">
        <ele>1233.2208</ele>
        <time>2016-08-04T11:52:41Z</time>
      </trkpt>
      <trkpt lat="46.430607" lon="14.248591">
        <ele>1232.3064</ele>
        <time>2016-08-04T11:52:46Z</time>
      </trkpt>
      <trkpt lat="46.430587" lon="14.248610">
        <ele>1232.0016</ele>
        <time>2016-08-04T11:52:48Z</time>
      </trkpt>
      <trkpt lat="46.430593" lon="14.248623">
        <ele>1231.6968</ele>
        <time>2016-08-04T11:52:49Z</time>
      </trkpt>
      <trkpt lat="46.430646" lon="14.248691">
        <ele>1231.0872</ele>
        <time>2016-08-04T11:52:53Z</time>
      </trkpt>
      <trkpt lat="46.430643" lon="14.248701">
        <ele>1231.0872</ele>
        <time>2016-08-04T11:52:54Z</time>
      </trkpt>
      <trkpt lat="46.430659" lon="14.248720">
        <ele>1230.4776</ele>
        <time>2016-08-04T11:52:56Z</time>
      </trkpt>
      <trkpt lat="46.430706" lon="14.248769">
        <ele>1229.868</ele>
        <time>2016-08-04T11:52:57Z</time>
      </trkpt>
      <trkpt lat="46.430706" lon="14.248782">
        <ele>1229.5632</ele>
        <time>2016-08-04T11:52:58Z</time>
      </trkpt>
      <trkpt lat="46.430679" lon="14.248798">
        <ele>1229.2584</ele>
        <time>2016-08-04T11:53:01Z</time>
      </trkpt>
      <trkpt lat="46.430643" lon="14.248807">
        <ele>1229.2584</ele>
        <time>2016-08-04T11:53:02Z</time>
      </trkpt>
      <trkpt lat="46.430641" lon="14.248821">
        <ele>1228.9536</ele>
        <time>2016-08-04T11:53:04Z</time>
      </trkpt>
      <trkpt lat="46.430681" lon="14.248865">
        <ele>1228.6488</ele>
        <time>2016-08-04T11:53:05Z</time>
      </trkpt>
      <trkpt lat="46.430683" lon="14.248892">
        <ele>1228.344</ele>
        <time>2016-08-04T11:53:08Z</time>
      </trkpt>
      <trkpt lat="46.430660" lon="14.248911">
        <ele>1227.7344</ele>
        <time>2016-08-04T11:53:09Z</time>
      </trkpt>
      <trkpt lat="46.430664" lon="14.248923">
        <ele>1227.4296</ele>
        <time>2016-08-04T11:53:11Z</time>
      </trkpt>
      <trkpt lat="46.430677" lon="14.248931">
        <ele>1227.1248</ele>
        <time>2016-08-04T11:53:12Z</time>
      </trkpt>
      <trkpt lat="46.430695" lon="14.248934">
        <ele>1226.5152</ele>
        <time>2016-08-04T11:53:15Z</time>
      </trkpt>
      <trkpt lat="46.430703" lon="14.248934">
        <ele>1226.5152</ele>
        <time>2016-08-04T11:53:16Z</time>
      </trkpt>
      <trkpt lat="46.430683" lon="14.248926">
        <ele>1226.5152</ele>
        <time>2016-08-04T11:53:20Z</time>
      </trkpt>
      <trkpt lat="46.430659" lon="14.248965">
        <ele>1225.9056</ele>
        <time>2016-08-04T11:53:24Z</time>
      </trkpt>
      <trkpt lat="46.430646" lon="14.248998">
        <ele>1225.296</ele>
        <time>2016-08-04T11:53:25Z</time>
      </trkpt>
      <trkpt lat="46.430649" lon="14.249049">
        <ele>1224.9912</ele>
        <time>2016-08-04T11:53:28Z</time>
      </trkpt>
      <trkpt lat="46.430670" lon="14.249092">
        <ele>1224.6864</ele>
        <time>2016-08-04T11:53:32Z</time>
      </trkpt>
      <trkpt lat="46.430683" lon="14.249115">
        <ele>1224.3816</ele>
        <time>2016-08-04T11:53:32Z</time>
      </trkpt>
      <trkpt lat="46.430702" lon="14.249140">
        <ele>1224.0768</ele>
        <time>2016-08-04T11:53:33Z</time>
      </trkpt>
      <trkpt lat="46.430719" lon="14.249180">
        <ele>1223.772</ele>
        <time>2016-08-04T11:53:36Z</time>
      </trkpt>
      <trkpt lat="46.430725" lon="14.249230">
        <ele>1223.1624</ele>
        <time>2016-08-04T11:53:39Z</time>
      </trkpt>
      <trkpt lat="46.430725" lon="14.249286">
        <ele>1222.248</ele>
        <time>2016-08-04T11:53:43Z</time>
      </trkpt>
      <trkpt lat="46.430732" lon="14.249303">
        <ele>1221.9432</ele>
        <time>2016-08-04T11:53:43Z</time>
      </trkpt>
      <trkpt lat="46.430871" lon="14.249479">
        <ele>1221.0288</ele>
        <time>2016-08-04T11:53:51Z</time>
      </trkpt>
      <trkpt lat="46.430827" lon="14.249512">
        <ele>1219.8096</ele>
        <time>2016-08-04T11:53:55Z</time>
      </trkpt>
      <trkpt lat="46.430844" lon="14.249528">
        <ele>1219.5048</ele>
        <time>2016-08-04T11:53:55Z</time>
      </trkpt>
      <trkpt lat="46.430945" lon="14.249614">
        <ele>1219.2</ele>
        <time>2016-08-04T11:53:59Z</time>
      </trkpt>
      <trkpt lat="46.431108" lon="14.249730">
        <ele>1218.8952</ele>
        <time>2016-08-04T11:54:02Z</time>
      </trkpt>
      <trkpt lat="46.431163" lon="14.249871">
        <ele>1217.9808</ele>
        <time>2016-08-04T11:54:09Z</time>
      </trkpt>
      <trkpt lat="46.431208" lon="14.249918">
        <ele>1217.676</ele>
        <time>2016-08-04T11:54:10Z</time>
      </trkpt>
      <trkpt lat="46.431356" lon="14.250101">
        <ele>1217.0664</ele>
        <time>2016-08-04T11:54:18Z</time>
      </trkpt>
      <trkpt lat="46.431432" lon="14.250167">
        <ele>1216.4568</ele>
        <time>2016-08-04T11:54:21Z</time>
      </trkpt>
      <trkpt lat="46.431509" lon="14.250271">
        <ele>1215.2376</ele>
        <time>2016-08-04T11:54:25Z</time>
      </trkpt>
      <trkpt lat="46.431609" lon="14.250391">
        <ele>1214.3232</ele>
        <time>2016-08-04T11:54:30Z</time>
      </trkpt>
      <trkpt lat="46.431081" lon="14.250291">
        <ele>1213.7136</ele>
        <time>2016-08-04T11:54:38Z</time>
      </trkpt>
      <trkpt lat="46.431031" lon="14.250332">
        <ele>1213.104</ele>
        <time>2016-08-04T11:54:42Z</time>
      </trkpt>
      <trkpt lat="46.431066" lon="14.250365">
        <ele>1212.4944</ele>
        <time>2016-08-04T11:54:45Z</time>
      </trkpt>
      <trkpt lat="46.431169" lon="14.250442">
        <ele>1211.8848</ele>
        <time>2016-08-04T11:54:53Z</time>
      </trkpt>
      <trkpt lat="46.431303" lon="14.250511">
        <ele>1211.2752</ele>
        <time>2016-08-04T11:54:56Z</time>
      </trkpt>
      <trkpt lat="46.431339" lon="14.250564">
        <ele>1210.6656</ele>
        <time>2016-08-04T11:55:00Z</time>
      </trkpt>
      <trkpt lat="46.431358" lon="14.250612">
        <ele>1209.7512</ele>
        <time>2016-08-04T11:55:04Z</time>
      </trkpt>
      <trkpt lat="46.431558" lon="14.250757">
        <ele>1209.1416</ele>
        <time>2016-08-04T11:55:08Z</time>
      </trkpt>
      <trkpt lat="46.431586" lon="14.250781">
        <ele>1208.8368</ele>
        <time>2016-08-04T11:55:08Z</time>
      </trkpt>
      <trkpt lat="46.431688" lon="14.250897">
        <ele>1207.9224</ele>
        <time>2016-08-04T11:55:12Z</time>
      </trkpt>
      <trkpt lat="46.431767" lon="14.250995">
        <ele>1206.7032</ele>
        <time>2016-08-04T11:55:16Z</time>
      </trkpt>
      <trkpt lat="46.431938" lon="14.251137">
        <ele>1205.7888</ele>
        <time>2016-08-04T11:55:21Z</time>
      </trkpt>
      <trkpt lat="46.431958" lon="14.251180">
        <ele>1205.484</ele>
        <time>2016-08-04T11:55:24Z</time>
      </trkpt>
      <trkpt lat="46.431952" lon="14.251226">
        <ele>1203.96</ele>
        <time>2016-08-04T11:55:27Z</time>
      </trkpt>
      <trkpt lat="46.431847" lon="14.251224">
        <ele>1203.0456</ele>
        <time>2016-08-04T11:55:31Z</time>
      </trkpt>
      <trkpt lat="46.431735" lon="14.251307">
        <ele>1201.8264</ele>
        <time>2016-08-04T11:55:40Z</time>
      </trkpt>
      <trkpt lat="46.431747" lon="14.251341">
        <ele>1201.2168</ele>
        <time>2016-08-04T11:55:43Z</time>
      </trkpt>
      <trkpt lat="46.431773" lon="14.251376">
        <ele>1200.6072</ele>
        <time>2016-08-04T11:55:44Z</time>
      </trkpt>
      <trkpt lat="46.431780" lon="14.251400">
        <ele>1199.6928</ele>
        <time>2016-08-04T11:55:47Z</time>
      </trkpt>
      <trkpt lat="46.431781" lon="14.251401">
        <ele>1199.388</ele>
        <time>2016-08-04T11:55:48Z</time>
      </trkpt>
      <trkpt lat="46.431917" lon="14.251475">
        <ele>1198.4736</ele>
        <time>2016-08-04T11:55:51Z</time>
      </trkpt>
      <trkpt lat="46.431970" lon="14.251551">
        <ele>1198.4736</ele>
        <time>2016-08-04T11:55:55Z</time>
      </trkpt>
      <trkpt lat="46.432050" lon="14.251611">
        <ele>1198.4736</ele>
        <time>2016-08-04T11:55:58Z</time>
      </trkpt>
      <trkpt lat="46.432063" lon="14.251624">
        <ele>1198.1688</ele>
        <time>2016-08-04T11:55:59Z</time>
      </trkpt>
      <trkpt lat="46.432111" lon="14.251656">
        <ele>1198.1688</ele>
        <time>2016-08-04T11:56:01Z</time>
      </trkpt>
      <trkpt lat="46.432135" lon="14.251706">
        <ele>1197.5592</ele>
        <time>2016-08-04T11:56:03Z</time>
      </trkpt>
      <trkpt lat="46.432141" lon="14.251723">
        <ele>1197.2544</ele>
        <time>2016-08-04T11:56:06Z</time>
      </trkpt>
      <trkpt lat="46.432159" lon="14.251790">
        <ele>1196.34</ele>
        <time>2016-08-04T11:56:11Z</time>
      </trkpt>
      <trkpt lat="46.432160" lon="14.251800">
        <ele>1196.0352</ele>
        <time>2016-08-04T11:56:13Z</time>
      </trkpt>
      <trkpt lat="46.432185" lon="14.251851">
        <ele>1194.816</ele>
        <time>2016-08-04T11:56:17Z</time>
      </trkpt>
      <trkpt lat="46.432158" lon="14.251868">
        <ele>1193.9016</ele>
        <time>2016-08-04T11:56:20Z</time>
      </trkpt>
      <trkpt lat="46.432056" lon="14.251818">
        <ele>1193.292</ele>
        <time>2016-08-04T11:56:25Z</time>
      </trkpt>
      <trkpt lat="46.431764" lon="14.251679">
        <ele>1193.292</ele>
        <time>2016-08-04T11:56:25Z</time>
      </trkpt>
      <trkpt lat="46.431698" lon="14.251648">
        <ele>1193.292</ele>
        <time>2016-08-04T11:56:26Z</time>
      </trkpt>
      <trkpt lat="46.431575" lon="14.251611">
        <ele>1192.9872</ele>
        <time>2016-08-04T11:56:29Z</time>
      </trkpt>
      <trkpt lat="46.431472" lon="14.251629">
        <ele>1192.6824</ele>
        <time>2016-08-04T11:56:34Z</time>
      </trkpt>
      <trkpt lat="46.431489" lon="14.251665">
        <ele>1192.6824</ele>
        <time>2016-08-04T11:56:37Z</time>
      </trkpt>
      <trkpt lat="46.431495" lon="14.251681">
        <ele>1192.3776</ele>
        <time>2016-08-04T11:56:37Z</time>
      </trkpt>
      <trkpt lat="46.431424" lon="14.251726">
        <ele>1191.1584</ele>
        <time>2016-08-04T11:56:44Z</time>
      </trkpt>
      <trkpt lat="46.431451" lon="14.251763">
        <ele>1189.9392</ele>
        <time>2016-08-04T11:56:45Z</time>
      </trkpt>
      <trkpt lat="46.431534" lon="14.251823">
        <ele>1189.9392</ele>
        <time>2016-08-04T11:56:49Z</time>
      </trkpt>
      <trkpt lat="46.431597" lon="14.251862">
        <ele>1189.6344</ele>
        <time>2016-08-04T11:56:52Z</time>
      </trkpt>
      <trkpt lat="46.431515" lon="14.251835">
        <ele>1189.0248</ele>
        <time>2016-08-04T11:56:55Z</time>
      </trkpt>
      <trkpt lat="46.431486" lon="14.251825">
        <ele>1188.72</ele>
        <time>2016-08-04T11:56:56Z</time>
      </trkpt>
      <trkpt lat="46.431468" lon="14.251820">
        <ele>1188.4152</ele>
        <time>2016-08-04T11:56:57Z</time>
      </trkpt>
      <trkpt lat="46.431500" lon="14.251846">
        <ele>1188.1104</ele>
        <time>2016-08-04T11:57:00Z</time>
      </trkpt>
      <trkpt lat="46.431492" lon="14.251852">
        <ele>1187.8056</ele>
        <time>2016-08-04T11:57:00Z</time>
      </trkpt>
      <trkpt lat="46.431424" lon="14.251887">
        <ele>1186.8912</ele>
        <time>2016-08-04T11:57:05Z</time>
      </trkpt>
      <trkpt lat="46.431373" lon="14.251885">
        <ele>1185.672</ele>
        <time>2016-08-04T11:57:08Z</time>
      </trkpt>
      <trkpt lat="46.431361" lon="14.251889">
        <ele>1185.672</ele>
        <time>2016-08-04T11:57:08Z</time>
      </trkpt>
      <trkpt lat="46.431337" lon="14.251887">
        <ele>1185.3672</ele>
        <time>2016-08-04T11:57:09Z</time>
      </trkpt>
      <trkpt lat="46.431379" lon="14.251952">
        <ele>1184.4528</ele>
        <time>2016-08-04T11:57:14Z</time>
      </trkpt>
      <trkpt lat="46.431375" lon="14.251962">
        <ele>1184.148</ele>
        <time>2016-08-04T11:57:15Z</time>
      </trkpt>
      <trkpt lat="46.431423" lon="14.252010">
        <ele>1183.2336</ele>
        <time>2016-08-04T11:57:16Z</time>
      </trkpt>
      <trkpt lat="46.431475" lon="14.252086">
        <ele>1182.3192</ele>
        <time>2016-08-04T11:57:20Z</time>
      </trkpt>
      <trkpt lat="46.431513" lon="14.252128">
        <ele>1181.7096</ele>
        <time>2016-08-04T11:57:23Z</time>
      </trkpt>
      <trkpt lat="46.431519" lon="14.252156">
        <ele>1181.1</ele>
        <time>2016-08-04T11:57:24Z</time>
      </trkpt>
      <trkpt lat="46.431544" lon="14.252201">
        <ele>1179.8808</ele>
        <time>2016-08-04T11:57:27Z</time>
      </trkpt>
      <trkpt lat="46.431492" lon="14.252193">
        <ele>1179.2712</ele>
        <time>2016-08-04T11:57:31Z</time>
      </trkpt>
      <trkpt lat="46.431496" lon="14.252200">
        <ele>1178.6616</ele>
        <time>2016-08-04T11:57:31Z</time>
      </trkpt>
      <trkpt lat="46.431474" lon="14.252226">
        <ele>1178.052</ele>
        <time>2016-08-04T11:57:35Z</time>
      </trkpt>
      <trkpt lat="46.431488" lon="14.252244">
        <ele>1177.7472</ele>
        <time>2016-08-04T11:57:36Z</time>
      </trkpt>
      <trkpt lat="46.431520" lon="14.252285">
        <ele>1176.528</ele>
        <time>2016-08-04T11:57:39Z</time>
      </trkpt>
      <trkpt lat="46.431575" lon="14.252339">
        <ele>1175.9184</ele>
        <time>2016-08-04T11:57:43Z</time>
      </trkpt>
      <trkpt lat="46.431593" lon="14.252374">
        <ele>1175.3088</ele>
        <time>2016-08-04T11:57:45Z</time>
      </trkpt>
      <trkpt lat="46.431734" lon="14.252451">
        <ele>1174.6992</ele>
        <time>2016-08-04T11:57:47Z</time>
      </trkpt>
      <trkpt lat="46.431802" lon="14.252485">
        <ele>1174.3944</ele>
        <time>2016-08-04T11:57:50Z</time>
      </trkpt>
      <trkpt lat="46.431855" lon="14.252514">
        <ele>1173.7848</ele>
        <time>2016-08-04T11:57:53Z</time>
      </trkpt>
      <trkpt lat="46.431896" lon="14.252599">
        <ele>1173.7848</ele>
        <time>2016-08-04T11:58:01Z</time>
      </trkpt>
      <trkpt lat="46.431921" lon="14.252629">
        <ele>1173.48</ele>
        <time>2016-08-04T11:58:02Z</time>
      </trkpt>
      <trkpt lat="46.431963" lon="14.252664">
        <ele>1172.8704</ele>
        <time>2016-08-04T11:58:05Z</time>
      </trkpt>
      <trkpt lat="46.431994" lon="14.252693">
        <ele>1172.2608</ele>
        <time>2016-08-04T11:58:06Z</time>
      </trkpt>
      <trkpt lat="46.431978" lon="14.252692">
        <ele>1171.956</ele>
        <time>2016-08-04T11:58:08Z</time>
      </trkpt>
      <trkpt lat="46.431970" lon="14.252705">
        <ele>1171.3464</ele>
        <time>2016-08-04T11:58:10Z</time>
      </trkpt>
      <trkpt lat="46.431997" lon="14.252729">
        <ele>1171.3464</ele>
        <time>2016-08-04T11:58:13Z</time>
      </trkpt>
      <trkpt lat="46.432022" lon="14.252748">
        <ele>1171.0416</ele>
        <time>2016-08-04T11:58:13Z</time>
      </trkpt>
      <trkpt lat="46.432087" lon="14.252827">
        <ele>1170.1272</ele>
        <time>2016-08-04T11:58:17Z</time>
      </trkpt>
      <trkpt lat="46.432082" lon="14.252858">
        <ele>1168.908</ele>
        <time>2016-08-04T11:58:21Z</time>
      </trkpt>
      <trkpt lat="46.432074" lon="14.252857">
        <ele>1168.908</ele>
        <time>2016-08-04T11:58:22Z</time>
      </trkpt>
      <trkpt lat="46.432029" lon="14.252890">
        <ele>1167.6888</ele>
        <time>2016-08-04T11:58:29Z</time>
      </trkpt>
      <trkpt lat="46.431993" lon="14.252896">
        <ele>1166.7744</ele>
        <time>2016-08-04T11:58:35Z</time>
      </trkpt>
      <trkpt lat="46.431928" lon="14.252864">
        <ele>1165.86</ele>
        <time>2016-08-04T11:58:39Z</time>
      </trkpt>
      <trkpt lat="46.431991" lon="14.252876">
        <ele>1165.2504</ele>
        <time>2016-08-04T11:58:43Z</time>
      </trkpt>
      <trkpt lat="46.432018" lon="14.252948">
        <ele>1165.86</ele>
        <time>2016-08-04T11:58:52Z</time>
      </trkpt>
      <trkpt lat="46.431927" lon="14.252930">
        <ele>1165.2504</ele>
        <time>2016-08-04T11:59:00Z</time>
      </trkpt>
      <trkpt lat="46.431998" lon="14.252971">
        <ele>1165.2504</ele>
        <time>2016-08-04T11:59:04Z</time>
      </trkpt>
      <trkpt lat="46.431979" lon="14.252978">
        <ele>1164.336</ele>
        <time>2016-08-04T11:59:07Z</time>
      </trkpt>
      <trkpt lat="46.431962" lon="14.252972">
        <ele>1163.1168</ele>
        <time>2016-08-04T11:59:18Z</time>
      </trkpt>
      <trkpt lat="46.431958" lon="14.253021">
        <ele>1161.8976</ele>
        <time>2016-08-04T11:59:23Z</time>
      </trkpt>
      <trkpt lat="46.432028" lon="14.253099">
        <ele>1160.6784</ele>
        <time>2016-08-04T11:59:27Z</time>
      </trkpt>
      <trkpt lat="46.431889" lon="14.253142">
        <ele>1159.4592</ele>
        <time>2016-08-04T11:59:38Z</time>
      </trkpt>
      <trkpt lat="46.431696" lon="14.253112">
        <ele>1158.24</ele>
        <time>2016-08-04T11:59:46Z</time>
      </trkpt>
      <trkpt lat="46.431686" lon="14.253116">
        <ele>1157.9352</ele>
        <time>2016-08-04T11:59:46Z</time>
      </trkpt>
      <trkpt lat="46.431718" lon="14.253151">
        <ele>1157.3256</ele>
        <time>2016-08-04T11:59:49Z</time>
      </trkpt>
      <trkpt lat="46.431692" lon="14.253148">
        <ele>1157.0208</ele>
        <time>2016-08-04T11:59:50Z</time>
      </trkpt>
      <trkpt lat="46.431693" lon="14.253152">
        <ele>1156.716</ele>
        <time>2016-08-04T11:59:50Z</time>
      </trkpt>
      <trkpt lat="46.431742" lon="14.253215">
        <ele>1156.1064</ele>
        <time>2016-08-04T12:00:00Z</time>
      </trkpt>
      <trkpt lat="46.431769" lon="14.253241">
        <ele>1155.4968</ele>
        <time>2016-08-04T12:00:02Z</time>
      </trkpt>
      <trkpt lat="46.431812" lon="14.253289">
        <ele>1154.8872</ele>
        <time>2016-08-04T12:00:05Z</time>
      </trkpt>
      <trkpt lat="46.431841" lon="14.253343">
        <ele>1153.668</ele>
        <time>2016-08-04T12:00:09Z</time>
      </trkpt>
      <trkpt lat="46.431830" lon="14.253351">
        <ele>1153.668</ele>
        <time>2016-08-04T12:00:12Z</time>
      </trkpt>
      <trkpt lat="46.431818" lon="14.253370">
        <ele>1152.7536</ele>
        <time>2016-08-04T12:00:14Z</time>
      </trkpt>
      <trkpt lat="46.431837" lon="14.253407">
        <ele>1152.144</ele>
        <time>2016-08-04T12:00:17Z</time>
      </trkpt>
      <trkpt lat="46.431802" lon="14.253423">
        <ele>1151.8392</ele>
        <time>2016-08-04T12:00:18Z</time>
      </trkpt>
      <trkpt lat="46.431743" lon="14.253474">
        <ele>1150.62</ele>
        <time>2016-08-04T12:00:23Z</time>
      </trkpt>
      <trkpt lat="46.431668" lon="14.253528">
        <ele>1149.096</ele>
        <time>2016-08-04T12:00:27Z</time>
      </trkpt>
      <trkpt lat="46.431517" lon="14.253523">
        <ele>1148.1816</ele>
        <time>2016-08-04T12:00:31Z</time>
      </trkpt>
      <trkpt lat="46.431508" lon="14.253529">
        <ele>1147.8768</ele>
        <time>2016-08-04T12:00:32Z</time>
      </trkpt>
      <trkpt lat="46.431505" lon="14.253660">
        <ele>1146.9624</ele>
        <time>2016-08-04T12:00:39Z</time>
      </trkpt>
      <trkpt lat="46.431482" lon="14.253703">
        <ele>1146.048</ele>
        <time>2016-08-04T12:00:41Z</time>
      </trkpt>
      <trkpt lat="46.431490" lon="14.253736">
        <ele>1146.048</ele>
        <time>2016-08-04T12:00:44Z</time>
      </trkpt>
      <trkpt lat="46.431481" lon="14.253749">
        <ele>1145.7432</ele>
        <time>2016-08-04T12:00:44Z</time>
      </trkpt>
      <trkpt lat="46.431489" lon="14.253785">
        <ele>1145.4384</ele>
        <time>2016-08-04T12:00:47Z</time>
      </trkpt>
      <trkpt lat="46.431497" lon="14.253842">
        <ele>1144.8288</ele>
        <time>2016-08-04T12:00:50Z</time>
      </trkpt>
      <trkpt lat="46.431485" lon="14.253853">
        <ele>1144.524</ele>
        <time>2016-08-04T12:00:51Z</time>
      </trkpt>
      <trkpt lat="46.431447" lon="14.253869">
        <ele>1143.9144</ele>
        <time>2016-08-04T12:00:52Z</time>
      </trkpt>
      <trkpt lat="46.431472" lon="14.253966">
        <ele>1142.6952</ele>
        <time>2016-08-04T12:00:58Z</time>
      </trkpt>
      <trkpt lat="46.431495" lon="14.254020">
        <ele>1142.0856</ele>
        <time>2016-08-04T12:01:00Z</time>
      </trkpt>
      <trkpt lat="46.431530" lon="14.254081">
        <ele>1141.7808</ele>
        <time>2016-08-04T12:01:03Z</time>
      </trkpt>
      <trkpt lat="46.431533" lon="14.254124">
        <ele>1141.476</ele>
        <time>2016-08-04T12:01:06Z</time>
      </trkpt>
      <trkpt lat="46.431543" lon="14.254242">
        <ele>1140.8664</ele>
        <time>2016-08-04T12:01:11Z</time>
      </trkpt>
      <trkpt lat="46.431522" lon="14.254290">
        <ele>1140.2568</ele>
        <time>2016-08-04T12:01:15Z</time>
      </trkpt>
      <trkpt lat="46.431623" lon="14.254407">
        <ele>1139.952</ele>
        <time>2016-08-04T12:01:19Z</time>
      </trkpt>
      <trkpt lat="46.431675" lon="14.254447">
        <ele>1139.3424</ele>
        <time>2016-08-04T12:01:22Z</time>
      </trkpt>
      <trkpt lat="46.431684" lon="14.254491">
        <ele>1138.7328</ele>
        <time>2016-08-04T12:01:25Z</time>
      </trkpt>
      <trkpt lat="46.431695" lon="14.254514">
        <ele>1138.428</ele>
        <time>2016-08-04T12:01:26Z</time>
      </trkpt>
      <trkpt lat="46.431720" lon="14.254536">
        <ele>1138.1232</ele>
        <time>2016-08-04T12:01:30Z</time>
      </trkpt>
      <trkpt lat="46.431752" lon="14.254610">
        <ele>1137.8184</ele>
        <time>2016-08-04T12:01:34Z</time>
      </trkpt>
      <trkpt lat="46.431739" lon="14.254645">
        <ele>1137.5136</ele>
        <time>2016-08-04T12:01:38Z</time>
      </trkpt>
      <trkpt lat="46.431699" lon="14.254660">
        <ele>1137.5136</ele>
        <time>2016-08-04T12:01:39Z</time>
      </trkpt>
      <trkpt lat="46.431665" lon="14.254654">
        <ele>1136.904</ele>
        <time>2016-08-04T12:01:41Z</time>
      </trkpt>
      <trkpt lat="46.431664" lon="14.254678">
        <ele>1135.9896</ele>
        <time>2016-08-04T12:01:42Z</time>
      </trkpt>
      <trkpt lat="46.431491" lon="14.254731">
        <ele>1135.0752</ele>
        <time>2016-08-04T12:01:52Z</time>
      </trkpt>
      <trkpt lat="46.431403" lon="14.254738">
        <ele>1135.0752</ele>
        <time>2016-08-04T12:01:54Z</time>
      </trkpt>
      <trkpt lat="46.431377" lon="14.254743">
        <ele>1135.0752</ele>
        <time>2016-08-04T12:01:56Z</time>
      </trkpt>
      <trkpt lat="46.431351" lon="14.254775">
        <ele>1134.7704</ele>
        <time>2016-08-04T12:01:57Z</time>
      </trkpt>
      <trkpt lat="46.431362" lon="14.254949">
        <ele>1133.856</ele>
        <time>2016-08-04T12:02:05Z</time>
      </trkpt>
      <trkpt lat="46.431389" lon="14.254997">
        <ele>1133.5512</ele>
        <time>2016-08-04T12:02:08Z</time>
      </trkpt>
      <trkpt lat="46.431492" lon="14.255059">
        <ele>1133.2464</ele>
        <time>2016-08-04T12:02:09Z</time>
      </trkpt>
      <trkpt lat="46.431548" lon="14.255093">
        <ele>1132.9416</ele>
        <time>2016-08-04T12:02:12Z</time>
      </trkpt>
      <trkpt lat="46.431577" lon="14.255123">
        <ele>1132.332</ele>
        <time>2016-08-04T12:02:15Z</time>
      </trkpt>
      <trkpt lat="46.431687" lon="14.255214">
        <ele>1131.7224</ele>
        <time>2016-08-04T12:02:19Z</time>
      </trkpt>
      <trkpt lat="46.431621" lon="14.255233">
        <ele>1130.5032</ele>
        <time>2016-08-04T12:02:28Z</time>
      </trkpt>
      <trkpt lat="46.431638" lon="14.255254">
        <ele>1130.5032</ele>
        <time>2016-08-04T12:02:28Z</time>
      </trkpt>
      <trkpt lat="46.431606" lon="14.255270">
        <ele>1129.8936</ele>
        <time>2016-08-04T12:02:31Z</time>
      </trkpt>
      <trkpt lat="46.431608" lon="14.255287">
        <ele>1129.284</ele>
        <time>2016-08-04T12:02:32Z</time>
      </trkpt>
      <trkpt lat="46.431616" lon="14.255310">
        <ele>1128.9792</ele>
        <time>2016-08-04T12:02:35Z</time>
      </trkpt>
      <trkpt lat="46.431670" lon="14.255343">
        <ele>1128.3696</ele>
        <time>2016-08-04T12:02:36Z</time>
      </trkpt>
      <trkpt lat="46.431693" lon="14.255354">
        <ele>1128.0648</ele>
        <time>2016-08-04T12:02:38Z</time>
      </trkpt>
      <trkpt lat="46.431869" lon="14.255443">
        <ele>1127.1504</ele>
        <time>2016-08-04T12:02:43Z</time>
      </trkpt>
      <trkpt lat="46.431932" lon="14.255509">
        <ele>1125.9312</ele>
        <time>2016-08-04T12:02:50Z</time>
      </trkpt>
      <trkpt lat="46.431806" lon="14.255594">
        <ele>1124.712</ele>
        <time>2016-08-04T12:02:58Z</time>
      </trkpt>
      <trkpt lat="46.431753" lon="14.255592">
        <ele>1124.712</ele>
        <time>2016-08-04T12:02:59Z</time>
      </trkpt>
      <trkpt lat="46.431716" lon="14.255626">
        <ele>1124.1024</ele>
        <time>2016-08-04T12:03:02Z</time>
      </trkpt>
      <trkpt lat="46.431699" lon="14.255635">
        <ele>1123.7976</ele>
        <time>2016-08-04T12:03:03Z</time>
      </trkpt>
      <trkpt lat="46.431691" lon="14.255678">
        <ele>1123.4928</ele>
        <time>2016-08-04T12:03:06Z</time>
      </trkpt>
      <trkpt lat="46.431674" lon="14.255713">
        <ele>1122.8832</ele>
        <time>2016-08-04T12:03:09Z</time>
      </trkpt>
      <trkpt lat="46.431645" lon="14.255721">
        <ele>1122.5784</ele>
        <time>2016-08-04T12:03:10Z</time>
      </trkpt>
      <trkpt lat="46.431638" lon="14.255733">
        <ele>1122.2736</ele>
        <time>2016-08-04T12:03:11Z</time>
      </trkpt>
      <trkpt lat="46.431606" lon="14.255796">
        <ele>1121.664</ele>
        <time>2016-08-04T12:03:15Z</time>
      </trkpt>
      <trkpt lat="46.431703" lon="14.255941">
        <ele>1121.0544</ele>
        <time>2016-08-04T12:03:21Z</time>
      </trkpt>
      <trkpt lat="46.431653" lon="14.255963">
        <ele>1120.7496</ele>
        <time>2016-08-04T12:03:22Z</time>
      </trkpt>
      <trkpt lat="46.431609" lon="14.255985">
        <ele>1120.14</ele>
        <time>2016-08-04T12:03:25Z</time>
      </trkpt>
      <trkpt lat="46.431593" lon="14.255994">
        <ele>1120.14</ele>
        <time>2016-08-04T12:03:26Z</time>
      </trkpt>
      <trkpt lat="46.431570" lon="14.256013">
        <ele>1119.8352</ele>
        <time>2016-08-04T12:03:29Z</time>
      </trkpt>
      <trkpt lat="46.431557" lon="14.256017">
        <ele>1119.5304</ele>
        <time>2016-08-04T12:03:30Z</time>
      </trkpt>
      <trkpt lat="46.431578" lon="14.256049">
        <ele>1118.616</ele>
        <time>2016-08-04T12:03:34Z</time>
      </trkpt>
      <trkpt lat="46.431609" lon="14.256080">
        <ele>1118.3112</ele>
        <time>2016-08-04T12:03:37Z</time>
      </trkpt>
      <trkpt lat="46.431612" lon="14.256094">
        <ele>1118.3112</ele>
        <time>2016-08-04T12:03:37Z</time>
      </trkpt>
      <trkpt lat="46.431564" lon="14.256159">
        <ele>1117.7016</ele>
        <time>2016-08-04T12:03:41Z</time>
      </trkpt>
      <trkpt lat="46.431536" lon="14.256195">
        <ele>1117.092</ele>
        <time>2016-08-04T12:03:44Z</time>
      </trkpt>
      <trkpt lat="46.431511" lon="14.256304">
        <ele>1116.1776</ele>
        <time>2016-08-04T12:03:49Z</time>
      </trkpt>
      <trkpt lat="46.431507" lon="14.256315">
        <ele>1115.8728</ele>
        <time>2016-08-04T12:03:50Z</time>
      </trkpt>
      <trkpt lat="46.431528" lon="14.256337">
        <ele>1115.8728</ele>
        <time>2016-08-04T12:03:52Z</time>
      </trkpt>
      <trkpt lat="46.431551" lon="14.256370">
        <ele>1115.2632</ele>
        <time>2016-08-04T12:03:56Z</time>
      </trkpt>
      <trkpt lat="46.431532" lon="14.256399">
        <ele>1114.9584</ele>
        <time>2016-08-04T12:03:57Z</time>
      </trkpt>
      <trkpt lat="46.431530" lon="14.256407">
        <ele>1114.9584</ele>
        <time>2016-08-04T12:03:59Z</time>
      </trkpt>
      <trkpt lat="46.431526" lon="14.256432">
        <ele>1114.3488</ele>
        <time>2016-08-04T12:04:01Z</time>
      </trkpt>
      <trkpt lat="46.431515" lon="14.256443">
        <ele>1114.044</ele>
        <time>2016-08-04T12:04:01Z</time>
      </trkpt>
      <trkpt lat="46.431489" lon="14.256446">
        <ele>1113.7392</ele>
        <time>2016-08-04T12:04:03Z</time>
      </trkpt>
      <trkpt lat="46.431457" lon="14.256474">
        <ele>1113.1296</ele>
        <time>2016-08-04T12:04:07Z</time>
      </trkpt>
      <trkpt lat="46.431472" lon="14.256510">
        <ele>1113.1296</ele>
        <time>2016-08-04T12:04:08Z</time>
      </trkpt>
      <trkpt lat="46.431479" lon="14.256537">
        <ele>1112.8248</ele>
        <time>2016-08-04T12:04:11Z</time>
      </trkpt>
      <trkpt lat="46.431419" lon="14.256581">
        <ele>1111.6056</ele>
        <time>2016-08-04T12:04:17Z</time>
      </trkpt>
      <trkpt lat="46.431443" lon="14.256599">
        <ele>1110.6912</ele>
        <time>2016-08-04T12:04:20Z</time>
      </trkpt>
      <trkpt lat="46.431456" lon="14.256606">
        <ele>1110.3864</ele>
        <time>2016-08-04T12:04:20Z</time>
      </trkpt>
      <trkpt lat="46.431476" lon="14.256611">
        <ele>1109.472</ele>
        <time>2016-08-04T12:04:24Z</time>
      </trkpt>
      <trkpt lat="46.431446" lon="14.256610">
        <ele>1109.1672</ele>
        <time>2016-08-04T12:04:26Z</time>
      </trkpt>
      <trkpt lat="46.431362" lon="14.256614">
        <ele>1108.2528</ele>
        <time>2016-08-04T12:04:32Z</time>
      </trkpt>
      <trkpt lat="46.431404" lon="14.256671">
        <ele>1108.2528</ele>
        <time>2016-08-04T12:04:35Z</time>
      </trkpt>
      <trkpt lat="46.431497" lon="14.256736">
        <ele>1107.948</ele>
        <time>2016-08-04T12:04:36Z</time>
      </trkpt>
      <trkpt lat="46.431554" lon="14.256781">
        <ele>1107.6432</ele>
        <time>2016-08-04T12:04:39Z</time>
      </trkpt>
      <trkpt lat="46.431647" lon="14.256838">
        <ele>1107.3384</ele>
        <time>2016-08-04T12:04:42Z</time>
      </trkpt>
      <trkpt lat="46.431651" lon="14.256850">
        <ele>1107.0336</ele>
        <time>2016-08-04T12:04:43Z</time>
      </trkpt>
      <trkpt lat="46.431644" lon="14.256883">
        <ele>1106.1192</ele>
        <time>2016-08-04T12:04:47Z</time>
      </trkpt>
      <trkpt lat="46.431653" lon="14.256895">
        <ele>1105.2048</ele>
        <time>2016-08-04T12:04:51Z</time>
      </trkpt>
      <trkpt lat="46.431663" lon="14.256897">
        <ele>1104.9</ele>
        <time>2016-08-04T12:04:51Z</time>
      </trkpt>
      <trkpt lat="46.431696" lon="14.256906">
        <ele>1104.2904</ele>
        <time>2016-08-04T12:04:55Z</time>
      </trkpt>
      <trkpt lat="46.431690" lon="14.256945">
        <ele>1103.9856</ele>
        <time>2016-08-04T12:04:59Z</time>
      </trkpt>
      <trkpt lat="46.431650" lon="14.256988">
        <ele>1103.0712</ele>
        <time>2016-08-04T12:05:05Z</time>
      </trkpt>
      <trkpt lat="46.431662" lon="14.257056">
        <ele>1102.7664</ele>
        <time>2016-08-04T12:05:09Z</time>
      </trkpt>
      <trkpt lat="46.431662" lon="14.257072">
        <ele>1102.4616</ele>
        <time>2016-08-04T12:05:10Z</time>
      </trkpt>
      <trkpt lat="46.431702" lon="14.257125">
        <ele>1101.5472</ele>
        <time>2016-08-04T12:05:13Z</time>
      </trkpt>
      <trkpt lat="46.431756" lon="14.257230">
        <ele>1100.328</ele>
        <time>2016-08-04T12:05:18Z</time>
      </trkpt>
      <trkpt lat="46.431813" lon="14.257306">
        <ele>1099.7184</ele>
        <time>2016-08-04T12:05:22Z</time>
      </trkpt>
      <trkpt lat="46.431804" lon="14.257331">
        <ele>1099.7184</ele>
        <time>2016-08-04T12:05:25Z</time>
      </trkpt>
      <trkpt lat="46.431766" lon="14.257373">
        <ele>1099.4136</ele>
        <time>2016-08-04T12:05:30Z</time>
      </trkpt>
      <trkpt lat="46.431765" lon="14.257435">
        <ele>1099.1088</ele>
        <time>2016-08-04T12:05:36Z</time>
      </trkpt>
      <trkpt lat="46.431786" lon="14.257469">
        <ele>1098.804</ele>
        <time>2016-08-04T12:05:38Z</time>
      </trkpt>
      <trkpt lat="46.431698" lon="14.257506">
        <ele>1098.804</ele>
        <time>2016-08-04T12:05:42Z</time>
      </trkpt>
      <trkpt lat="46.431671" lon="14.257524">
        <ele>1098.4992</ele>
        <time>2016-08-04T12:05:45Z</time>
      </trkpt>
      <trkpt lat="46.431654" lon="14.257531">
        <ele>1098.1944</ele>
        <time>2016-08-04T12:05:45Z</time>
      </trkpt>
      <trkpt lat="46.431683" lon="14.257610">
        <ele>1097.5848</ele>
        <time>2016-08-04T12:05:49Z</time>
      </trkpt>
      <trkpt lat="46.431713" lon="14.257655">
        <ele>1097.28</ele>
        <time>2016-08-04T12:05:52Z</time>
      </trkpt>
      <trkpt lat="46.431711" lon="14.257723">
        <ele>1096.6704</ele>
        <time>2016-08-04T12:05:57Z</time>
      </trkpt>
      <trkpt lat="46.431680" lon="14.257740">
        <ele>1096.0608</ele>
        <time>2016-08-04T12:06:00Z</time>
      </trkpt>
      <trkpt lat="46.431672" lon="14.257746">
        <ele>1095.756</ele>
        <time>2016-08-04T12:06:00Z</time>
      </trkpt>
      <trkpt lat="46.431706" lon="14.257780">
        <ele>1095.4512</ele>
        <time>2016-08-04T12:06:03Z</time>
      </trkpt>
      <trkpt lat="46.431689" lon="14.257781">
        <ele>1095.1464</ele>
        <time>2016-08-04T12:06:04Z</time>
      </trkpt>
      <trkpt lat="46.431683" lon="14.257808">
        <ele>1095.1464</ele>
        <time>2016-08-04T12:06:07Z</time>
      </trkpt>
      <trkpt lat="46.431607" lon="14.257814">
        <ele>1094.5368</ele>
        <time>2016-08-04T12:06:14Z</time>
      </trkpt>
      <trkpt lat="46.431649" lon="14.257842">
        <ele>1093.9272</ele>
        <time>2016-08-04T12:06:19Z</time>
      </trkpt>
      <trkpt lat="46.431728" lon="14.257938">
        <ele>1093.0128</ele>
        <time>2016-08-04T12:06:27Z</time>
      </trkpt>
      <trkpt lat="46.431780" lon="14.257961">
        <ele>1092.0984</ele>
        <time>2016-08-04T12:06:35Z</time>
      </trkpt>
      <trkpt lat="46.431826" lon="14.257954">
        <ele>1091.4888</ele>
        <time>2016-08-04T12:06:38Z</time>
      </trkpt>
      <trkpt lat="46.431839" lon="14.257973">
        <ele>1090.8792</ele>
        <time>2016-08-04T12:06:43Z</time>
      </trkpt>
      <trkpt lat="46.431824" lon="14.258011">
        <ele>1089.66</ele>
        <time>2016-08-04T12:06:54Z</time>
      </trkpt>
      <trkpt lat="46.431735" lon="14.258037">
        <ele>1089.0504</ele>
        <time>2016-08-04T12:06:58Z</time>
      </trkpt>
      <trkpt lat="46.431724" lon="14.258089">
        <ele>1088.7456</ele>
        <time>2016-08-04T12:07:02Z</time>
      </trkpt>
      <trkpt lat="46.431717" lon="14.258098">
        <ele>1088.4408</ele>
        <time>2016-08-04T12:07:02Z</time>
      </trkpt>
      <trkpt lat="46.431696" lon="14.258115">
        <ele>1088.136</ele>
        <time>2016-08-04T12:07:06Z</time>
      </trkpt>
      <trkpt lat="46.431675" lon="14.258123">
        <ele>1087.5264</ele>
        <time>2016-08-04T12:07:08Z</time>
      </trkpt>
      <trkpt lat="46.431665" lon="14.258138">
        <ele>1087.2216</ele>
        <time>2016-08-04T12:07:10Z</time>
      </trkpt>
      <trkpt lat="46.431670" lon="14.258153">
        <ele>1086.9168</ele>
        <time>2016-08-04T12:07:13Z</time>
      </trkpt>
      <trkpt lat="46.431670" lon="14.258164">
        <ele>1086.9168</ele>
        <time>2016-08-04T12:07:16Z</time>
      </trkpt>
      <trkpt lat="46.431681" lon="14.258170">
        <ele>1086.3072</ele>
        <time>2016-08-04T12:07:17Z</time>
      </trkpt>
      <trkpt lat="46.431752" lon="14.258260">
        <ele>1085.3928</ele>
        <time>2016-08-04T12:07:25Z</time>
      </trkpt>
      <trkpt lat="46.431762" lon="14.258294">
        <ele>1085.088</ele>
        <time>2016-08-04T12:07:26Z</time>
      </trkpt>
      <trkpt lat="46.431803" lon="14.258338">
        <ele>1084.4784</ele>
        <time>2016-08-04T12:07:29Z</time>
      </trkpt>
      <trkpt lat="46.431809" lon="14.258361">
        <ele>1083.8688</ele>
        <time>2016-08-04T12:07:32Z</time>
      </trkpt>
      <trkpt lat="46.431810" lon="14.258367">
        <ele>1083.8688</ele>
        <time>2016-08-04T12:07:33Z</time>
      </trkpt>
      <trkpt lat="46.431816" lon="14.258374">
        <ele>1083.8688</ele>
        <time>2016-08-04T12:07:33Z</time>
      </trkpt>
      <trkpt lat="46.431799" lon="14.258405">
        <ele>1082.9544</ele>
        <time>2016-08-04T12:07:44Z</time>
      </trkpt>
      <trkpt lat="46.431778" lon="14.258394">
        <ele>1082.3448</ele>
        <time>2016-08-04T12:07:52Z</time>
      </trkpt>
      <trkpt lat="46.431797" lon="14.258407">
        <ele>1082.04</ele>
        <time>2016-08-04T12:07:53Z</time>
      </trkpt>
      <trkpt lat="46.431753" lon="14.258392">
        <ele>1081.7352</ele>
        <time>2016-08-04T12:07:56Z</time>
      </trkpt>
      <trkpt lat="46.431753" lon="14.258395">
        <ele>1081.1256</ele>
        <time>2016-08-04T12:07:59Z</time>
      </trkpt>
      <trkpt lat="46.431749" lon="14.258392">
        <ele>1080.8208</ele>
        <time>2016-08-04T12:08:00Z</time>
      </trkpt>
      <trkpt lat="46.431739" lon="14.258387">
        <ele>1080.516</ele>
        <time>2016-08-04T12:08:04Z</time>
      </trkpt>
      <trkpt lat="46.431755" lon="14.258430">
        <ele>1079.6016</ele>
        <time>2016-08-04T12:08:11Z</time>
      </trkpt>
      <trkpt lat="46.431844" lon="14.258483">
        <ele>1078.6872</ele>
        <time>2016-08-04T12:08:15Z</time>
      </trkpt>
      <trkpt lat="46.431920" lon="14.258518">
        <ele>1077.468</ele>
        <time>2016-08-04T12:08:18Z</time>
      </trkpt>
      <trkpt lat="46.431977" lon="14.258545">
        <ele>1077.468</ele>
        <time>2016-08-04T12:08:19Z</time>
      </trkpt>
      <trkpt lat="46.432022" lon="14.258575">
        <ele>1076.8584</ele>
        <time>2016-08-04T12:08:20Z</time>
      </trkpt>
      <trkpt lat="46.432024" lon="14.258592">
        <ele>1076.8584</ele>
        <time>2016-08-04T12:08:22Z</time>
      </trkpt>
      <trkpt lat="46.432012" lon="14.258611">
        <ele>1076.8584</ele>
        <time>2016-08-04T12:08:23Z</time>
      </trkpt>
      <trkpt lat="46.431962" lon="14.258606">
        <ele>1076.5536</ele>
        <time>2016-08-04T12:08:27Z</time>
      </trkpt>
      <trkpt lat="46.431971" lon="14.258603">
        <ele>1076.2488</ele>
        <time>2016-08-04T12:08:27Z</time>
      </trkpt>
      <trkpt lat="46.431946" lon="14.258625">
        <ele>1076.2488</ele>
        <time>2016-08-04T12:08:31Z</time>
      </trkpt>
      <trkpt lat="46.431896" lon="14.258619">
        <ele>1075.944</ele>
        <time>2016-08-04T12:08:34Z</time>
      </trkpt>
      <trkpt lat="46.431872" lon="14.258613">
        <ele>1075.944</ele>
        <time>2016-08-04T12:08:38Z</time>
      </trkpt>
      <trkpt lat="46.431982" lon="14.258639">
        <ele>1075.6392</ele>
        <time>2016-08-04T12:08:51Z</time>
      </trkpt>
      <trkpt lat="46.431860" lon="14.258719">
        <ele>1075.3344</ele>
        <time>2016-08-04T12:08:56Z</time>
      </trkpt>
      <trkpt lat="46.431843" lon="14.258782">
        <ele>1074.1152</ele>
        <time>2016-08-04T12:09:01Z</time>
      </trkpt>
      <trkpt lat="46.431940" lon="14.258871">
        <ele>1073.5056</ele>
        <time>2016-08-04T12:09:08Z</time>
      </trkpt>
      <trkpt lat="46.431985" lon="14.258907">
        <ele>1073.5056</ele>
        <time>2016-08-04T12:09:09Z</time>
      </trkpt>
      <trkpt lat="46.431975" lon="14.258943">
        <ele>1072.896</ele>
        <time>2016-08-04T12:09:13Z</time>
      </trkpt>
      <trkpt lat="46.431986" lon="14.258949">
        <ele>1072.896</ele>
        <time>2016-08-04T12:09:14Z</time>
      </trkpt>
      <trkpt lat="46.431951" lon="14.258968">
        <ele>1072.2864</ele>
        <time>2016-08-04T12:09:18Z</time>
      </trkpt>
      <trkpt lat="46.431939" lon="14.258972">
        <ele>1072.2864</ele>
        <time>2016-08-04T12:09:20Z</time>
      </trkpt>
      <trkpt lat="46.431925" lon="14.258978">
        <ele>1071.9816</ele>
        <time>2016-08-04T12:09:21Z</time>
      </trkpt>
      <trkpt lat="46.431926" lon="14.258987">
        <ele>1071.6768</ele>
        <time>2016-08-04T12:09:21Z</time>
      </trkpt>
      <trkpt lat="46.431926" lon="14.258995">
        <ele>1071.6768</ele>
        <time>2016-08-04T12:09:23Z</time>
      </trkpt>
      <trkpt lat="46.431852" lon="14.259047">
        <ele>1070.4576</ele>
        <time>2016-08-04T12:09:29Z</time>
      </trkpt>
      <trkpt lat="46.431860" lon="14.259073">
        <ele>1070.4576</ele>
        <time>2016-08-04T12:09:32Z</time>
      </trkpt>
      <trkpt lat="46.431869" lon="14.259093">
        <ele>1070.1528</ele>
        <time>2016-08-04T12:09:33Z</time>
      </trkpt>
      <trkpt lat="46.431922" lon="14.259139">
        <ele>1069.5432</ele>
        <time>2016-08-04T12:09:36Z</time>
      </trkpt>
      <trkpt lat="46.431950" lon="14.259207">
        <ele>1068.6288</ele>
        <time>2016-08-04T12:09:40Z</time>
      </trkpt>
      <trkpt lat="46.431948" lon="14.259225">
        <ele>1068.6288</ele>
        <time>2016-08-04T12:09:41Z</time>
      </trkpt>
      <trkpt lat="46.431995" lon="14.259303">
        <ele>1068.324</ele>
        <time>2016-08-04T12:09:44Z</time>
      </trkpt>
      <trkpt lat="46.432027" lon="14.259338">
        <ele>1068.324</ele>
        <time>2016-08-04T12:09:47Z</time>
      </trkpt>
      <trkpt lat="46.432046" lon="14.259367">
        <ele>1067.4096</ele>
        <time>2016-08-04T12:09:48Z</time>
      </trkpt>
      <trkpt lat="46.432048" lon="14.259414">
        <ele>1066.4952</ele>
        <time>2016-08-04T12:09:52Z</time>
      </trkpt>
      <trkpt lat="46.432011" lon="14.259424">
        <ele>1066.4952</ele>
        <time>2016-08-04T12:09:54Z</time>
      </trkpt>
      <trkpt lat="46.432003" lon="14.259430">
        <ele>1065.8856</ele>
        <time>2016-08-04T12:09:55Z</time>
      </trkpt>
      <trkpt lat="46.432008" lon="14.259459">
        <ele>1065.276</ele>
        <time>2016-08-04T12:09:58Z</time>
      </trkpt>
      <trkpt lat="46.431971" lon="14.259479">
        <ele>1064.0568</ele>
        <time>2016-08-04T12:10:03Z</time>
      </trkpt>
      <trkpt lat="46.431939" lon="14.259516">
        <ele>1063.1424</ele>
        <time>2016-08-04T12:10:07Z</time>
      </trkpt>
      <trkpt lat="46.431924" lon="14.259568">
        <ele>1062.228</ele>
        <time>2016-08-04T12:10:11Z</time>
      </trkpt>
      <trkpt lat="46.431906" lon="14.259578">
        <ele>1061.9232</ele>
        <time>2016-08-04T12:10:11Z</time>
      </trkpt>
      <trkpt lat="46.431878" lon="14.259589">
        <ele>1061.9232</ele>
        <time>2016-08-04T12:10:12Z</time>
      </trkpt>
      <trkpt lat="46.431758" lon="14.259767">
        <ele>1061.3136</ele>
        <time>2016-08-04T12:10:26Z</time>
      </trkpt>
      <trkpt lat="46.431766" lon="14.259790">
        <ele>1061.0088</ele>
        <time>2016-08-04T12:10:27Z</time>
      </trkpt>
      <trkpt lat="46.431762" lon="14.259850">
        <ele>1060.704</ele>
        <time>2016-08-04T12:10:31Z</time>
      </trkpt>
      <trkpt lat="46.431741" lon="14.259860">
        <ele>1060.704</ele>
        <time>2016-08-04T12:10:33Z</time>
      </trkpt>
      <trkpt lat="46.431710" lon="14.259886">
        <ele>1060.704</ele>
        <time>2016-08-04T12:10:34Z</time>
      </trkpt>
      <trkpt lat="46.431625" lon="14.259953">
        <ele>1060.3992</ele>
        <time>2016-08-04T12:10:42Z</time>
      </trkpt>
      <trkpt lat="46.431655" lon="14.260008">
        <ele>1060.0944</ele>
        <time>2016-08-04T12:10:46Z</time>
      </trkpt>
      <trkpt lat="46.431665" lon="14.260047">
        <ele>1060.0944</ele>
        <time>2016-08-04T12:10:49Z</time>
      </trkpt>
      <trkpt lat="46.431637" lon="14.260069">
        <ele>1060.0944</ele>
        <time>2016-08-04T12:10:50Z</time>
      </trkpt>
      <trkpt lat="46.431608" lon="14.260087">
        <ele>1060.0944</ele>
        <time>2016-08-04T12:10:53Z</time>
      </trkpt>
      <trkpt lat="46.431590" lon="14.260112">
        <ele>1059.7896</ele>
        <time>2016-08-04T12:10:54Z</time>
      </trkpt>
      <trkpt lat="46.431599" lon="14.260137">
        <ele>1059.7896</ele>
        <time>2016-08-04T12:10:56Z</time>
      </trkpt>
      <trkpt lat="46.431626" lon="14.260184">
        <ele>1059.18</ele>
        <time>2016-08-04T12:10:58Z</time>
      </trkpt>
      <trkpt lat="46.431647" lon="14.260219">
        <ele>1058.8752</ele>
        <time>2016-08-04T12:11:01Z</time>
      </trkpt>
    </trkseg>
  </trk>
</gpx>
